<?xml version="1.0" encoding="UTF-8" standalone="no" ?>
<gpx xmlns="http://www.topografix.com/GPX/1/1" xmlns:xsi="http://www.w3.org/2001/XMLSchema-instance" xsi:schemaLocation="http://www.topografix.com/GPX/1/1 http://www.topografix.com/GPX/1/1/gpx.xsd" version="1.1" creator="VisuGPX - https://www.visugpx.com">
  <metadata>
    <name>TransPyr_J5</name>
  </metadata>
  <trk>
    <name><![CDATA[TransPyr_J5]]></name>
    <extensions>
      <line xmlns="http://www.topografix.com/GPX/gpx_style/0/2">
        <color>0000FF</color>
        <width>4</width>
      </line>
    </extensions>
    <trkseg>
      <trkpt lat="42.95509" lon="-0.22351">
        <ele>908.6</ele>
        <extensions>
          <visugpx:TrkExtension xmlns:visugpx="https://www.visugpx.com/editgpx/">
            <visugpx:node>2</visugpx:node>
            </visugpx:TrkExtension>
        </extensions>
      </trkpt>
      <trkpt lat="42.95508" lon="-0.22309">
        <ele>905.8</ele>
      </trkpt>
      <trkpt lat="42.95512" lon="-0.22272">
        <ele>903.4</ele>
      </trkpt>
      <trkpt lat="42.95512" lon="-0.2224">
        <ele>901.2</ele>
      </trkpt>
      <trkpt lat="42.95533" lon="-0.22199">
        <ele>898.9</ele>
      </trkpt>
      <trkpt lat="42.95535" lon="-0.22191">
        <ele>898.5</ele>
      </trkpt>
      <trkpt lat="42.95533" lon="-0.22132">
        <ele>895</ele>
      </trkpt>
      <trkpt lat="42.95547" lon="-0.22067">
        <ele>894.3</ele>
      </trkpt>
      <trkpt lat="42.95553" lon="-0.22048">
        <ele>893.8</ele>
      </trkpt>
      <trkpt lat="42.95617" lon="-0.2191">
        <ele>889.7</ele>
      </trkpt>
      <trkpt lat="42.95634" lon="-0.21872">
        <ele>888.2</ele>
      </trkpt>
      <trkpt lat="42.95638" lon="-0.21859">
        <ele>887.9</ele>
      </trkpt>
      <trkpt lat="42.95638" lon="-0.2178">
        <ele>885.1</ele>
      </trkpt>
      <trkpt lat="42.95635" lon="-0.21703">
        <ele>882.4</ele>
      </trkpt>
      <trkpt lat="42.95624" lon="-0.21647">
        <ele>880.3</ele>
      </trkpt>
      <trkpt lat="42.95623" lon="-0.21582">
        <ele>878.5</ele>
      </trkpt>
      <trkpt lat="42.95624" lon="-0.21569">
        <ele>878.3</ele>
      </trkpt>
      <trkpt lat="42.95629" lon="-0.21545">
        <ele>877.6</ele>
      </trkpt>
      <trkpt lat="42.95647" lon="-0.21515">
        <ele>882.72</ele>
        <time>2025-03-03T19:27:55Z</time>
      </trkpt>
      <trkpt lat="42.95656" lon="-0.21527">
        <ele>882.38</ele>
        <time>2025-03-03T19:27:57Z</time>
      </trkpt>
      <trkpt lat="42.9568" lon="-0.21547">
        <ele>882</ele>
        <time>2025-03-03T19:27:58Z</time>
      </trkpt>
      <trkpt lat="42.95703" lon="-0.21558">
        <ele>882.65</ele>
        <time>2025-03-03T19:27:59Z</time>
      </trkpt>
      <trkpt lat="42.95727" lon="-0.21565">
        <ele>885.17</ele>
        <time>2025-03-03T19:28:01Z</time>
      </trkpt>
      <trkpt lat="42.9574" lon="-0.2156">
        <ele>887.21</ele>
        <time>2025-03-03T19:28:02Z</time>
      </trkpt>
      <trkpt lat="42.95775" lon="-0.21529">
        <ele>892.6</ele>
        <time>2025-03-03T19:28:03Z</time>
      </trkpt>
      <trkpt lat="42.95798" lon="-0.21517">
        <ele>896.42</ele>
        <time>2025-03-03T19:28:05Z</time>
      </trkpt>
      <trkpt lat="42.95811" lon="-0.21502">
        <ele>899.18</ele>
        <time>2025-03-03T19:28:06Z</time>
      </trkpt>
      <trkpt lat="42.95841" lon="-0.21446">
        <ele>905.39</ele>
        <time>2025-03-03T19:28:08Z</time>
      </trkpt>
      <trkpt lat="42.95845" lon="-0.21436">
        <ele>905.61</ele>
        <time>2025-03-03T19:28:09Z</time>
      </trkpt>
      <trkpt lat="42.95848" lon="-0.21424">
        <ele>904.91</ele>
        <time>2025-03-03T19:28:10Z</time>
      </trkpt>
      <trkpt lat="42.95852" lon="-0.21387">
        <ele>902.17</ele>
        <time>2025-03-03T19:28:12Z</time>
      </trkpt>
      <trkpt lat="42.95855" lon="-0.21371">
        <ele>902.58</ele>
        <time>2025-03-03T19:28:13Z</time>
      </trkpt>
      <trkpt lat="42.95861" lon="-0.21359">
        <ele>903.88</ele>
        <time>2025-03-03T19:28:14Z</time>
      </trkpt>
      <trkpt lat="42.95869" lon="-0.21351">
        <ele>905.6</ele>
        <time>2025-03-03T19:28:16Z</time>
      </trkpt>
      <trkpt lat="42.95886" lon="-0.21336">
        <ele>911.12</ele>
        <time>2025-03-03T19:28:17Z</time>
      </trkpt>
      <trkpt lat="42.95898" lon="-0.21323">
        <ele>912.74</ele>
        <time>2025-03-03T19:28:19Z</time>
      </trkpt>
      <trkpt lat="42.95931" lon="-0.21266">
        <ele>913.97</ele>
        <time>2025-03-03T19:28:20Z</time>
      </trkpt>
      <trkpt lat="42.96005" lon="-0.2118">
        <ele>921.72</ele>
        <time>2025-03-03T19:28:21Z</time>
      </trkpt>
      <trkpt lat="42.96013" lon="-0.21164">
        <ele>921.07</ele>
        <time>2025-03-03T19:28:23Z</time>
      </trkpt>
      <trkpt lat="42.96022" lon="-0.21135">
        <ele>920.48</ele>
        <time>2025-03-03T19:28:24Z</time>
      </trkpt>
      <trkpt lat="42.96026" lon="-0.21128">
        <ele>920.57</ele>
        <time>2025-03-03T19:28:25Z</time>
      </trkpt>
      <trkpt lat="42.96031" lon="-0.21123">
        <ele>921.06</ele>
        <time>2025-03-03T19:28:27Z</time>
      </trkpt>
      <trkpt lat="42.9604" lon="-0.2112">
        <ele>922.68</ele>
        <time>2025-03-03T19:28:28Z</time>
      </trkpt>
      <trkpt lat="42.9605" lon="-0.21122">
        <ele>924.97</ele>
        <time>2025-03-03T19:28:30Z</time>
      </trkpt>
      <trkpt lat="42.96058" lon="-0.21129">
        <ele>927.26</ele>
        <time>2025-03-03T19:28:31Z</time>
      </trkpt>
      <trkpt lat="42.96062" lon="-0.21141">
        <ele>929.09</ele>
        <time>2025-03-03T19:28:32Z</time>
      </trkpt>
      <trkpt lat="42.96063" lon="-0.21149">
        <ele>929.73</ele>
        <time>2025-03-03T19:28:34Z</time>
      </trkpt>
      <trkpt lat="42.96062" lon="-0.21302">
        <ele>941.02</ele>
        <time>2025-03-03T19:28:35Z</time>
      </trkpt>
      <trkpt lat="42.9606" lon="-0.21323">
        <ele>941.77</ele>
        <time>2025-03-03T19:28:36Z</time>
      </trkpt>
      <trkpt lat="42.96052" lon="-0.2136">
        <ele>944.34</ele>
        <time>2025-03-03T19:28:38Z</time>
      </trkpt>
      <trkpt lat="42.96052" lon="-0.21374">
        <ele>944.6</ele>
        <time>2025-03-03T19:28:39Z</time>
      </trkpt>
      <trkpt lat="42.96057" lon="-0.21396">
        <ele>945.35</ele>
        <time>2025-03-03T19:28:41Z</time>
      </trkpt>
      <trkpt lat="42.96063" lon="-0.21408">
        <ele>946.43</ele>
        <time>2025-03-03T19:28:42Z</time>
      </trkpt>
      <trkpt lat="42.96088" lon="-0.21441">
        <ele>951.73</ele>
        <time>2025-03-03T19:28:43Z</time>
      </trkpt>
      <trkpt lat="42.96096" lon="-0.21463">
        <ele>955.43</ele>
        <time>2025-03-03T19:28:45Z</time>
      </trkpt>
      <trkpt lat="42.96099" lon="-0.2149">
        <ele>957.51</ele>
        <time>2025-03-03T19:28:46Z</time>
      </trkpt>
      <trkpt lat="42.96096" lon="-0.21557">
        <ele>959.8</ele>
        <time>2025-03-03T19:28:47Z</time>
      </trkpt>
      <trkpt lat="42.96088" lon="-0.21647">
        <ele>963.28</ele>
        <time>2025-03-03T19:28:49Z</time>
      </trkpt>
      <trkpt lat="42.96091" lon="-0.217">
        <ele>969.53</ele>
        <time>2025-03-03T19:28:50Z</time>
      </trkpt>
      <trkpt lat="42.96089" lon="-0.21725">
        <ele>971.55</ele>
        <time>2025-03-03T19:28:51Z</time>
      </trkpt>
      <trkpt lat="42.96082" lon="-0.21751">
        <ele>972.7</ele>
        <time>2025-03-03T19:28:53Z</time>
      </trkpt>
      <trkpt lat="42.96079" lon="-0.21772">
        <ele>973.2</ele>
        <time>2025-03-03T19:28:54Z</time>
      </trkpt>
      <trkpt lat="42.96079" lon="-0.21787">
        <ele>974.26</ele>
        <time>2025-03-03T19:28:56Z</time>
      </trkpt>
      <trkpt lat="42.96084" lon="-0.21832">
        <ele>979.9</ele>
        <time>2025-03-03T19:28:57Z</time>
      </trkpt>
      <trkpt lat="42.96082" lon="-0.2185">
        <ele>980.29</ele>
        <time>2025-03-03T19:28:58Z</time>
      </trkpt>
      <trkpt lat="42.96067" lon="-0.21895">
        <ele>978.53</ele>
        <time>2025-03-03T19:29:00Z</time>
      </trkpt>
      <trkpt lat="42.96065" lon="-0.21912">
        <ele>977.02</ele>
        <time>2025-03-03T19:29:01Z</time>
      </trkpt>
      <trkpt lat="42.9608" lon="-0.21981">
        <ele>978.01</ele>
        <time>2025-03-03T19:29:02Z</time>
      </trkpt>
      <trkpt lat="42.96083" lon="-0.22003">
        <ele>980.24</ele>
        <time>2025-03-03T19:29:04Z</time>
      </trkpt>
      <trkpt lat="42.96085" lon="-0.2203">
        <ele>982.82</ele>
        <time>2025-03-03T19:29:05Z</time>
      </trkpt>
      <trkpt lat="42.96089" lon="-0.22043">
        <ele>984.95</ele>
        <time>2025-03-03T19:29:07Z</time>
      </trkpt>
      <trkpt lat="42.96098" lon="-0.22052">
        <ele>988.6</ele>
        <time>2025-03-03T19:29:08Z</time>
      </trkpt>
      <trkpt lat="42.96104" lon="-0.22054">
        <ele>990.95</ele>
        <time>2025-03-03T19:29:09Z</time>
      </trkpt>
      <trkpt lat="42.96112" lon="-0.22052">
        <ele>994.21</ele>
        <time>2025-03-03T19:29:11Z</time>
      </trkpt>
      <trkpt lat="42.96117" lon="-0.22049">
        <ele>995.72</ele>
        <time>2025-03-03T19:29:12Z</time>
      </trkpt>
      <trkpt lat="42.96123" lon="-0.22037">
        <ele>997.74</ele>
        <time>2025-03-03T19:29:13Z</time>
      </trkpt>
      <trkpt lat="42.96124" lon="-0.22016">
        <ele>995.94</ele>
        <time>2025-03-03T19:29:15Z</time>
      </trkpt>
      <trkpt lat="42.96118" lon="-0.21986">
        <ele>988.97</ele>
        <time>2025-03-03T19:29:16Z</time>
      </trkpt>
      <trkpt lat="42.96117" lon="-0.21964">
        <ele>986.73</ele>
        <time>2025-03-03T19:29:18Z</time>
      </trkpt>
      <trkpt lat="42.9612" lon="-0.21948">
        <ele>987.2</ele>
        <time>2025-03-03T19:29:19Z</time>
      </trkpt>
      <trkpt lat="42.96127" lon="-0.21935">
        <ele>989.49</ele>
        <time>2025-03-03T19:29:20Z</time>
      </trkpt>
      <trkpt lat="42.96137" lon="-0.21926">
        <ele>991.69</ele>
        <time>2025-03-03T19:29:22Z</time>
      </trkpt>
      <trkpt lat="42.96143" lon="-0.21924">
        <ele>992.81</ele>
        <time>2025-03-03T19:29:23Z</time>
      </trkpt>
      <trkpt lat="42.96152" lon="-0.21923">
        <ele>994.81</ele>
        <time>2025-03-03T19:29:24Z</time>
      </trkpt>
      <trkpt lat="42.96207" lon="-0.21938">
        <ele>1010.72</ele>
        <time>2025-03-03T19:29:26Z</time>
      </trkpt>
      <trkpt lat="42.96214" lon="-0.21938">
        <ele>1013.66</ele>
        <time>2025-03-03T19:29:27Z</time>
      </trkpt>
      <trkpt lat="42.96225" lon="-0.21931">
        <ele>1017.18</ele>
        <time>2025-03-03T19:29:29Z</time>
      </trkpt>
      <trkpt lat="42.96231" lon="-0.21918">
        <ele>1018.21</ele>
        <time>2025-03-03T19:29:30Z</time>
      </trkpt>
      <trkpt lat="42.96232" lon="-0.2191">
        <ele>1018.38</ele>
        <time>2025-03-03T19:29:31Z</time>
      </trkpt>
      <trkpt lat="42.9623" lon="-0.21894">
        <ele>1017.84</ele>
        <time>2025-03-03T19:29:33Z</time>
      </trkpt>
      <trkpt lat="42.96222" lon="-0.21873">
        <ele>1015.38</ele>
        <time>2025-03-03T19:29:34Z</time>
      </trkpt>
      <trkpt lat="42.9622" lon="-0.21861">
        <ele>1014.35</ele>
        <time>2025-03-03T19:29:35Z</time>
      </trkpt>
      <trkpt lat="42.96223" lon="-0.21842">
        <ele>1013.7</ele>
        <time>2025-03-03T19:29:37Z</time>
      </trkpt>
      <trkpt lat="42.96235" lon="-0.21808">
        <ele>1014.92</ele>
        <time>2025-03-03T19:29:38Z</time>
      </trkpt>
      <trkpt lat="42.96244" lon="-0.21795">
        <ele>1016.09</ele>
        <time>2025-03-03T19:29:40Z</time>
      </trkpt>
      <trkpt lat="42.96253" lon="-0.21789">
        <ele>1016.73</ele>
        <time>2025-03-03T19:29:41Z</time>
      </trkpt>
      <trkpt lat="42.96264" lon="-0.21788">
        <ele>1017.19</ele>
        <time>2025-03-03T19:29:42Z</time>
      </trkpt>
      <trkpt lat="42.96276" lon="-0.21793">
        <ele>1018.67</ele>
        <time>2025-03-03T19:29:44Z</time>
      </trkpt>
      <trkpt lat="42.96286" lon="-0.21802">
        <ele>1020.46</ele>
        <time>2025-03-03T19:29:45Z</time>
      </trkpt>
      <trkpt lat="42.96289" lon="-0.21812">
        <ele>1021.93</ele>
        <time>2025-03-03T19:29:46Z</time>
      </trkpt>
      <trkpt lat="42.96289" lon="-0.21844">
        <ele>1026.13</ele>
        <time>2025-03-03T19:29:48Z</time>
      </trkpt>
      <trkpt lat="42.9629" lon="-0.21855">
        <ele>1027.45</ele>
        <time>2025-03-03T19:29:49Z</time>
      </trkpt>
      <trkpt lat="42.96296" lon="-0.21868">
        <ele>1029.7</ele>
        <time>2025-03-03T19:29:51Z</time>
      </trkpt>
      <trkpt lat="42.96305" lon="-0.21876">
        <ele>1032</ele>
        <time>2025-03-03T19:29:52Z</time>
      </trkpt>
      <trkpt lat="42.96312" lon="-0.21878">
        <ele>1033.32</ele>
        <time>2025-03-03T19:29:53Z</time>
      </trkpt>
      <trkpt lat="42.96322" lon="-0.21877">
        <ele>1034.9</ele>
        <time>2025-03-03T19:29:55Z</time>
      </trkpt>
      <trkpt lat="42.96335" lon="-0.21869">
        <ele>1035.97</ele>
        <time>2025-03-03T19:29:56Z</time>
      </trkpt>
      <trkpt lat="42.96431" lon="-0.21763">
        <ele>1043.16</ele>
        <time>2025-03-03T19:29:57Z</time>
      </trkpt>
      <trkpt lat="42.96488" lon="-0.21704">
        <ele>1052.94</ele>
        <time>2025-03-03T19:29:59Z</time>
      </trkpt>
      <trkpt lat="42.96534" lon="-0.21643">
        <ele>1055.87</ele>
        <time>2025-03-03T19:30:00Z</time>
      </trkpt>
      <trkpt lat="42.96545" lon="-0.21634">
        <ele>1057.15</ele>
        <time>2025-03-03T19:30:02Z</time>
      </trkpt>
      <trkpt lat="42.96559" lon="-0.21626">
        <ele>1059.37</ele>
        <time>2025-03-03T19:30:03Z</time>
      </trkpt>
      <trkpt lat="42.96574" lon="-0.21621">
        <ele>1062.24</ele>
        <time>2025-03-03T19:30:04Z</time>
      </trkpt>
      <trkpt lat="42.96586" lon="-0.21612">
        <ele>1063.57</ele>
        <time>2025-03-03T19:30:06Z</time>
      </trkpt>
      <trkpt lat="42.96597" lon="-0.21592">
        <ele>1063.99</ele>
        <time>2025-03-03T19:30:07Z</time>
      </trkpt>
      <trkpt lat="42.96614" lon="-0.2154">
        <ele>1060.93</ele>
        <time>2025-03-03T19:30:08Z</time>
      </trkpt>
      <trkpt lat="42.96622" lon="-0.21526">
        <ele>1059.57</ele>
        <time>2025-03-03T19:30:10Z</time>
      </trkpt>
      <trkpt lat="42.96625" lon="-0.21523">
        <ele>1059.7</ele>
        <time>2025-03-03T19:30:11Z</time>
      </trkpt>
      <trkpt lat="42.96634" lon="-0.21521">
        <ele>1060.88</ele>
        <time>2025-03-03T19:30:12Z</time>
      </trkpt>
      <trkpt lat="42.96641" lon="-0.21524">
        <ele>1062.87</ele>
        <time>2025-03-03T19:30:14Z</time>
      </trkpt>
      <trkpt lat="42.96649" lon="-0.21536">
        <ele>1065.86</ele>
        <time>2025-03-03T19:30:15Z</time>
      </trkpt>
      <trkpt lat="42.9665" lon="-0.21548">
        <ele>1067.5</ele>
        <time>2025-03-03T19:30:17Z</time>
      </trkpt>
      <trkpt lat="42.96642" lon="-0.21575">
        <ele>1069.66</ele>
        <time>2025-03-03T19:30:18Z</time>
      </trkpt>
      <trkpt lat="42.96639" lon="-0.21593">
        <ele>1070.97</ele>
        <time>2025-03-03T19:30:19Z</time>
      </trkpt>
      <trkpt lat="42.9664" lon="-0.21638">
        <ele>1077.05</ele>
        <time>2025-03-03T19:30:21Z</time>
      </trkpt>
      <trkpt lat="42.96638" lon="-0.21663">
        <ele>1079.31</ele>
        <time>2025-03-03T19:30:22Z</time>
      </trkpt>
      <trkpt lat="42.96629" lon="-0.21723">
        <ele>1087.14</ele>
        <time>2025-03-03T19:30:23Z</time>
      </trkpt>
      <trkpt lat="42.96612" lon="-0.2177">
        <ele>1088.88</ele>
        <time>2025-03-03T19:30:25Z</time>
      </trkpt>
      <trkpt lat="42.96608" lon="-0.21826">
        <ele>1099.18</ele>
        <time>2025-03-03T19:30:26Z</time>
      </trkpt>
      <trkpt lat="42.96593" lon="-0.21897">
        <ele>1103.85</ele>
        <time>2025-03-03T19:30:28Z</time>
      </trkpt>
      <trkpt lat="42.96593" lon="-0.21949">
        <ele>1108.84</ele>
        <time>2025-03-03T19:30:29Z</time>
      </trkpt>
      <trkpt lat="42.9659" lon="-0.21969">
        <ele>1109.2</ele>
        <time>2025-03-03T19:30:30Z</time>
      </trkpt>
      <trkpt lat="42.96584" lon="-0.21986">
        <ele>1109.3</ele>
        <time>2025-03-03T19:30:32Z</time>
      </trkpt>
      <trkpt lat="42.96563" lon="-0.22025">
        <ele>1108.11</ele>
        <time>2025-03-03T19:30:33Z</time>
      </trkpt>
      <trkpt lat="42.96554" lon="-0.22057">
        <ele>1106.63</ele>
        <time>2025-03-03T19:30:34Z</time>
      </trkpt>
      <trkpt lat="42.96551" lon="-0.22081">
        <ele>1108.28</ele>
        <time>2025-03-03T19:30:36Z</time>
      </trkpt>
      <trkpt lat="42.96549" lon="-0.22106">
        <ele>1109.84</ele>
        <time>2025-03-03T19:30:37Z</time>
      </trkpt>
      <trkpt lat="42.96549" lon="-0.22119">
        <ele>1110.5</ele>
        <time>2025-03-03T19:30:39Z</time>
      </trkpt>
      <trkpt lat="42.96552" lon="-0.22132">
        <ele>1111.43</ele>
        <time>2025-03-03T19:30:40Z</time>
      </trkpt>
      <trkpt lat="42.96562" lon="-0.22164">
        <ele>1117.28</ele>
        <time>2025-03-03T19:30:41Z</time>
      </trkpt>
      <trkpt lat="42.96564" lon="-0.22178">
        <ele>1119.93</ele>
        <time>2025-03-03T19:30:43Z</time>
      </trkpt>
      <trkpt lat="42.96563" lon="-0.22194">
        <ele>1121.34</ele>
        <time>2025-03-03T19:30:44Z</time>
      </trkpt>
      <trkpt lat="42.96556" lon="-0.22219">
        <ele>1121.46</ele>
        <time>2025-03-03T19:30:45Z</time>
      </trkpt>
      <trkpt lat="42.96513" lon="-0.22329">
        <ele>1124.96</ele>
        <time>2025-03-03T19:30:47Z</time>
      </trkpt>
      <trkpt lat="42.96509" lon="-0.22353">
        <ele>1128.04</ele>
        <time>2025-03-03T19:30:48Z</time>
      </trkpt>
      <trkpt lat="42.96509" lon="-0.22363">
        <ele>1129.41</ele>
        <time>2025-03-03T19:30:50Z</time>
      </trkpt>
      <trkpt lat="42.96513" lon="-0.22383">
        <ele>1132.65</ele>
        <time>2025-03-03T19:30:51Z</time>
      </trkpt>
      <trkpt lat="42.96522" lon="-0.22393">
        <ele>1135.87</ele>
        <time>2025-03-03T19:30:52Z</time>
      </trkpt>
      <trkpt lat="42.96528" lon="-0.22398">
        <ele>1138.04</ele>
        <time>2025-03-03T19:30:54Z</time>
      </trkpt>
      <trkpt lat="42.96548" lon="-0.22402">
        <ele>1141.98</ele>
        <time>2025-03-03T19:30:55Z</time>
      </trkpt>
      <trkpt lat="42.96576" lon="-0.22402">
        <ele>1143.86</ele>
        <time>2025-03-03T19:30:56Z</time>
      </trkpt>
      <trkpt lat="42.96616" lon="-0.22387">
        <ele>1144.27</ele>
        <time>2025-03-03T19:30:58Z</time>
      </trkpt>
      <trkpt lat="42.96635" lon="-0.22386">
        <ele>1145.05</ele>
        <time>2025-03-03T19:30:59Z</time>
      </trkpt>
      <trkpt lat="42.96646" lon="-0.22388">
        <ele>1145.05</ele>
        <time>2025-03-03T19:31:01Z</time>
      </trkpt>
      <trkpt lat="42.96663" lon="-0.22396">
        <ele>1144.49</ele>
        <time>2025-03-03T19:31:02Z</time>
      </trkpt>
      <trkpt lat="42.96675" lon="-0.22406">
        <ele>1143.86</ele>
        <time>2025-03-03T19:31:03Z</time>
      </trkpt>
      <trkpt lat="42.96684" lon="-0.22416">
        <ele>1143.07</ele>
        <time>2025-03-03T19:31:05Z</time>
      </trkpt>
      <trkpt lat="42.96712" lon="-0.22455">
        <ele>1143.53</ele>
        <time>2025-03-03T19:31:06Z</time>
      </trkpt>
      <trkpt lat="42.96722" lon="-0.22471">
        <ele>1144.98</ele>
        <time>2025-03-03T19:31:07Z</time>
      </trkpt>
      <trkpt lat="42.96728" lon="-0.22488">
        <ele>1147.05</ele>
        <time>2025-03-03T19:31:09Z</time>
      </trkpt>
      <trkpt lat="42.9673" lon="-0.22507">
        <ele>1148.56</ele>
        <time>2025-03-03T19:31:10Z</time>
      </trkpt>
      <trkpt lat="42.96728" lon="-0.22525">
        <ele>1149.35</ele>
        <time>2025-03-03T19:31:12Z</time>
      </trkpt>
      <trkpt lat="42.96709" lon="-0.22633">
        <ele>1159.09</ele>
        <time>2025-03-03T19:31:13Z</time>
      </trkpt>
      <trkpt lat="42.96709" lon="-0.22653">
        <ele>1160.6</ele>
        <time>2025-03-03T19:31:14Z</time>
      </trkpt>
      <trkpt lat="42.96719" lon="-0.22702">
        <ele>1164.07</ele>
        <time>2025-03-03T19:31:16Z</time>
      </trkpt>
      <trkpt lat="42.9672" lon="-0.2272">
        <ele>1164.75</ele>
        <time>2025-03-03T19:31:17Z</time>
      </trkpt>
      <trkpt lat="42.96718" lon="-0.22731">
        <ele>1165.59</ele>
        <time>2025-03-03T19:31:18Z</time>
      </trkpt>
      <trkpt lat="42.96711" lon="-0.22748">
        <ele>1166.59</ele>
        <time>2025-03-03T19:31:20Z</time>
      </trkpt>
      <trkpt lat="42.96706" lon="-0.22755">
        <ele>1167.12</ele>
        <time>2025-03-03T19:31:21Z</time>
      </trkpt>
      <trkpt lat="42.96677" lon="-0.22782">
        <ele>1172.77</ele>
        <time>2025-03-03T19:31:23Z</time>
      </trkpt>
      <trkpt lat="42.96664" lon="-0.22791">
        <ele>1175.8</ele>
        <time>2025-03-03T19:31:24Z</time>
      </trkpt>
      <trkpt lat="42.96658" lon="-0.22793">
        <ele>1176.76</ele>
        <time>2025-03-03T19:31:25Z</time>
      </trkpt>
      <trkpt lat="42.96646" lon="-0.22793">
        <ele>1178.19</ele>
        <time>2025-03-03T19:31:27Z</time>
      </trkpt>
      <trkpt lat="42.96636" lon="-0.2279">
        <ele>1179.03</ele>
        <time>2025-03-03T19:31:28Z</time>
      </trkpt>
      <trkpt lat="42.9663" lon="-0.22785">
        <ele>1179.19</ele>
        <time>2025-03-03T19:31:29Z</time>
      </trkpt>
      <trkpt lat="42.96613" lon="-0.22769">
        <ele>1178.58</ele>
        <time>2025-03-03T19:31:31Z</time>
      </trkpt>
      <trkpt lat="42.96598" lon="-0.22758">
        <ele>1177.33</ele>
        <time>2025-03-03T19:31:32Z</time>
      </trkpt>
      <trkpt lat="42.96585" lon="-0.22754">
        <ele>1176.76</ele>
        <time>2025-03-03T19:31:34Z</time>
      </trkpt>
      <trkpt lat="42.96566" lon="-0.22757">
        <ele>1176.26</ele>
        <time>2025-03-03T19:31:35Z</time>
      </trkpt>
      <trkpt lat="42.96555" lon="-0.22765">
        <ele>1177.65</ele>
        <time>2025-03-03T19:31:36Z</time>
      </trkpt>
      <trkpt lat="42.96543" lon="-0.22784">
        <ele>1179.19</ele>
        <time>2025-03-03T19:31:38Z</time>
      </trkpt>
      <trkpt lat="42.96505" lon="-0.22907">
        <ele>1192.45</ele>
        <time>2025-03-03T19:31:39Z</time>
      </trkpt>
      <trkpt lat="42.96493" lon="-0.22933">
        <ele>1196.15</ele>
        <time>2025-03-03T19:31:40Z</time>
      </trkpt>
      <trkpt lat="42.96478" lon="-0.22952">
        <ele>1199.98</ele>
        <time>2025-03-03T19:31:42Z</time>
      </trkpt>
      <trkpt lat="42.96437" lon="-0.22991">
        <ele>1200.86</ele>
        <time>2025-03-03T19:31:43Z</time>
      </trkpt>
      <trkpt lat="42.9643" lon="-0.23005">
        <ele>1201.66</ele>
        <time>2025-03-03T19:31:44Z</time>
      </trkpt>
      <trkpt lat="42.96416" lon="-0.2307">
        <ele>1208.03</ele>
        <time>2025-03-03T19:31:46Z</time>
      </trkpt>
      <trkpt lat="42.96406" lon="-0.23083">
        <ele>1209</ele>
        <time>2025-03-03T19:31:47Z</time>
      </trkpt>
      <trkpt lat="42.96391" lon="-0.23089">
        <ele>1209.92</ele>
        <time>2025-03-03T19:31:49Z</time>
      </trkpt>
      <trkpt lat="42.96361" lon="-0.23085">
        <ele>1212.1</ele>
        <time>2025-03-03T19:31:50Z</time>
      </trkpt>
      <trkpt lat="42.96351" lon="-0.23087">
        <ele>1211.13</ele>
        <time>2025-03-03T19:31:51Z</time>
      </trkpt>
      <trkpt lat="42.96339" lon="-0.23096">
        <ele>1211.64</ele>
        <time>2025-03-03T19:31:53Z</time>
      </trkpt>
      <trkpt lat="42.9629" lon="-0.23143">
        <ele>1216.18</ele>
        <time>2025-03-03T19:31:54Z</time>
      </trkpt>
      <trkpt lat="42.96278" lon="-0.23159">
        <ele>1217.17</ele>
        <time>2025-03-03T19:31:55Z</time>
      </trkpt>
      <trkpt lat="42.96273" lon="-0.2317">
        <ele>1218.27</ele>
        <time>2025-03-03T19:31:57Z</time>
      </trkpt>
      <trkpt lat="42.96263" lon="-0.23198">
        <ele>1221.37</ele>
        <time>2025-03-03T19:31:58Z</time>
      </trkpt>
      <trkpt lat="42.96238" lon="-0.23291">
        <ele>1227.88</ele>
        <time>2025-03-03T19:32:00Z</time>
      </trkpt>
      <trkpt lat="42.96234" lon="-0.23321">
        <ele>1228.5</ele>
        <time>2025-03-03T19:32:01Z</time>
      </trkpt>
      <trkpt lat="42.96234" lon="-0.23343">
        <ele>1230.01</ele>
        <time>2025-03-03T19:32:02Z</time>
      </trkpt>
      <trkpt lat="42.96238" lon="-0.23365">
        <ele>1231.28</ele>
        <time>2025-03-03T19:32:04Z</time>
      </trkpt>
      <trkpt lat="42.96276" lon="-0.23482">
        <ele>1239.64</ele>
        <time>2025-03-03T19:32:05Z</time>
      </trkpt>
      <trkpt lat="42.96311" lon="-0.23608">
        <ele>1248.8</ele>
        <time>2025-03-03T19:32:06Z</time>
      </trkpt>
      <trkpt lat="42.96322" lon="-0.23635">
        <ele>1251.91</ele>
        <time>2025-03-03T19:32:08Z</time>
      </trkpt>
      <trkpt lat="42.96351" lon="-0.2369">
        <ele>1260.25</ele>
        <time>2025-03-03T19:32:09Z</time>
      </trkpt>
      <trkpt lat="42.96365" lon="-0.23726">
        <ele>1265.32</ele>
        <time>2025-03-03T19:32:11Z</time>
      </trkpt>
      <trkpt lat="42.96396" lon="-0.23822">
        <ele>1271.93</ele>
        <time>2025-03-03T19:32:12Z</time>
      </trkpt>
      <trkpt lat="42.964" lon="-0.23839">
        <ele>1273.1</ele>
        <time>2025-03-03T19:32:13Z</time>
      </trkpt>
      <trkpt lat="42.96401" lon="-0.23859">
        <ele>1273.73</ele>
        <time>2025-03-03T19:32:15Z</time>
      </trkpt>
      <trkpt lat="42.9639" lon="-0.23895">
        <ele>1271.61</ele>
        <time>2025-03-03T19:32:16Z</time>
      </trkpt>
      <trkpt lat="42.96388" lon="-0.2391">
        <ele>1272.32</ele>
        <time>2025-03-03T19:32:17Z</time>
      </trkpt>
      <trkpt lat="42.9639" lon="-0.23921">
        <ele>1273.57</ele>
        <time>2025-03-03T19:32:19Z</time>
      </trkpt>
      <trkpt lat="42.96396" lon="-0.23949">
        <ele>1277.52</ele>
        <time>2025-03-03T19:32:20Z</time>
      </trkpt>
      <trkpt lat="42.96401" lon="-0.23961">
        <ele>1279.33</ele>
        <time>2025-03-03T19:32:22Z</time>
      </trkpt>
      <trkpt lat="42.96414" lon="-0.23985">
        <ele>1284.29</ele>
        <time>2025-03-03T19:32:23Z</time>
      </trkpt>
      <trkpt lat="42.96417" lon="-0.24002">
        <ele>1286.27</ele>
        <time>2025-03-03T19:32:24Z</time>
      </trkpt>
      <trkpt lat="42.96417" lon="-0.2401">
        <ele>1287.05</ele>
        <time>2025-03-03T19:32:26Z</time>
      </trkpt>
      <trkpt lat="42.96411" lon="-0.24029">
        <ele>1287.39</ele>
        <time>2025-03-03T19:32:27Z</time>
      </trkpt>
      <trkpt lat="42.96395" lon="-0.24055">
        <ele>1286.64</ele>
        <time>2025-03-03T19:32:28Z</time>
      </trkpt>
      <trkpt lat="42.96384" lon="-0.24077">
        <ele>1288.27</ele>
        <time>2025-03-03T19:32:30Z</time>
      </trkpt>
      <trkpt lat="42.96369" lon="-0.24098">
        <ele>1290.75</ele>
        <time>2025-03-03T19:32:31Z</time>
      </trkpt>
      <trkpt lat="42.96356" lon="-0.24105">
        <ele>1291.43</ele>
        <time>2025-03-03T19:32:33Z</time>
      </trkpt>
      <trkpt lat="42.96349" lon="-0.24107">
        <ele>1291.21</ele>
        <time>2025-03-03T19:32:34Z</time>
      </trkpt>
      <trkpt lat="42.96327" lon="-0.24105">
        <ele>1290.72</ele>
        <time>2025-03-03T19:32:35Z</time>
      </trkpt>
      <trkpt lat="42.96313" lon="-0.24108">
        <ele>1293.16</ele>
        <time>2025-03-03T19:32:37Z</time>
      </trkpt>
      <trkpt lat="42.96301" lon="-0.24114">
        <ele>1294.87</ele>
        <time>2025-03-03T19:32:38Z</time>
      </trkpt>
      <trkpt lat="42.96285" lon="-0.2413">
        <ele>1295.77</ele>
        <time>2025-03-03T19:32:39Z</time>
      </trkpt>
      <trkpt lat="42.96275" lon="-0.24143">
        <ele>1297.1</ele>
        <time>2025-03-03T19:32:41Z</time>
      </trkpt>
      <trkpt lat="42.96272" lon="-0.24152">
        <ele>1297.62</ele>
        <time>2025-03-03T19:32:42Z</time>
      </trkpt>
      <trkpt lat="42.9627" lon="-0.24174">
        <ele>1298.78</ele>
        <time>2025-03-03T19:32:44Z</time>
      </trkpt>
      <trkpt lat="42.96273" lon="-0.24194">
        <ele>1299.14</ele>
        <time>2025-03-03T19:32:45Z</time>
      </trkpt>
      <trkpt lat="42.96276" lon="-0.24206">
        <ele>1298.99</ele>
        <time>2025-03-03T19:32:46Z</time>
      </trkpt>
      <trkpt lat="42.96283" lon="-0.24221">
        <ele>1299.3</ele>
        <time>2025-03-03T19:32:48Z</time>
      </trkpt>
      <trkpt lat="42.96288" lon="-0.24226">
        <ele>1300.25</ele>
        <time>2025-03-03T19:32:49Z</time>
      </trkpt>
      <trkpt lat="42.96298" lon="-0.24234">
        <ele>1302.84</ele>
        <time>2025-03-03T19:32:50Z</time>
      </trkpt>
      <trkpt lat="42.96329" lon="-0.24239">
        <ele>1312.12</ele>
        <time>2025-03-03T19:32:52Z</time>
      </trkpt>
      <trkpt lat="42.96341" lon="-0.24249">
        <ele>1315.87</ele>
        <time>2025-03-03T19:32:53Z</time>
      </trkpt>
      <trkpt lat="42.96347" lon="-0.24265">
        <ele>1318.55</ele>
        <time>2025-03-03T19:32:55Z</time>
      </trkpt>
      <trkpt lat="42.96347" lon="-0.2428">
        <ele>1319.46</ele>
        <time>2025-03-03T19:32:56Z</time>
      </trkpt>
      <trkpt lat="42.96345" lon="-0.24286">
        <ele>1319.4</ele>
        <time>2025-03-03T19:32:57Z</time>
      </trkpt>
      <trkpt lat="42.9634" lon="-0.24297">
        <ele>1318.83</ele>
        <time>2025-03-03T19:32:59Z</time>
      </trkpt>
      <trkpt lat="42.96309" lon="-0.2434">
        <ele>1321.2</ele>
        <time>2025-03-03T19:33:00Z</time>
      </trkpt>
      <trkpt lat="42.96301" lon="-0.24355">
        <ele>1322.44</ele>
        <time>2025-03-03T19:33:01Z</time>
      </trkpt>
      <trkpt lat="42.96266" lon="-0.24442">
        <ele>1331.51</ele>
        <time>2025-03-03T19:33:03Z</time>
      </trkpt>
      <trkpt lat="42.96258" lon="-0.24459">
        <ele>1334.77</ele>
        <time>2025-03-03T19:33:04Z</time>
      </trkpt>
      <trkpt lat="42.96247" lon="-0.24478">
        <ele>1337.91</ele>
        <time>2025-03-03T19:33:05Z</time>
      </trkpt>
      <trkpt lat="42.96138" lon="-0.24586">
        <ele>1347.56</ele>
        <time>2025-03-03T19:33:07Z</time>
      </trkpt>
      <trkpt lat="42.9613" lon="-0.24599">
        <ele>1347.14</ele>
        <time>2025-03-03T19:33:08Z</time>
      </trkpt>
      <trkpt lat="42.96121" lon="-0.24619">
        <ele>1348.74</ele>
        <time>2025-03-03T19:33:10Z</time>
      </trkpt>
      <trkpt lat="42.96093" lon="-0.24712">
        <ele>1356.45</ele>
        <time>2025-03-03T19:33:11Z</time>
      </trkpt>
      <trkpt lat="42.96083" lon="-0.24761">
        <ele>1357.56</ele>
        <time>2025-03-03T19:33:12Z</time>
      </trkpt>
      <trkpt lat="42.96077" lon="-0.24781">
        <ele>1359.04</ele>
        <time>2025-03-03T19:33:14Z</time>
      </trkpt>
      <trkpt lat="42.96058" lon="-0.24824">
        <ele>1365.61</ele>
        <time>2025-03-03T19:33:15Z</time>
      </trkpt>
      <trkpt lat="42.96035" lon="-0.24853">
        <ele>1367.11</ele>
        <time>2025-03-03T19:33:16Z</time>
      </trkpt>
      <trkpt lat="42.96028" lon="-0.24865">
        <ele>1367.82</ele>
        <time>2025-03-03T19:33:18Z</time>
      </trkpt>
      <trkpt lat="42.96012" lon="-0.24912">
        <ele>1370.05</ele>
        <time>2025-03-03T19:33:19Z</time>
      </trkpt>
      <trkpt lat="42.96005" lon="-0.24945">
        <ele>1369.62</ele>
        <time>2025-03-03T19:33:21Z</time>
      </trkpt>
      <trkpt lat="42.96004" lon="-0.24964">
        <ele>1369.28</ele>
        <time>2025-03-03T19:33:22Z</time>
      </trkpt>
      <trkpt lat="42.96007" lon="-0.24984">
        <ele>1369.69</ele>
        <time>2025-03-03T19:33:23Z</time>
      </trkpt>
      <trkpt lat="42.96013" lon="-0.25008">
        <ele>1370.84</ele>
        <time>2025-03-03T19:33:25Z</time>
      </trkpt>
      <trkpt lat="42.9602" lon="-0.25022">
        <ele>1372.57</ele>
        <time>2025-03-03T19:33:26Z</time>
      </trkpt>
      <trkpt lat="42.9603" lon="-0.2503">
        <ele>1375.65</ele>
        <time>2025-03-03T19:33:27Z</time>
      </trkpt>
      <trkpt lat="42.96036" lon="-0.25033">
        <ele>1377.3</ele>
        <time>2025-03-03T19:33:29Z</time>
      </trkpt>
      <trkpt lat="42.96077" lon="-0.25036">
        <ele>1386.3</ele>
        <time>2025-03-03T19:33:30Z</time>
      </trkpt>
      <trkpt lat="42.96094" lon="-0.25041">
        <ele>1388.63</ele>
        <time>2025-03-03T19:33:32Z</time>
      </trkpt>
      <trkpt lat="42.96106" lon="-0.2505">
        <ele>1390.23</ele>
        <time>2025-03-03T19:33:33Z</time>
      </trkpt>
      <trkpt lat="42.96114" lon="-0.25066">
        <ele>1392.97</ele>
        <time>2025-03-03T19:33:34Z</time>
      </trkpt>
      <trkpt lat="42.96116" lon="-0.25081">
        <ele>1394.86</ele>
        <time>2025-03-03T19:33:36Z</time>
      </trkpt>
      <trkpt lat="42.96114" lon="-0.25096">
        <ele>1395.49</ele>
        <time>2025-03-03T19:33:37Z</time>
      </trkpt>
      <trkpt lat="42.96098" lon="-0.25149">
        <ele>1395.77</ele>
        <time>2025-03-03T19:33:38Z</time>
      </trkpt>
      <trkpt lat="42.96094" lon="-0.25166">
        <ele>1395.33</ele>
        <time>2025-03-03T19:33:40Z</time>
      </trkpt>
      <trkpt lat="42.96095" lon="-0.25182">
        <ele>1396.39</ele>
        <time>2025-03-03T19:33:41Z</time>
      </trkpt>
      <trkpt lat="42.96105" lon="-0.25203">
        <ele>1399.02</ele>
        <time>2025-03-03T19:33:43Z</time>
      </trkpt>
      <trkpt lat="42.96118" lon="-0.25221">
        <ele>1402.73</ele>
        <time>2025-03-03T19:33:44Z</time>
      </trkpt>
      <trkpt lat="42.96124" lon="-0.25232">
        <ele>1404.12</ele>
        <time>2025-03-03T19:33:45Z</time>
      </trkpt>
      <trkpt lat="42.96125" lon="-0.25238">
        <ele>1404.3</ele>
        <time>2025-03-03T19:33:47Z</time>
      </trkpt>
      <trkpt lat="42.96125" lon="-0.25252">
        <ele>1404.11</ele>
        <time>2025-03-03T19:33:48Z</time>
      </trkpt>
      <trkpt lat="42.96117" lon="-0.25284">
        <ele>1404.02</ele>
        <time>2025-03-03T19:33:49Z</time>
      </trkpt>
      <trkpt lat="42.96116" lon="-0.25305">
        <ele>1405.89</ele>
        <time>2025-03-03T19:33:51Z</time>
      </trkpt>
      <trkpt lat="42.96117" lon="-0.25357">
        <ele>1414.69</ele>
        <time>2025-03-03T19:33:52Z</time>
      </trkpt>
      <trkpt lat="42.96112" lon="-0.2538">
        <ele>1419.09</ele>
        <time>2025-03-03T19:33:54Z</time>
      </trkpt>
      <trkpt lat="42.96106" lon="-0.25392">
        <ele>1420.86</ele>
        <time>2025-03-03T19:33:55Z</time>
      </trkpt>
      <trkpt lat="42.96099" lon="-0.25399">
        <ele>1421.35</ele>
        <time>2025-03-03T19:33:56Z</time>
      </trkpt>
      <trkpt lat="42.96069" lon="-0.25424">
        <ele>1422.32</ele>
        <time>2025-03-03T19:33:58Z</time>
      </trkpt>
      <trkpt lat="42.96037" lon="-0.25468">
        <ele>1424.4</ele>
        <time>2025-03-03T19:33:59Z</time>
      </trkpt>
      <trkpt lat="42.96033" lon="-0.25476">
        <ele>1424.6</ele>
        <time>2025-03-03T19:34:00Z</time>
      </trkpt>
      <trkpt lat="42.96028" lon="-0.25499">
        <ele>1425.92</ele>
        <time>2025-03-03T19:34:02Z</time>
      </trkpt>
      <trkpt lat="42.96025" lon="-0.25535">
        <ele>1426.4</ele>
        <time>2025-03-03T19:34:03Z</time>
      </trkpt>
      <trkpt lat="42.96028" lon="-0.25562">
        <ele>1425.33</ele>
        <time>2025-03-03T19:34:05Z</time>
      </trkpt>
      <trkpt lat="42.96031" lon="-0.25574">
        <ele>1424.88</ele>
        <time>2025-03-03T19:34:06Z</time>
      </trkpt>
      <trkpt lat="42.9604" lon="-0.25591">
        <ele>1426.59</ele>
        <time>2025-03-03T19:34:07Z</time>
      </trkpt>
      <trkpt lat="42.96067" lon="-0.25613">
        <ele>1434.09</ele>
        <time>2025-03-03T19:34:09Z</time>
      </trkpt>
      <trkpt lat="42.96078" lon="-0.25631">
        <ele>1438.24</ele>
        <time>2025-03-03T19:34:10Z</time>
      </trkpt>
      <trkpt lat="42.96082" lon="-0.25647">
        <ele>1440.15</ele>
        <time>2025-03-03T19:34:11Z</time>
      </trkpt>
      <trkpt lat="42.9608" lon="-0.25736">
        <ele>1443.77</ele>
        <time>2025-03-03T19:34:13Z</time>
      </trkpt>
      <trkpt lat="42.96077" lon="-0.25759">
        <ele>1445.33</ele>
        <time>2025-03-03T19:34:14Z</time>
      </trkpt>
      <trkpt lat="42.96055" lon="-0.25861">
        <ele>1453.92</ele>
        <time>2025-03-03T19:34:16Z</time>
      </trkpt>
      <trkpt lat="42.96037" lon="-0.25913">
        <ele>1455.85</ele>
        <time>2025-03-03T19:34:17Z</time>
      </trkpt>
      <trkpt lat="42.96033" lon="-0.25931">
        <ele>1456.49</ele>
        <time>2025-03-03T19:34:18Z</time>
      </trkpt>
      <trkpt lat="42.96033" lon="-0.25958">
        <ele>1458.63</ele>
        <time>2025-03-03T19:34:20Z</time>
      </trkpt>
      <trkpt lat="42.96037" lon="-0.25983">
        <ele>1461.31</ele>
        <time>2025-03-03T19:34:21Z</time>
      </trkpt>
      <trkpt lat="42.96041" lon="-0.25993">
        <ele>1462.61</ele>
        <time>2025-03-03T19:34:22Z</time>
      </trkpt>
      <trkpt lat="42.96055" lon="-0.26016">
        <ele>1466.51</ele>
        <time>2025-03-03T19:34:24Z</time>
      </trkpt>
      <trkpt lat="42.96059" lon="-0.26028">
        <ele>1467.55</ele>
        <time>2025-03-03T19:34:25Z</time>
      </trkpt>
      <trkpt lat="42.9606" lon="-0.26078">
        <ele>1471.96</ele>
        <time>2025-03-03T19:34:27Z</time>
      </trkpt>
      <trkpt lat="42.96062" lon="-0.26113">
        <ele>1472.62</ele>
        <time>2025-03-03T19:34:28Z</time>
      </trkpt>
      <trkpt lat="42.96062" lon="-0.26113">
        <ele>1472.62</ele>
        <time>2025-03-03T19:34:28Z</time>
      </trkpt>
      <trkpt lat="42.96064" lon="-0.26141">
        <ele>1472.13</ele>
        <time>2025-03-03T19:34:30Z</time>
      </trkpt>
      <trkpt lat="42.96065" lon="-0.26181">
        <ele>1468.78</ele>
        <time>2025-03-03T19:34:32Z</time>
      </trkpt>
      <trkpt lat="42.96057" lon="-0.26271">
        <ele>1467.41</ele>
        <time>2025-03-03T19:34:34Z</time>
      </trkpt>
      <trkpt lat="42.96043" lon="-0.26369">
        <ele>1463.03</ele>
        <time>2025-03-03T19:34:36Z</time>
      </trkpt>
      <trkpt lat="42.96033" lon="-0.26404">
        <ele>1459.08</ele>
        <time>2025-03-03T19:34:38Z</time>
      </trkpt>
      <trkpt lat="42.96023" lon="-0.2643">
        <ele>1456.43</ele>
        <time>2025-03-03T19:34:40Z</time>
      </trkpt>
      <trkpt lat="42.95805" lon="-0.27285">
        <ele>1442.95</ele>
        <time>2025-03-03T19:35:22Z</time>
      </trkpt>
      <trkpt lat="42.95811" lon="-0.27343">
        <ele>1442.15</ele>
        <time>2025-03-03T19:35:24Z</time>
      </trkpt>
      <trkpt lat="42.95821" lon="-0.27375">
        <ele>1437.82</ele>
        <time>2025-03-03T19:35:26Z</time>
      </trkpt>
      <trkpt lat="42.95841" lon="-0.27421">
        <ele>1433.21</ele>
        <time>2025-03-03T19:35:28Z</time>
      </trkpt>
      <trkpt lat="42.95844" lon="-0.27438">
        <ele>1433.28</ele>
        <time>2025-03-03T19:35:30Z</time>
      </trkpt>
      <trkpt lat="42.95844" lon="-0.27446">
        <ele>1433.75</ele>
        <time>2025-03-03T19:35:32Z</time>
      </trkpt>
      <trkpt lat="42.9584" lon="-0.27462">
        <ele>1434.92</ele>
        <time>2025-03-03T19:35:34Z</time>
      </trkpt>
      <trkpt lat="42.95824" lon="-0.27494">
        <ele>1439.76</ele>
        <time>2025-03-03T19:35:36Z</time>
      </trkpt>
      <trkpt lat="42.95819" lon="-0.27514">
        <ele>1438.66</ele>
        <time>2025-03-03T19:35:38Z</time>
      </trkpt>
      <trkpt lat="42.95814" lon="-0.27551">
        <ele>1430.61</ele>
        <time>2025-03-03T19:35:40Z</time>
      </trkpt>
      <trkpt lat="42.95788" lon="-0.27642">
        <ele>1413.32</ele>
        <time>2025-03-03T19:35:42Z</time>
      </trkpt>
      <trkpt lat="42.95782" lon="-0.27658">
        <ele>1411.39</ele>
        <time>2025-03-03T19:35:44Z</time>
      </trkpt>
      <trkpt lat="42.95777" lon="-0.27662">
        <ele>1411.93</ele>
        <time>2025-03-03T19:35:46Z</time>
      </trkpt>
      <trkpt lat="42.95769" lon="-0.27665">
        <ele>1410.35</ele>
        <time>2025-03-03T19:35:48Z</time>
      </trkpt>
      <trkpt lat="42.9576" lon="-0.27663">
        <ele>1411</ele>
        <time>2025-03-03T19:35:50Z</time>
      </trkpt>
      <trkpt lat="42.95736" lon="-0.27644">
        <ele>1415.47</ele>
        <time>2025-03-03T19:35:52Z</time>
      </trkpt>
      <trkpt lat="42.95724" lon="-0.27638">
        <ele>1415.53</ele>
        <time>2025-03-03T19:35:54Z</time>
      </trkpt>
      <trkpt lat="42.95688" lon="-0.27635">
        <ele>1410.64</ele>
        <time>2025-03-03T19:35:56Z</time>
      </trkpt>
      <trkpt lat="42.95659" lon="-0.27625">
        <ele>1409.41</ele>
        <time>2025-03-03T19:35:58Z</time>
      </trkpt>
      <trkpt lat="42.95648" lon="-0.27626">
        <ele>1408.01</ele>
        <time>2025-03-03T19:36:00Z</time>
      </trkpt>
      <trkpt lat="42.95639" lon="-0.2763">
        <ele>1405.59</ele>
        <time>2025-03-03T19:36:02Z</time>
      </trkpt>
      <trkpt lat="42.95615" lon="-0.27647">
        <ele>1403.3</ele>
        <time>2025-03-03T19:36:04Z</time>
      </trkpt>
      <trkpt lat="42.95594" lon="-0.27664">
        <ele>1402.34</ele>
        <time>2025-03-03T19:36:06Z</time>
      </trkpt>
      <trkpt lat="42.95539" lon="-0.27721">
        <ele>1396.77</ele>
        <time>2025-03-03T19:36:08Z</time>
      </trkpt>
      <trkpt lat="42.95533" lon="-0.27735">
        <ele>1396.45</ele>
        <time>2025-03-03T19:36:10Z</time>
      </trkpt>
      <trkpt lat="42.95532" lon="-0.27748">
        <ele>1395.26</ele>
        <time>2025-03-03T19:36:12Z</time>
      </trkpt>
      <trkpt lat="42.95532" lon="-0.27757">
        <ele>1394.52</ele>
        <time>2025-03-03T19:36:13Z</time>
      </trkpt>
      <trkpt lat="42.95542" lon="-0.27804">
        <ele>1388.69</ele>
        <time>2025-03-03T19:36:15Z</time>
      </trkpt>
      <trkpt lat="42.95542" lon="-0.27821">
        <ele>1386.93</ele>
        <time>2025-03-03T19:36:17Z</time>
      </trkpt>
      <trkpt lat="42.95533" lon="-0.27952">
        <ele>1385.63</ele>
        <time>2025-03-03T19:36:19Z</time>
      </trkpt>
      <trkpt lat="42.95529" lon="-0.2798">
        <ele>1385.59</ele>
        <time>2025-03-03T19:36:21Z</time>
      </trkpt>
      <trkpt lat="42.95522" lon="-0.28008">
        <ele>1386.91</ele>
        <time>2025-03-03T19:36:23Z</time>
      </trkpt>
      <trkpt lat="42.95519" lon="-0.28033">
        <ele>1383.23</ele>
        <time>2025-03-03T19:36:25Z</time>
      </trkpt>
      <trkpt lat="42.95515" lon="-0.2805">
        <ele>1380.59</ele>
        <time>2025-03-03T19:36:27Z</time>
      </trkpt>
      <trkpt lat="42.9549" lon="-0.28096">
        <ele>1382.11</ele>
        <time>2025-03-03T19:36:29Z</time>
      </trkpt>
      <trkpt lat="42.95487" lon="-0.28109">
        <ele>1382.89</ele>
        <time>2025-03-03T19:36:31Z</time>
      </trkpt>
      <trkpt lat="42.95488" lon="-0.28123">
        <ele>1381.17</ele>
        <time>2025-03-03T19:36:33Z</time>
      </trkpt>
      <trkpt lat="42.95498" lon="-0.28154">
        <ele>1363.7</ele>
        <time>2025-03-03T19:36:35Z</time>
      </trkpt>
      <trkpt lat="42.95501" lon="-0.28174">
        <ele>1357.25</ele>
        <time>2025-03-03T19:36:37Z</time>
      </trkpt>
      <trkpt lat="42.955" lon="-0.2821">
        <ele>1357.3</ele>
        <time>2025-03-03T19:36:39Z</time>
      </trkpt>
      <trkpt lat="42.95497" lon="-0.28259">
        <ele>1360.82</ele>
        <time>2025-03-03T19:36:41Z</time>
      </trkpt>
      <trkpt lat="42.95496" lon="-0.28299">
        <ele>1354.87</ele>
        <time>2025-03-03T19:36:43Z</time>
      </trkpt>
      <trkpt lat="42.95492" lon="-0.28325">
        <ele>1359.72</ele>
        <time>2025-03-03T19:36:45Z</time>
      </trkpt>
      <trkpt lat="42.9549" lon="-0.28338">
        <ele>1359.63</ele>
        <time>2025-03-03T19:36:47Z</time>
      </trkpt>
      <trkpt lat="42.95491" lon="-0.28349">
        <ele>1359.54</ele>
        <time>2025-03-03T19:36:49Z</time>
      </trkpt>
      <trkpt lat="42.95493" lon="-0.28355">
        <ele>1359.5</ele>
        <time>2025-03-03T19:36:51Z</time>
      </trkpt>
      <trkpt lat="42.95502" lon="-0.28374">
        <ele>1355.14</ele>
        <time>2025-03-03T19:36:53Z</time>
      </trkpt>
      <trkpt lat="42.95505" lon="-0.2839">
        <ele>1356.48</ele>
        <time>2025-03-03T19:36:55Z</time>
      </trkpt>
      <trkpt lat="42.95504" lon="-0.28407">
        <ele>1356.87</ele>
        <time>2025-03-03T19:36:57Z</time>
      </trkpt>
      <trkpt lat="42.95496" lon="-0.28448">
        <ele>1358.03</ele>
        <time>2025-03-03T19:36:59Z</time>
      </trkpt>
      <trkpt lat="42.95489" lon="-0.28466">
        <ele>1357.98</ele>
        <time>2025-03-03T19:37:01Z</time>
      </trkpt>
      <trkpt lat="42.95461" lon="-0.28516">
        <ele>1360.99</ele>
        <time>2025-03-03T19:37:03Z</time>
      </trkpt>
      <trkpt lat="42.95446" lon="-0.28556">
        <ele>1357.53</ele>
        <time>2025-03-03T19:37:05Z</time>
      </trkpt>
      <trkpt lat="42.95426" lon="-0.28589">
        <ele>1360.7</ele>
        <time>2025-03-03T19:37:07Z</time>
      </trkpt>
      <trkpt lat="42.95412" lon="-0.2863">
        <ele>1363.37</ele>
        <time>2025-03-03T19:37:09Z</time>
      </trkpt>
      <trkpt lat="42.95402" lon="-0.28649">
        <ele>1366.17</ele>
        <time>2025-03-03T19:37:11Z</time>
      </trkpt>
      <trkpt lat="42.95391" lon="-0.28671">
        <ele>1366.85</ele>
        <time>2025-03-03T19:37:13Z</time>
      </trkpt>
      <trkpt lat="42.9539" lon="-0.28684">
        <ele>1367.19</ele>
        <time>2025-03-03T19:37:15Z</time>
      </trkpt>
      <trkpt lat="42.95392" lon="-0.28698">
        <ele>1367.56</ele>
        <time>2025-03-03T19:37:17Z</time>
      </trkpt>
      <trkpt lat="42.95401" lon="-0.2872">
        <ele>1368.23</ele>
        <time>2025-03-03T19:37:19Z</time>
      </trkpt>
      <trkpt lat="42.95415" lon="-0.28756">
        <ele>1362.82</ele>
        <time>2025-03-03T19:37:21Z</time>
      </trkpt>
      <trkpt lat="42.95428" lon="-0.28795">
        <ele>1362.67</ele>
        <time>2025-03-03T19:37:23Z</time>
      </trkpt>
      <trkpt lat="42.95433" lon="-0.28832">
        <ele>1370.6</ele>
        <time>2025-03-03T19:37:25Z</time>
      </trkpt>
      <trkpt lat="42.95435" lon="-0.28847">
        <ele>1372.32</ele>
        <time>2025-03-03T19:37:27Z</time>
      </trkpt>
      <trkpt lat="42.95443" lon="-0.28865">
        <ele>1374.63</ele>
        <time>2025-03-03T19:37:29Z</time>
      </trkpt>
      <trkpt lat="42.95454" lon="-0.28883">
        <ele>1371.62</ele>
        <time>2025-03-03T19:37:31Z</time>
      </trkpt>
      <trkpt lat="42.95482" lon="-0.28912">
        <ele>1361.11</ele>
        <time>2025-03-03T19:37:33Z</time>
      </trkpt>
      <trkpt lat="42.95492" lon="-0.28926">
        <ele>1364.52</ele>
        <time>2025-03-03T19:37:35Z</time>
      </trkpt>
      <trkpt lat="42.95495" lon="-0.28939">
        <ele>1374.32</ele>
        <time>2025-03-03T19:37:37Z</time>
      </trkpt>
      <trkpt lat="42.95499" lon="-0.28964">
        <ele>1406.2</ele>
        <time>2025-03-03T19:37:39Z</time>
      </trkpt>
      <trkpt lat="42.95507" lon="-0.28977">
        <ele>1420.79</ele>
        <time>2025-03-03T19:37:41Z</time>
      </trkpt>
      <trkpt lat="42.95522" lon="-0.28993">
        <ele>1442.96</ele>
        <time>2025-03-03T19:37:43Z</time>
      </trkpt>
      <trkpt lat="42.95586" lon="-0.2906">
        <ele>1515.55</ele>
        <time>2025-03-03T19:37:45Z</time>
      </trkpt>
      <trkpt lat="42.95604" lon="-0.29071">
        <ele>1503.42</ele>
        <time>2025-03-03T19:37:47Z</time>
      </trkpt>
      <trkpt lat="42.95621" lon="-0.29074">
        <ele>1493.33</ele>
        <time>2025-03-03T19:37:49Z</time>
      </trkpt>
      <trkpt lat="42.95695" lon="-0.29068">
        <ele>1427.36</ele>
        <time>2025-03-03T19:37:51Z</time>
      </trkpt>
      <trkpt lat="42.9573" lon="-0.29059">
        <ele>1369.88</ele>
        <time>2025-03-03T19:37:53Z</time>
      </trkpt>
      <trkpt lat="42.95736" lon="-0.2906">
        <ele>1357.94</ele>
        <time>2025-03-03T19:37:55Z</time>
      </trkpt>
      <trkpt lat="42.95744" lon="-0.29065">
        <ele>1354.18</ele>
        <time>2025-03-03T19:37:57Z</time>
      </trkpt>
      <trkpt lat="42.95768" lon="-0.29099">
        <ele>1380.36</ele>
        <time>2025-03-03T19:37:59Z</time>
      </trkpt>
      <trkpt lat="42.95773" lon="-0.29101">
        <ele>1378.54</ele>
        <time>2025-03-03T19:38:01Z</time>
      </trkpt>
      <trkpt lat="42.95792" lon="-0.29105">
        <ele>1351.6</ele>
        <time>2025-03-03T19:38:03Z</time>
      </trkpt>
      <trkpt lat="42.95799" lon="-0.29111">
        <ele>1341.97</ele>
        <time>2025-03-03T19:38:05Z</time>
      </trkpt>
      <trkpt lat="42.95804" lon="-0.29122">
        <ele>1343.08</ele>
        <time>2025-03-03T19:38:07Z</time>
      </trkpt>
      <trkpt lat="42.95805" lon="-0.29129">
        <ele>1347.6</ele>
        <time>2025-03-03T19:38:09Z</time>
      </trkpt>
      <trkpt lat="42.95803" lon="-0.29157">
        <ele>1363.7</ele>
        <time>2025-03-03T19:38:11Z</time>
      </trkpt>
      <trkpt lat="42.95804" lon="-0.29173">
        <ele>1367.06</ele>
        <time>2025-03-03T19:38:13Z</time>
      </trkpt>
      <trkpt lat="42.95806" lon="-0.29178">
        <ele>1368.04</ele>
        <time>2025-03-03T19:38:15Z</time>
      </trkpt>
      <trkpt lat="42.95821" lon="-0.29201">
        <ele>1367.79</ele>
        <time>2025-03-03T19:38:17Z</time>
      </trkpt>
      <trkpt lat="42.9583" lon="-0.29229">
        <ele>1369.48</ele>
        <time>2025-03-03T19:38:19Z</time>
      </trkpt>
      <trkpt lat="42.95831" lon="-0.29245">
        <ele>1370.27</ele>
        <time>2025-03-03T19:38:21Z</time>
      </trkpt>
      <trkpt lat="42.95825" lon="-0.29273">
        <ele>1378.32</ele>
        <time>2025-03-03T19:38:23Z</time>
      </trkpt>
      <trkpt lat="42.95825" lon="-0.29281">
        <ele>1380.14</ele>
        <time>2025-03-03T19:38:25Z</time>
      </trkpt>
      <trkpt lat="42.95829" lon="-0.29297">
        <ele>1381.52</ele>
        <time>2025-03-03T19:38:27Z</time>
      </trkpt>
      <trkpt lat="42.95835" lon="-0.29309">
        <ele>1380.48</ele>
        <time>2025-03-03T19:38:29Z</time>
      </trkpt>
      <trkpt lat="42.95849" lon="-0.29321">
        <ele>1373.94</ele>
        <time>2025-03-03T19:38:31Z</time>
      </trkpt>
      <trkpt lat="42.95858" lon="-0.29333">
        <ele>1369.49</ele>
        <time>2025-03-03T19:38:33Z</time>
      </trkpt>
      <trkpt lat="42.95881" lon="-0.29378">
        <ele>1368.63</ele>
        <time>2025-03-03T19:38:35Z</time>
      </trkpt>
      <trkpt lat="42.95922" lon="-0.2943">
        <ele>1368</ele>
        <time>2025-03-03T19:38:37Z</time>
      </trkpt>
      <trkpt lat="42.95933" lon="-0.2945">
        <ele>1372.99</ele>
        <time>2025-03-03T19:38:39Z</time>
      </trkpt>
      <trkpt lat="42.95936" lon="-0.29466">
        <ele>1378.91</ele>
        <time>2025-03-03T19:38:41Z</time>
      </trkpt>
      <trkpt lat="42.95944" lon="-0.29501">
        <ele>1377.31</ele>
        <time>2025-03-03T19:38:43Z</time>
      </trkpt>
      <trkpt lat="42.95949" lon="-0.29515">
        <ele>1376.67</ele>
        <time>2025-03-03T19:38:45Z</time>
      </trkpt>
      <trkpt lat="42.95955" lon="-0.29525">
        <ele>1376.15</ele>
        <time>2025-03-03T19:38:47Z</time>
      </trkpt>
      <trkpt lat="42.95969" lon="-0.29545">
        <ele>1375.1</ele>
        <time>2025-03-03T19:38:49Z</time>
      </trkpt>
      <trkpt lat="42.95987" lon="-0.29562">
        <ele>1374.04</ele>
        <time>2025-03-03T19:38:51Z</time>
      </trkpt>
      <trkpt lat="42.9601" lon="-0.29579">
        <ele>1372.71</ele>
        <time>2025-03-03T19:38:53Z</time>
      </trkpt>
      <trkpt lat="42.96022" lon="-0.29591">
        <ele>1370.17</ele>
        <time>2025-03-03T19:38:55Z</time>
      </trkpt>
      <trkpt lat="42.96044" lon="-0.29623">
        <ele>1368.46</ele>
        <time>2025-03-03T19:38:57Z</time>
      </trkpt>
      <trkpt lat="42.96079" lon="-0.29709">
        <ele>1378.8</ele>
        <time>2025-03-03T19:38:59Z</time>
      </trkpt>
      <trkpt lat="42.96089" lon="-0.2973">
        <ele>1381.36</ele>
        <time>2025-03-03T19:39:01Z</time>
      </trkpt>
      <trkpt lat="42.96096" lon="-0.29741">
        <ele>1382.08</ele>
        <time>2025-03-03T19:39:03Z</time>
      </trkpt>
      <trkpt lat="42.96129" lon="-0.29771">
        <ele>1374.53</ele>
        <time>2025-03-03T19:39:05Z</time>
      </trkpt>
      <trkpt lat="42.96145" lon="-0.29782">
        <ele>1369.93</ele>
        <time>2025-03-03T19:39:07Z</time>
      </trkpt>
      <trkpt lat="42.96167" lon="-0.29794">
        <ele>1361.82</ele>
        <time>2025-03-03T19:39:09Z</time>
      </trkpt>
      <trkpt lat="42.96174" lon="-0.29802">
        <ele>1362.55</ele>
        <time>2025-03-03T19:39:11Z</time>
      </trkpt>
      <trkpt lat="42.96206" lon="-0.29864">
        <ele>1380.97</ele>
        <time>2025-03-03T19:39:13Z</time>
      </trkpt>
      <trkpt lat="42.96217" lon="-0.29881">
        <ele>1385.91</ele>
        <time>2025-03-03T19:39:15Z</time>
      </trkpt>
      <trkpt lat="42.96229" lon="-0.29896">
        <ele>1384.52</ele>
        <time>2025-03-03T19:39:17Z</time>
      </trkpt>
      <trkpt lat="42.96241" lon="-0.29922">
        <ele>1384.7</ele>
        <time>2025-03-03T19:39:19Z</time>
      </trkpt>
      <trkpt lat="42.96257" lon="-0.29946">
        <ele>1375.59</ele>
        <time>2025-03-03T19:39:21Z</time>
      </trkpt>
      <trkpt lat="42.96279" lon="-0.30036">
        <ele>1390.93</ele>
        <time>2025-03-03T19:39:23Z</time>
      </trkpt>
      <trkpt lat="42.96288" lon="-0.3005">
        <ele>1385.8</ele>
        <time>2025-03-03T19:39:25Z</time>
      </trkpt>
      <trkpt lat="42.96292" lon="-0.30058">
        <ele>1385.45</ele>
        <time>2025-03-03T19:39:27Z</time>
      </trkpt>
      <trkpt lat="42.963" lon="-0.30091">
        <ele>1394.23</ele>
        <time>2025-03-03T19:39:29Z</time>
      </trkpt>
      <trkpt lat="42.96326" lon="-0.3016">
        <ele>1386.4</ele>
        <time>2025-03-03T19:39:31Z</time>
      </trkpt>
      <trkpt lat="42.96353" lon="-0.30273">
        <ele>1389.7</ele>
        <time>2025-03-03T19:39:32Z</time>
      </trkpt>
      <trkpt lat="42.96367" lon="-0.30316">
        <ele>1394.44</ele>
        <time>2025-03-03T19:39:34Z</time>
      </trkpt>
      <trkpt lat="42.96373" lon="-0.30327">
        <ele>1395.81</ele>
        <time>2025-03-03T19:39:36Z</time>
      </trkpt>
      <trkpt lat="42.9638" lon="-0.30331">
        <ele>1393.97</ele>
        <time>2025-03-03T19:39:38Z</time>
      </trkpt>
      <trkpt lat="42.96415" lon="-0.30325">
        <ele>1389.22</ele>
        <time>2025-03-03T19:39:40Z</time>
      </trkpt>
      <trkpt lat="42.96424" lon="-0.30319">
        <ele>1389.31</ele>
        <time>2025-03-03T19:39:42Z</time>
      </trkpt>
      <trkpt lat="42.96439" lon="-0.30295">
        <ele>1386.46</ele>
        <time>2025-03-03T19:39:44Z</time>
      </trkpt>
      <trkpt lat="42.96457" lon="-0.30284">
        <ele>1388.42</ele>
        <time>2025-03-03T19:39:46Z</time>
      </trkpt>
      <trkpt lat="42.96481" lon="-0.3026">
        <ele>1391.07</ele>
        <time>2025-03-03T19:39:48Z</time>
      </trkpt>
      <trkpt lat="42.96529" lon="-0.30222">
        <ele>1400.37</ele>
        <time>2025-03-03T19:39:50Z</time>
      </trkpt>
      <trkpt lat="42.96589" lon="-0.30186">
        <ele>1403.64</ele>
        <time>2025-03-03T19:39:52Z</time>
      </trkpt>
      <trkpt lat="42.96596" lon="-0.30185">
        <ele>1403.33</ele>
        <time>2025-03-03T19:39:54Z</time>
      </trkpt>
      <trkpt lat="42.96601" lon="-0.30187">
        <ele>1403.43</ele>
        <time>2025-03-03T19:39:56Z</time>
      </trkpt>
      <trkpt lat="42.9661" lon="-0.30195">
        <ele>1404.06</ele>
        <time>2025-03-03T19:39:58Z</time>
      </trkpt>
      <trkpt lat="42.96646" lon="-0.30263">
        <ele>1420.92</ele>
        <time>2025-03-03T19:40:00Z</time>
      </trkpt>
      <trkpt lat="42.96657" lon="-0.30272">
        <ele>1424.45</ele>
        <time>2025-03-03T19:40:02Z</time>
      </trkpt>
      <trkpt lat="42.96669" lon="-0.30275">
        <ele>1426.54</ele>
        <time>2025-03-03T19:40:04Z</time>
      </trkpt>
      <trkpt lat="42.96683" lon="-0.30276">
        <ele>1427.6</ele>
        <time>2025-03-03T19:40:06Z</time>
      </trkpt>
      <trkpt lat="42.96702" lon="-0.30268">
        <ele>1426.83</ele>
        <time>2025-03-03T19:40:08Z</time>
      </trkpt>
      <trkpt lat="42.96719" lon="-0.30253">
        <ele>1424.54</ele>
        <time>2025-03-03T19:40:10Z</time>
      </trkpt>
      <trkpt lat="42.96762" lon="-0.3021">
        <ele>1416.87</ele>
        <time>2025-03-03T19:40:12Z</time>
      </trkpt>
      <trkpt lat="42.96775" lon="-0.30201">
        <ele>1414.57</ele>
        <time>2025-03-03T19:40:14Z</time>
      </trkpt>
      <trkpt lat="42.96789" lon="-0.30198">
        <ele>1416.9</ele>
        <time>2025-03-03T19:40:16Z</time>
      </trkpt>
      <trkpt lat="42.96804" lon="-0.30199">
        <ele>1422.13</ele>
        <time>2025-03-03T19:40:18Z</time>
      </trkpt>
      <trkpt lat="42.96819" lon="-0.30203">
        <ele>1431.24</ele>
        <time>2025-03-03T19:40:20Z</time>
      </trkpt>
      <trkpt lat="42.96828" lon="-0.30203">
        <ele>1435.39</ele>
        <time>2025-03-03T19:40:22Z</time>
      </trkpt>
      <trkpt lat="42.96832" lon="-0.30201">
        <ele>1436.27</ele>
        <time>2025-03-03T19:40:24Z</time>
      </trkpt>
      <trkpt lat="42.9684" lon="-0.30192">
        <ele>1436.44</ele>
        <time>2025-03-03T19:40:26Z</time>
      </trkpt>
      <trkpt lat="42.96865" lon="-0.30153">
        <ele>1424.44</ele>
        <time>2025-03-03T19:40:28Z</time>
      </trkpt>
      <trkpt lat="42.96896" lon="-0.30123">
        <ele>1422.49</ele>
        <time>2025-03-03T19:40:30Z</time>
      </trkpt>
      <trkpt lat="42.96986" lon="-0.30055">
        <ele>1425.31</ele>
        <time>2025-03-03T19:40:32Z</time>
      </trkpt>
      <trkpt lat="42.96996" lon="-0.30051">
        <ele>1424.47</ele>
        <time>2025-03-03T19:40:34Z</time>
      </trkpt>
      <trkpt lat="42.97005" lon="-0.30054">
        <ele>1423.96</ele>
        <time>2025-03-03T19:40:36Z</time>
      </trkpt>
      <trkpt lat="42.97009" lon="-0.30057">
        <ele>1423.71</ele>
        <time>2025-03-03T19:40:38Z</time>
      </trkpt>
      <trkpt lat="42.97015" lon="-0.30071">
        <ele>1424.09</ele>
        <time>2025-03-03T19:40:40Z</time>
      </trkpt>
      <trkpt lat="42.97024" lon="-0.30105">
        <ele>1429.19</ele>
        <time>2025-03-03T19:40:42Z</time>
      </trkpt>
      <trkpt lat="42.97032" lon="-0.3012">
        <ele>1429.99</ele>
        <time>2025-03-03T19:40:44Z</time>
      </trkpt>
      <trkpt lat="42.97093" lon="-0.30177">
        <ele>1435.32</ele>
        <time>2025-03-03T19:40:46Z</time>
      </trkpt>
      <trkpt lat="42.97117" lon="-0.30194">
        <ele>1433.32</ele>
        <time>2025-03-03T19:40:48Z</time>
      </trkpt>
      <trkpt lat="42.97128" lon="-0.30207">
        <ele>1433.01</ele>
        <time>2025-03-03T19:40:50Z</time>
      </trkpt>
      <trkpt lat="42.97153" lon="-0.30246">
        <ele>1436.47</ele>
        <time>2025-03-03T19:40:52Z</time>
      </trkpt>
      <trkpt lat="42.97175" lon="-0.30293">
        <ele>1437.77</ele>
        <time>2025-03-03T19:40:54Z</time>
      </trkpt>
      <trkpt lat="42.97192" lon="-0.30318">
        <ele>1436.16</ele>
        <time>2025-03-03T19:40:56Z</time>
      </trkpt>
      <trkpt lat="42.97204" lon="-0.3034">
        <ele>1436.61</ele>
        <time>2025-03-03T19:40:58Z</time>
      </trkpt>
      <trkpt lat="42.97225" lon="-0.30364">
        <ele>1434.73</ele>
        <time>2025-03-03T19:41:00Z</time>
      </trkpt>
      <trkpt lat="42.97239" lon="-0.30394">
        <ele>1435.98</ele>
        <time>2025-03-03T19:41:02Z</time>
      </trkpt>
      <trkpt lat="42.97271" lon="-0.30438">
        <ele>1449.69</ele>
        <time>2025-03-03T19:41:04Z</time>
      </trkpt>
      <trkpt lat="42.97276" lon="-0.30443">
        <ele>1451.94</ele>
        <time>2025-03-03T19:41:06Z</time>
      </trkpt>
      <trkpt lat="42.97287" lon="-0.30447">
        <ele>1451.75</ele>
        <time>2025-03-03T19:41:08Z</time>
      </trkpt>
      <trkpt lat="42.97318" lon="-0.30444">
        <ele>1440.77</ele>
        <time>2025-03-03T19:41:10Z</time>
      </trkpt>
      <trkpt lat="42.97345" lon="-0.30462">
        <ele>1440.23</ele>
        <time>2025-03-03T19:41:12Z</time>
      </trkpt>
      <trkpt lat="42.97352" lon="-0.30464">
        <ele>1439.06</ele>
        <time>2025-03-03T19:41:14Z</time>
      </trkpt>
      <trkpt lat="42.97381" lon="-0.30466">
        <ele>1436.99</ele>
        <time>2025-03-03T19:41:16Z</time>
      </trkpt>
      <trkpt lat="42.97386" lon="-0.30469">
        <ele>1438.04</ele>
        <time>2025-03-03T19:41:18Z</time>
      </trkpt>
      <trkpt lat="42.97395" lon="-0.30479">
        <ele>1440.29</ele>
        <time>2025-03-03T19:41:20Z</time>
      </trkpt>
      <trkpt lat="42.97413" lon="-0.30507">
        <ele>1447.71</ele>
        <time>2025-03-03T19:41:22Z</time>
      </trkpt>
      <trkpt lat="42.97428" lon="-0.30525">
        <ele>1449.09</ele>
        <time>2025-03-03T19:41:24Z</time>
      </trkpt>
      <trkpt lat="42.97463" lon="-0.30551">
        <ele>1444.62</ele>
        <time>2025-03-03T19:41:26Z</time>
      </trkpt>
      <trkpt lat="42.97476" lon="-0.30569">
        <ele>1445.22</ele>
        <time>2025-03-03T19:41:28Z</time>
      </trkpt>
      <trkpt lat="42.9748" lon="-0.30584">
        <ele>1446.33</ele>
        <time>2025-03-03T19:41:30Z</time>
      </trkpt>
      <trkpt lat="42.9748" lon="-0.30607">
        <ele>1448.46</ele>
        <time>2025-03-03T19:41:32Z</time>
      </trkpt>
      <trkpt lat="42.97464" lon="-0.30739">
        <ele>1450.11</ele>
        <time>2025-03-03T19:41:34Z</time>
      </trkpt>
      <trkpt lat="42.97462" lon="-0.30749">
        <ele>1451.06</ele>
        <time>2025-03-03T19:41:36Z</time>
      </trkpt>
      <trkpt lat="42.97447" lon="-0.30781">
        <ele>1461.94</ele>
        <time>2025-03-03T19:41:38Z</time>
      </trkpt>
      <trkpt lat="42.97447" lon="-0.30787">
        <ele>1463.29</ele>
        <time>2025-03-03T19:41:40Z</time>
      </trkpt>
      <trkpt lat="42.97448" lon="-0.308">
        <ele>1464.5</ele>
        <time>2025-03-03T19:41:42Z</time>
      </trkpt>
      <trkpt lat="42.97465" lon="-0.30841">
        <ele>1464.23</ele>
        <time>2025-03-03T19:41:44Z</time>
      </trkpt>
      <trkpt lat="42.97479" lon="-0.30865">
        <ele>1462.68</ele>
        <time>2025-03-03T19:41:46Z</time>
      </trkpt>
      <trkpt lat="42.97485" lon="-0.30874">
        <ele>1461.5</ele>
        <time>2025-03-03T19:41:48Z</time>
      </trkpt>
      <trkpt lat="42.9752" lon="-0.30907">
        <ele>1459.96</ele>
        <time>2025-03-03T19:41:50Z</time>
      </trkpt>
      <trkpt lat="42.97566" lon="-0.30985">
        <ele>1472.06</ele>
        <time>2025-03-03T19:41:52Z</time>
      </trkpt>
      <trkpt lat="42.9761" lon="-0.31038">
        <ele>1472.91</ele>
        <time>2025-03-03T19:41:54Z</time>
      </trkpt>
      <trkpt lat="42.97615" lon="-0.31052">
        <ele>1474.32</ele>
        <time>2025-03-03T19:41:56Z</time>
      </trkpt>
      <trkpt lat="42.97616" lon="-0.31062">
        <ele>1474.81</ele>
        <time>2025-03-03T19:41:58Z</time>
      </trkpt>
      <trkpt lat="42.9761" lon="-0.31115">
        <ele>1478.51</ele>
        <time>2025-03-03T19:42:00Z</time>
      </trkpt>
      <trkpt lat="42.97587" lon="-0.31212">
        <ele>1484.08</ele>
        <time>2025-03-03T19:42:02Z</time>
      </trkpt>
      <trkpt lat="42.97581" lon="-0.31234">
        <ele>1486.78</ele>
        <time>2025-03-03T19:42:04Z</time>
      </trkpt>
      <trkpt lat="42.97562" lon="-0.31284">
        <ele>1500.04</ele>
        <time>2025-03-03T19:42:06Z</time>
      </trkpt>
      <trkpt lat="42.97561" lon="-0.31299">
        <ele>1500.78</ele>
        <time>2025-03-03T19:42:08Z</time>
      </trkpt>
      <trkpt lat="42.97565" lon="-0.31324">
        <ele>1497.45</ele>
        <time>2025-03-03T19:42:10Z</time>
      </trkpt>
      <trkpt lat="42.97571" lon="-0.31345">
        <ele>1493.3</ele>
        <time>2025-03-03T19:42:12Z</time>
      </trkpt>
      <trkpt lat="42.97572" lon="-0.31358">
        <ele>1493.01</ele>
        <time>2025-03-03T19:42:14Z</time>
      </trkpt>
      <trkpt lat="42.97568" lon="-0.31425">
        <ele>1495.57</ele>
        <time>2025-03-03T19:42:16Z</time>
      </trkpt>
      <trkpt lat="42.97566" lon="-0.31433">
        <ele>1497.79</ele>
        <time>2025-03-03T19:42:18Z</time>
      </trkpt>
      <trkpt lat="42.97558" lon="-0.3145">
        <ele>1507.76</ele>
        <time>2025-03-03T19:42:20Z</time>
      </trkpt>
      <trkpt lat="42.97555" lon="-0.31463">
        <ele>1512.47</ele>
        <time>2025-03-03T19:42:22Z</time>
      </trkpt>
      <trkpt lat="42.97557" lon="-0.31475">
        <ele>1511.1</ele>
        <time>2025-03-03T19:42:24Z</time>
      </trkpt>
      <trkpt lat="42.97562" lon="-0.31492">
        <ele>1506.55</ele>
        <time>2025-03-03T19:42:26Z</time>
      </trkpt>
      <trkpt lat="42.97564" lon="-0.3155">
        <ele>1505.85</ele>
        <time>2025-03-03T19:42:28Z</time>
      </trkpt>
      <trkpt lat="42.9757" lon="-0.31643">
        <ele>1503.45</ele>
        <time>2025-03-03T19:42:30Z</time>
      </trkpt>
      <trkpt lat="42.97569" lon="-0.31679">
        <ele>1503.02</ele>
        <time>2025-03-03T19:42:32Z</time>
      </trkpt>
      <trkpt lat="42.97564" lon="-0.31707">
        <ele>1503.99</ele>
        <time>2025-03-03T19:42:34Z</time>
      </trkpt>
      <trkpt lat="42.97559" lon="-0.31722">
        <ele>1504.7</ele>
        <time>2025-03-03T19:42:36Z</time>
      </trkpt>
      <trkpt lat="42.97544" lon="-0.31754">
        <ele>1508.99</ele>
        <time>2025-03-03T19:42:38Z</time>
      </trkpt>
      <trkpt lat="42.97537" lon="-0.31765">
        <ele>1510.47</ele>
        <time>2025-03-03T19:42:40Z</time>
      </trkpt>
      <trkpt lat="42.97506" lon="-0.31788">
        <ele>1516.04</ele>
        <time>2025-03-03T19:42:42Z</time>
      </trkpt>
      <trkpt lat="42.97467" lon="-0.31807">
        <ele>1513.61</ele>
        <time>2025-03-03T19:42:44Z</time>
      </trkpt>
      <trkpt lat="42.97462" lon="-0.31811">
        <ele>1513.03</ele>
        <time>2025-03-03T19:42:46Z</time>
      </trkpt>
      <trkpt lat="42.97444" lon="-0.31833">
        <ele>1503.51</ele>
        <time>2025-03-03T19:42:48Z</time>
      </trkpt>
      <trkpt lat="42.97436" lon="-0.31832">
        <ele>1503.81</ele>
        <time>2025-03-03T19:42:50Z</time>
      </trkpt>
      <trkpt lat="42.97391" lon="-0.3182">
        <ele>1519.75</ele>
        <time>2025-03-03T19:42:51Z</time>
      </trkpt>
      <trkpt lat="42.97371" lon="-0.31817">
        <ele>1528.74</ele>
        <time>2025-03-03T19:42:53Z</time>
      </trkpt>
      <trkpt lat="42.97348" lon="-0.31808">
        <ele>1539.88</ele>
        <time>2025-03-03T19:42:55Z</time>
      </trkpt>
      <trkpt lat="42.97332" lon="-0.31804">
        <ele>1539.54</ele>
        <time>2025-03-03T19:42:57Z</time>
      </trkpt>
      <trkpt lat="42.97282" lon="-0.31804">
        <ele>1543.12</ele>
        <time>2025-03-03T19:42:59Z</time>
      </trkpt>
      <trkpt lat="42.97264" lon="-0.31809">
        <ele>1545.71</ele>
        <time>2025-03-03T19:43:01Z</time>
      </trkpt>
      <trkpt lat="42.97257" lon="-0.31815">
        <ele>1546.71</ele>
        <time>2025-03-03T19:43:03Z</time>
      </trkpt>
      <trkpt lat="42.97252" lon="-0.31827">
        <ele>1545.97</ele>
        <time>2025-03-03T19:43:05Z</time>
      </trkpt>
      <trkpt lat="42.97248" lon="-0.31863">
        <ele>1544.87</ele>
        <time>2025-03-03T19:43:07Z</time>
      </trkpt>
      <trkpt lat="42.97242" lon="-0.31897">
        <ele>1543.23</ele>
        <time>2025-03-03T19:43:09Z</time>
      </trkpt>
      <trkpt lat="42.97236" lon="-0.31957">
        <ele>1543.88</ele>
        <time>2025-03-03T19:43:11Z</time>
      </trkpt>
      <trkpt lat="42.97225" lon="-0.32023">
        <ele>1541.83</ele>
        <time>2025-03-03T19:43:13Z</time>
      </trkpt>
      <trkpt lat="42.97224" lon="-0.32049">
        <ele>1541.29</ele>
        <time>2025-03-03T19:43:15Z</time>
      </trkpt>
      <trkpt lat="42.97227" lon="-0.32084">
        <ele>1545.34</ele>
        <time>2025-03-03T19:43:17Z</time>
      </trkpt>
      <trkpt lat="42.97222" lon="-0.32112">
        <ele>1548.99</ele>
        <time>2025-03-03T19:43:19Z</time>
      </trkpt>
      <trkpt lat="42.97212" lon="-0.32143">
        <ele>1555.06</ele>
        <time>2025-03-03T19:43:21Z</time>
      </trkpt>
      <trkpt lat="42.97194" lon="-0.32175">
        <ele>1557.18</ele>
        <time>2025-03-03T19:43:23Z</time>
      </trkpt>
      <trkpt lat="42.97183" lon="-0.32207">
        <ele>1557.15</ele>
        <time>2025-03-03T19:43:25Z</time>
      </trkpt>
      <trkpt lat="42.97179" lon="-0.32212">
        <ele>1558.86</ele>
        <time>2025-03-03T19:43:27Z</time>
      </trkpt>
      <trkpt lat="42.9715" lon="-0.32229">
        <ele>1571.73</ele>
        <time>2025-03-03T19:43:29Z</time>
      </trkpt>
      <trkpt lat="42.97143" lon="-0.32236">
        <ele>1574.84</ele>
        <time>2025-03-03T19:43:31Z</time>
      </trkpt>
      <trkpt lat="42.97141" lon="-0.32241">
        <ele>1575.48</ele>
        <time>2025-03-03T19:43:33Z</time>
      </trkpt>
      <trkpt lat="42.97136" lon="-0.32258">
        <ele>1574.95</ele>
        <time>2025-03-03T19:43:35Z</time>
      </trkpt>
      <trkpt lat="42.97134" lon="-0.32275">
        <ele>1569.61</ele>
        <time>2025-03-03T19:43:37Z</time>
      </trkpt>
      <trkpt lat="42.97137" lon="-0.32291">
        <ele>1565.81</ele>
        <time>2025-03-03T19:43:39Z</time>
      </trkpt>
      <trkpt lat="42.97144" lon="-0.3231">
        <ele>1559.77</ele>
        <time>2025-03-03T19:43:41Z</time>
      </trkpt>
      <trkpt lat="42.97145" lon="-0.32324">
        <ele>1560.51</ele>
        <time>2025-03-03T19:43:43Z</time>
      </trkpt>
      <trkpt lat="42.97137" lon="-0.32356">
        <ele>1567.18</ele>
        <time>2025-03-03T19:43:45Z</time>
      </trkpt>
      <trkpt lat="42.97132" lon="-0.32366">
        <ele>1570.79</ele>
        <time>2025-03-03T19:43:47Z</time>
      </trkpt>
      <trkpt lat="42.97121" lon="-0.32378">
        <ele>1577.04</ele>
        <time>2025-03-03T19:43:49Z</time>
      </trkpt>
      <trkpt lat="42.97099" lon="-0.32391">
        <ele>1587.32</ele>
        <time>2025-03-03T19:43:51Z</time>
      </trkpt>
      <trkpt lat="42.97089" lon="-0.32405">
        <ele>1591.69</ele>
        <time>2025-03-03T19:43:53Z</time>
      </trkpt>
      <trkpt lat="42.97087" lon="-0.32411">
        <ele>1592.18</ele>
        <time>2025-03-03T19:43:55Z</time>
      </trkpt>
      <trkpt lat="42.97087" lon="-0.32422">
        <ele>1592.51</ele>
        <time>2025-03-03T19:43:57Z</time>
      </trkpt>
      <trkpt lat="42.97094" lon="-0.32433">
        <ele>1592.18</ele>
        <time>2025-03-03T19:43:59Z</time>
      </trkpt>
      <trkpt lat="42.97128" lon="-0.32459">
        <ele>1591.11</ele>
        <time>2025-03-03T19:44:01Z</time>
      </trkpt>
      <trkpt lat="42.97143" lon="-0.32463">
        <ele>1588.98</ele>
        <time>2025-03-03T19:44:03Z</time>
      </trkpt>
      <trkpt lat="42.97162" lon="-0.32461">
        <ele>1584.27</ele>
        <time>2025-03-03T19:44:05Z</time>
      </trkpt>
      <trkpt lat="42.97178" lon="-0.3247">
        <ele>1586.74</ele>
        <time>2025-03-03T19:44:07Z</time>
      </trkpt>
      <trkpt lat="42.97183" lon="-0.32471">
        <ele>1586.89</ele>
        <time>2025-03-03T19:44:09Z</time>
      </trkpt>
      <trkpt lat="42.97201" lon="-0.32467">
        <ele>1585.74</ele>
        <time>2025-03-03T19:44:11Z</time>
      </trkpt>
      <trkpt lat="42.97217" lon="-0.32467">
        <ele>1586.34</ele>
        <time>2025-03-03T19:44:13Z</time>
      </trkpt>
      <trkpt lat="42.97228" lon="-0.3247">
        <ele>1586.62</ele>
        <time>2025-03-03T19:44:15Z</time>
      </trkpt>
      <trkpt lat="42.97235" lon="-0.32475">
        <ele>1586.61</ele>
        <time>2025-03-03T19:44:17Z</time>
      </trkpt>
      <trkpt lat="42.97244" lon="-0.32493">
        <ele>1588.47</ele>
        <time>2025-03-03T19:44:19Z</time>
      </trkpt>
      <trkpt lat="42.97249" lon="-0.32518">
        <ele>1594.84</ele>
        <time>2025-03-03T19:44:21Z</time>
      </trkpt>
      <trkpt lat="42.9725" lon="-0.32526">
        <ele>1597.36</ele>
        <time>2025-03-03T19:44:23Z</time>
      </trkpt>
      <trkpt lat="42.97246" lon="-0.32545">
        <ele>1599.98</ele>
        <time>2025-03-03T19:44:25Z</time>
      </trkpt>
      <trkpt lat="42.97239" lon="-0.32562">
        <ele>1601.4</ele>
        <time>2025-03-03T19:44:27Z</time>
      </trkpt>
      <trkpt lat="42.97228" lon="-0.32578">
        <ele>1603.39</ele>
        <time>2025-03-03T19:44:29Z</time>
      </trkpt>
      <trkpt lat="42.97192" lon="-0.32608">
        <ele>1608.89</ele>
        <time>2025-03-03T19:44:31Z</time>
      </trkpt>
      <trkpt lat="42.97174" lon="-0.32626">
        <ele>1613.05</ele>
        <time>2025-03-03T19:44:33Z</time>
      </trkpt>
      <trkpt lat="42.97153" lon="-0.32664">
        <ele>1614.72</ele>
        <time>2025-03-03T19:44:35Z</time>
      </trkpt>
      <trkpt lat="42.97134" lon="-0.32694">
        <ele>1610.4</ele>
        <time>2025-03-03T19:44:37Z</time>
      </trkpt>
      <trkpt lat="42.97125" lon="-0.32718">
        <ele>1607.24</ele>
        <time>2025-03-03T19:44:39Z</time>
      </trkpt>
      <trkpt lat="42.97118" lon="-0.32743">
        <ele>1608.25</ele>
        <time>2025-03-03T19:44:41Z</time>
      </trkpt>
      <trkpt lat="42.97118" lon="-0.32756">
        <ele>1609.57</ele>
        <time>2025-03-03T19:44:43Z</time>
      </trkpt>
      <trkpt lat="42.97122" lon="-0.32769">
        <ele>1610.45</ele>
        <time>2025-03-03T19:44:45Z</time>
      </trkpt>
      <trkpt lat="42.97127" lon="-0.32779">
        <ele>1610.48</ele>
        <time>2025-03-03T19:44:47Z</time>
      </trkpt>
      <trkpt lat="42.97152" lon="-0.32808">
        <ele>1611.6</ele>
        <time>2025-03-03T19:44:49Z</time>
      </trkpt>
      <trkpt lat="42.97157" lon="-0.32822">
        <ele>1612.75</ele>
        <time>2025-03-03T19:44:51Z</time>
      </trkpt>
      <trkpt lat="42.97157" lon="-0.32833">
        <ele>1614.82</ele>
        <time>2025-03-03T19:44:53Z</time>
      </trkpt>
      <trkpt lat="42.97149" lon="-0.32857">
        <ele>1618.49</ele>
        <time>2025-03-03T19:44:55Z</time>
      </trkpt>
      <trkpt lat="42.97149" lon="-0.32875">
        <ele>1618.6</ele>
        <time>2025-03-03T19:44:57Z</time>
      </trkpt>
      <trkpt lat="42.97152" lon="-0.32903">
        <ele>1618.51</ele>
        <time>2025-03-03T19:44:59Z</time>
      </trkpt>
      <trkpt lat="42.97173" lon="-0.33005">
        <ele>1625.08</ele>
        <time>2025-03-03T19:45:01Z</time>
      </trkpt>
      <trkpt lat="42.97177" lon="-0.33014">
        <ele>1624.76</ele>
        <time>2025-03-03T19:45:03Z</time>
      </trkpt>
      <trkpt lat="42.97193" lon="-0.33042">
        <ele>1624.09</ele>
        <time>2025-03-03T19:45:05Z</time>
      </trkpt>
      <trkpt lat="42.97203" lon="-0.33066">
        <ele>1626.82</ele>
        <time>2025-03-03T19:45:07Z</time>
      </trkpt>
      <trkpt lat="42.97219" lon="-0.33088">
        <ele>1627.49</ele>
        <time>2025-03-03T19:45:09Z</time>
      </trkpt>
      <trkpt lat="42.97224" lon="-0.331">
        <ele>1628.11</ele>
        <time>2025-03-03T19:45:11Z</time>
      </trkpt>
      <trkpt lat="42.97225" lon="-0.33112">
        <ele>1629.54</ele>
        <time>2025-03-03T19:45:13Z</time>
      </trkpt>
      <trkpt lat="42.97224" lon="-0.33119">
        <ele>1630.74</ele>
        <time>2025-03-03T19:45:15Z</time>
      </trkpt>
      <trkpt lat="42.97217" lon="-0.33152">
        <ele>1636.72</ele>
        <time>2025-03-03T19:45:17Z</time>
      </trkpt>
      <trkpt lat="42.97215" lon="-0.3317">
        <ele>1639.55</ele>
        <time>2025-03-03T19:45:19Z</time>
      </trkpt>
      <trkpt lat="42.97216" lon="-0.3318">
        <ele>1641.67</ele>
        <time>2025-03-03T19:45:21Z</time>
      </trkpt>
      <trkpt lat="42.97219" lon="-0.33194">
        <ele>1643.82</ele>
        <time>2025-03-03T19:45:23Z</time>
      </trkpt>
      <trkpt lat="42.97228" lon="-0.33203">
        <ele>1645.6</ele>
        <time>2025-03-03T19:45:25Z</time>
      </trkpt>
      <trkpt lat="42.97233" lon="-0.33204">
        <ele>1645.77</ele>
        <time>2025-03-03T19:45:27Z</time>
      </trkpt>
      <trkpt lat="42.97264" lon="-0.33196">
        <ele>1641.54</ele>
        <time>2025-03-03T19:45:29Z</time>
      </trkpt>
      <trkpt lat="42.97283" lon="-0.33195">
        <ele>1641.18</ele>
        <time>2025-03-03T19:45:31Z</time>
      </trkpt>
      <trkpt lat="42.973" lon="-0.33198">
        <ele>1644.79</ele>
        <time>2025-03-03T19:45:33Z</time>
      </trkpt>
      <trkpt lat="42.97318" lon="-0.33204">
        <ele>1647.14</ele>
        <time>2025-03-03T19:45:35Z</time>
      </trkpt>
      <trkpt lat="42.97339" lon="-0.33215">
        <ele>1650.38</ele>
        <time>2025-03-03T19:45:37Z</time>
      </trkpt>
      <trkpt lat="42.97354" lon="-0.33227">
        <ele>1653.13</ele>
        <time>2025-03-03T19:45:39Z</time>
      </trkpt>
      <trkpt lat="42.97386" lon="-0.33263">
        <ele>1656.94</ele>
        <time>2025-03-03T19:45:41Z</time>
      </trkpt>
      <trkpt lat="42.97397" lon="-0.33281">
        <ele>1657.95</ele>
        <time>2025-03-03T19:45:43Z</time>
      </trkpt>
      <trkpt lat="42.97413" lon="-0.33318">
        <ele>1659.77</ele>
        <time>2025-03-03T19:45:45Z</time>
      </trkpt>
      <trkpt lat="42.97424" lon="-0.33357">
        <ele>1662.16</ele>
        <time>2025-03-03T19:45:47Z</time>
      </trkpt>
      <trkpt lat="42.97439" lon="-0.33399">
        <ele>1665.94</ele>
        <time>2025-03-03T19:45:49Z</time>
      </trkpt>
      <trkpt lat="42.97449" lon="-0.33416">
        <ele>1665.87</ele>
        <time>2025-03-03T19:45:51Z</time>
      </trkpt>
      <trkpt lat="42.97476" lon="-0.33448">
        <ele>1664.69</ele>
        <time>2025-03-03T19:45:53Z</time>
      </trkpt>
      <trkpt lat="42.97481" lon="-0.33456">
        <ele>1664.86</ele>
        <time>2025-03-03T19:45:55Z</time>
      </trkpt>
      <trkpt lat="42.97492" lon="-0.33485">
        <ele>1666.74</ele>
        <time>2025-03-03T19:45:57Z</time>
      </trkpt>
      <trkpt lat="42.97499" lon="-0.33512">
        <ele>1668</ele>
        <time>2025-03-03T19:45:59Z</time>
      </trkpt>
      <trkpt lat="42.97506" lon="-0.33555">
        <ele>1672.03</ele>
        <time>2025-03-03T19:46:01Z</time>
      </trkpt>
      <trkpt lat="42.97514" lon="-0.33623">
        <ele>1678.61</ele>
        <time>2025-03-03T19:46:03Z</time>
      </trkpt>
      <trkpt lat="42.97516" lon="-0.3369">
        <ele>1684.24</ele>
        <time>2025-03-03T19:46:05Z</time>
      </trkpt>
      <trkpt lat="42.97521" lon="-0.3371">
        <ele>1688.02</ele>
        <time>2025-03-03T19:46:07Z</time>
      </trkpt>
      <trkpt lat="42.97526" lon="-0.3372">
        <ele>1689.61</ele>
        <time>2025-03-03T19:46:09Z</time>
      </trkpt>
      <trkpt lat="42.97539" lon="-0.33737">
        <ele>1692.91</ele>
        <time>2025-03-03T19:46:10Z</time>
      </trkpt>
      <trkpt lat="42.97598" lon="-0.33785">
        <ele>1691.13</ele>
        <time>2025-03-03T19:46:12Z</time>
      </trkpt>
      <trkpt lat="42.97615" lon="-0.33805">
        <ele>1689.72</ele>
        <time>2025-03-03T19:46:14Z</time>
      </trkpt>
      <trkpt lat="42.97623" lon="-0.33823">
        <ele>1691.25</ele>
        <time>2025-03-03T19:46:16Z</time>
      </trkpt>
      <trkpt lat="42.97626" lon="-0.33833">
        <ele>1691.74</ele>
        <time>2025-03-03T19:46:18Z</time>
      </trkpt>
      <trkpt lat="42.97637" lon="-0.33888">
        <ele>1704.42</ele>
        <time>2025-03-03T19:46:20Z</time>
      </trkpt>
      <trkpt lat="42.97642" lon="-0.33903">
        <ele>1705.31</ele>
        <time>2025-03-03T19:46:22Z</time>
      </trkpt>
      <trkpt lat="42.97659" lon="-0.33939">
        <ele>1708.11</ele>
        <time>2025-03-03T19:46:24Z</time>
      </trkpt>
      <trkpt lat="42.97663" lon="-0.33954">
        <ele>1709.64</ele>
        <time>2025-03-03T19:46:26Z</time>
      </trkpt>
      <trkpt lat="42.97663" lon="-0.33963">
        <ele>1710.24</ele>
        <time>2025-03-03T19:46:28Z</time>
      </trkpt>
      <trkpt lat="42.97658" lon="-0.33979">
        <ele>1710.5</ele>
        <time>2025-03-03T19:46:31Z</time>
      </trkpt>
      <trkpt lat="42.97658" lon="-0.33979">
        <ele>1710.5</ele>
        <time>2025-03-03T19:46:31Z</time>
      </trkpt>
      <trkpt lat="42.97658" lon="-0.33979">
        <ele>1710.76</ele>
        <time>2025-03-03T19:46:32Z</time>
      </trkpt>
      <trkpt lat="42.97636" lon="-0.34015">
        <ele>1707.8</ele>
        <time>2025-03-03T19:46:33Z</time>
      </trkpt>
      <trkpt lat="42.9763" lon="-0.34032">
        <ele>1706.07</ele>
        <time>2025-03-03T19:46:35Z</time>
      </trkpt>
      <trkpt lat="42.97628" lon="-0.34045">
        <ele>1704.85</ele>
        <time>2025-03-03T19:46:36Z</time>
      </trkpt>
      <trkpt lat="42.97627" lon="-0.34072">
        <ele>1702.45</ele>
        <time>2025-03-03T19:46:37Z</time>
      </trkpt>
      <trkpt lat="42.97631" lon="-0.34102">
        <ele>1700.24</ele>
        <time>2025-03-03T19:46:39Z</time>
      </trkpt>
      <trkpt lat="42.97639" lon="-0.34129">
        <ele>1699.09</ele>
        <time>2025-03-03T19:46:40Z</time>
      </trkpt>
      <trkpt lat="42.97652" lon="-0.34155">
        <ele>1697.4</ele>
        <time>2025-03-03T19:46:41Z</time>
      </trkpt>
      <trkpt lat="42.97679" lon="-0.3419">
        <ele>1695.94</ele>
        <time>2025-03-03T19:46:43Z</time>
      </trkpt>
      <trkpt lat="42.9769" lon="-0.34207">
        <ele>1694.64</ele>
        <time>2025-03-03T19:46:44Z</time>
      </trkpt>
      <trkpt lat="42.97697" lon="-0.34227">
        <ele>1692.76</ele>
        <time>2025-03-03T19:46:45Z</time>
      </trkpt>
      <trkpt lat="42.97711" lon="-0.34299">
        <ele>1683.88</ele>
        <time>2025-03-03T19:46:47Z</time>
      </trkpt>
      <trkpt lat="42.97715" lon="-0.34307">
        <ele>1683.15</ele>
        <time>2025-03-03T19:46:48Z</time>
      </trkpt>
      <trkpt lat="42.97721" lon="-0.34315">
        <ele>1682.79</ele>
        <time>2025-03-03T19:46:50Z</time>
      </trkpt>
      <trkpt lat="42.97733" lon="-0.34322">
        <ele>1681.15</ele>
        <time>2025-03-03T19:46:51Z</time>
      </trkpt>
      <trkpt lat="42.97755" lon="-0.34322">
        <ele>1679.71</ele>
        <time>2025-03-03T19:46:52Z</time>
      </trkpt>
      <trkpt lat="42.97776" lon="-0.34313">
        <ele>1678.68</ele>
        <time>2025-03-03T19:46:54Z</time>
      </trkpt>
      <trkpt lat="42.97803" lon="-0.34285">
        <ele>1684.52</ele>
        <time>2025-03-03T19:46:55Z</time>
      </trkpt>
      <trkpt lat="42.97819" lon="-0.34277">
        <ele>1682.56</ele>
        <time>2025-03-03T19:46:56Z</time>
      </trkpt>
      <trkpt lat="42.97852" lon="-0.3428">
        <ele>1673.01</ele>
        <time>2025-03-03T19:46:58Z</time>
      </trkpt>
      <trkpt lat="42.97883" lon="-0.34274">
        <ele>1675.49</ele>
        <time>2025-03-03T19:46:59Z</time>
      </trkpt>
      <trkpt lat="42.97892" lon="-0.34278">
        <ele>1675.12</ele>
        <time>2025-03-03T19:47:00Z</time>
      </trkpt>
      <trkpt lat="42.97896" lon="-0.34283">
        <ele>1674.06</ele>
        <time>2025-03-03T19:47:02Z</time>
      </trkpt>
      <trkpt lat="42.97897" lon="-0.34289">
        <ele>1672.28</ele>
        <time>2025-03-03T19:47:03Z</time>
      </trkpt>
      <trkpt lat="42.97897" lon="-0.343">
        <ele>1668.9</ele>
        <time>2025-03-03T19:47:05Z</time>
      </trkpt>
      <trkpt lat="42.97895" lon="-0.34303">
        <ele>1667.89</ele>
        <time>2025-03-03T19:47:06Z</time>
      </trkpt>
      <trkpt lat="42.97886" lon="-0.3431">
        <ele>1665.06</ele>
        <time>2025-03-03T19:47:07Z</time>
      </trkpt>
      <trkpt lat="42.97873" lon="-0.34309">
        <ele>1663.79</ele>
        <time>2025-03-03T19:47:09Z</time>
      </trkpt>
      <trkpt lat="42.97856" lon="-0.34301">
        <ele>1665.18</ele>
        <time>2025-03-03T19:47:10Z</time>
      </trkpt>
      <trkpt lat="42.9785" lon="-0.34301">
        <ele>1666.29</ele>
        <time>2025-03-03T19:47:11Z</time>
      </trkpt>
      <trkpt lat="42.97834" lon="-0.34303">
        <ele>1667.73</ele>
        <time>2025-03-03T19:47:13Z</time>
      </trkpt>
      <trkpt lat="42.97821" lon="-0.34312">
        <ele>1668.7</ele>
        <time>2025-03-03T19:47:14Z</time>
      </trkpt>
      <trkpt lat="42.97815" lon="-0.34325">
        <ele>1665.33</ele>
        <time>2025-03-03T19:47:15Z</time>
      </trkpt>
      <trkpt lat="42.97809" lon="-0.34351">
        <ele>1659.35</ele>
        <time>2025-03-03T19:47:17Z</time>
      </trkpt>
      <trkpt lat="42.97806" lon="-0.3436">
        <ele>1658.09</ele>
        <time>2025-03-03T19:47:18Z</time>
      </trkpt>
      <trkpt lat="42.97778" lon="-0.3442">
        <ele>1656.25</ele>
        <time>2025-03-03T19:47:20Z</time>
      </trkpt>
      <trkpt lat="42.97748" lon="-0.34464">
        <ele>1650.13</ele>
        <time>2025-03-03T19:47:21Z</time>
      </trkpt>
      <trkpt lat="42.97727" lon="-0.3451">
        <ele>1646.87</ele>
        <time>2025-03-03T19:47:22Z</time>
      </trkpt>
      <trkpt lat="42.97715" lon="-0.34523">
        <ele>1645.21</ele>
        <time>2025-03-03T19:47:24Z</time>
      </trkpt>
      <trkpt lat="42.97704" lon="-0.34531">
        <ele>1642.82</ele>
        <time>2025-03-03T19:47:25Z</time>
      </trkpt>
      <trkpt lat="42.97691" lon="-0.34534">
        <ele>1640.11</ele>
        <time>2025-03-03T19:47:26Z</time>
      </trkpt>
      <trkpt lat="42.97677" lon="-0.34532">
        <ele>1637.55</ele>
        <time>2025-03-03T19:47:28Z</time>
      </trkpt>
      <trkpt lat="42.97651" lon="-0.34519">
        <ele>1635.52</ele>
        <time>2025-03-03T19:47:29Z</time>
      </trkpt>
      <trkpt lat="42.97626" lon="-0.34489">
        <ele>1637.77</ele>
        <time>2025-03-03T19:47:30Z</time>
      </trkpt>
      <trkpt lat="42.97616" lon="-0.34484">
        <ele>1637.86</ele>
        <time>2025-03-03T19:47:32Z</time>
      </trkpt>
      <trkpt lat="42.97612" lon="-0.34485">
        <ele>1637.35</ele>
        <time>2025-03-03T19:47:33Z</time>
      </trkpt>
      <trkpt lat="42.97603" lon="-0.34492">
        <ele>1635.3</ele>
        <time>2025-03-03T19:47:34Z</time>
      </trkpt>
      <trkpt lat="42.97589" lon="-0.34516">
        <ele>1629.41</ele>
        <time>2025-03-03T19:47:36Z</time>
      </trkpt>
      <trkpt lat="42.97582" lon="-0.34525">
        <ele>1627.46</ele>
        <time>2025-03-03T19:47:37Z</time>
      </trkpt>
      <trkpt lat="42.97575" lon="-0.3453">
        <ele>1626.74</ele>
        <time>2025-03-03T19:47:39Z</time>
      </trkpt>
      <trkpt lat="42.97558" lon="-0.34533">
        <ele>1626.58</ele>
        <time>2025-03-03T19:47:40Z</time>
      </trkpt>
      <trkpt lat="42.97546" lon="-0.34529">
        <ele>1625.27</ele>
        <time>2025-03-03T19:47:41Z</time>
      </trkpt>
      <trkpt lat="42.9754" lon="-0.34524">
        <ele>1624.33</ele>
        <time>2025-03-03T19:47:43Z</time>
      </trkpt>
      <trkpt lat="42.9752" lon="-0.34488">
        <ele>1622.57</ele>
        <time>2025-03-03T19:47:44Z</time>
      </trkpt>
      <trkpt lat="42.97497" lon="-0.34465">
        <ele>1620.91</ele>
        <time>2025-03-03T19:47:45Z</time>
      </trkpt>
      <trkpt lat="42.97474" lon="-0.34449">
        <ele>1618.92</ele>
        <time>2025-03-03T19:47:47Z</time>
      </trkpt>
      <trkpt lat="42.9746" lon="-0.34444">
        <ele>1616.83</ele>
        <time>2025-03-03T19:47:48Z</time>
      </trkpt>
      <trkpt lat="42.97447" lon="-0.34445">
        <ele>1614.48</ele>
        <time>2025-03-03T19:47:49Z</time>
      </trkpt>
      <trkpt lat="42.97442" lon="-0.34447">
        <ele>1613.77</ele>
        <time>2025-03-03T19:47:51Z</time>
      </trkpt>
      <trkpt lat="42.97433" lon="-0.34457">
        <ele>1612.53</ele>
        <time>2025-03-03T19:47:52Z</time>
      </trkpt>
      <trkpt lat="42.97425" lon="-0.34474">
        <ele>1609.75</ele>
        <time>2025-03-03T19:47:54Z</time>
      </trkpt>
      <trkpt lat="42.97417" lon="-0.345">
        <ele>1607.04</ele>
        <time>2025-03-03T19:47:55Z</time>
      </trkpt>
      <trkpt lat="42.97411" lon="-0.34515">
        <ele>1607.11</ele>
        <time>2025-03-03T19:47:56Z</time>
      </trkpt>
      <trkpt lat="42.97401" lon="-0.34525">
        <ele>1607.39</ele>
        <time>2025-03-03T19:47:58Z</time>
      </trkpt>
      <trkpt lat="42.97379" lon="-0.34534">
        <ele>1607.98</ele>
        <time>2025-03-03T19:47:59Z</time>
      </trkpt>
      <trkpt lat="42.97368" lon="-0.34546">
        <ele>1607</ele>
        <time>2025-03-03T19:48:00Z</time>
      </trkpt>
      <trkpt lat="42.97364" lon="-0.3456">
        <ele>1604.8</ele>
        <time>2025-03-03T19:48:02Z</time>
      </trkpt>
      <trkpt lat="42.97364" lon="-0.34575">
        <ele>1601.61</ele>
        <time>2025-03-03T19:48:03Z</time>
      </trkpt>
      <trkpt lat="42.97368" lon="-0.34613">
        <ele>1594.27</ele>
        <time>2025-03-03T19:48:04Z</time>
      </trkpt>
      <trkpt lat="42.97368" lon="-0.34628">
        <ele>1592.17</ele>
        <time>2025-03-03T19:48:06Z</time>
      </trkpt>
      <trkpt lat="42.97362" lon="-0.3464">
        <ele>1590.87</ele>
        <time>2025-03-03T19:48:07Z</time>
      </trkpt>
      <trkpt lat="42.97352" lon="-0.34649">
        <ele>1589.28</ele>
        <time>2025-03-03T19:48:09Z</time>
      </trkpt>
      <trkpt lat="42.97332" lon="-0.34652">
        <ele>1587.85</ele>
        <time>2025-03-03T19:48:10Z</time>
      </trkpt>
      <trkpt lat="42.97294" lon="-0.34646">
        <ele>1581.19</ele>
        <time>2025-03-03T19:48:11Z</time>
      </trkpt>
      <trkpt lat="42.97277" lon="-0.34641">
        <ele>1576.28</ele>
        <time>2025-03-03T19:48:13Z</time>
      </trkpt>
      <trkpt lat="42.97269" lon="-0.34633">
        <ele>1575.27</ele>
        <time>2025-03-03T19:48:14Z</time>
      </trkpt>
      <trkpt lat="42.97258" lon="-0.34593">
        <ele>1580.67</ele>
        <time>2025-03-03T19:48:15Z</time>
      </trkpt>
      <trkpt lat="42.9725" lon="-0.34582">
        <ele>1581.51</ele>
        <time>2025-03-03T19:48:17Z</time>
      </trkpt>
      <trkpt lat="42.9724" lon="-0.34577">
        <ele>1582.55</ele>
        <time>2025-03-03T19:48:18Z</time>
      </trkpt>
      <trkpt lat="42.97205" lon="-0.34577">
        <ele>1582.92</ele>
        <time>2025-03-03T19:48:19Z</time>
      </trkpt>
      <trkpt lat="42.97194" lon="-0.34582">
        <ele>1582.31</ele>
        <time>2025-03-03T19:48:21Z</time>
      </trkpt>
      <trkpt lat="42.97187" lon="-0.34596">
        <ele>1577.82</ele>
        <time>2025-03-03T19:48:22Z</time>
      </trkpt>
      <trkpt lat="42.97186" lon="-0.34603">
        <ele>1575.12</ele>
        <time>2025-03-03T19:48:23Z</time>
      </trkpt>
      <trkpt lat="42.97186" lon="-0.34639">
        <ele>1562.66</ele>
        <time>2025-03-03T19:48:25Z</time>
      </trkpt>
      <trkpt lat="42.97185" lon="-0.34663">
        <ele>1558.62</ele>
        <time>2025-03-03T19:48:26Z</time>
      </trkpt>
      <trkpt lat="42.97183" lon="-0.34671">
        <ele>1557.79</ele>
        <time>2025-03-03T19:48:28Z</time>
      </trkpt>
      <trkpt lat="42.97181" lon="-0.34675">
        <ele>1557.72</ele>
        <time>2025-03-03T19:48:29Z</time>
      </trkpt>
      <trkpt lat="42.97174" lon="-0.34679">
        <ele>1558.68</ele>
        <time>2025-03-03T19:48:30Z</time>
      </trkpt>
      <trkpt lat="42.97166" lon="-0.34676">
        <ele>1559.78</ele>
        <time>2025-03-03T19:48:32Z</time>
      </trkpt>
      <trkpt lat="42.97161" lon="-0.34667">
        <ele>1556.68</ele>
        <time>2025-03-03T19:48:33Z</time>
      </trkpt>
      <trkpt lat="42.97159" lon="-0.34652">
        <ele>1555.36</ele>
        <time>2025-03-03T19:48:34Z</time>
      </trkpt>
      <trkpt lat="42.97158" lon="-0.34628">
        <ele>1559.46</ele>
        <time>2025-03-03T19:48:36Z</time>
      </trkpt>
      <trkpt lat="42.97143" lon="-0.34579">
        <ele>1571.12</ele>
        <time>2025-03-03T19:48:37Z</time>
      </trkpt>
      <trkpt lat="42.97135" lon="-0.34571">
        <ele>1570.23</ele>
        <time>2025-03-03T19:48:38Z</time>
      </trkpt>
      <trkpt lat="42.97109" lon="-0.34555">
        <ele>1566.52</ele>
        <time>2025-03-03T19:48:40Z</time>
      </trkpt>
      <trkpt lat="42.97094" lon="-0.34544">
        <ele>1557.43</ele>
        <time>2025-03-03T19:48:41Z</time>
      </trkpt>
      <trkpt lat="42.97082" lon="-0.3453">
        <ele>1550.47</ele>
        <time>2025-03-03T19:48:43Z</time>
      </trkpt>
      <trkpt lat="42.97077" lon="-0.34522">
        <ele>1548.03</ele>
        <time>2025-03-03T19:48:44Z</time>
      </trkpt>
      <trkpt lat="42.97068" lon="-0.34496">
        <ele>1545.4</ele>
        <time>2025-03-03T19:48:45Z</time>
      </trkpt>
      <trkpt lat="42.97025" lon="-0.34409">
        <ele>1536.48</ele>
        <time>2025-03-03T19:48:47Z</time>
      </trkpt>
      <trkpt lat="42.97014" lon="-0.34397">
        <ele>1534.52</ele>
        <time>2025-03-03T19:48:48Z</time>
      </trkpt>
      <trkpt lat="42.9699" lon="-0.34377">
        <ele>1526.61</ele>
        <time>2025-03-03T19:48:49Z</time>
      </trkpt>
      <trkpt lat="42.96984" lon="-0.34366">
        <ele>1526.57</ele>
        <time>2025-03-03T19:48:51Z</time>
      </trkpt>
      <trkpt lat="42.96983" lon="-0.34348">
        <ele>1529.25</ele>
        <time>2025-03-03T19:48:52Z</time>
      </trkpt>
      <trkpt lat="42.96988" lon="-0.34288">
        <ele>1540.94</ele>
        <time>2025-03-03T19:48:53Z</time>
      </trkpt>
      <trkpt lat="42.96985" lon="-0.34273">
        <ele>1540.04</ele>
        <time>2025-03-03T19:48:55Z</time>
      </trkpt>
      <trkpt lat="42.96965" lon="-0.34218">
        <ele>1533.11</ele>
        <time>2025-03-03T19:48:56Z</time>
      </trkpt>
      <trkpt lat="42.96938" lon="-0.34165">
        <ele>1525.79</ele>
        <time>2025-03-03T19:48:58Z</time>
      </trkpt>
      <trkpt lat="42.96929" lon="-0.34144">
        <ele>1514.19</ele>
        <time>2025-03-03T19:48:59Z</time>
      </trkpt>
      <trkpt lat="42.96926" lon="-0.34133">
        <ele>1510.95</ele>
        <time>2025-03-03T19:49:00Z</time>
      </trkpt>
      <trkpt lat="42.96927" lon="-0.34116">
        <ele>1510.4</ele>
        <time>2025-03-03T19:49:02Z</time>
      </trkpt>
      <trkpt lat="42.96941" lon="-0.34085">
        <ele>1518.82</ele>
        <time>2025-03-03T19:49:03Z</time>
      </trkpt>
      <trkpt lat="42.96944" lon="-0.34073">
        <ele>1520.59</ele>
        <time>2025-03-03T19:49:04Z</time>
      </trkpt>
      <trkpt lat="42.96944" lon="-0.34068">
        <ele>1520.46</ele>
        <time>2025-03-03T19:49:06Z</time>
      </trkpt>
      <trkpt lat="42.9694" lon="-0.34054">
        <ele>1518.48</ele>
        <time>2025-03-03T19:49:07Z</time>
      </trkpt>
      <trkpt lat="42.9693" lon="-0.34037">
        <ele>1512.19</ele>
        <time>2025-03-03T19:49:08Z</time>
      </trkpt>
      <trkpt lat="42.96926" lon="-0.34023">
        <ele>1508.56</ele>
        <time>2025-03-03T19:49:10Z</time>
      </trkpt>
      <trkpt lat="42.96903" lon="-0.33937">
        <ele>1501.39</ele>
        <time>2025-03-03T19:49:11Z</time>
      </trkpt>
      <trkpt lat="42.96899" lon="-0.33891">
        <ele>1504.62</ele>
        <time>2025-03-03T19:49:12Z</time>
      </trkpt>
      <trkpt lat="42.96885" lon="-0.3382">
        <ele>1497.27</ele>
        <time>2025-03-03T19:49:14Z</time>
      </trkpt>
      <trkpt lat="42.96883" lon="-0.33807">
        <ele>1494.36</ele>
        <time>2025-03-03T19:49:15Z</time>
      </trkpt>
      <trkpt lat="42.96884" lon="-0.33786">
        <ele>1491.51</ele>
        <time>2025-03-03T19:49:17Z</time>
      </trkpt>
      <trkpt lat="42.96889" lon="-0.33764">
        <ele>1492.89</ele>
        <time>2025-03-03T19:49:18Z</time>
      </trkpt>
      <trkpt lat="42.96892" lon="-0.33748">
        <ele>1491.98</ele>
        <time>2025-03-03T19:49:19Z</time>
      </trkpt>
      <trkpt lat="42.96891" lon="-0.33742">
        <ele>1491.23</ele>
        <time>2025-03-03T19:49:21Z</time>
      </trkpt>
      <trkpt lat="42.96883" lon="-0.33726">
        <ele>1486.64</ele>
        <time>2025-03-03T19:49:22Z</time>
      </trkpt>
      <trkpt lat="42.96882" lon="-0.33719">
        <ele>1486.74</ele>
        <time>2025-03-03T19:49:23Z</time>
      </trkpt>
      <trkpt lat="42.96882" lon="-0.33713">
        <ele>1487.94</ele>
        <time>2025-03-03T19:49:25Z</time>
      </trkpt>
      <trkpt lat="42.96889" lon="-0.3369">
        <ele>1495.96</ele>
        <time>2025-03-03T19:49:26Z</time>
      </trkpt>
      <trkpt lat="42.96889" lon="-0.33683">
        <ele>1497.68</ele>
        <time>2025-03-03T19:49:27Z</time>
      </trkpt>
      <trkpt lat="42.96886" lon="-0.33673">
        <ele>1497.71</ele>
        <time>2025-03-03T19:49:29Z</time>
      </trkpt>
      <trkpt lat="42.96876" lon="-0.33665">
        <ele>1493.43</ele>
        <time>2025-03-03T19:49:30Z</time>
      </trkpt>
      <trkpt lat="42.96855" lon="-0.33659">
        <ele>1482.92</ele>
        <time>2025-03-03T19:49:32Z</time>
      </trkpt>
      <trkpt lat="42.96843" lon="-0.33658">
        <ele>1476.9</ele>
        <time>2025-03-03T19:49:33Z</time>
      </trkpt>
      <trkpt lat="42.96829" lon="-0.33651">
        <ele>1471.44</ele>
        <time>2025-03-03T19:49:34Z</time>
      </trkpt>
      <trkpt lat="42.96808" lon="-0.33631">
        <ele>1467.8</ele>
        <time>2025-03-03T19:49:36Z</time>
      </trkpt>
      <trkpt lat="42.96802" lon="-0.33623">
        <ele>1470.32</ele>
        <time>2025-03-03T19:49:37Z</time>
      </trkpt>
      <trkpt lat="42.96796" lon="-0.33608">
        <ele>1477</ele>
        <time>2025-03-03T19:49:38Z</time>
      </trkpt>
      <trkpt lat="42.96788" lon="-0.33597">
        <ele>1481.78</ele>
        <time>2025-03-03T19:49:40Z</time>
      </trkpt>
      <trkpt lat="42.96781" lon="-0.33594">
        <ele>1482.82</ele>
        <time>2025-03-03T19:49:41Z</time>
      </trkpt>
      <trkpt lat="42.96767" lon="-0.33591">
        <ele>1481.12</ele>
        <time>2025-03-03T19:49:42Z</time>
      </trkpt>
      <trkpt lat="42.96759" lon="-0.33587">
        <ele>1480.9</ele>
        <time>2025-03-03T19:49:44Z</time>
      </trkpt>
      <trkpt lat="42.96738" lon="-0.33568">
        <ele>1479.68</ele>
        <time>2025-03-03T19:49:45Z</time>
      </trkpt>
      <trkpt lat="42.96731" lon="-0.33564">
        <ele>1479.04</ele>
        <time>2025-03-03T19:49:47Z</time>
      </trkpt>
      <trkpt lat="42.96718" lon="-0.33559">
        <ele>1476.89</ele>
        <time>2025-03-03T19:49:48Z</time>
      </trkpt>
      <trkpt lat="42.96699" lon="-0.33559">
        <ele>1471.27</ele>
        <time>2025-03-03T19:49:49Z</time>
      </trkpt>
      <trkpt lat="42.96691" lon="-0.33557">
        <ele>1468.71</ele>
        <time>2025-03-03T19:49:51Z</time>
      </trkpt>
      <trkpt lat="42.96662" lon="-0.33542">
        <ele>1459.02</ele>
        <time>2025-03-03T19:49:52Z</time>
      </trkpt>
      <trkpt lat="42.96653" lon="-0.33534">
        <ele>1458.35</ele>
        <time>2025-03-03T19:49:53Z</time>
      </trkpt>
      <trkpt lat="42.96645" lon="-0.33523">
        <ele>1458.84</ele>
        <time>2025-03-03T19:49:55Z</time>
      </trkpt>
      <trkpt lat="42.96639" lon="-0.33501">
        <ele>1461.85</ele>
        <time>2025-03-03T19:49:56Z</time>
      </trkpt>
      <trkpt lat="42.96637" lon="-0.33478">
        <ele>1467.74</ele>
        <time>2025-03-03T19:49:57Z</time>
      </trkpt>
      <trkpt lat="42.96634" lon="-0.33465">
        <ele>1471.34</ele>
        <time>2025-03-03T19:49:59Z</time>
      </trkpt>
      <trkpt lat="42.96625" lon="-0.33446">
        <ele>1473.96</ele>
        <time>2025-03-03T19:50:00Z</time>
      </trkpt>
      <trkpt lat="42.96618" lon="-0.33441">
        <ele>1471.27</ele>
        <time>2025-03-03T19:50:01Z</time>
      </trkpt>
      <trkpt lat="42.96613" lon="-0.3344">
        <ele>1468.05</ele>
        <time>2025-03-03T19:50:03Z</time>
      </trkpt>
      <trkpt lat="42.96593" lon="-0.33443">
        <ele>1457.93</ele>
        <time>2025-03-03T19:50:04Z</time>
      </trkpt>
      <trkpt lat="42.96563" lon="-0.33452">
        <ele>1446.92</ele>
        <time>2025-03-03T19:50:06Z</time>
      </trkpt>
      <trkpt lat="42.96558" lon="-0.33451">
        <ele>1446.39</ele>
        <time>2025-03-03T19:50:07Z</time>
      </trkpt>
      <trkpt lat="42.96551" lon="-0.33445">
        <ele>1446.22</ele>
        <time>2025-03-03T19:50:08Z</time>
      </trkpt>
      <trkpt lat="42.96537" lon="-0.33431">
        <ele>1445.23</ele>
        <time>2025-03-03T19:50:10Z</time>
      </trkpt>
      <trkpt lat="42.96529" lon="-0.33411">
        <ele>1448.72</ele>
        <time>2025-03-03T19:50:11Z</time>
      </trkpt>
      <trkpt lat="42.9651" lon="-0.33336">
        <ele>1434.3</ele>
        <time>2025-03-03T19:50:12Z</time>
      </trkpt>
      <trkpt lat="42.96507" lon="-0.33297">
        <ele>1432.48</ele>
        <time>2025-03-03T19:50:14Z</time>
      </trkpt>
      <trkpt lat="42.96498" lon="-0.33265">
        <ele>1428.82</ele>
        <time>2025-03-03T19:50:15Z</time>
      </trkpt>
      <trkpt lat="42.96496" lon="-0.33237">
        <ele>1434.55</ele>
        <time>2025-03-03T19:50:16Z</time>
      </trkpt>
      <trkpt lat="42.96479" lon="-0.33206">
        <ele>1434.68</ele>
        <time>2025-03-03T19:50:18Z</time>
      </trkpt>
      <trkpt lat="42.96475" lon="-0.332">
        <ele>1435.29</ele>
        <time>2025-03-03T19:50:19Z</time>
      </trkpt>
      <trkpt lat="42.96454" lon="-0.33182">
        <ele>1431.55</ele>
        <time>2025-03-03T19:50:21Z</time>
      </trkpt>
      <trkpt lat="42.96446" lon="-0.33167">
        <ele>1432.58</ele>
        <time>2025-03-03T19:50:22Z</time>
      </trkpt>
      <trkpt lat="42.96437" lon="-0.33157">
        <ele>1432.08</ele>
        <time>2025-03-03T19:50:23Z</time>
      </trkpt>
      <trkpt lat="42.96415" lon="-0.33149">
        <ele>1425.6</ele>
        <time>2025-03-03T19:50:25Z</time>
      </trkpt>
      <trkpt lat="42.9638" lon="-0.3313">
        <ele>1426.68</ele>
        <time>2025-03-03T19:50:26Z</time>
      </trkpt>
      <trkpt lat="42.96354" lon="-0.33121">
        <ele>1420.6</ele>
        <time>2025-03-03T19:50:27Z</time>
      </trkpt>
      <trkpt lat="42.96347" lon="-0.33114">
        <ele>1419.3</ele>
        <time>2025-03-03T19:50:29Z</time>
      </trkpt>
      <trkpt lat="42.96341" lon="-0.33102">
        <ele>1420.06</ele>
        <time>2025-03-03T19:50:30Z</time>
      </trkpt>
      <trkpt lat="42.96329" lon="-0.33068">
        <ele>1424.95</ele>
        <time>2025-03-03T19:50:31Z</time>
      </trkpt>
      <trkpt lat="42.96319" lon="-0.33054">
        <ele>1424.04</ele>
        <time>2025-03-03T19:50:33Z</time>
      </trkpt>
      <trkpt lat="42.96299" lon="-0.33042">
        <ele>1419.84</ele>
        <time>2025-03-03T19:50:34Z</time>
      </trkpt>
      <trkpt lat="42.96275" lon="-0.33039">
        <ele>1409.66</ele>
        <time>2025-03-03T19:50:36Z</time>
      </trkpt>
      <trkpt lat="42.96266" lon="-0.33041">
        <ele>1408.29</ele>
        <time>2025-03-03T19:50:37Z</time>
      </trkpt>
      <trkpt lat="42.9622" lon="-0.33064">
        <ele>1402.44</ele>
        <time>2025-03-03T19:50:38Z</time>
      </trkpt>
      <trkpt lat="42.96182" lon="-0.33092">
        <ele>1396.15</ele>
        <time>2025-03-03T19:50:40Z</time>
      </trkpt>
      <trkpt lat="42.96147" lon="-0.33107">
        <ele>1391.16</ele>
        <time>2025-03-03T19:50:41Z</time>
      </trkpt>
      <trkpt lat="42.9613" lon="-0.33111">
        <ele>1389.26</ele>
        <time>2025-03-03T19:50:42Z</time>
      </trkpt>
      <trkpt lat="42.96111" lon="-0.33108">
        <ele>1389.67</ele>
        <time>2025-03-03T19:50:44Z</time>
      </trkpt>
      <trkpt lat="42.96103" lon="-0.33108">
        <ele>1387.83</ele>
        <time>2025-03-03T19:50:45Z</time>
      </trkpt>
      <trkpt lat="42.96081" lon="-0.3312">
        <ele>1381.23</ele>
        <time>2025-03-03T19:50:46Z</time>
      </trkpt>
      <trkpt lat="42.9605" lon="-0.33124">
        <ele>1382.16</ele>
        <time>2025-03-03T19:50:48Z</time>
      </trkpt>
      <trkpt lat="42.96043" lon="-0.33129">
        <ele>1381.79</ele>
        <time>2025-03-03T19:50:49Z</time>
      </trkpt>
      <trkpt lat="42.96035" lon="-0.33136">
        <ele>1380.8</ele>
        <time>2025-03-03T19:50:50Z</time>
      </trkpt>
      <trkpt lat="42.95994" lon="-0.33186">
        <ele>1374.67</ele>
        <time>2025-03-03T19:50:52Z</time>
      </trkpt>
      <trkpt lat="42.9599" lon="-0.33194">
        <ele>1373.66</ele>
        <time>2025-03-03T19:50:53Z</time>
      </trkpt>
      <trkpt lat="42.95983" lon="-0.33231">
        <ele>1369.61</ele>
        <time>2025-03-03T19:50:55Z</time>
      </trkpt>
      <trkpt lat="42.9598" lon="-0.3324">
        <ele>1368.05</ele>
        <time>2025-03-03T19:50:56Z</time>
      </trkpt>
      <trkpt lat="42.95973" lon="-0.33249">
        <ele>1366.27</ele>
        <time>2025-03-03T19:50:57Z</time>
      </trkpt>
      <trkpt lat="42.95965" lon="-0.33256">
        <ele>1364.38</ele>
        <time>2025-03-03T19:50:59Z</time>
      </trkpt>
      <trkpt lat="42.95946" lon="-0.33262">
        <ele>1362.89</ele>
        <time>2025-03-03T19:51:00Z</time>
      </trkpt>
      <trkpt lat="42.9592" lon="-0.3326">
        <ele>1363.27</ele>
        <time>2025-03-03T19:51:01Z</time>
      </trkpt>
      <trkpt lat="42.95911" lon="-0.33261">
        <ele>1362.54</ele>
        <time>2025-03-03T19:51:03Z</time>
      </trkpt>
      <trkpt lat="42.9588" lon="-0.33269">
        <ele>1357.9</ele>
        <time>2025-03-03T19:51:04Z</time>
      </trkpt>
      <trkpt lat="42.95868" lon="-0.33266">
        <ele>1357.47</ele>
        <time>2025-03-03T19:51:05Z</time>
      </trkpt>
      <trkpt lat="42.95862" lon="-0.33262">
        <ele>1357.32</ele>
        <time>2025-03-03T19:51:07Z</time>
      </trkpt>
      <trkpt lat="42.95851" lon="-0.33247">
        <ele>1358.08</ele>
        <time>2025-03-03T19:51:08Z</time>
      </trkpt>
      <trkpt lat="42.95838" lon="-0.33237">
        <ele>1360.12</ele>
        <time>2025-03-03T19:51:10Z</time>
      </trkpt>
      <trkpt lat="42.95827" lon="-0.33235">
        <ele>1359.92</ele>
        <time>2025-03-03T19:51:11Z</time>
      </trkpt>
      <trkpt lat="42.95813" lon="-0.3324">
        <ele>1358.26</ele>
        <time>2025-03-03T19:51:12Z</time>
      </trkpt>
      <trkpt lat="42.95808" lon="-0.33249">
        <ele>1357.05</ele>
        <time>2025-03-03T19:51:14Z</time>
      </trkpt>
      <trkpt lat="42.95808" lon="-0.33255">
        <ele>1356.77</ele>
        <time>2025-03-03T19:51:16Z</time>
      </trkpt>
      <trkpt lat="42.9581" lon="-0.33267">
        <ele>1356.33</ele>
        <time>2025-03-03T19:51:17Z</time>
      </trkpt>
      <trkpt lat="42.95832" lon="-0.33291">
        <ele>1356.46</ele>
        <time>2025-03-03T19:51:19Z</time>
      </trkpt>
      <trkpt lat="42.9585" lon="-0.33298">
        <ele>1356.29</ele>
        <time>2025-03-03T19:51:21Z</time>
      </trkpt>
      <trkpt lat="42.95879" lon="-0.33299">
        <ele>1355.51</ele>
        <time>2025-03-03T19:51:23Z</time>
      </trkpt>
      <trkpt lat="42.95904" lon="-0.33293">
        <ele>1355.62</ele>
        <time>2025-03-03T19:51:24Z</time>
      </trkpt>
      <trkpt lat="42.95919" lon="-0.33293">
        <ele>1355.88</ele>
        <time>2025-03-03T19:51:26Z</time>
      </trkpt>
      <trkpt lat="42.95974" lon="-0.33304">
        <ele>1354.34</ele>
        <time>2025-03-03T19:51:28Z</time>
      </trkpt>
      <trkpt lat="42.95994" lon="-0.33304">
        <ele>1355.29</ele>
        <time>2025-03-03T19:51:29Z</time>
      </trkpt>
      <trkpt lat="42.96011" lon="-0.33298">
        <ele>1353.98</ele>
        <time>2025-03-03T19:51:31Z</time>
      </trkpt>
      <trkpt lat="42.96038" lon="-0.33282">
        <ele>1349.73</ele>
        <time>2025-03-03T19:51:33Z</time>
      </trkpt>
      <trkpt lat="42.96059" lon="-0.33277">
        <ele>1346.83</ele>
        <time>2025-03-03T19:51:34Z</time>
      </trkpt>
      <trkpt lat="42.96074" lon="-0.33282">
        <ele>1343.49</ele>
        <time>2025-03-03T19:51:36Z</time>
      </trkpt>
      <trkpt lat="42.96087" lon="-0.33295">
        <ele>1338.43</ele>
        <time>2025-03-03T19:51:38Z</time>
      </trkpt>
      <trkpt lat="42.96098" lon="-0.33302">
        <ele>1335.64</ele>
        <time>2025-03-03T19:51:39Z</time>
      </trkpt>
      <trkpt lat="42.9611" lon="-0.33303">
        <ele>1334.72</ele>
        <time>2025-03-03T19:51:41Z</time>
      </trkpt>
      <trkpt lat="42.96116" lon="-0.33302">
        <ele>1333.63</ele>
        <time>2025-03-03T19:51:43Z</time>
      </trkpt>
      <trkpt lat="42.96125" lon="-0.33294">
        <ele>1333.15</ele>
        <time>2025-03-03T19:51:45Z</time>
      </trkpt>
      <trkpt lat="42.96144" lon="-0.33274">
        <ele>1333.9</ele>
        <time>2025-03-03T19:51:46Z</time>
      </trkpt>
      <trkpt lat="42.96152" lon="-0.33267">
        <ele>1333.97</ele>
        <time>2025-03-03T19:51:48Z</time>
      </trkpt>
      <trkpt lat="42.96165" lon="-0.33261">
        <ele>1332.85</ele>
        <time>2025-03-03T19:51:50Z</time>
      </trkpt>
      <trkpt lat="42.96235" lon="-0.33266">
        <ele>1325.07</ele>
        <time>2025-03-03T19:51:51Z</time>
      </trkpt>
      <trkpt lat="42.96245" lon="-0.3327">
        <ele>1321.25</ele>
        <time>2025-03-03T19:51:53Z</time>
      </trkpt>
      <trkpt lat="42.963" lon="-0.33318">
        <ele>1305.72</ele>
        <time>2025-03-03T19:51:55Z</time>
      </trkpt>
      <trkpt lat="42.96318" lon="-0.33336">
        <ele>1311.52</ele>
        <time>2025-03-03T19:51:56Z</time>
      </trkpt>
      <trkpt lat="42.96328" lon="-0.3335">
        <ele>1313.86</ele>
        <time>2025-03-03T19:51:58Z</time>
      </trkpt>
      <trkpt lat="42.96359" lon="-0.334">
        <ele>1312.24</ele>
        <time>2025-03-03T19:52:00Z</time>
      </trkpt>
      <trkpt lat="42.96391" lon="-0.33475">
        <ele>1300.97</ele>
        <time>2025-03-03T19:52:01Z</time>
      </trkpt>
      <trkpt lat="42.96412" lon="-0.33515">
        <ele>1297.6</ele>
        <time>2025-03-03T19:52:03Z</time>
      </trkpt>
      <trkpt lat="42.96426" lon="-0.33553">
        <ele>1302.52</ele>
        <time>2025-03-03T19:52:05Z</time>
      </trkpt>
      <trkpt lat="42.96431" lon="-0.33561">
        <ele>1308.02</ele>
        <time>2025-03-03T19:52:07Z</time>
      </trkpt>
      <trkpt lat="42.96433" lon="-0.3357">
        <ele>1309.38</ele>
        <time>2025-03-03T19:52:08Z</time>
      </trkpt>
      <trkpt lat="42.96434" lon="-0.33585">
        <ele>1307.33</ele>
        <time>2025-03-03T19:52:10Z</time>
      </trkpt>
      <trkpt lat="42.96452" lon="-0.33704">
        <ele>1287.84</ele>
        <time>2025-03-03T19:52:12Z</time>
      </trkpt>
      <trkpt lat="42.96451" lon="-0.3373">
        <ele>1281.11</ele>
        <time>2025-03-03T19:52:13Z</time>
      </trkpt>
      <trkpt lat="42.96448" lon="-0.33782">
        <ele>1266.35</ele>
        <time>2025-03-03T19:52:15Z</time>
      </trkpt>
      <trkpt lat="42.96467" lon="-0.33852">
        <ele>1260.12</ele>
        <time>2025-03-03T19:52:17Z</time>
      </trkpt>
      <trkpt lat="42.96468" lon="-0.33863">
        <ele>1259.57</ele>
        <time>2025-03-03T19:52:18Z</time>
      </trkpt>
      <trkpt lat="42.96465" lon="-0.33891">
        <ele>1255.53</ele>
        <time>2025-03-03T19:52:20Z</time>
      </trkpt>
      <trkpt lat="42.96465" lon="-0.3391">
        <ele>1253.08</ele>
        <time>2025-03-03T19:52:22Z</time>
      </trkpt>
      <trkpt lat="42.96474" lon="-0.33955">
        <ele>1255.97</ele>
        <time>2025-03-03T19:52:23Z</time>
      </trkpt>
      <trkpt lat="42.96476" lon="-0.33995">
        <ele>1254.01</ele>
        <time>2025-03-03T19:52:25Z</time>
      </trkpt>
      <trkpt lat="42.96479" lon="-0.3402">
        <ele>1254.67</ele>
        <time>2025-03-03T19:52:27Z</time>
      </trkpt>
      <trkpt lat="42.9649" lon="-0.3406">
        <ele>1258.54</ele>
        <time>2025-03-03T19:52:29Z</time>
      </trkpt>
      <trkpt lat="42.96495" lon="-0.34082">
        <ele>1260.86</ele>
        <time>2025-03-03T19:52:30Z</time>
      </trkpt>
      <trkpt lat="42.96502" lon="-0.34174">
        <ele>1250.41</ele>
        <time>2025-03-03T19:52:32Z</time>
      </trkpt>
      <trkpt lat="42.96508" lon="-0.34227">
        <ele>1241.18</ele>
        <time>2025-03-03T19:52:34Z</time>
      </trkpt>
      <trkpt lat="42.9651" lon="-0.34303">
        <ele>1231</ele>
        <time>2025-03-03T19:52:35Z</time>
      </trkpt>
      <trkpt lat="42.96506" lon="-0.34328">
        <ele>1225.32</ele>
        <time>2025-03-03T19:52:37Z</time>
      </trkpt>
      <trkpt lat="42.96502" lon="-0.34335">
        <ele>1222.74</ele>
        <time>2025-03-03T19:52:39Z</time>
      </trkpt>
      <trkpt lat="42.96493" lon="-0.34344">
        <ele>1219.37</ele>
        <time>2025-03-03T19:52:40Z</time>
      </trkpt>
      <trkpt lat="42.96488" lon="-0.34346">
        <ele>1218.16</ele>
        <time>2025-03-03T19:52:42Z</time>
      </trkpt>
      <trkpt lat="42.96482" lon="-0.34344">
        <ele>1217.44</ele>
        <time>2025-03-03T19:52:44Z</time>
      </trkpt>
      <trkpt lat="42.96477" lon="-0.3434">
        <ele>1217.59</ele>
        <time>2025-03-03T19:52:45Z</time>
      </trkpt>
      <trkpt lat="42.96469" lon="-0.34327">
        <ele>1219.45</ele>
        <time>2025-03-03T19:52:47Z</time>
      </trkpt>
      <trkpt lat="42.96464" lon="-0.34313">
        <ele>1220.84</ele>
        <time>2025-03-03T19:52:49Z</time>
      </trkpt>
      <trkpt lat="42.96417" lon="-0.34139">
        <ele>1214.18</ele>
        <time>2025-03-03T19:52:51Z</time>
      </trkpt>
      <trkpt lat="42.96412" lon="-0.34079">
        <ele>1208.71</ele>
        <time>2025-03-03T19:52:52Z</time>
      </trkpt>
      <trkpt lat="42.96406" lon="-0.33983">
        <ele>1212.07</ele>
        <time>2025-03-03T19:52:54Z</time>
      </trkpt>
      <trkpt lat="42.96404" lon="-0.33968">
        <ele>1214.07</ele>
        <time>2025-03-03T19:52:56Z</time>
      </trkpt>
      <trkpt lat="42.964" lon="-0.33958">
        <ele>1214.74</ele>
        <time>2025-03-03T19:52:57Z</time>
      </trkpt>
      <trkpt lat="42.96383" lon="-0.33937">
        <ele>1211.56</ele>
        <time>2025-03-03T19:52:59Z</time>
      </trkpt>
      <trkpt lat="42.96376" lon="-0.33933">
        <ele>1209.36</ele>
        <time>2025-03-03T19:53:01Z</time>
      </trkpt>
      <trkpt lat="42.96353" lon="-0.33931">
        <ele>1201.66</ele>
        <time>2025-03-03T19:53:02Z</time>
      </trkpt>
      <trkpt lat="42.96333" lon="-0.33934">
        <ele>1195.97</ele>
        <time>2025-03-03T19:53:04Z</time>
      </trkpt>
      <trkpt lat="42.96318" lon="-0.33941">
        <ele>1192.05</ele>
        <time>2025-03-03T19:53:06Z</time>
      </trkpt>
      <trkpt lat="42.9631" lon="-0.33948">
        <ele>1189.5</ele>
        <time>2025-03-03T19:53:07Z</time>
      </trkpt>
      <trkpt lat="42.96307" lon="-0.33954">
        <ele>1187.84</ele>
        <time>2025-03-03T19:53:09Z</time>
      </trkpt>
      <trkpt lat="42.96303" lon="-0.33969">
        <ele>1185.17</ele>
        <time>2025-03-03T19:53:11Z</time>
      </trkpt>
      <trkpt lat="42.96305" lon="-0.33986">
        <ele>1183.03</ele>
        <time>2025-03-03T19:53:13Z</time>
      </trkpt>
      <trkpt lat="42.9634" lon="-0.34091">
        <ele>1185.91</ele>
        <time>2025-03-03T19:53:14Z</time>
      </trkpt>
      <trkpt lat="42.96348" lon="-0.34121">
        <ele>1192.7</ele>
        <time>2025-03-03T19:53:16Z</time>
      </trkpt>
      <trkpt lat="42.96348" lon="-0.34192">
        <ele>1182.67</ele>
        <time>2025-03-03T19:53:18Z</time>
      </trkpt>
      <trkpt lat="42.9634" lon="-0.34221">
        <ele>1179.11</ele>
        <time>2025-03-03T19:53:19Z</time>
      </trkpt>
      <trkpt lat="42.96337" lon="-0.34254">
        <ele>1180.12</ele>
        <time>2025-03-03T19:53:21Z</time>
      </trkpt>
      <trkpt lat="42.96324" lon="-0.34322">
        <ele>1181.97</ele>
        <time>2025-03-03T19:53:23Z</time>
      </trkpt>
      <trkpt lat="42.96322" lon="-0.34381">
        <ele>1174.13</ele>
        <time>2025-03-03T19:53:24Z</time>
      </trkpt>
      <trkpt lat="42.96308" lon="-0.34431">
        <ele>1168.94</ele>
        <time>2025-03-03T19:53:26Z</time>
      </trkpt>
      <trkpt lat="42.96311" lon="-0.34465">
        <ele>1160.17</ele>
        <time>2025-03-03T19:53:28Z</time>
      </trkpt>
      <trkpt lat="42.96311" lon="-0.34493">
        <ele>1157.33</ele>
        <time>2025-03-03T19:53:29Z</time>
      </trkpt>
      <trkpt lat="42.96309" lon="-0.34517">
        <ele>1155.86</ele>
        <time>2025-03-03T19:53:31Z</time>
      </trkpt>
      <trkpt lat="42.96305" lon="-0.34538">
        <ele>1155.39</ele>
        <time>2025-03-03T19:53:33Z</time>
      </trkpt>
      <trkpt lat="42.96302" lon="-0.34548">
        <ele>1155.58</ele>
        <time>2025-03-03T19:53:35Z</time>
      </trkpt>
      <trkpt lat="42.96297" lon="-0.34553">
        <ele>1156.16</ele>
        <time>2025-03-03T19:53:36Z</time>
      </trkpt>
      <trkpt lat="42.96273" lon="-0.34563">
        <ele>1162.04</ele>
        <time>2025-03-03T19:53:38Z</time>
      </trkpt>
      <trkpt lat="42.96265" lon="-0.34568">
        <ele>1166.66</ele>
        <time>2025-03-03T19:53:40Z</time>
      </trkpt>
      <trkpt lat="42.9626" lon="-0.34576">
        <ele>1169.02</ele>
        <time>2025-03-03T19:53:41Z</time>
      </trkpt>
      <trkpt lat="42.96253" lon="-0.346">
        <ele>1169.44</ele>
        <time>2025-03-03T19:53:43Z</time>
      </trkpt>
      <trkpt lat="42.96254" lon="-0.34691">
        <ele>1155.69</ele>
        <time>2025-03-03T19:53:45Z</time>
      </trkpt>
      <trkpt lat="42.96252" lon="-0.3473">
        <ele>1148.21</ele>
        <time>2025-03-03T19:53:46Z</time>
      </trkpt>
      <trkpt lat="42.96229" lon="-0.34859">
        <ele>1136</ele>
        <time>2025-03-03T19:53:48Z</time>
      </trkpt>
      <trkpt lat="42.96219" lon="-0.34947">
        <ele>1135.11</ele>
        <time>2025-03-03T19:53:50Z</time>
      </trkpt>
      <trkpt lat="42.96219" lon="-0.34953">
        <ele>1133.99</ele>
        <time>2025-03-03T19:53:51Z</time>
      </trkpt>
      <trkpt lat="42.96221" lon="-0.34957">
        <ele>1132.39</ele>
        <time>2025-03-03T19:53:53Z</time>
      </trkpt>
      <trkpt lat="42.96227" lon="-0.34959">
        <ele>1128.25</ele>
        <time>2025-03-03T19:53:55Z</time>
      </trkpt>
      <trkpt lat="42.96233" lon="-0.34956">
        <ele>1124.83</ele>
        <time>2025-03-03T19:53:57Z</time>
      </trkpt>
      <trkpt lat="42.96235" lon="-0.34952">
        <ele>1124.05</ele>
        <time>2025-03-03T19:53:58Z</time>
      </trkpt>
      <trkpt lat="42.96236" lon="-0.34911">
        <ele>1125.61</ele>
        <time>2025-03-03T19:54:00Z</time>
      </trkpt>
      <trkpt lat="42.96244" lon="-0.34866">
        <ele>1124.13</ele>
        <time>2025-03-03T19:54:02Z</time>
      </trkpt>
      <trkpt lat="42.96249" lon="-0.34847">
        <ele>1124.14</ele>
        <time>2025-03-03T19:54:03Z</time>
      </trkpt>
      <trkpt lat="42.96273" lon="-0.34787">
        <ele>1126.36</ele>
        <time>2025-03-03T19:54:05Z</time>
      </trkpt>
      <trkpt lat="42.96277" lon="-0.34779">
        <ele>1125.95</ele>
        <time>2025-03-03T19:54:07Z</time>
      </trkpt>
      <trkpt lat="42.96286" lon="-0.3477">
        <ele>1124.3</ele>
        <time>2025-03-03T19:54:08Z</time>
      </trkpt>
      <trkpt lat="42.96304" lon="-0.34763">
        <ele>1119.19</ele>
        <time>2025-03-03T19:54:10Z</time>
      </trkpt>
      <trkpt lat="42.96322" lon="-0.34737">
        <ele>1116.78</ele>
        <time>2025-03-03T19:54:12Z</time>
      </trkpt>
      <trkpt lat="42.96355" lon="-0.34698">
        <ele>1102.71</ele>
        <time>2025-03-03T19:54:13Z</time>
      </trkpt>
      <trkpt lat="42.96359" lon="-0.34692">
        <ele>1100.83</ele>
        <time>2025-03-03T19:54:15Z</time>
      </trkpt>
      <trkpt lat="42.96368" lon="-0.34647">
        <ele>1105.7</ele>
        <time>2025-03-03T19:54:17Z</time>
      </trkpt>
      <trkpt lat="42.96375" lon="-0.34623">
        <ele>1106.67</ele>
        <time>2025-03-03T19:54:19Z</time>
      </trkpt>
      <trkpt lat="42.96381" lon="-0.34615">
        <ele>1104.17</ele>
        <time>2025-03-03T19:54:20Z</time>
      </trkpt>
      <trkpt lat="42.96395" lon="-0.34613">
        <ele>1100.4</ele>
        <time>2025-03-03T19:54:22Z</time>
      </trkpt>
      <trkpt lat="42.96402" lon="-0.34619">
        <ele>1101.87</ele>
        <time>2025-03-03T19:54:24Z</time>
      </trkpt>
      <trkpt lat="42.96407" lon="-0.34634">
        <ele>1102.3</ele>
        <time>2025-03-03T19:54:25Z</time>
      </trkpt>
      <trkpt lat="42.96403" lon="-0.34749">
        <ele>1090.23</ele>
        <time>2025-03-03T19:54:27Z</time>
      </trkpt>
      <trkpt lat="42.96407" lon="-0.34764">
        <ele>1089.52</ele>
        <time>2025-03-03T19:54:29Z</time>
      </trkpt>
      <trkpt lat="42.96422" lon="-0.34791">
        <ele>1091.03</ele>
        <time>2025-03-03T19:54:30Z</time>
      </trkpt>
      <trkpt lat="42.96426" lon="-0.34807">
        <ele>1090.68</ele>
        <time>2025-03-03T19:54:32Z</time>
      </trkpt>
      <trkpt lat="42.9643" lon="-0.34825">
        <ele>1089.71</ele>
        <time>2025-03-03T19:54:34Z</time>
      </trkpt>
      <trkpt lat="42.96431" lon="-0.34864">
        <ele>1088.57</ele>
        <time>2025-03-03T19:54:35Z</time>
      </trkpt>
      <trkpt lat="42.96426" lon="-0.34877">
        <ele>1086.95</ele>
        <time>2025-03-03T19:54:37Z</time>
      </trkpt>
      <trkpt lat="42.96398" lon="-0.34913">
        <ele>1077.73</ele>
        <time>2025-03-03T19:54:39Z</time>
      </trkpt>
      <trkpt lat="42.96392" lon="-0.34928">
        <ele>1074.69</ele>
        <time>2025-03-03T19:54:41Z</time>
      </trkpt>
      <trkpt lat="42.9639" lon="-0.3494">
        <ele>1072.62</ele>
        <time>2025-03-03T19:54:42Z</time>
      </trkpt>
      <trkpt lat="42.96384" lon="-0.34992">
        <ele>1069.73</ele>
        <time>2025-03-03T19:54:44Z</time>
      </trkpt>
      <trkpt lat="42.9638" lon="-0.35023">
        <ele>1068.53</ele>
        <time>2025-03-03T19:54:46Z</time>
      </trkpt>
      <trkpt lat="42.96379" lon="-0.35063">
        <ele>1068.87</ele>
        <time>2025-03-03T19:54:47Z</time>
      </trkpt>
      <trkpt lat="42.96374" lon="-0.35073">
        <ele>1066.91</ele>
        <time>2025-03-03T19:54:49Z</time>
      </trkpt>
      <trkpt lat="42.96355" lon="-0.35101">
        <ele>1059.51</ele>
        <time>2025-03-03T19:54:51Z</time>
      </trkpt>
      <trkpt lat="42.96344" lon="-0.35121">
        <ele>1056.43</ele>
        <time>2025-03-03T19:54:52Z</time>
      </trkpt>
      <trkpt lat="42.96341" lon="-0.35142">
        <ele>1054.44</ele>
        <time>2025-03-03T19:54:54Z</time>
      </trkpt>
      <trkpt lat="42.96341" lon="-0.35179">
        <ele>1053.21</ele>
        <time>2025-03-03T19:54:56Z</time>
      </trkpt>
      <trkpt lat="42.96345" lon="-0.3525">
        <ele>1051.15</ele>
        <time>2025-03-03T19:54:57Z</time>
      </trkpt>
      <trkpt lat="42.96349" lon="-0.35278">
        <ele>1049.9</ele>
        <time>2025-03-03T19:54:59Z</time>
      </trkpt>
      <trkpt lat="42.96355" lon="-0.35295">
        <ele>1047.86</ele>
        <time>2025-03-03T19:55:01Z</time>
      </trkpt>
      <trkpt lat="42.96368" lon="-0.3532">
        <ele>1044.52</ele>
        <time>2025-03-03T19:55:03Z</time>
      </trkpt>
      <trkpt lat="42.96388" lon="-0.35345">
        <ele>1040.44</ele>
        <time>2025-03-03T19:55:04Z</time>
      </trkpt>
      <trkpt lat="42.964" lon="-0.3537">
        <ele>1036.64</ele>
        <time>2025-03-03T19:55:06Z</time>
      </trkpt>
      <trkpt lat="42.96409" lon="-0.35406">
        <ele>1034.06</ele>
        <time>2025-03-03T19:55:08Z</time>
      </trkpt>
      <trkpt lat="42.96418" lon="-0.35431">
        <ele>1032.61</ele>
        <time>2025-03-03T19:55:09Z</time>
      </trkpt>
      <trkpt lat="42.96462" lon="-0.35502">
        <ele>1027.27</ele>
        <time>2025-03-03T19:55:11Z</time>
      </trkpt>
      <trkpt lat="42.96473" lon="-0.35515">
        <ele>1027.58</ele>
        <time>2025-03-03T19:55:13Z</time>
      </trkpt>
      <trkpt lat="42.96493" lon="-0.35532">
        <ele>1028.98</ele>
        <time>2025-03-03T19:55:14Z</time>
      </trkpt>
      <trkpt lat="42.96519" lon="-0.3557">
        <ele>1027.45</ele>
        <time>2025-03-03T19:55:16Z</time>
      </trkpt>
      <trkpt lat="42.96551" lon="-0.35598">
        <ele>1017.79</ele>
        <time>2025-03-03T19:55:18Z</time>
      </trkpt>
      <trkpt lat="42.96565" lon="-0.35619">
        <ele>1012.84</ele>
        <time>2025-03-03T19:55:19Z</time>
      </trkpt>
      <trkpt lat="42.96574" lon="-0.35644">
        <ele>1012.98</ele>
        <time>2025-03-03T19:55:21Z</time>
      </trkpt>
      <trkpt lat="42.96595" lon="-0.35722">
        <ele>1013.41</ele>
        <time>2025-03-03T19:55:23Z</time>
      </trkpt>
      <trkpt lat="42.96607" lon="-0.35771">
        <ele>1006.35</ele>
        <time>2025-03-03T19:55:25Z</time>
      </trkpt>
      <trkpt lat="42.96617" lon="-0.3582">
        <ele>1000.11</ele>
        <time>2025-03-03T19:55:26Z</time>
      </trkpt>
      <trkpt lat="42.96623" lon="-0.35872">
        <ele>993.52</ele>
        <time>2025-03-03T19:55:28Z</time>
      </trkpt>
      <trkpt lat="42.96627" lon="-0.35927">
        <ele>990.03</ele>
        <time>2025-03-03T19:55:30Z</time>
      </trkpt>
      <trkpt lat="42.96627" lon="-0.35988">
        <ele>986.64</ele>
        <time>2025-03-03T19:55:31Z</time>
      </trkpt>
      <trkpt lat="42.96631" lon="-0.36012">
        <ele>984.27</ele>
        <time>2025-03-03T19:55:33Z</time>
      </trkpt>
      <trkpt lat="42.96642" lon="-0.36059">
        <ele>982.07</ele>
        <time>2025-03-03T19:55:35Z</time>
      </trkpt>
      <trkpt lat="42.96645" lon="-0.36108">
        <ele>975.78</ele>
        <time>2025-03-03T19:55:36Z</time>
      </trkpt>
      <trkpt lat="42.96648" lon="-0.36141">
        <ele>974.59</ele>
        <time>2025-03-03T19:55:38Z</time>
      </trkpt>
      <trkpt lat="42.96674" lon="-0.36254">
        <ele>971</ele>
        <time>2025-03-03T19:55:40Z</time>
      </trkpt>
      <trkpt lat="42.96687" lon="-0.36304">
        <ele>968.51</ele>
        <time>2025-03-03T19:55:41Z</time>
      </trkpt>
      <trkpt lat="42.96694" lon="-0.3635">
        <ele>957.61</ele>
        <time>2025-03-03T19:55:43Z</time>
      </trkpt>
      <trkpt lat="42.96699" lon="-0.36413">
        <ele>951.45</ele>
        <time>2025-03-03T19:55:45Z</time>
      </trkpt>
      <trkpt lat="42.96711" lon="-0.36446">
        <ele>953.03</ele>
        <time>2025-03-03T19:55:47Z</time>
      </trkpt>
      <trkpt lat="42.96717" lon="-0.36468">
        <ele>947.12</ele>
        <time>2025-03-03T19:55:48Z</time>
      </trkpt>
      <trkpt lat="42.96719" lon="-0.36482">
        <ele>943.97</ele>
        <time>2025-03-03T19:55:50Z</time>
      </trkpt>
      <trkpt lat="42.96723" lon="-0.36545">
        <ele>936.96</ele>
        <time>2025-03-03T19:55:52Z</time>
      </trkpt>
      <trkpt lat="42.96731" lon="-0.36576">
        <ele>938.98</ele>
        <time>2025-03-03T19:55:53Z</time>
      </trkpt>
      <trkpt lat="42.96748" lon="-0.36618">
        <ele>940.45</ele>
        <time>2025-03-03T19:55:55Z</time>
      </trkpt>
      <trkpt lat="42.96759" lon="-0.36661">
        <ele>935.49</ele>
        <time>2025-03-03T19:55:57Z</time>
      </trkpt>
      <trkpt lat="42.96767" lon="-0.36704">
        <ele>935.34</ele>
        <time>2025-03-03T19:55:58Z</time>
      </trkpt>
      <trkpt lat="42.96771" lon="-0.36762">
        <ele>934.97</ele>
        <time>2025-03-03T19:56:00Z</time>
      </trkpt>
      <trkpt lat="42.96779" lon="-0.36803">
        <ele>932.39</ele>
        <time>2025-03-03T19:56:02Z</time>
      </trkpt>
      <trkpt lat="42.96786" lon="-0.36826">
        <ele>927.59</ele>
        <time>2025-03-03T19:56:03Z</time>
      </trkpt>
      <trkpt lat="42.96817" lon="-0.36906">
        <ele>921.24</ele>
        <time>2025-03-03T19:56:05Z</time>
      </trkpt>
      <trkpt lat="42.96831" lon="-0.36956">
        <ele>916.91</ele>
        <time>2025-03-03T19:56:07Z</time>
      </trkpt>
      <trkpt lat="42.96862" lon="-0.37009">
        <ele>913.31</ele>
        <time>2025-03-03T19:56:09Z</time>
      </trkpt>
      <trkpt lat="42.96879" lon="-0.37045">
        <ele>910.41</ele>
        <time>2025-03-03T19:56:10Z</time>
      </trkpt>
      <trkpt lat="42.9689" lon="-0.37072">
        <ele>907.87</ele>
        <time>2025-03-03T19:56:12Z</time>
      </trkpt>
      <trkpt lat="42.96892" lon="-0.37094">
        <ele>906.06</ele>
        <time>2025-03-03T19:56:14Z</time>
      </trkpt>
      <trkpt lat="42.96885" lon="-0.37131">
        <ele>903.26</ele>
        <time>2025-03-03T19:56:15Z</time>
      </trkpt>
      <trkpt lat="42.96885" lon="-0.37147">
        <ele>903.87</ele>
        <time>2025-03-03T19:56:17Z</time>
      </trkpt>
      <trkpt lat="42.96904" lon="-0.37194">
        <ele>903.08</ele>
        <time>2025-03-03T19:56:19Z</time>
      </trkpt>
      <trkpt lat="42.96907" lon="-0.37203">
        <ele>901.39</ele>
        <time>2025-03-03T19:56:20Z</time>
      </trkpt>
      <trkpt lat="42.96907" lon="-0.37226">
        <ele>897.67</ele>
        <time>2025-03-03T19:56:22Z</time>
      </trkpt>
      <trkpt lat="42.96902" lon="-0.3724">
        <ele>896.36</ele>
        <time>2025-03-03T19:56:24Z</time>
      </trkpt>
      <trkpt lat="42.96894" lon="-0.37251">
        <ele>895.04</ele>
        <time>2025-03-03T19:56:25Z</time>
      </trkpt>
      <trkpt lat="42.96878" lon="-0.3726">
        <ele>893.28</ele>
        <time>2025-03-03T19:56:27Z</time>
      </trkpt>
      <trkpt lat="42.96856" lon="-0.37264">
        <ele>891.35</ele>
        <time>2025-03-03T19:56:29Z</time>
      </trkpt>
      <trkpt lat="42.96841" lon="-0.37258">
        <ele>888.65</ele>
        <time>2025-03-03T19:56:31Z</time>
      </trkpt>
      <trkpt lat="42.96826" lon="-0.37247">
        <ele>886.38</ele>
        <time>2025-03-03T19:56:32Z</time>
      </trkpt>
      <trkpt lat="42.96811" lon="-0.37226">
        <ele>884.27</ele>
        <time>2025-03-03T19:56:34Z</time>
      </trkpt>
      <trkpt lat="42.96788" lon="-0.37178">
        <ele>882.02</ele>
        <time>2025-03-03T19:56:36Z</time>
      </trkpt>
      <trkpt lat="42.96778" lon="-0.37169">
        <ele>880.12</ele>
        <time>2025-03-03T19:56:37Z</time>
      </trkpt>
      <trkpt lat="42.96768" lon="-0.37165">
        <ele>878.97</ele>
        <time>2025-03-03T19:56:39Z</time>
      </trkpt>
      <trkpt lat="42.96756" lon="-0.37167">
        <ele>877.62</ele>
        <time>2025-03-03T19:56:41Z</time>
      </trkpt>
      <trkpt lat="42.96746" lon="-0.37178">
        <ele>875.65</ele>
        <time>2025-03-03T19:56:42Z</time>
      </trkpt>
      <trkpt lat="42.96739" lon="-0.37197">
        <ele>873.11</ele>
        <time>2025-03-03T19:56:44Z</time>
      </trkpt>
      <trkpt lat="42.96739" lon="-0.37224">
        <ele>870.12</ele>
        <time>2025-03-03T19:56:46Z</time>
      </trkpt>
      <trkpt lat="42.96754" lon="-0.3736">
        <ele>867.38</ele>
        <time>2025-03-03T19:56:47Z</time>
      </trkpt>
      <trkpt lat="42.96751" lon="-0.37405">
        <ele>865.75</ele>
        <time>2025-03-03T19:56:49Z</time>
      </trkpt>
      <trkpt lat="42.96752" lon="-0.37439">
        <ele>867.63</ele>
        <time>2025-03-03T19:56:51Z</time>
      </trkpt>
      <trkpt lat="42.96759" lon="-0.37485">
        <ele>859.51</ele>
        <time>2025-03-03T19:56:53Z</time>
      </trkpt>
      <trkpt lat="42.96762" lon="-0.37524">
        <ele>856.5</ele>
        <time>2025-03-03T19:56:54Z</time>
      </trkpt>
      <trkpt lat="42.96765" lon="-0.37535">
        <ele>856.39</ele>
        <time>2025-03-03T19:56:56Z</time>
      </trkpt>
      <trkpt lat="42.96769" lon="-0.37545">
        <ele>856.27</ele>
        <time>2025-03-03T19:56:58Z</time>
      </trkpt>
      <trkpt lat="42.96794" lon="-0.37572">
        <ele>853.07</ele>
        <time>2025-03-03T19:56:59Z</time>
      </trkpt>
      <trkpt lat="42.96797" lon="-0.37579">
        <ele>851.83</ele>
        <time>2025-03-03T19:57:01Z</time>
      </trkpt>
      <trkpt lat="42.96797" lon="-0.37594">
        <ele>848.64</ele>
        <time>2025-03-03T19:57:03Z</time>
      </trkpt>
      <trkpt lat="42.96791" lon="-0.37606">
        <ele>846.23</ele>
        <time>2025-03-03T19:57:04Z</time>
      </trkpt>
      <trkpt lat="42.9678" lon="-0.37617">
        <ele>845.57</ele>
        <time>2025-03-03T19:57:06Z</time>
      </trkpt>
      <trkpt lat="42.96756" lon="-0.37638">
        <ele>854.38</ele>
        <time>2025-03-03T19:57:08Z</time>
      </trkpt>
      <trkpt lat="42.9675" lon="-0.3765">
        <ele>857.71</ele>
        <time>2025-03-03T19:57:09Z</time>
      </trkpt>
      <trkpt lat="42.96749" lon="-0.37667">
        <ele>859.59</ele>
        <time>2025-03-03T19:57:11Z</time>
      </trkpt>
      <trkpt lat="42.96751" lon="-0.3768">
        <ele>861.38</ele>
        <time>2025-03-03T19:57:13Z</time>
      </trkpt>
      <trkpt lat="42.96753" lon="-0.37688">
        <ele>861.77</ele>
        <time>2025-03-03T19:57:14Z</time>
      </trkpt>
      <trkpt lat="42.9676" lon="-0.37704">
        <ele>859.09</ele>
        <time>2025-03-03T19:57:16Z</time>
      </trkpt>
      <trkpt lat="42.96783" lon="-0.37731">
        <ele>845.45</ele>
        <time>2025-03-03T19:57:18Z</time>
      </trkpt>
      <trkpt lat="42.96789" lon="-0.3774">
        <ele>844.44</ele>
        <time>2025-03-03T19:57:20Z</time>
      </trkpt>
      <trkpt lat="42.96793" lon="-0.37749">
        <ele>844.09</ele>
        <time>2025-03-03T19:57:21Z</time>
      </trkpt>
      <trkpt lat="42.96796" lon="-0.3781">
        <ele>850.54</ele>
        <time>2025-03-03T19:57:23Z</time>
      </trkpt>
      <trkpt lat="42.96799" lon="-0.37819">
        <ele>849.9</ele>
        <time>2025-03-03T19:57:25Z</time>
      </trkpt>
      <trkpt lat="42.96817" lon="-0.37859">
        <ele>843.33</ele>
        <time>2025-03-03T19:57:26Z</time>
      </trkpt>
      <trkpt lat="42.96818" lon="-0.37873">
        <ele>843.82</ele>
        <time>2025-03-03T19:57:28Z</time>
      </trkpt>
      <trkpt lat="42.96815" lon="-0.37916">
        <ele>848.68</ele>
        <time>2025-03-03T19:57:30Z</time>
      </trkpt>
      <trkpt lat="42.96816" lon="-0.37924">
        <ele>849.54</ele>
        <time>2025-03-03T19:57:31Z</time>
      </trkpt>
      <trkpt lat="42.9682" lon="-0.37932">
        <ele>849.17</ele>
        <time>2025-03-03T19:57:33Z</time>
      </trkpt>
      <trkpt lat="42.9683" lon="-0.37941">
        <ele>844.52</ele>
        <time>2025-03-03T19:57:35Z</time>
      </trkpt>
      <trkpt lat="42.96837" lon="-0.37943">
        <ele>841.86</ele>
        <time>2025-03-03T19:57:36Z</time>
      </trkpt>
      <trkpt lat="42.96854" lon="-0.37944">
        <ele>837.16</ele>
        <time>2025-03-03T19:57:38Z</time>
      </trkpt>
      <trkpt lat="42.96869" lon="-0.3795">
        <ele>832.8</ele>
        <time>2025-03-03T19:57:40Z</time>
      </trkpt>
      <trkpt lat="42.96874" lon="-0.37956">
        <ele>831.22</ele>
        <time>2025-03-03T19:57:42Z</time>
      </trkpt>
      <trkpt lat="42.96883" lon="-0.37974">
        <ele>828.54</ele>
        <time>2025-03-03T19:57:43Z</time>
      </trkpt>
      <trkpt lat="42.96885" lon="-0.37996">
        <ele>827.86</ele>
        <time>2025-03-03T19:57:45Z</time>
      </trkpt>
      <trkpt lat="42.96884" lon="-0.38005">
        <ele>828.39</ele>
        <time>2025-03-03T19:57:47Z</time>
      </trkpt>
      <trkpt lat="42.96878" lon="-0.38018">
        <ele>831.24</ele>
        <time>2025-03-03T19:57:48Z</time>
      </trkpt>
      <trkpt lat="42.96865" lon="-0.38033">
        <ele>837.55</ele>
        <time>2025-03-03T19:57:50Z</time>
      </trkpt>
      <trkpt lat="42.96863" lon="-0.38039">
        <ele>838.75</ele>
        <time>2025-03-03T19:57:52Z</time>
      </trkpt>
      <trkpt lat="42.96861" lon="-0.38058">
        <ele>839.3</ele>
        <time>2025-03-03T19:57:53Z</time>
      </trkpt>
      <trkpt lat="42.96867" lon="-0.38071">
        <ele>838.59</ele>
        <time>2025-03-03T19:57:55Z</time>
      </trkpt>
      <trkpt lat="42.96885" lon="-0.38092">
        <ele>832.47</ele>
        <time>2025-03-03T19:57:57Z</time>
      </trkpt>
      <trkpt lat="42.96895" lon="-0.38096">
        <ele>830.49</ele>
        <time>2025-03-03T19:57:58Z</time>
      </trkpt>
      <trkpt lat="42.96919" lon="-0.3809">
        <ele>826.77</ele>
        <time>2025-03-03T19:58:00Z</time>
      </trkpt>
      <trkpt lat="42.96931" lon="-0.38094">
        <ele>825.96</ele>
        <time>2025-03-03T19:58:02Z</time>
      </trkpt>
      <trkpt lat="42.96936" lon="-0.38099">
        <ele>826.14</ele>
        <time>2025-03-03T19:58:04Z</time>
      </trkpt>
      <trkpt lat="42.9694" lon="-0.38105">
        <ele>826.67</ele>
        <time>2025-03-03T19:58:05Z</time>
      </trkpt>
      <trkpt lat="42.96947" lon="-0.38128">
        <ele>829.11</ele>
        <time>2025-03-03T19:58:07Z</time>
      </trkpt>
      <trkpt lat="42.96955" lon="-0.38138">
        <ele>829.76</ele>
        <time>2025-03-03T19:58:09Z</time>
      </trkpt>
      <trkpt lat="42.96972" lon="-0.3815">
        <ele>829.61</ele>
        <time>2025-03-03T19:58:10Z</time>
      </trkpt>
      <trkpt lat="42.96979" lon="-0.38162">
        <ele>828.59</ele>
        <time>2025-03-03T19:58:12Z</time>
      </trkpt>
      <trkpt lat="42.96982" lon="-0.3819">
        <ele>829.22</ele>
        <time>2025-03-03T19:58:14Z</time>
      </trkpt>
      <trkpt lat="42.96983" lon="-0.38232">
        <ele>829.92</ele>
        <time>2025-03-03T19:58:15Z</time>
      </trkpt>
      <trkpt lat="42.96985" lon="-0.38242">
        <ele>829.66</ele>
        <time>2025-03-03T19:58:17Z</time>
      </trkpt>
      <trkpt lat="42.96986" lon="-0.38248">
        <ele>829.43</ele>
        <time>2025-03-03T19:58:19Z</time>
      </trkpt>
      <trkpt lat="42.96993" lon="-0.38255">
        <ele>828.44</ele>
        <time>2025-03-03T19:58:20Z</time>
      </trkpt>
      <trkpt lat="42.96999" lon="-0.38253">
        <ele>827.37</ele>
        <time>2025-03-03T19:58:22Z</time>
      </trkpt>
      <trkpt lat="42.97001" lon="-0.38246">
        <ele>826.34</ele>
        <time>2025-03-03T19:58:24Z</time>
      </trkpt>
      <trkpt lat="42.96996" lon="-0.38203">
        <ele>825.17</ele>
        <time>2025-03-03T19:58:26Z</time>
      </trkpt>
      <trkpt lat="42.96998" lon="-0.38167">
        <ele>821.08</ele>
        <time>2025-03-03T19:58:27Z</time>
      </trkpt>
      <trkpt lat="42.96997" lon="-0.38157">
        <ele>820.98</ele>
        <time>2025-03-03T19:58:29Z</time>
      </trkpt>
      <trkpt lat="42.96993" lon="-0.38145">
        <ele>821.66</ele>
        <time>2025-03-03T19:58:31Z</time>
      </trkpt>
      <trkpt lat="42.96979" lon="-0.38121">
        <ele>822.66</ele>
        <time>2025-03-03T19:58:32Z</time>
      </trkpt>
      <trkpt lat="42.96971" lon="-0.38099">
        <ele>820.16</ele>
        <time>2025-03-03T19:58:34Z</time>
      </trkpt>
      <trkpt lat="42.96967" lon="-0.38075">
        <ele>816.03</ele>
        <time>2025-03-03T19:58:36Z</time>
      </trkpt>
      <trkpt lat="42.96968" lon="-0.38064">
        <ele>813.83</ele>
        <time>2025-03-03T19:58:37Z</time>
      </trkpt>
      <trkpt lat="42.9697" lon="-0.38061">
        <ele>812.66</ele>
        <time>2025-03-03T19:58:39Z</time>
      </trkpt>
      <trkpt lat="42.96977" lon="-0.3806">
        <ele>811.04</ele>
        <time>2025-03-03T19:58:41Z</time>
      </trkpt>
      <trkpt lat="42.96983" lon="-0.38065">
        <ele>810.92</ele>
        <time>2025-03-03T19:58:42Z</time>
      </trkpt>
      <trkpt lat="42.97004" lon="-0.38098">
        <ele>810.88</ele>
        <time>2025-03-03T19:58:44Z</time>
      </trkpt>
      <trkpt lat="42.97007" lon="-0.38107">
        <ele>810.77</ele>
        <time>2025-03-03T19:58:46Z</time>
      </trkpt>
      <trkpt lat="42.97029" lon="-0.38207">
        <ele>811.55</ele>
        <time>2025-03-03T19:58:48Z</time>
      </trkpt>
      <trkpt lat="42.97034" lon="-0.38219">
        <ele>812.16</ele>
        <time>2025-03-03T19:58:49Z</time>
      </trkpt>
      <trkpt lat="42.97045" lon="-0.38236">
        <ele>812.02</ele>
        <time>2025-03-03T19:58:51Z</time>
      </trkpt>
      <trkpt lat="42.97096" lon="-0.3827">
        <ele>801.17</ele>
        <time>2025-03-03T19:58:53Z</time>
      </trkpt>
      <trkpt lat="42.97104" lon="-0.38277">
        <ele>799.13</ele>
        <time>2025-03-03T19:58:54Z</time>
      </trkpt>
      <trkpt lat="42.97111" lon="-0.38288">
        <ele>796.83</ele>
        <time>2025-03-03T19:58:56Z</time>
      </trkpt>
      <trkpt lat="42.97153" lon="-0.3841">
        <ele>793.79</ele>
        <time>2025-03-03T19:58:58Z</time>
      </trkpt>
      <trkpt lat="42.97181" lon="-0.38471">
        <ele>787.31</ele>
        <time>2025-03-03T19:58:59Z</time>
      </trkpt>
      <trkpt lat="42.97187" lon="-0.38493">
        <ele>783.59</ele>
        <time>2025-03-03T19:59:01Z</time>
      </trkpt>
      <trkpt lat="42.97189" lon="-0.38512">
        <ele>780.85</ele>
        <time>2025-03-03T19:59:03Z</time>
      </trkpt>
      <trkpt lat="42.9719" lon="-0.38527">
        <ele>779.4</ele>
        <time>2025-03-03T19:59:04Z</time>
      </trkpt>
      <trkpt lat="42.97188" lon="-0.38544">
        <ele>778.94</ele>
        <time>2025-03-03T19:59:06Z</time>
      </trkpt>
      <trkpt lat="42.97184" lon="-0.38567">
        <ele>780.67</ele>
        <time>2025-03-03T19:59:08Z</time>
      </trkpt>
      <trkpt lat="42.97173" lon="-0.38615">
        <ele>790</ele>
        <time>2025-03-03T19:59:10Z</time>
      </trkpt>
      <trkpt lat="42.97171" lon="-0.38629">
        <ele>792.84</ele>
        <time>2025-03-03T19:59:11Z</time>
      </trkpt>
      <trkpt lat="42.97172" lon="-0.38642">
        <ele>793.39</ele>
        <time>2025-03-03T19:59:13Z</time>
      </trkpt>
      <trkpt lat="42.97176" lon="-0.38661">
        <ele>790.86</ele>
        <time>2025-03-03T19:59:15Z</time>
      </trkpt>
      <trkpt lat="42.97211" lon="-0.38784">
        <ele>772.97</ele>
        <time>2025-03-03T19:59:16Z</time>
      </trkpt>
      <trkpt lat="42.97222" lon="-0.38837">
        <ele>769.63</ele>
        <time>2025-03-03T19:59:18Z</time>
      </trkpt>
      <trkpt lat="42.97227" lon="-0.38855">
        <ele>764.58</ele>
        <time>2025-03-03T19:59:20Z</time>
      </trkpt>
      <trkpt lat="42.97255" lon="-0.38919">
        <ele>755.27</ele>
        <time>2025-03-03T19:59:21Z</time>
      </trkpt>
      <trkpt lat="42.97286" lon="-0.39034">
        <ele>745.72</ele>
        <time>2025-03-03T19:59:23Z</time>
      </trkpt>
      <trkpt lat="42.97292" lon="-0.39052">
        <ele>743.56</ele>
        <time>2025-03-03T19:59:25Z</time>
      </trkpt>
      <trkpt lat="42.9732" lon="-0.39116">
        <ele>735.14</ele>
        <time>2025-03-03T19:59:26Z</time>
      </trkpt>
      <trkpt lat="42.97323" lon="-0.39134">
        <ele>735.88</ele>
        <time>2025-03-03T19:59:28Z</time>
      </trkpt>
      <trkpt lat="42.9732" lon="-0.39146">
        <ele>737.07</ele>
        <time>2025-03-03T19:59:30Z</time>
      </trkpt>
      <trkpt lat="42.97311" lon="-0.39161">
        <ele>739.13</ele>
        <time>2025-03-03T19:59:32Z</time>
      </trkpt>
      <trkpt lat="42.97281" lon="-0.39192">
        <ele>738.93</ele>
        <time>2025-03-03T19:59:33Z</time>
      </trkpt>
      <trkpt lat="42.97277" lon="-0.39199">
        <ele>738.97</ele>
        <time>2025-03-03T19:59:35Z</time>
      </trkpt>
      <trkpt lat="42.97274" lon="-0.39207">
        <ele>738.99</ele>
        <time>2025-03-03T19:59:37Z</time>
      </trkpt>
      <trkpt lat="42.97275" lon="-0.39212">
        <ele>739.03</ele>
        <time>2025-03-03T19:59:38Z</time>
      </trkpt>
      <trkpt lat="42.97365" lon="-0.39356">
        <ele>720.15</ele>
        <time>2025-03-03T19:59:40Z</time>
      </trkpt>
      <trkpt lat="42.97391" lon="-0.39392">
        <ele>717.36</ele>
        <time>2025-03-03T19:59:42Z</time>
      </trkpt>
      <trkpt lat="42.97399" lon="-0.39414">
        <ele>717.36</ele>
        <time>2025-03-03T19:59:43Z</time>
      </trkpt>
      <trkpt lat="42.974" lon="-0.39429">
        <ele>718.63</ele>
        <time>2025-03-03T19:59:45Z</time>
      </trkpt>
      <trkpt lat="42.97403" lon="-0.39474">
        <ele>722.93</ele>
        <time>2025-03-03T19:59:47Z</time>
      </trkpt>
      <trkpt lat="42.97408" lon="-0.39505">
        <ele>722.57</ele>
        <time>2025-03-03T19:59:49Z</time>
      </trkpt>
      <trkpt lat="42.97413" lon="-0.39504">
        <ele>718.51</ele>
        <time>2025-03-03T19:59:50Z</time>
      </trkpt>
      <trkpt lat="42.97418" lon="-0.3951">
        <ele>714.88</ele>
        <time>2025-03-03T19:59:52Z</time>
      </trkpt>
      <trkpt lat="42.97423" lon="-0.39523">
        <ele>711.62</ele>
        <time>2025-03-03T19:59:54Z</time>
      </trkpt>
      <trkpt lat="42.97429" lon="-0.39556">
        <ele>705.81</ele>
        <time>2025-03-03T19:59:56Z</time>
      </trkpt>
      <trkpt lat="42.97426" lon="-0.39581">
        <ele>703.83</ele>
        <time>2025-03-03T19:59:58Z</time>
      </trkpt>
      <trkpt lat="42.97417" lon="-0.39613">
        <ele>701.98</ele>
        <time>2025-03-03T20:00:00Z</time>
      </trkpt>
      <trkpt lat="42.97415" lon="-0.39672">
        <ele>697.76</ele>
        <time>2025-03-03T20:00:02Z</time>
      </trkpt>
      <trkpt lat="42.974" lon="-0.39715">
        <ele>703.28</ele>
        <time>2025-03-03T20:00:03Z</time>
      </trkpt>
      <trkpt lat="42.97401" lon="-0.39735">
        <ele>702.66</ele>
        <time>2025-03-03T20:00:05Z</time>
      </trkpt>
      <trkpt lat="42.97413" lon="-0.39754">
        <ele>698.84</ele>
        <time>2025-03-03T20:00:07Z</time>
      </trkpt>
      <trkpt lat="42.97437" lon="-0.39786">
        <ele>691.67</ele>
        <time>2025-03-03T20:00:09Z</time>
      </trkpt>
      <trkpt lat="42.97444" lon="-0.39804">
        <ele>688.58</ele>
        <time>2025-03-03T20:00:11Z</time>
      </trkpt>
      <trkpt lat="42.97447" lon="-0.39818">
        <ele>688.97</ele>
        <time>2025-03-03T20:00:13Z</time>
      </trkpt>
      <trkpt lat="42.9745" lon="-0.39862">
        <ele>693.9</ele>
        <time>2025-03-03T20:00:15Z</time>
      </trkpt>
      <trkpt lat="42.97452" lon="-0.39876">
        <ele>692.59</ele>
        <time>2025-03-03T20:00:16Z</time>
      </trkpt>
      <trkpt lat="42.97463" lon="-0.39913">
        <ele>686.32</ele>
        <time>2025-03-03T20:00:18Z</time>
      </trkpt>
      <trkpt lat="42.97465" lon="-0.39939">
        <ele>685.25</ele>
        <time>2025-03-03T20:00:20Z</time>
      </trkpt>
      <trkpt lat="42.97469" lon="-0.40027">
        <ele>682</ele>
        <time>2025-03-03T20:00:22Z</time>
      </trkpt>
      <trkpt lat="42.97483" lon="-0.40145">
        <ele>679.28</ele>
        <time>2025-03-03T20:00:24Z</time>
      </trkpt>
      <trkpt lat="42.97485" lon="-0.40175">
        <ele>676.56</ele>
        <time>2025-03-03T20:00:26Z</time>
      </trkpt>
      <trkpt lat="42.97486" lon="-0.40238">
        <ele>669.94</ele>
        <time>2025-03-03T20:00:28Z</time>
      </trkpt>
      <trkpt lat="42.97487" lon="-0.40259">
        <ele>668.45</ele>
        <time>2025-03-03T20:00:29Z</time>
      </trkpt>
      <trkpt lat="42.97492" lon="-0.40269">
        <ele>666.92</ele>
        <time>2025-03-03T20:00:31Z</time>
      </trkpt>
      <trkpt lat="42.97498" lon="-0.40275">
        <ele>663.64</ele>
        <time>2025-03-03T20:00:33Z</time>
      </trkpt>
      <trkpt lat="42.97507" lon="-0.40276">
        <ele>660.84</ele>
        <time>2025-03-03T20:00:35Z</time>
      </trkpt>
      <trkpt lat="42.97515" lon="-0.40273">
        <ele>658.45</ele>
        <time>2025-03-03T20:00:37Z</time>
      </trkpt>
      <trkpt lat="42.97522" lon="-0.40274">
        <ele>656.56</ele>
        <time>2025-03-03T20:00:39Z</time>
      </trkpt>
      <trkpt lat="42.97526" lon="-0.40276">
        <ele>655.34</ele>
        <time>2025-03-03T20:00:41Z</time>
      </trkpt>
      <trkpt lat="42.97531" lon="-0.40283">
        <ele>654.44</ele>
        <time>2025-03-03T20:00:42Z</time>
      </trkpt>
      <trkpt lat="42.97533" lon="-0.40292">
        <ele>654.4</ele>
        <time>2025-03-03T20:00:44Z</time>
      </trkpt>
      <trkpt lat="42.97527" lon="-0.40318">
        <ele>657.07</ele>
        <time>2025-03-03T20:00:46Z</time>
      </trkpt>
      <trkpt lat="42.97526" lon="-0.40334">
        <ele>659.53</ele>
        <time>2025-03-03T20:00:48Z</time>
      </trkpt>
      <trkpt lat="42.97526" lon="-0.40347">
        <ele>660.8</ele>
        <time>2025-03-03T20:00:50Z</time>
      </trkpt>
      <trkpt lat="42.97529" lon="-0.40356">
        <ele>660.79</ele>
        <time>2025-03-03T20:00:52Z</time>
      </trkpt>
      <trkpt lat="42.97536" lon="-0.40366">
        <ele>659.82</ele>
        <time>2025-03-03T20:00:54Z</time>
      </trkpt>
      <trkpt lat="42.97543" lon="-0.40371">
        <ele>657.58</ele>
        <time>2025-03-03T20:00:55Z</time>
      </trkpt>
      <trkpt lat="42.9755" lon="-0.40371">
        <ele>655.35</ele>
        <time>2025-03-03T20:00:57Z</time>
      </trkpt>
      <trkpt lat="42.97557" lon="-0.40366">
        <ele>652.18</ele>
        <time>2025-03-03T20:00:59Z</time>
      </trkpt>
      <trkpt lat="42.97561" lon="-0.40358">
        <ele>650.38</ele>
        <time>2025-03-03T20:01:01Z</time>
      </trkpt>
      <trkpt lat="42.97561" lon="-0.40349">
        <ele>649.83</ele>
        <time>2025-03-03T20:01:03Z</time>
      </trkpt>
      <trkpt lat="42.97552" lon="-0.40329">
        <ele>650.92</ele>
        <time>2025-03-03T20:01:05Z</time>
      </trkpt>
      <trkpt lat="42.9755" lon="-0.40318">
        <ele>651.47</ele>
        <time>2025-03-03T20:01:07Z</time>
      </trkpt>
      <trkpt lat="42.9755" lon="-0.4031">
        <ele>651.26</ele>
        <time>2025-03-03T20:01:08Z</time>
      </trkpt>
      <trkpt lat="42.97557" lon="-0.403">
        <ele>649.34</ele>
        <time>2025-03-03T20:01:10Z</time>
      </trkpt>
      <trkpt lat="42.97562" lon="-0.40296">
        <ele>646.71</ele>
        <time>2025-03-03T20:01:12Z</time>
      </trkpt>
      <trkpt lat="42.97571" lon="-0.40297">
        <ele>643.22</ele>
        <time>2025-03-03T20:01:14Z</time>
      </trkpt>
      <trkpt lat="42.97577" lon="-0.40302">
        <ele>640.95</ele>
        <time>2025-03-03T20:01:16Z</time>
      </trkpt>
      <trkpt lat="42.97588" lon="-0.40317">
        <ele>638.88</ele>
        <time>2025-03-03T20:01:18Z</time>
      </trkpt>
      <trkpt lat="42.97592" lon="-0.4033">
        <ele>638.66</ele>
        <time>2025-03-03T20:01:20Z</time>
      </trkpt>
      <trkpt lat="42.97596" lon="-0.4036">
        <ele>639.22</ele>
        <time>2025-03-03T20:01:21Z</time>
      </trkpt>
      <trkpt lat="42.97599" lon="-0.40368">
        <ele>639.08</ele>
        <time>2025-03-03T20:01:23Z</time>
      </trkpt>
      <trkpt lat="42.97615" lon="-0.40392">
        <ele>636.45</ele>
        <time>2025-03-03T20:01:25Z</time>
      </trkpt>
      <trkpt lat="42.97638" lon="-0.40418">
        <ele>630.55</ele>
        <time>2025-03-03T20:01:27Z</time>
      </trkpt>
      <trkpt lat="42.97686" lon="-0.4046">
        <ele>622.04</ele>
        <time>2025-03-03T20:01:29Z</time>
      </trkpt>
      <trkpt lat="42.97701" lon="-0.40461">
        <ele>620.14</ele>
        <time>2025-03-03T20:01:31Z</time>
      </trkpt>
      <trkpt lat="42.97739" lon="-0.4045">
        <ele>616.28</ele>
        <time>2025-03-03T20:01:33Z</time>
      </trkpt>
      <trkpt lat="42.97762" lon="-0.4045">
        <ele>613.91</ele>
        <time>2025-03-03T20:01:34Z</time>
      </trkpt>
      <trkpt lat="42.97775" lon="-0.40453">
        <ele>612.07</ele>
        <time>2025-03-03T20:01:36Z</time>
      </trkpt>
      <trkpt lat="42.97791" lon="-0.40463">
        <ele>610.9</ele>
        <time>2025-03-03T20:01:38Z</time>
      </trkpt>
      <trkpt lat="42.97794" lon="-0.4047">
        <ele>610.03</ele>
        <time>2025-03-03T20:01:40Z</time>
      </trkpt>
      <trkpt lat="42.97795" lon="-0.40478">
        <ele>609.47</ele>
        <time>2025-03-03T20:01:42Z</time>
      </trkpt>
      <trkpt lat="42.97793" lon="-0.40485">
        <ele>609.36</ele>
        <time>2025-03-03T20:01:44Z</time>
      </trkpt>
      <trkpt lat="42.97787" lon="-0.40493">
        <ele>610.05</ele>
        <time>2025-03-03T20:01:46Z</time>
      </trkpt>
      <trkpt lat="42.97781" lon="-0.40505">
        <ele>611.05</ele>
        <time>2025-03-03T20:01:47Z</time>
      </trkpt>
      <trkpt lat="42.97781" lon="-0.40513">
        <ele>610.77</ele>
        <time>2025-03-03T20:01:49Z</time>
      </trkpt>
      <trkpt lat="42.97782" lon="-0.40519">
        <ele>609.97</ele>
        <time>2025-03-03T20:01:51Z</time>
      </trkpt>
      <trkpt lat="42.97794" lon="-0.40537">
        <ele>604.72</ele>
        <time>2025-03-03T20:01:53Z</time>
      </trkpt>
      <trkpt lat="42.97805" lon="-0.40553">
        <ele>599.5</ele>
        <time>2025-03-03T20:01:55Z</time>
      </trkpt>
      <trkpt lat="42.97832" lon="-0.40587">
        <ele>607.48</ele>
        <time>2025-03-03T20:01:57Z</time>
      </trkpt>
      <trkpt lat="42.97836" lon="-0.40594">
        <ele>608.55</ele>
        <time>2025-03-03T20:01:59Z</time>
      </trkpt>
      <trkpt lat="42.97838" lon="-0.40604">
        <ele>608.73</ele>
        <time>2025-03-03T20:02:00Z</time>
      </trkpt>
      <trkpt lat="42.97839" lon="-0.40631">
        <ele>605.42</ele>
        <time>2025-03-03T20:02:02Z</time>
      </trkpt>
      <trkpt lat="42.97842" lon="-0.40645">
        <ele>604.26</ele>
        <time>2025-03-03T20:02:04Z</time>
      </trkpt>
      <trkpt lat="42.97847" lon="-0.40655">
        <ele>604.31</ele>
        <time>2025-03-03T20:02:06Z</time>
      </trkpt>
      <trkpt lat="42.97853" lon="-0.40662">
        <ele>604.12</ele>
        <time>2025-03-03T20:02:08Z</time>
      </trkpt>
      <trkpt lat="42.97859" lon="-0.40668">
        <ele>603.92</ele>
        <time>2025-03-03T20:02:10Z</time>
      </trkpt>
      <trkpt lat="42.97876" lon="-0.40675">
        <ele>605.2</ele>
        <time>2025-03-03T20:02:12Z</time>
      </trkpt>
      <trkpt lat="42.97911" lon="-0.40684">
        <ele>606.54</ele>
        <time>2025-03-03T20:02:13Z</time>
      </trkpt>
      <trkpt lat="42.97935" lon="-0.40694">
        <ele>608.13</ele>
        <time>2025-03-03T20:02:15Z</time>
      </trkpt>
      <trkpt lat="42.97946" lon="-0.40704">
        <ele>607.91</ele>
        <time>2025-03-03T20:02:17Z</time>
      </trkpt>
      <trkpt lat="42.9796" lon="-0.40724">
        <ele>605.47</ele>
        <time>2025-03-03T20:02:19Z</time>
      </trkpt>
      <trkpt lat="42.97966" lon="-0.40735">
        <ele>604.8</ele>
        <time>2025-03-03T20:02:21Z</time>
      </trkpt>
      <trkpt lat="42.97975" lon="-0.40767">
        <ele>602.99</ele>
        <time>2025-03-03T20:02:23Z</time>
      </trkpt>
      <trkpt lat="42.97978" lon="-0.40793">
        <ele>602.77</ele>
        <time>2025-03-03T20:02:25Z</time>
      </trkpt>
      <trkpt lat="42.97989" lon="-0.40823">
        <ele>602.11</ele>
        <time>2025-03-03T20:02:26Z</time>
      </trkpt>
      <trkpt lat="42.97998" lon="-0.40842">
        <ele>600.63</ele>
        <time>2025-03-03T20:02:28Z</time>
      </trkpt>
      <trkpt lat="42.98023" lon="-0.40877">
        <ele>601.87</ele>
        <time>2025-03-03T20:02:30Z</time>
      </trkpt>
      <trkpt lat="42.98035" lon="-0.40904">
        <ele>600.32</ele>
        <time>2025-03-03T20:02:32Z</time>
      </trkpt>
      <trkpt lat="42.98052" lon="-0.40933">
        <ele>600.34</ele>
        <time>2025-03-03T20:02:34Z</time>
      </trkpt>
      <trkpt lat="42.9806" lon="-0.40943">
        <ele>601.16</ele>
        <time>2025-03-03T20:02:36Z</time>
      </trkpt>
      <trkpt lat="42.98075" lon="-0.40949">
        <ele>605.59</ele>
        <time>2025-03-03T20:02:38Z</time>
      </trkpt>
      <trkpt lat="42.98112" lon="-0.40953">
        <ele>608.08</ele>
        <time>2025-03-03T20:02:39Z</time>
      </trkpt>
      <trkpt lat="42.9818" lon="-0.40953">
        <ele>603.37</ele>
        <time>2025-03-03T20:02:41Z</time>
      </trkpt>
      <trkpt lat="42.98222" lon="-0.40967">
        <ele>604</ele>
        <time>2025-03-03T20:02:43Z</time>
      </trkpt>
      <trkpt lat="42.98238" lon="-0.40977">
        <ele>603.47</ele>
        <time>2025-03-03T20:02:45Z</time>
      </trkpt>
      <trkpt lat="42.98239" lon="-0.40986">
        <ele>602.48</ele>
        <time>2025-03-03T20:02:47Z</time>
      </trkpt>
      <trkpt lat="42.98238" lon="-0.41007">
        <ele>599.46</ele>
        <time>2025-03-03T20:02:49Z</time>
      </trkpt>
      <trkpt lat="42.98244" lon="-0.41015">
        <ele>598.26</ele>
        <time>2025-03-03T20:02:51Z</time>
      </trkpt>
      <trkpt lat="42.98286" lon="-0.4105">
        <ele>589.2</ele>
        <time>2025-03-03T20:02:52Z</time>
      </trkpt>
      <trkpt lat="42.98301" lon="-0.41071">
        <ele>588.63</ele>
        <time>2025-03-03T20:02:54Z</time>
      </trkpt>
      <trkpt lat="42.98319" lon="-0.41079">
        <ele>590.26</ele>
        <time>2025-03-03T20:02:56Z</time>
      </trkpt>
      <trkpt lat="42.98323" lon="-0.41084">
        <ele>590.38</ele>
        <time>2025-03-03T20:02:58Z</time>
      </trkpt>
      <trkpt lat="42.98326" lon="-0.4109">
        <ele>589.94</ele>
        <time>2025-03-03T20:03:00Z</time>
      </trkpt>
      <trkpt lat="42.98336" lon="-0.41135">
        <ele>581.99</ele>
        <time>2025-03-03T20:03:02Z</time>
      </trkpt>
      <trkpt lat="42.98341" lon="-0.41143">
        <ele>580.12</ele>
        <time>2025-03-03T20:03:04Z</time>
      </trkpt>
      <trkpt lat="42.98353" lon="-0.41152">
        <ele>578.17</ele>
        <time>2025-03-03T20:03:05Z</time>
      </trkpt>
      <trkpt lat="42.98365" lon="-0.41154">
        <ele>578.23</ele>
        <time>2025-03-03T20:03:07Z</time>
      </trkpt>
      <trkpt lat="42.98375" lon="-0.41151">
        <ele>580.47</ele>
        <time>2025-03-03T20:03:09Z</time>
      </trkpt>
      <trkpt lat="42.98397" lon="-0.41134">
        <ele>585.75</ele>
        <time>2025-03-03T20:03:11Z</time>
      </trkpt>
      <trkpt lat="42.98407" lon="-0.41131">
        <ele>586.43</ele>
        <time>2025-03-03T20:03:13Z</time>
      </trkpt>
      <trkpt lat="42.98428" lon="-0.41136">
        <ele>585.03</ele>
        <time>2025-03-03T20:03:15Z</time>
      </trkpt>
      <trkpt lat="42.98462" lon="-0.41167">
        <ele>577.98</ele>
        <time>2025-03-03T20:03:17Z</time>
      </trkpt>
      <trkpt lat="42.98498" lon="-0.41206">
        <ele>575.17</ele>
        <time>2025-03-03T20:03:18Z</time>
      </trkpt>
      <trkpt lat="42.98525" lon="-0.4126">
        <ele>571.35</ele>
        <time>2025-03-03T20:03:20Z</time>
      </trkpt>
      <trkpt lat="42.98564" lon="-0.41331">
        <ele>562.24</ele>
        <time>2025-03-03T20:03:22Z</time>
      </trkpt>
      <trkpt lat="42.98613" lon="-0.41389">
        <ele>558.04</ele>
        <time>2025-03-03T20:03:24Z</time>
      </trkpt>
      <trkpt lat="42.98619" lon="-0.41393">
        <ele>557.92</ele>
        <time>2025-03-03T20:03:26Z</time>
      </trkpt>
      <trkpt lat="42.9867" lon="-0.414">
        <ele>560.28</ele>
        <time>2025-03-03T20:03:28Z</time>
      </trkpt>
      <trkpt lat="42.98678" lon="-0.41403">
        <ele>559.56</ele>
        <time>2025-03-03T20:03:30Z</time>
      </trkpt>
      <trkpt lat="42.9869" lon="-0.41413">
        <ele>557.64</ele>
        <time>2025-03-03T20:03:31Z</time>
      </trkpt>
      <trkpt lat="42.98723" lon="-0.4148">
        <ele>548.89</ele>
        <time>2025-03-03T20:03:33Z</time>
      </trkpt>
      <trkpt lat="42.98737" lon="-0.41499">
        <ele>547.82</ele>
        <time>2025-03-03T20:03:35Z</time>
      </trkpt>
      <trkpt lat="42.98762" lon="-0.41526">
        <ele>544.97</ele>
        <time>2025-03-03T20:03:37Z</time>
      </trkpt>
      <trkpt lat="42.98771" lon="-0.41533">
        <ele>543.44</ele>
        <time>2025-03-03T20:03:39Z</time>
      </trkpt>
      <trkpt lat="42.98778" lon="-0.41534">
        <ele>542.84</ele>
        <time>2025-03-03T20:03:41Z</time>
      </trkpt>
      <trkpt lat="42.98793" lon="-0.4153">
        <ele>544.09</ele>
        <time>2025-03-03T20:03:43Z</time>
      </trkpt>
      <trkpt lat="42.98828" lon="-0.41484">
        <ele>547.03</ele>
        <time>2025-03-03T20:03:44Z</time>
      </trkpt>
      <trkpt lat="42.98878" lon="-0.41441">
        <ele>544.7</ele>
        <time>2025-03-03T20:03:46Z</time>
      </trkpt>
      <trkpt lat="42.98903" lon="-0.41367">
        <ele>534.1</ele>
        <time>2025-03-03T20:03:48Z</time>
      </trkpt>
      <trkpt lat="42.98914" lon="-0.41302">
        <ele>535.08</ele>
        <time>2025-03-03T20:03:50Z</time>
      </trkpt>
      <trkpt lat="42.98919" lon="-0.41289">
        <ele>536.15</ele>
        <time>2025-03-03T20:03:52Z</time>
      </trkpt>
      <trkpt lat="42.98928" lon="-0.41276">
        <ele>536.45</ele>
        <time>2025-03-03T20:03:54Z</time>
      </trkpt>
      <trkpt lat="42.98938" lon="-0.41267">
        <ele>534.97</ele>
        <time>2025-03-03T20:03:56Z</time>
      </trkpt>
      <trkpt lat="42.98956" lon="-0.41263">
        <ele>532.83</ele>
        <time>2025-03-03T20:03:57Z</time>
      </trkpt>
      <trkpt lat="42.99002" lon="-0.41263">
        <ele>532.27</ele>
        <time>2025-03-03T20:03:59Z</time>
      </trkpt>
      <trkpt lat="42.99034" lon="-0.41272">
        <ele>531.02</ele>
        <time>2025-03-03T20:04:01Z</time>
      </trkpt>
      <trkpt lat="42.99122" lon="-0.41305">
        <ele>527.91</ele>
        <time>2025-03-03T20:04:03Z</time>
      </trkpt>
      <trkpt lat="42.99153" lon="-0.41321">
        <ele>524.91</ele>
        <time>2025-03-03T20:04:05Z</time>
      </trkpt>
      <trkpt lat="42.99188" lon="-0.41343">
        <ele>522.84</ele>
        <time>2025-03-03T20:04:07Z</time>
      </trkpt>
      <trkpt lat="42.99239" lon="-0.41372">
        <ele>526.61</ele>
        <time>2025-03-03T20:04:09Z</time>
      </trkpt>
      <trkpt lat="42.993" lon="-0.4141">
        <ele>528.42</ele>
        <time>2025-03-03T20:04:11Z</time>
      </trkpt>
      <trkpt lat="42.99327" lon="-0.41426">
        <ele>527.52</ele>
        <time>2025-03-03T20:04:12Z</time>
      </trkpt>
      <trkpt lat="42.99327" lon="-0.41455">
        <ele>526.17</ele>
        <time>2025-03-03T20:04:16Z</time>
      </trkpt>
      <trkpt lat="42.99326" lon="-0.41495">
        <ele>524.08</ele>
        <time>2025-03-03T20:04:19Z</time>
      </trkpt>
      <trkpt lat="42.99313" lon="-0.41554">
        <ele>520.13</ele>
        <time>2025-03-03T20:04:23Z</time>
      </trkpt>
      <trkpt lat="42.99286" lon="-0.41625">
        <ele>511.63</ele>
        <time>2025-03-03T20:04:27Z</time>
      </trkpt>
      <trkpt lat="42.99261" lon="-0.41644">
        <ele>509.76</ele>
        <time>2025-03-03T20:04:30Z</time>
      </trkpt>
      <trkpt lat="42.99254" lon="-0.41654">
        <ele>509.01</ele>
        <time>2025-03-03T20:04:34Z</time>
      </trkpt>
      <trkpt lat="42.9925" lon="-0.41675">
        <ele>505.93</ele>
        <time>2025-03-03T20:04:37Z</time>
      </trkpt>
      <trkpt lat="42.99252" lon="-0.41683">
        <ele>503.64</ele>
        <time>2025-03-03T20:04:41Z</time>
      </trkpt>
      <trkpt lat="42.99277" lon="-0.41709">
        <ele>497.46</ele>
        <time>2025-03-03T20:04:44Z</time>
      </trkpt>
      <trkpt lat="42.99325" lon="-0.41751">
        <ele>496.34</ele>
        <time>2025-03-03T20:04:48Z</time>
      </trkpt>
      <trkpt lat="42.99363" lon="-0.41792">
        <ele>494.47</ele>
        <time>2025-03-03T20:04:51Z</time>
      </trkpt>
      <trkpt lat="42.9937" lon="-0.41806">
        <ele>495.01</ele>
        <time>2025-03-03T20:04:55Z</time>
      </trkpt>
      <trkpt lat="42.99371" lon="-0.41819">
        <ele>495.17</ele>
        <time>2025-03-03T20:04:58Z</time>
      </trkpt>
      <trkpt lat="42.99369" lon="-0.419">
        <ele>493.05</ele>
        <time>2025-03-03T20:05:02Z</time>
      </trkpt>
      <trkpt lat="42.99373" lon="-0.41923">
        <ele>492.36</ele>
        <time>2025-03-03T20:05:05Z</time>
      </trkpt>
      <trkpt lat="42.99441" lon="-0.41948">
        <ele>490.85</ele>
        <time>2025-03-03T20:05:10Z</time>
      </trkpt>
      <trkpt lat="42.99455" lon="-0.41974">
        <ele>489.94</ele>
        <time>2025-03-03T20:05:13Z</time>
      </trkpt>
      <trkpt lat="42.99472" lon="-0.42013">
        <ele>489</ele>
        <time>2025-03-03T20:05:16Z</time>
      </trkpt>
      <trkpt lat="42.99484" lon="-0.42029">
        <ele>488.98</ele>
        <time>2025-03-03T20:05:19Z</time>
      </trkpt>
      <trkpt lat="42.99503" lon="-0.42041">
        <ele>488.48</ele>
        <time>2025-03-03T20:05:23Z</time>
      </trkpt>
      <trkpt lat="42.99532" lon="-0.42049">
        <ele>488.16</ele>
        <time>2025-03-03T20:05:26Z</time>
      </trkpt>
      <trkpt lat="42.99639" lon="-0.42055">
        <ele>486</ele>
        <time>2025-03-03T20:05:29Z</time>
      </trkpt>
      <trkpt lat="42.99698" lon="-0.42051">
        <ele>487.77</ele>
        <time>2025-03-03T20:05:32Z</time>
      </trkpt>
      <trkpt lat="42.99735" lon="-0.42042">
        <ele>485.31</ele>
        <time>2025-03-03T20:05:36Z</time>
      </trkpt>
      <trkpt lat="42.99824" lon="-0.42003">
        <ele>483.43</ele>
        <time>2025-03-03T20:05:39Z</time>
      </trkpt>
      <trkpt lat="42.99952" lon="-0.41952">
        <ele>484.62</ele>
        <time>2025-03-03T20:05:42Z</time>
      </trkpt>
      <trkpt lat="43.00107" lon="-0.41885">
        <ele>485.2</ele>
        <time>2025-03-03T20:05:45Z</time>
      </trkpt>
      <trkpt lat="43.00141" lon="-0.41865">
        <ele>492.69</ele>
        <time>2025-03-03T20:05:49Z</time>
      </trkpt>
      <trkpt lat="43.00195" lon="-0.41837">
        <ele>493.67</ele>
        <time>2025-03-03T20:05:52Z</time>
      </trkpt>
      <trkpt lat="43.00228" lon="-0.41824">
        <ele>492.62</ele>
        <time>2025-03-03T20:05:55Z</time>
      </trkpt>
      <trkpt lat="43.00323" lon="-0.41759">
        <ele>483.51</ele>
        <time>2025-03-03T20:05:58Z</time>
      </trkpt>
      <trkpt lat="43.00379" lon="-0.41717">
        <ele>481.76</ele>
        <time>2025-03-03T20:06:02Z</time>
      </trkpt>
      <trkpt lat="43.00433" lon="-0.41686">
        <ele>481.93</ele>
        <time>2025-03-03T20:06:05Z</time>
      </trkpt>
      <trkpt lat="43.00443" lon="-0.41681">
        <ele>480.61</ele>
        <time>2025-03-03T20:06:08Z</time>
      </trkpt>
      <trkpt lat="43.00454" lon="-0.4168">
        <ele>480.05</ele>
        <time>2025-03-03T20:06:12Z</time>
      </trkpt>
      <trkpt lat="43.00478" lon="-0.41684">
        <ele>478.96</ele>
        <time>2025-03-03T20:06:15Z</time>
      </trkpt>
      <trkpt lat="43.00511" lon="-0.41692">
        <ele>480.31</ele>
        <time>2025-03-03T20:06:18Z</time>
      </trkpt>
      <trkpt lat="43.0055" lon="-0.41698">
        <ele>484.04</ele>
        <time>2025-03-03T20:06:21Z</time>
      </trkpt>
      <trkpt lat="43.00563" lon="-0.41704">
        <ele>485.68</ele>
        <time>2025-03-03T20:06:25Z</time>
      </trkpt>
      <trkpt lat="43.00584" lon="-0.41722">
        <ele>487.25</ele>
        <time>2025-03-03T20:06:28Z</time>
      </trkpt>
      <trkpt lat="43.0064" lon="-0.41796">
        <ele>486.82</ele>
        <time>2025-03-03T20:06:31Z</time>
      </trkpt>
      <trkpt lat="43.00711" lon="-0.41866">
        <ele>483.02</ele>
        <time>2025-03-03T20:06:34Z</time>
      </trkpt>
      <trkpt lat="43.00893" lon="-0.42013">
        <ele>470.72</ele>
        <time>2025-03-03T20:06:38Z</time>
      </trkpt>
      <trkpt lat="43.00909" lon="-0.42023">
        <ele>469.54</ele>
        <time>2025-03-03T20:06:41Z</time>
      </trkpt>
      <trkpt lat="43.00925" lon="-0.42026">
        <ele>469.28</ele>
        <time>2025-03-03T20:06:44Z</time>
      </trkpt>
      <trkpt lat="43.00952" lon="-0.42017">
        <ele>469.83</ele>
        <time>2025-03-03T20:06:47Z</time>
      </trkpt>
      <trkpt lat="43.00972" lon="-0.41998">
        <ele>470</ele>
        <time>2025-03-03T20:06:51Z</time>
      </trkpt>
      <trkpt lat="43.00997" lon="-0.41967">
        <ele>471.06</ele>
        <time>2025-03-03T20:06:54Z</time>
      </trkpt>
      <trkpt lat="43.01004" lon="-0.41961">
        <ele>471.63</ele>
        <time>2025-03-03T20:06:57Z</time>
      </trkpt>
      <trkpt lat="43.01047" lon="-0.41945">
        <ele>473</ele>
        <time>2025-03-03T20:07:01Z</time>
      </trkpt>
      <trkpt lat="43.011" lon="-0.41918">
        <ele>471.02</ele>
        <time>2025-03-03T20:07:04Z</time>
      </trkpt>
      <trkpt lat="43.01197" lon="-0.41879">
        <ele>467.97</ele>
        <time>2025-03-03T20:07:07Z</time>
      </trkpt>
      <trkpt lat="43.01243" lon="-0.41841">
        <ele>467.38</ele>
        <time>2025-03-03T20:07:10Z</time>
      </trkpt>
      <trkpt lat="43.0126" lon="-0.41837">
        <ele>467.72</ele>
        <time>2025-03-03T20:07:14Z</time>
      </trkpt>
      <trkpt lat="43.01299" lon="-0.41845">
        <ele>469.34</ele>
        <time>2025-03-03T20:07:17Z</time>
      </trkpt>
      <trkpt lat="43.01309" lon="-0.41843">
        <ele>469.64</ele>
        <time>2025-03-03T20:07:20Z</time>
      </trkpt>
      <trkpt lat="43.01374" lon="-0.41815">
        <ele>469.05</ele>
        <time>2025-03-03T20:07:23Z</time>
      </trkpt>
      <trkpt lat="43.01391" lon="-0.41805">
        <ele>467.91</ele>
        <time>2025-03-03T20:07:27Z</time>
      </trkpt>
      <trkpt lat="43.01418" lon="-0.41781">
        <ele>467.66</ele>
        <time>2025-03-03T20:07:30Z</time>
      </trkpt>
      <trkpt lat="43.0143" lon="-0.41772">
        <ele>467.02</ele>
        <time>2025-03-03T20:07:33Z</time>
      </trkpt>
      <trkpt lat="43.01487" lon="-0.41752">
        <ele>468.29</ele>
        <time>2025-03-03T20:07:36Z</time>
      </trkpt>
      <trkpt lat="43.01519" lon="-0.41744">
        <ele>468.16</ele>
        <time>2025-03-03T20:07:40Z</time>
      </trkpt>
      <trkpt lat="43.01542" lon="-0.41727">
        <ele>469.61</ele>
        <time>2025-03-03T20:07:43Z</time>
      </trkpt>
      <trkpt lat="43.01572" lon="-0.41716">
        <ele>471.45</ele>
        <time>2025-03-03T20:07:46Z</time>
      </trkpt>
      <trkpt lat="43.01599" lon="-0.41703">
        <ele>473.87</ele>
        <time>2025-03-03T20:07:49Z</time>
      </trkpt>
      <trkpt lat="43.0162" lon="-0.41699">
        <ele>472.81</ele>
        <time>2025-03-03T20:07:53Z</time>
      </trkpt>
      <trkpt lat="43.0163" lon="-0.41701">
        <ele>470.8</ele>
        <time>2025-03-03T20:07:56Z</time>
      </trkpt>
      <trkpt lat="43.01664" lon="-0.41723">
        <ele>467.67</ele>
        <time>2025-03-03T20:07:59Z</time>
      </trkpt>
      <trkpt lat="43.0167" lon="-0.41724">
        <ele>467.72</ele>
        <time>2025-03-03T20:08:03Z</time>
      </trkpt>
      <trkpt lat="43.01708" lon="-0.41713">
        <ele>467.19</ele>
        <time>2025-03-03T20:08:06Z</time>
      </trkpt>
      <trkpt lat="43.01725" lon="-0.41701">
        <ele>466.46</ele>
        <time>2025-03-03T20:08:09Z</time>
      </trkpt>
      <trkpt lat="43.01777" lon="-0.41647">
        <ele>470.54</ele>
        <time>2025-03-03T20:08:12Z</time>
      </trkpt>
      <trkpt lat="43.01862" lon="-0.41605">
        <ele>474.89</ele>
        <time>2025-03-03T20:08:16Z</time>
      </trkpt>
      <trkpt lat="43.01893" lon="-0.41555">
        <ele>477.94</ele>
        <time>2025-03-03T20:08:19Z</time>
      </trkpt>
      <trkpt lat="43.01902" lon="-0.41491">
        <ele>484.64</ele>
        <time>2025-03-03T20:08:22Z</time>
      </trkpt>
      <trkpt lat="43.01906" lon="-0.41472">
        <ele>486.2</ele>
        <time>2025-03-03T20:08:25Z</time>
      </trkpt>
      <trkpt lat="43.01912" lon="-0.41456">
        <ele>487.21</ele>
        <time>2025-03-03T20:08:29Z</time>
      </trkpt>
      <trkpt lat="43.01916" lon="-0.41451">
        <ele>486.99</ele>
        <time>2025-03-03T20:08:32Z</time>
      </trkpt>
      <trkpt lat="43.01921" lon="-0.41448">
        <ele>486.49</ele>
        <time>2025-03-03T20:08:35Z</time>
      </trkpt>
      <trkpt lat="43.01927" lon="-0.41449">
        <ele>485.41</ele>
        <time>2025-03-03T20:08:38Z</time>
      </trkpt>
      <trkpt lat="43.01935" lon="-0.41455">
        <ele>483.29</ele>
        <time>2025-03-03T20:08:42Z</time>
      </trkpt>
      <trkpt lat="43.01945" lon="-0.41477">
        <ele>479.78</ele>
        <time>2025-03-03T20:08:45Z</time>
      </trkpt>
      <trkpt lat="43.01962" lon="-0.41536">
        <ele>477.83</ele>
        <time>2025-03-03T20:08:48Z</time>
      </trkpt>
      <trkpt lat="43.01966" lon="-0.41541">
        <ele>477.84</ele>
        <time>2025-03-03T20:08:52Z</time>
      </trkpt>
      <trkpt lat="43.01981" lon="-0.41546">
        <ele>479.36</ele>
        <time>2025-03-03T20:08:55Z</time>
      </trkpt>
      <trkpt lat="43.02031" lon="-0.41542">
        <ele>484.81</ele>
        <time>2025-03-03T20:08:58Z</time>
      </trkpt>
      <trkpt lat="43.02079" lon="-0.41532">
        <ele>487.71</ele>
        <time>2025-03-03T20:09:01Z</time>
      </trkpt>
      <trkpt lat="43.02103" lon="-0.4152">
        <ele>489.12</ele>
        <time>2025-03-03T20:09:05Z</time>
      </trkpt>
      <trkpt lat="43.02118" lon="-0.41509">
        <ele>490.23</ele>
        <time>2025-03-03T20:09:08Z</time>
      </trkpt>
      <trkpt lat="43.0213" lon="-0.41494">
        <ele>492.42</ele>
        <time>2025-03-03T20:09:11Z</time>
      </trkpt>
      <trkpt lat="43.02148" lon="-0.41467">
        <ele>496.03</ele>
        <time>2025-03-03T20:09:14Z</time>
      </trkpt>
      <trkpt lat="43.02155" lon="-0.41461">
        <ele>496.26</ele>
        <time>2025-03-03T20:09:18Z</time>
      </trkpt>
      <trkpt lat="43.02204" lon="-0.41442">
        <ele>496.79</ele>
        <time>2025-03-03T20:09:21Z</time>
      </trkpt>
      <trkpt lat="43.0222" lon="-0.4143">
        <ele>496.65</ele>
        <time>2025-03-03T20:09:24Z</time>
      </trkpt>
      <trkpt lat="43.02223" lon="-0.41423">
        <ele>496.76</ele>
        <time>2025-03-03T20:09:27Z</time>
      </trkpt>
      <trkpt lat="43.02229" lon="-0.4136">
        <ele>501.11</ele>
        <time>2025-03-03T20:09:31Z</time>
      </trkpt>
      <trkpt lat="43.02239" lon="-0.41344">
        <ele>500.82</ele>
        <time>2025-03-03T20:09:34Z</time>
      </trkpt>
      <trkpt lat="43.02247" lon="-0.4134">
        <ele>499.92</ele>
        <time>2025-03-03T20:09:37Z</time>
      </trkpt>
      <trkpt lat="43.02261" lon="-0.41313">
        <ele>501.07</ele>
        <time>2025-03-03T20:09:41Z</time>
      </trkpt>
      <trkpt lat="43.02317" lon="-0.41269">
        <ele>502.2</ele>
        <time>2025-03-03T20:09:44Z</time>
      </trkpt>
      <trkpt lat="43.02333" lon="-0.41268">
        <ele>501.38</ele>
        <time>2025-03-03T20:09:47Z</time>
      </trkpt>
      <trkpt lat="43.02382" lon="-0.41277">
        <ele>496.12</ele>
        <time>2025-03-03T20:09:50Z</time>
      </trkpt>
      <trkpt lat="43.02392" lon="-0.4128">
        <ele>495.33</ele>
        <time>2025-03-03T20:09:54Z</time>
      </trkpt>
      <trkpt lat="43.02416" lon="-0.41296">
        <ele>490.49</ele>
        <time>2025-03-03T20:09:57Z</time>
      </trkpt>
      <trkpt lat="43.0243" lon="-0.41303">
        <ele>490.19</ele>
        <time>2025-03-03T20:10:00Z</time>
      </trkpt>
      <trkpt lat="43.02455" lon="-0.41311">
        <ele>490.69</ele>
        <time>2025-03-03T20:10:03Z</time>
      </trkpt>
      <trkpt lat="43.02497" lon="-0.41319">
        <ele>490.87</ele>
        <time>2025-03-03T20:10:07Z</time>
      </trkpt>
      <trkpt lat="43.02534" lon="-0.41333">
        <ele>490.02</ele>
        <time>2025-03-03T20:10:10Z</time>
      </trkpt>
      <trkpt lat="43.02605" lon="-0.41395">
        <ele>483.46</ele>
        <time>2025-03-03T20:10:13Z</time>
      </trkpt>
      <trkpt lat="43.02638" lon="-0.4141">
        <ele>479.46</ele>
        <time>2025-03-03T20:10:16Z</time>
      </trkpt>
      <trkpt lat="43.02674" lon="-0.41414">
        <ele>486.6</ele>
        <time>2025-03-03T20:10:20Z</time>
      </trkpt>
      <trkpt lat="43.02716" lon="-0.41435">
        <ele>485.61</ele>
        <time>2025-03-03T20:10:23Z</time>
      </trkpt>
      <trkpt lat="43.02763" lon="-0.41467">
        <ele>484.35</ele>
        <time>2025-03-03T20:10:26Z</time>
      </trkpt>
      <trkpt lat="43.02814" lon="-0.41483">
        <ele>484.17</ele>
        <time>2025-03-03T20:10:29Z</time>
      </trkpt>
      <trkpt lat="43.02838" lon="-0.41478">
        <ele>485.17</ele>
        <time>2025-03-03T20:10:33Z</time>
      </trkpt>
      <trkpt lat="43.02885" lon="-0.41461">
        <ele>489.13</ele>
        <time>2025-03-03T20:10:36Z</time>
      </trkpt>
      <trkpt lat="43.02895" lon="-0.41461">
        <ele>488.98</ele>
        <time>2025-03-03T20:10:39Z</time>
      </trkpt>
      <trkpt lat="43.02904" lon="-0.41465">
        <ele>488.15</ele>
        <time>2025-03-03T20:10:43Z</time>
      </trkpt>
      <trkpt lat="43.02914" lon="-0.41472">
        <ele>484.73</ele>
        <time>2025-03-03T20:10:46Z</time>
      </trkpt>
      <trkpt lat="43.02926" lon="-0.41486">
        <ele>479.91</ele>
        <time>2025-03-03T20:10:49Z</time>
      </trkpt>
      <trkpt lat="43.02954" lon="-0.41499">
        <ele>476.93</ele>
        <time>2025-03-03T20:10:52Z</time>
      </trkpt>
      <trkpt lat="43.03002" lon="-0.4151">
        <ele>485.79</ele>
        <time>2025-03-03T20:10:56Z</time>
      </trkpt>
      <trkpt lat="43.0303" lon="-0.41523">
        <ele>485.4</ele>
        <time>2025-03-03T20:10:59Z</time>
      </trkpt>
      <trkpt lat="43.03062" lon="-0.41541">
        <ele>483.5</ele>
        <time>2025-03-03T20:11:02Z</time>
      </trkpt>
      <trkpt lat="43.03109" lon="-0.41577">
        <ele>475.53</ele>
        <time>2025-03-03T20:11:05Z</time>
      </trkpt>
      <trkpt lat="43.03171" lon="-0.41617">
        <ele>477.42</ele>
        <time>2025-03-03T20:11:09Z</time>
      </trkpt>
      <trkpt lat="43.03205" lon="-0.41632">
        <ele>478.66</ele>
        <time>2025-03-03T20:11:12Z</time>
      </trkpt>
      <trkpt lat="43.03276" lon="-0.41681">
        <ele>474.57</ele>
        <time>2025-03-03T20:11:15Z</time>
      </trkpt>
      <trkpt lat="43.0332" lon="-0.41728">
        <ele>460.82</ele>
        <time>2025-03-03T20:11:18Z</time>
      </trkpt>
      <trkpt lat="43.03353" lon="-0.41758">
        <ele>458.36</ele>
        <time>2025-03-03T20:11:22Z</time>
      </trkpt>
      <trkpt lat="43.03385" lon="-0.41772">
        <ele>459.08</ele>
        <time>2025-03-03T20:11:25Z</time>
      </trkpt>
      <trkpt lat="43.03398" lon="-0.4177">
        <ele>460.6</ele>
        <time>2025-03-03T20:11:28Z</time>
      </trkpt>
      <trkpt lat="43.03425" lon="-0.41774">
        <ele>460.25</ele>
        <time>2025-03-03T20:11:32Z</time>
      </trkpt>
      <trkpt lat="43.03473" lon="-0.41778">
        <ele>455.99</ele>
        <time>2025-03-03T20:11:35Z</time>
      </trkpt>
      <trkpt lat="43.03508" lon="-0.41801">
        <ele>453.78</ele>
        <time>2025-03-03T20:11:38Z</time>
      </trkpt>
      <trkpt lat="43.03522" lon="-0.41834">
        <ele>452.18</ele>
        <time>2025-03-03T20:11:41Z</time>
      </trkpt>
      <trkpt lat="43.03541" lon="-0.4184">
        <ele>451.5</ele>
        <time>2025-03-03T20:11:43Z</time>
      </trkpt>
      <trkpt lat="43.03562" lon="-0.41939">
        <ele>448.78</ele>
        <time>2025-03-03T20:11:46Z</time>
      </trkpt>
      <trkpt lat="43.03578" lon="-0.4203">
        <ele>448.94</ele>
        <time>2025-03-03T20:11:49Z</time>
      </trkpt>
      <trkpt lat="43.03595" lon="-0.42057">
        <ele>447.97</ele>
        <time>2025-03-03T20:11:52Z</time>
      </trkpt>
      <trkpt lat="43.03609" lon="-0.42074">
        <ele>447.41</ele>
        <time>2025-03-03T20:11:55Z</time>
      </trkpt>
      <trkpt lat="43.03648" lon="-0.42102">
        <ele>447</ele>
        <time>2025-03-03T20:11:57Z</time>
      </trkpt>
      <trkpt lat="43.03717" lon="-0.42152">
        <ele>445.73</ele>
        <time>2025-03-03T20:12:00Z</time>
      </trkpt>
      <trkpt lat="43.03727" lon="-0.42169">
        <ele>444.83</ele>
        <time>2025-03-03T20:12:03Z</time>
      </trkpt>
      <trkpt lat="43.03729" lon="-0.42186">
        <ele>444.76</ele>
        <time>2025-03-03T20:12:06Z</time>
      </trkpt>
      <trkpt lat="43.03725" lon="-0.42231">
        <ele>447.15</ele>
        <time>2025-03-03T20:12:09Z</time>
      </trkpt>
      <trkpt lat="43.03717" lon="-0.42295">
        <ele>449.83</ele>
        <time>2025-03-03T20:12:11Z</time>
      </trkpt>
      <trkpt lat="43.03713" lon="-0.42319">
        <ele>450.8</ele>
        <time>2025-03-03T20:12:14Z</time>
      </trkpt>
      <trkpt lat="43.03721" lon="-0.42324">
        <ele>450.73</ele>
        <time>2025-03-03T20:12:17Z</time>
      </trkpt>
      <trkpt lat="43.03726" lon="-0.42334">
        <ele>450.74</ele>
        <time>2025-03-03T20:12:20Z</time>
      </trkpt>
      <trkpt lat="43.03728" lon="-0.42347">
        <ele>450.8</ele>
        <time>2025-03-03T20:12:22Z</time>
      </trkpt>
      <trkpt lat="43.03726" lon="-0.42357">
        <ele>450.96</ele>
        <time>2025-03-03T20:12:25Z</time>
      </trkpt>
      <trkpt lat="43.03722" lon="-0.42364">
        <ele>451.01</ele>
        <time>2025-03-03T20:12:28Z</time>
      </trkpt>
      <trkpt lat="43.03726" lon="-0.42378">
        <ele>451</ele>
        <time>2025-03-03T20:12:31Z</time>
      </trkpt>
      <trkpt lat="43.03732" lon="-0.42391">
        <ele>450.93</ele>
        <time>2025-03-03T20:12:33Z</time>
      </trkpt>
      <trkpt lat="43.03865" lon="-0.42457">
        <ele>451.17</ele>
        <time>2025-03-03T20:12:42Z</time>
      </trkpt>
      <trkpt lat="43.03929" lon="-0.42485">
        <ele>448.21</ele>
        <time>2025-03-03T20:12:50Z</time>
      </trkpt>
      <trkpt lat="43.04202" lon="-0.42573">
        <ele>444.17</ele>
        <time>2025-03-03T20:12:58Z</time>
      </trkpt>
      <trkpt lat="43.04341" lon="-0.42644">
        <ele>441.78</ele>
        <time>2025-03-03T20:13:07Z</time>
      </trkpt>
      <trkpt lat="43.04364" lon="-0.42662">
        <ele>441.72</ele>
        <time>2025-03-03T20:13:15Z</time>
      </trkpt>
      <trkpt lat="43.0437" lon="-0.42666">
        <ele>441.65</ele>
        <time>2025-03-03T20:13:23Z</time>
      </trkpt>
      <trkpt lat="43.04447" lon="-0.42722">
        <ele>439.81</ele>
        <time>2025-03-03T20:13:31Z</time>
      </trkpt>
      <trkpt lat="43.04512" lon="-0.42766">
        <ele>442.98</ele>
        <time>2025-03-03T20:13:40Z</time>
      </trkpt>
      <trkpt lat="43.04661" lon="-0.42896">
        <ele>441.61</ele>
        <time>2025-03-03T20:13:48Z</time>
      </trkpt>
      <trkpt lat="43.04716" lon="-0.42927">
        <ele>442.45</ele>
        <time>2025-03-03T20:13:56Z</time>
      </trkpt>
      <trkpt lat="43.04815" lon="-0.42967">
        <ele>443</ele>
        <time>2025-03-03T20:14:05Z</time>
      </trkpt>
      <trkpt lat="43.05033" lon="-0.43027">
        <ele>442.14</ele>
        <time>2025-03-03T20:14:13Z</time>
      </trkpt>
      <trkpt lat="43.05186" lon="-0.43069">
        <ele>448.69</ele>
        <time>2025-03-03T20:14:21Z</time>
      </trkpt>
      <trkpt lat="43.05321" lon="-0.43101">
        <ele>451.13</ele>
        <time>2025-03-03T20:14:30Z</time>
      </trkpt>
      <trkpt lat="43.05387" lon="-0.43113">
        <ele>452.91</ele>
        <time>2025-03-03T20:14:38Z</time>
      </trkpt>
      <trkpt lat="43.05489" lon="-0.43139">
        <ele>454.58</ele>
        <time>2025-03-03T20:14:46Z</time>
      </trkpt>
      <trkpt lat="43.05512" lon="-0.4314">
        <ele>455.04</ele>
        <time>2025-03-03T20:14:55Z</time>
      </trkpt>
      <trkpt lat="43.05524" lon="-0.43138">
        <ele>454.93</ele>
        <time>2025-03-03T20:15:03Z</time>
      </trkpt>
      <trkpt lat="43.05559" lon="-0.43123">
        <ele>454.05</ele>
        <time>2025-03-03T20:15:11Z</time>
      </trkpt>
      <trkpt lat="43.05672" lon="-0.43059">
        <ele>455.04</ele>
        <time>2025-03-03T20:15:19Z</time>
      </trkpt>
      <trkpt lat="43.05686" lon="-0.4305">
        <ele>453.88</ele>
        <time>2025-03-03T20:15:28Z</time>
      </trkpt>
      <trkpt lat="43.0576" lon="-0.4298">
        <ele>450.17</ele>
        <time>2025-03-03T20:15:36Z</time>
      </trkpt>
      <trkpt lat="43.05772" lon="-0.42969">
        <ele>449.78</ele>
        <time>2025-03-03T20:15:44Z</time>
      </trkpt>
      <trkpt lat="43.05776" lon="-0.42989">
        <ele>450.03</ele>
        <time>2025-03-03T20:15:46Z</time>
      </trkpt>
      <trkpt lat="43.05779" lon="-0.43007">
        <ele>450.26</ele>
        <time>2025-03-03T20:15:48Z</time>
      </trkpt>
      <trkpt lat="43.05795" lon="-0.43039">
        <ele>451.16</ele>
        <time>2025-03-03T20:15:50Z</time>
      </trkpt>
      <trkpt lat="43.05802" lon="-0.43064">
        <ele>451.4</ele>
        <time>2025-03-03T20:15:52Z</time>
      </trkpt>
      <trkpt lat="43.05807" lon="-0.43111">
        <ele>452</ele>
        <time>2025-03-03T20:15:54Z</time>
      </trkpt>
      <trkpt lat="43.05812" lon="-0.43233">
        <ele>457.52</ele>
        <time>2025-03-03T20:15:56Z</time>
      </trkpt>
      <trkpt lat="43.0581" lon="-0.43321">
        <ele>460.55</ele>
        <time>2025-03-03T20:15:58Z</time>
      </trkpt>
      <trkpt lat="43.05799" lon="-0.43487">
        <ele>465.38</ele>
        <time>2025-03-03T20:16:00Z</time>
      </trkpt>
      <trkpt lat="43.05787" lon="-0.43538">
        <ele>469.66</ele>
        <time>2025-03-03T20:16:02Z</time>
      </trkpt>
      <trkpt lat="43.05748" lon="-0.43627">
        <ele>495.1</ele>
        <time>2025-03-03T20:16:04Z</time>
      </trkpt>
      <trkpt lat="43.05731" lon="-0.43671">
        <ele>494.29</ele>
        <time>2025-03-03T20:16:06Z</time>
      </trkpt>
      <trkpt lat="43.05724" lon="-0.43693">
        <ele>491.43</ele>
        <time>2025-03-03T20:16:08Z</time>
      </trkpt>
      <trkpt lat="43.05722" lon="-0.43705">
        <ele>489.35</ele>
        <time>2025-03-03T20:16:10Z</time>
      </trkpt>
      <trkpt lat="43.0572" lon="-0.43742">
        <ele>484.81</ele>
        <time>2025-03-03T20:16:11Z</time>
      </trkpt>
      <trkpt lat="43.05724" lon="-0.43784">
        <ele>486.81</ele>
        <time>2025-03-03T20:16:13Z</time>
      </trkpt>
      <trkpt lat="43.05745" lon="-0.43888">
        <ele>495.48</ele>
        <time>2025-03-03T20:16:15Z</time>
      </trkpt>
      <trkpt lat="43.05751" lon="-0.4395">
        <ele>500.92</ele>
        <time>2025-03-03T20:16:17Z</time>
      </trkpt>
      <trkpt lat="43.05758" lon="-0.43973">
        <ele>504.87</ele>
        <time>2025-03-03T20:16:19Z</time>
      </trkpt>
      <trkpt lat="43.05767" lon="-0.43986">
        <ele>507.79</ele>
        <time>2025-03-03T20:16:21Z</time>
      </trkpt>
      <trkpt lat="43.05775" lon="-0.43991">
        <ele>508.69</ele>
        <time>2025-03-03T20:16:23Z</time>
      </trkpt>
      <trkpt lat="43.05784" lon="-0.43993">
        <ele>509.99</ele>
        <time>2025-03-03T20:16:25Z</time>
      </trkpt>
      <trkpt lat="43.05791" lon="-0.43992">
        <ele>510.86</ele>
        <time>2025-03-03T20:16:27Z</time>
      </trkpt>
      <trkpt lat="43.05804" lon="-0.43984">
        <ele>511.39</ele>
        <time>2025-03-03T20:16:29Z</time>
      </trkpt>
      <trkpt lat="43.05847" lon="-0.43933">
        <ele>519.24</ele>
        <time>2025-03-03T20:16:31Z</time>
      </trkpt>
      <trkpt lat="43.05875" lon="-0.43892">
        <ele>524.66</ele>
        <time>2025-03-03T20:16:33Z</time>
      </trkpt>
      <trkpt lat="43.05881" lon="-0.43878">
        <ele>524.89</ele>
        <time>2025-03-03T20:16:35Z</time>
      </trkpt>
      <trkpt lat="43.05899" lon="-0.43838">
        <ele>524.96</ele>
        <time>2025-03-03T20:16:37Z</time>
      </trkpt>
      <trkpt lat="43.05913" lon="-0.43823">
        <ele>526.56</ele>
        <time>2025-03-03T20:16:39Z</time>
      </trkpt>
      <trkpt lat="43.05921" lon="-0.43817">
        <ele>527.8</ele>
        <time>2025-03-03T20:16:40Z</time>
      </trkpt>
      <trkpt lat="43.05939" lon="-0.43811">
        <ele>530.44</ele>
        <time>2025-03-03T20:16:42Z</time>
      </trkpt>
      <trkpt lat="43.06" lon="-0.43801">
        <ele>539.99</ele>
        <time>2025-03-03T20:16:44Z</time>
      </trkpt>
      <trkpt lat="43.06048" lon="-0.43794">
        <ele>546.24</ele>
        <time>2025-03-03T20:16:46Z</time>
      </trkpt>
      <trkpt lat="43.06098" lon="-0.43791">
        <ele>556.46</ele>
        <time>2025-03-03T20:16:48Z</time>
      </trkpt>
      <trkpt lat="43.06108" lon="-0.43789">
        <ele>557.94</ele>
        <time>2025-03-03T20:16:50Z</time>
      </trkpt>
      <trkpt lat="43.06129" lon="-0.43778">
        <ele>558.91</ele>
        <time>2025-03-03T20:16:52Z</time>
      </trkpt>
      <trkpt lat="43.0615" lon="-0.43759">
        <ele>558.65</ele>
        <time>2025-03-03T20:16:54Z</time>
      </trkpt>
      <trkpt lat="43.06157" lon="-0.43756">
        <ele>558.92</ele>
        <time>2025-03-03T20:16:56Z</time>
      </trkpt>
      <trkpt lat="43.06167" lon="-0.43759">
        <ele>560.61</ele>
        <time>2025-03-03T20:16:58Z</time>
      </trkpt>
      <trkpt lat="43.06171" lon="-0.43767">
        <ele>563.11</ele>
        <time>2025-03-03T20:17:00Z</time>
      </trkpt>
      <trkpt lat="43.06171" lon="-0.43778">
        <ele>565.16</ele>
        <time>2025-03-03T20:17:02Z</time>
      </trkpt>
      <trkpt lat="43.06167" lon="-0.43788">
        <ele>566.17</ele>
        <time>2025-03-03T20:17:04Z</time>
      </trkpt>
      <trkpt lat="43.06119" lon="-0.4385">
        <ele>566.41</ele>
        <time>2025-03-03T20:17:06Z</time>
      </trkpt>
      <trkpt lat="43.06068" lon="-0.43902">
        <ele>574.56</ele>
        <time>2025-03-03T20:17:08Z</time>
      </trkpt>
      <trkpt lat="43.06054" lon="-0.43921">
        <ele>575.14</ele>
        <time>2025-03-03T20:17:09Z</time>
      </trkpt>
      <trkpt lat="43.06043" lon="-0.43947">
        <ele>574.68</ele>
        <time>2025-03-03T20:17:11Z</time>
      </trkpt>
      <trkpt lat="43.06041" lon="-0.4396">
        <ele>573.71</ele>
        <time>2025-03-03T20:17:13Z</time>
      </trkpt>
      <trkpt lat="43.06036" lon="-0.44018">
        <ele>577.27</ele>
        <time>2025-03-03T20:17:15Z</time>
      </trkpt>
      <trkpt lat="43.06038" lon="-0.44035">
        <ele>579.49</ele>
        <time>2025-03-03T20:17:17Z</time>
      </trkpt>
      <trkpt lat="43.06052" lon="-0.44098">
        <ele>586.12</ele>
        <time>2025-03-03T20:17:19Z</time>
      </trkpt>
      <trkpt lat="43.06056" lon="-0.44134">
        <ele>588.68</ele>
        <time>2025-03-03T20:17:21Z</time>
      </trkpt>
      <trkpt lat="43.06053" lon="-0.44174">
        <ele>593.86</ele>
        <time>2025-03-03T20:17:23Z</time>
      </trkpt>
      <trkpt lat="43.06054" lon="-0.44225">
        <ele>601.91</ele>
        <time>2025-03-03T20:17:25Z</time>
      </trkpt>
      <trkpt lat="43.06046" lon="-0.44275">
        <ele>601.99</ele>
        <time>2025-03-03T20:17:27Z</time>
      </trkpt>
      <trkpt lat="43.06046" lon="-0.44288">
        <ele>602.36</ele>
        <time>2025-03-03T20:17:29Z</time>
      </trkpt>
      <trkpt lat="43.06049" lon="-0.44302">
        <ele>603.35</ele>
        <time>2025-03-03T20:17:31Z</time>
      </trkpt>
      <trkpt lat="43.06061" lon="-0.44347">
        <ele>608.24</ele>
        <time>2025-03-03T20:17:33Z</time>
      </trkpt>
      <trkpt lat="43.06062" lon="-0.44358">
        <ele>609.81</ele>
        <time>2025-03-03T20:17:35Z</time>
      </trkpt>
      <trkpt lat="43.06059" lon="-0.44408">
        <ele>615.18</ele>
        <time>2025-03-03T20:17:36Z</time>
      </trkpt>
      <trkpt lat="43.06064" lon="-0.44457">
        <ele>620.56</ele>
        <time>2025-03-03T20:17:38Z</time>
      </trkpt>
      <trkpt lat="43.06063" lon="-0.4447">
        <ele>622.02</ele>
        <time>2025-03-03T20:17:40Z</time>
      </trkpt>
      <trkpt lat="43.0606" lon="-0.44495">
        <ele>621.94</ele>
        <time>2025-03-03T20:17:42Z</time>
      </trkpt>
      <trkpt lat="43.0606" lon="-0.44502">
        <ele>622.42</ele>
        <time>2025-03-03T20:17:44Z</time>
      </trkpt>
      <trkpt lat="43.06062" lon="-0.44507">
        <ele>623.23</ele>
        <time>2025-03-03T20:17:46Z</time>
      </trkpt>
      <trkpt lat="43.0607" lon="-0.44511">
        <ele>625.63</ele>
        <time>2025-03-03T20:17:48Z</time>
      </trkpt>
      <trkpt lat="43.06075" lon="-0.44509">
        <ele>626.94</ele>
        <time>2025-03-03T20:17:50Z</time>
      </trkpt>
      <trkpt lat="43.0608" lon="-0.44504">
        <ele>628.08</ele>
        <time>2025-03-03T20:17:52Z</time>
      </trkpt>
      <trkpt lat="43.06084" lon="-0.44496">
        <ele>628.98</ele>
        <time>2025-03-03T20:17:54Z</time>
      </trkpt>
      <trkpt lat="43.06097" lon="-0.44462">
        <ele>628.82</ele>
        <time>2025-03-03T20:17:56Z</time>
      </trkpt>
      <trkpt lat="43.06108" lon="-0.44439">
        <ele>628.65</ele>
        <time>2025-03-03T20:17:58Z</time>
      </trkpt>
      <trkpt lat="43.06134" lon="-0.44406">
        <ele>630.63</ele>
        <time>2025-03-03T20:18:00Z</time>
      </trkpt>
      <trkpt lat="43.06147" lon="-0.44385">
        <ele>632.22</ele>
        <time>2025-03-03T20:18:02Z</time>
      </trkpt>
      <trkpt lat="43.06172" lon="-0.44333">
        <ele>634.93</ele>
        <time>2025-03-03T20:18:04Z</time>
      </trkpt>
      <trkpt lat="43.0618" lon="-0.4431">
        <ele>637.46</ele>
        <time>2025-03-03T20:18:05Z</time>
      </trkpt>
      <trkpt lat="43.06209" lon="-0.44198">
        <ele>642.28</ele>
        <time>2025-03-03T20:18:07Z</time>
      </trkpt>
      <trkpt lat="43.06233" lon="-0.4412">
        <ele>649.92</ele>
        <time>2025-03-03T20:18:09Z</time>
      </trkpt>
      <trkpt lat="43.06235" lon="-0.44093">
        <ele>649.36</ele>
        <time>2025-03-03T20:18:11Z</time>
      </trkpt>
      <trkpt lat="43.06234" lon="-0.4406">
        <ele>646.51</ele>
        <time>2025-03-03T20:18:13Z</time>
      </trkpt>
      <trkpt lat="43.06236" lon="-0.44047">
        <ele>647.05</ele>
        <time>2025-03-03T20:18:15Z</time>
      </trkpt>
      <trkpt lat="43.06241" lon="-0.44039">
        <ele>649.34</ele>
        <time>2025-03-03T20:18:17Z</time>
      </trkpt>
      <trkpt lat="43.06246" lon="-0.44036">
        <ele>651.67</ele>
        <time>2025-03-03T20:18:19Z</time>
      </trkpt>
      <trkpt lat="43.06253" lon="-0.44035">
        <ele>654.96</ele>
        <time>2025-03-03T20:18:21Z</time>
      </trkpt>
      <trkpt lat="43.06259" lon="-0.44038">
        <ele>658.05</ele>
        <time>2025-03-03T20:18:23Z</time>
      </trkpt>
      <trkpt lat="43.06261" lon="-0.44041">
        <ele>659.43</ele>
        <time>2025-03-03T20:18:25Z</time>
      </trkpt>
      <trkpt lat="43.06264" lon="-0.44055">
        <ele>662.15</ele>
        <time>2025-03-03T20:18:27Z</time>
      </trkpt>
      <trkpt lat="43.06263" lon="-0.44066">
        <ele>661.97</ele>
        <time>2025-03-03T20:18:29Z</time>
      </trkpt>
      <trkpt lat="43.06256" lon="-0.44091">
        <ele>659.81</ele>
        <time>2025-03-03T20:18:31Z</time>
      </trkpt>
      <trkpt lat="43.06255" lon="-0.44107">
        <ele>660.28</ele>
        <time>2025-03-03T20:18:33Z</time>
      </trkpt>
      <trkpt lat="43.06261" lon="-0.44183">
        <ele>668.37</ele>
        <time>2025-03-03T20:18:34Z</time>
      </trkpt>
      <trkpt lat="43.06262" lon="-0.44362">
        <ele>677.5</ele>
        <time>2025-03-03T20:18:36Z</time>
      </trkpt>
      <trkpt lat="43.06265" lon="-0.44423">
        <ele>684.2</ele>
        <time>2025-03-03T20:18:38Z</time>
      </trkpt>
      <trkpt lat="43.06264" lon="-0.44445">
        <ele>685.78</ele>
        <time>2025-03-03T20:18:40Z</time>
      </trkpt>
      <trkpt lat="43.06259" lon="-0.44522">
        <ele>691.96</ele>
        <time>2025-03-03T20:18:42Z</time>
      </trkpt>
      <trkpt lat="43.06257" lon="-0.44582">
        <ele>695.87</ele>
        <time>2025-03-03T20:18:44Z</time>
      </trkpt>
      <trkpt lat="43.06258" lon="-0.44599">
        <ele>697.04</ele>
        <time>2025-03-03T20:18:46Z</time>
      </trkpt>
      <trkpt lat="43.0626" lon="-0.44626">
        <ele>700.7</ele>
        <time>2025-03-03T20:18:48Z</time>
      </trkpt>
      <trkpt lat="43.06267" lon="-0.44668">
        <ele>706.51</ele>
        <time>2025-03-03T20:18:50Z</time>
      </trkpt>
      <trkpt lat="43.06293" lon="-0.448">
        <ele>709.37</ele>
        <time>2025-03-03T20:18:52Z</time>
      </trkpt>
      <trkpt lat="43.06296" lon="-0.44882">
        <ele>713.55</ele>
        <time>2025-03-03T20:18:54Z</time>
      </trkpt>
      <trkpt lat="43.063" lon="-0.44925">
        <ele>719.01</ele>
        <time>2025-03-03T20:18:56Z</time>
      </trkpt>
      <trkpt lat="43.06293" lon="-0.45038">
        <ele>720.35</ele>
        <time>2025-03-03T20:18:58Z</time>
      </trkpt>
      <trkpt lat="43.0629" lon="-0.45056">
        <ele>721.68</ele>
        <time>2025-03-03T20:19:00Z</time>
      </trkpt>
      <trkpt lat="43.06286" lon="-0.45069">
        <ele>722.94</ele>
        <time>2025-03-03T20:19:01Z</time>
      </trkpt>
      <trkpt lat="43.06217" lon="-0.45208">
        <ele>731.59</ele>
        <time>2025-03-03T20:19:03Z</time>
      </trkpt>
      <trkpt lat="43.06204" lon="-0.45227">
        <ele>733.81</ele>
        <time>2025-03-03T20:19:05Z</time>
      </trkpt>
      <trkpt lat="43.06186" lon="-0.45247">
        <ele>736.59</ele>
        <time>2025-03-03T20:19:07Z</time>
      </trkpt>
      <trkpt lat="43.06087" lon="-0.4532">
        <ele>747.43</ele>
        <time>2025-03-03T20:19:09Z</time>
      </trkpt>
      <trkpt lat="43.06064" lon="-0.45333">
        <ele>748.59</ele>
        <time>2025-03-03T20:19:11Z</time>
      </trkpt>
      <trkpt lat="43.06023" lon="-0.45351">
        <ele>750.86</ele>
        <time>2025-03-03T20:19:13Z</time>
      </trkpt>
      <trkpt lat="43.0601" lon="-0.45362">
        <ele>753.26</ele>
        <time>2025-03-03T20:19:15Z</time>
      </trkpt>
      <trkpt lat="43.06005" lon="-0.45369">
        <ele>754.69</ele>
        <time>2025-03-03T20:19:17Z</time>
      </trkpt>
      <trkpt lat="43.05993" lon="-0.45394">
        <ele>758.88</ele>
        <time>2025-03-03T20:19:19Z</time>
      </trkpt>
      <trkpt lat="43.05978" lon="-0.45419">
        <ele>761.1</ele>
        <time>2025-03-03T20:19:21Z</time>
      </trkpt>
      <trkpt lat="43.05971" lon="-0.45426">
        <ele>761.99</ele>
        <time>2025-03-03T20:19:23Z</time>
      </trkpt>
      <trkpt lat="43.05959" lon="-0.45431">
        <ele>763.38</ele>
        <time>2025-03-03T20:19:25Z</time>
      </trkpt>
      <trkpt lat="43.05942" lon="-0.45433">
        <ele>763.95</ele>
        <time>2025-03-03T20:19:27Z</time>
      </trkpt>
      <trkpt lat="43.05896" lon="-0.45425">
        <ele>764.09</ele>
        <time>2025-03-03T20:19:29Z</time>
      </trkpt>
      <trkpt lat="43.05877" lon="-0.45427">
        <ele>763.79</ele>
        <time>2025-03-03T20:19:30Z</time>
      </trkpt>
      <trkpt lat="43.05868" lon="-0.4543">
        <ele>763.61</ele>
        <time>2025-03-03T20:19:32Z</time>
      </trkpt>
      <trkpt lat="43.0586" lon="-0.45438">
        <ele>763.79</ele>
        <time>2025-03-03T20:19:34Z</time>
      </trkpt>
      <trkpt lat="43.05855" lon="-0.45451">
        <ele>764.64</ele>
        <time>2025-03-03T20:19:36Z</time>
      </trkpt>
      <trkpt lat="43.05856" lon="-0.45463">
        <ele>766.12</ele>
        <time>2025-03-03T20:19:38Z</time>
      </trkpt>
      <trkpt lat="43.05863" lon="-0.45472">
        <ele>768.24</ele>
        <time>2025-03-03T20:19:40Z</time>
      </trkpt>
      <trkpt lat="43.05867" lon="-0.45475">
        <ele>769.2</ele>
        <time>2025-03-03T20:19:42Z</time>
      </trkpt>
      <trkpt lat="43.05887" lon="-0.45476">
        <ele>772.46</ele>
        <time>2025-03-03T20:19:44Z</time>
      </trkpt>
      <trkpt lat="43.05918" lon="-0.45492">
        <ele>776.1</ele>
        <time>2025-03-03T20:19:46Z</time>
      </trkpt>
      <trkpt lat="43.05957" lon="-0.45503">
        <ele>782.03</ele>
        <time>2025-03-03T20:19:48Z</time>
      </trkpt>
      <trkpt lat="43.0608" lon="-0.45559">
        <ele>801.5</ele>
        <time>2025-03-03T20:19:50Z</time>
      </trkpt>
      <trkpt lat="43.06194" lon="-0.45572">
        <ele>810.45</ele>
        <time>2025-03-03T20:19:52Z</time>
      </trkpt>
      <trkpt lat="43.06199" lon="-0.45575">
        <ele>810.81</ele>
        <time>2025-03-03T20:19:54Z</time>
      </trkpt>
      <trkpt lat="43.06209" lon="-0.45584">
        <ele>813.03</ele>
        <time>2025-03-03T20:19:56Z</time>
      </trkpt>
      <trkpt lat="43.06215" lon="-0.45595">
        <ele>814.74</ele>
        <time>2025-03-03T20:19:58Z</time>
      </trkpt>
      <trkpt lat="43.06217" lon="-0.45603">
        <ele>816.11</ele>
        <time>2025-03-03T20:19:59Z</time>
      </trkpt>
      <trkpt lat="43.06217" lon="-0.4562">
        <ele>817.93</ele>
        <time>2025-03-03T20:20:01Z</time>
      </trkpt>
      <trkpt lat="43.06215" lon="-0.45631">
        <ele>818.67</ele>
        <time>2025-03-03T20:20:03Z</time>
      </trkpt>
      <trkpt lat="43.0621" lon="-0.45646">
        <ele>819.93</ele>
        <time>2025-03-03T20:20:05Z</time>
      </trkpt>
      <trkpt lat="43.06198" lon="-0.45663">
        <ele>821.63</ele>
        <time>2025-03-03T20:20:07Z</time>
      </trkpt>
      <trkpt lat="43.06159" lon="-0.45694">
        <ele>826.19</ele>
        <time>2025-03-03T20:20:09Z</time>
      </trkpt>
      <trkpt lat="43.06155" lon="-0.45699">
        <ele>826.68</ele>
        <time>2025-03-03T20:20:11Z</time>
      </trkpt>
      <trkpt lat="43.06152" lon="-0.45706">
        <ele>827.16</ele>
        <time>2025-03-03T20:20:13Z</time>
      </trkpt>
      <trkpt lat="43.06152" lon="-0.45718">
        <ele>827.76</ele>
        <time>2025-03-03T20:20:15Z</time>
      </trkpt>
      <trkpt lat="43.06159" lon="-0.4573">
        <ele>828.54</ele>
        <time>2025-03-03T20:20:17Z</time>
      </trkpt>
      <trkpt lat="43.0618" lon="-0.45751">
        <ele>831.06</ele>
        <time>2025-03-03T20:20:19Z</time>
      </trkpt>
      <trkpt lat="43.06196" lon="-0.45759">
        <ele>834.25</ele>
        <time>2025-03-03T20:20:21Z</time>
      </trkpt>
      <trkpt lat="43.06237" lon="-0.45761">
        <ele>833.1</ele>
        <time>2025-03-03T20:20:23Z</time>
      </trkpt>
      <trkpt lat="43.06254" lon="-0.45767">
        <ele>833.07</ele>
        <time>2025-03-03T20:20:25Z</time>
      </trkpt>
      <trkpt lat="43.06282" lon="-0.45785">
        <ele>834.37</ele>
        <time>2025-03-03T20:20:26Z</time>
      </trkpt>
      <trkpt lat="43.06295" lon="-0.45788">
        <ele>834.76</ele>
        <time>2025-03-03T20:20:28Z</time>
      </trkpt>
      <trkpt lat="43.06309" lon="-0.45786">
        <ele>835.24</ele>
        <time>2025-03-03T20:20:30Z</time>
      </trkpt>
      <trkpt lat="43.06333" lon="-0.45775">
        <ele>836.88</ele>
        <time>2025-03-03T20:20:32Z</time>
      </trkpt>
      <trkpt lat="43.06343" lon="-0.45775">
        <ele>837.92</ele>
        <time>2025-03-03T20:20:34Z</time>
      </trkpt>
      <trkpt lat="43.06352" lon="-0.45779">
        <ele>838.96</ele>
        <time>2025-03-03T20:20:36Z</time>
      </trkpt>
      <trkpt lat="43.06377" lon="-0.45801">
        <ele>840</ele>
        <time>2025-03-03T20:20:38Z</time>
      </trkpt>
      <trkpt lat="43.06392" lon="-0.45809">
        <ele>839.98</ele>
        <time>2025-03-03T20:20:40Z</time>
      </trkpt>
      <trkpt lat="43.06429" lon="-0.45816">
        <ele>841.53</ele>
        <time>2025-03-03T20:20:42Z</time>
      </trkpt>
      <trkpt lat="43.06457" lon="-0.45827">
        <ele>845.44</ele>
        <time>2025-03-03T20:20:44Z</time>
      </trkpt>
      <trkpt lat="43.06469" lon="-0.45835">
        <ele>847.16</ele>
        <time>2025-03-03T20:20:46Z</time>
      </trkpt>
      <trkpt lat="43.06511" lon="-0.45874">
        <ele>850.08</ele>
        <time>2025-03-03T20:20:48Z</time>
      </trkpt>
      <trkpt lat="43.06539" lon="-0.45886">
        <ele>854.78</ele>
        <time>2025-03-03T20:20:50Z</time>
      </trkpt>
      <trkpt lat="43.06548" lon="-0.45896">
        <ele>855.7</ele>
        <time>2025-03-03T20:20:52Z</time>
      </trkpt>
      <trkpt lat="43.0656" lon="-0.4593">
        <ele>854.75</ele>
        <time>2025-03-03T20:20:54Z</time>
      </trkpt>
      <trkpt lat="43.06569" lon="-0.45947">
        <ele>855.21</ele>
        <time>2025-03-03T20:20:55Z</time>
      </trkpt>
      <trkpt lat="43.06589" lon="-0.45965">
        <ele>856.97</ele>
        <time>2025-03-03T20:20:57Z</time>
      </trkpt>
      <trkpt lat="43.06613" lon="-0.45981">
        <ele>864.16</ele>
        <time>2025-03-03T20:20:59Z</time>
      </trkpt>
      <trkpt lat="43.06623" lon="-0.45992">
        <ele>866.63</ele>
        <time>2025-03-03T20:21:01Z</time>
      </trkpt>
      <trkpt lat="43.06627" lon="-0.46002">
        <ele>867.11</ele>
        <time>2025-03-03T20:21:03Z</time>
      </trkpt>
      <trkpt lat="43.06629" lon="-0.46012">
        <ele>867.01</ele>
        <time>2025-03-03T20:21:05Z</time>
      </trkpt>
      <trkpt lat="43.06632" lon="-0.46131">
        <ele>871.01</ele>
        <time>2025-03-03T20:21:07Z</time>
      </trkpt>
      <trkpt lat="43.06629" lon="-0.4615">
        <ele>871.73</ele>
        <time>2025-03-03T20:21:09Z</time>
      </trkpt>
      <trkpt lat="43.06616" lon="-0.46179">
        <ele>871.29</ele>
        <time>2025-03-03T20:21:11Z</time>
      </trkpt>
      <trkpt lat="43.06595" lon="-0.46249">
        <ele>872.66</ele>
        <time>2025-03-03T20:21:13Z</time>
      </trkpt>
      <trkpt lat="43.06572" lon="-0.463">
        <ele>870.97</ele>
        <time>2025-03-03T20:21:15Z</time>
      </trkpt>
      <trkpt lat="43.06562" lon="-0.4633">
        <ele>870.71</ele>
        <time>2025-03-03T20:21:17Z</time>
      </trkpt>
      <trkpt lat="43.0655" lon="-0.46375">
        <ele>873.51</ele>
        <time>2025-03-03T20:21:19Z</time>
      </trkpt>
      <trkpt lat="43.06538" lon="-0.46402">
        <ele>873.92</ele>
        <time>2025-03-03T20:21:21Z</time>
      </trkpt>
      <trkpt lat="43.06536" lon="-0.4641">
        <ele>874.65</ele>
        <time>2025-03-03T20:21:23Z</time>
      </trkpt>
      <trkpt lat="43.06534" lon="-0.46511">
        <ele>881.63</ele>
        <time>2025-03-03T20:21:24Z</time>
      </trkpt>
      <trkpt lat="43.06545" lon="-0.46563">
        <ele>883.33</ele>
        <time>2025-03-03T20:21:26Z</time>
      </trkpt>
      <trkpt lat="43.06546" lon="-0.46595">
        <ele>883.93</ele>
        <time>2025-03-03T20:21:28Z</time>
      </trkpt>
      <trkpt lat="43.06533" lon="-0.46843">
        <ele>880.93</ele>
        <time>2025-03-03T20:21:30Z</time>
      </trkpt>
      <trkpt lat="43.06511" lon="-0.46941">
        <ele>876.31</ele>
        <time>2025-03-03T20:21:32Z</time>
      </trkpt>
      <trkpt lat="43.06507" lon="-0.46966">
        <ele>875.36</ele>
        <time>2025-03-03T20:21:34Z</time>
      </trkpt>
      <trkpt lat="43.06505" lon="-0.46988">
        <ele>874.89</ele>
        <time>2025-03-03T20:21:36Z</time>
      </trkpt>
      <trkpt lat="43.06507" lon="-0.47038">
        <ele>875.37</ele>
        <time>2025-03-03T20:21:38Z</time>
      </trkpt>
      <trkpt lat="43.06504" lon="-0.47051">
        <ele>875.85</ele>
        <time>2025-03-03T20:21:40Z</time>
      </trkpt>
      <trkpt lat="43.06498" lon="-0.47063">
        <ele>876.32</ele>
        <time>2025-03-03T20:21:42Z</time>
      </trkpt>
      <trkpt lat="43.06491" lon="-0.47071">
        <ele>876.68</ele>
        <time>2025-03-03T20:21:44Z</time>
      </trkpt>
      <trkpt lat="43.06436" lon="-0.47127">
        <ele>878.71</ele>
        <time>2025-03-03T20:21:46Z</time>
      </trkpt>
      <trkpt lat="43.06425" lon="-0.47143">
        <ele>878.54</ele>
        <time>2025-03-03T20:21:48Z</time>
      </trkpt>
      <trkpt lat="43.06414" lon="-0.47176">
        <ele>878.51</ele>
        <time>2025-03-03T20:21:50Z</time>
      </trkpt>
      <trkpt lat="43.06391" lon="-0.47262">
        <ele>878.4</ele>
        <time>2025-03-03T20:21:52Z</time>
      </trkpt>
      <trkpt lat="43.06373" lon="-0.47319">
        <ele>879.56</ele>
        <time>2025-03-03T20:21:53Z</time>
      </trkpt>
      <trkpt lat="43.06363" lon="-0.47348">
        <ele>879.43</ele>
        <time>2025-03-03T20:21:55Z</time>
      </trkpt>
      <trkpt lat="43.06348" lon="-0.47376">
        <ele>878.47</ele>
        <time>2025-03-03T20:21:57Z</time>
      </trkpt>
      <trkpt lat="43.06342" lon="-0.47385">
        <ele>878.13</ele>
        <time>2025-03-03T20:21:59Z</time>
      </trkpt>
      <trkpt lat="43.06332" lon="-0.47395">
        <ele>877.59</ele>
        <time>2025-03-03T20:22:01Z</time>
      </trkpt>
      <trkpt lat="43.06276" lon="-0.47419">
        <ele>879.88</ele>
        <time>2025-03-03T20:22:03Z</time>
      </trkpt>
      <trkpt lat="43.06268" lon="-0.47428">
        <ele>879.53</ele>
        <time>2025-03-03T20:22:05Z</time>
      </trkpt>
      <trkpt lat="43.06264" lon="-0.47437">
        <ele>879.51</ele>
        <time>2025-03-03T20:22:07Z</time>
      </trkpt>
      <trkpt lat="43.06231" lon="-0.47534">
        <ele>878.24</ele>
        <time>2025-03-03T20:22:09Z</time>
      </trkpt>
      <trkpt lat="43.06199" lon="-0.47649">
        <ele>880.19</ele>
        <time>2025-03-03T20:22:11Z</time>
      </trkpt>
      <trkpt lat="43.06171" lon="-0.47741">
        <ele>879.44</ele>
        <time>2025-03-03T20:22:13Z</time>
      </trkpt>
      <trkpt lat="43.06139" lon="-0.4782">
        <ele>879.49</ele>
        <time>2025-03-03T20:22:15Z</time>
      </trkpt>
      <trkpt lat="43.06114" lon="-0.47868">
        <ele>880.28</ele>
        <time>2025-03-03T20:22:17Z</time>
      </trkpt>
      <trkpt lat="43.06078" lon="-0.48024">
        <ele>882.67</ele>
        <time>2025-03-03T20:22:19Z</time>
      </trkpt>
      <trkpt lat="43.06074" lon="-0.48048">
        <ele>883.39</ele>
        <time>2025-03-03T20:22:20Z</time>
      </trkpt>
      <trkpt lat="43.06057" lon="-0.48207">
        <ele>886.9</ele>
        <time>2025-03-03T20:22:22Z</time>
      </trkpt>
      <trkpt lat="43.06003" lon="-0.48557">
        <ele>906.92</ele>
        <time>2025-03-03T20:22:24Z</time>
      </trkpt>
      <trkpt lat="43.05995" lon="-0.48586">
        <ele>908.62</ele>
        <time>2025-03-03T20:22:26Z</time>
      </trkpt>
      <trkpt lat="43.05976" lon="-0.48635">
        <ele>912.56</ele>
        <time>2025-03-03T20:22:28Z</time>
      </trkpt>
      <trkpt lat="43.05956" lon="-0.48699">
        <ele>920.5</ele>
        <time>2025-03-03T20:22:30Z</time>
      </trkpt>
      <trkpt lat="43.0591" lon="-0.48861">
        <ele>937.68</ele>
        <time>2025-03-03T20:22:32Z</time>
      </trkpt>
      <trkpt lat="43.05895" lon="-0.48898">
        <ele>943.25</ele>
        <time>2025-03-03T20:22:34Z</time>
      </trkpt>
      <trkpt lat="43.05895" lon="-0.4891">
        <ele>945.15</ele>
        <time>2025-03-03T20:22:36Z</time>
      </trkpt>
      <trkpt lat="43.05897" lon="-0.48915">
        <ele>945.98</ele>
        <time>2025-03-03T20:22:38Z</time>
      </trkpt>
      <trkpt lat="43.05904" lon="-0.48922">
        <ele>947.75</ele>
        <time>2025-03-03T20:22:40Z</time>
      </trkpt>
      <trkpt lat="43.05909" lon="-0.48924">
        <ele>948.36</ele>
        <time>2025-03-03T20:22:42Z</time>
      </trkpt>
      <trkpt lat="43.05927" lon="-0.48921">
        <ele>951.44</ele>
        <time>2025-03-03T20:22:44Z</time>
      </trkpt>
      <trkpt lat="43.05939" lon="-0.48916">
        <ele>954.11</ele>
        <time>2025-03-03T20:22:46Z</time>
      </trkpt>
      <trkpt lat="43.05955" lon="-0.48905">
        <ele>955.09</ele>
        <time>2025-03-03T20:22:48Z</time>
      </trkpt>
      <trkpt lat="43.0598" lon="-0.48874">
        <ele>952.98</ele>
        <time>2025-03-03T20:22:49Z</time>
      </trkpt>
      <trkpt lat="43.05997" lon="-0.48865">
        <ele>955.1</ele>
        <time>2025-03-03T20:22:51Z</time>
      </trkpt>
      <trkpt lat="43.06035" lon="-0.48823">
        <ele>951.84</ele>
        <time>2025-03-03T20:22:53Z</time>
      </trkpt>
      <trkpt lat="43.0604" lon="-0.48821">
        <ele>952</ele>
        <time>2025-03-03T20:22:55Z</time>
      </trkpt>
      <trkpt lat="43.06046" lon="-0.48822">
        <ele>952.74</ele>
        <time>2025-03-03T20:22:57Z</time>
      </trkpt>
      <trkpt lat="43.06049" lon="-0.48828">
        <ele>953.84</ele>
        <time>2025-03-03T20:22:59Z</time>
      </trkpt>
      <trkpt lat="43.06049" lon="-0.48837">
        <ele>955.18</ele>
        <time>2025-03-03T20:23:01Z</time>
      </trkpt>
      <trkpt lat="43.06045" lon="-0.48843">
        <ele>956.04</ele>
        <time>2025-03-03T20:23:03Z</time>
      </trkpt>
      <trkpt lat="43.06029" lon="-0.48858">
        <ele>957.55</ele>
        <time>2025-03-03T20:23:05Z</time>
      </trkpt>
      <trkpt lat="43.06023" lon="-0.48869">
        <ele>960.03</ele>
        <time>2025-03-03T20:23:07Z</time>
      </trkpt>
      <trkpt lat="43.06007" lon="-0.48918">
        <ele>971.59</ele>
        <time>2025-03-03T20:23:09Z</time>
      </trkpt>
      <trkpt lat="43.05965" lon="-0.49007">
        <ele>984.46</ele>
        <time>2025-03-03T20:23:11Z</time>
      </trkpt>
      <trkpt lat="43.05939" lon="-0.49074">
        <ele>996.73</ele>
        <time>2025-03-03T20:23:13Z</time>
      </trkpt>
      <trkpt lat="43.05913" lon="-0.4911">
        <ele>994.04</ele>
        <time>2025-03-03T20:23:15Z</time>
      </trkpt>
      <trkpt lat="43.05906" lon="-0.49127">
        <ele>995.31</ele>
        <time>2025-03-03T20:23:17Z</time>
      </trkpt>
      <trkpt lat="43.05883" lon="-0.49213">
        <ele>1003.65</ele>
        <time>2025-03-03T20:23:18Z</time>
      </trkpt>
      <trkpt lat="43.05878" lon="-0.49227">
        <ele>1003.55</ele>
        <time>2025-03-03T20:23:20Z</time>
      </trkpt>
      <trkpt lat="43.05872" lon="-0.49237">
        <ele>1003.09</ele>
        <time>2025-03-03T20:23:22Z</time>
      </trkpt>
      <trkpt lat="43.05843" lon="-0.49276">
        <ele>1002.89</ele>
        <time>2025-03-03T20:23:24Z</time>
      </trkpt>
      <trkpt lat="43.05837" lon="-0.49292">
        <ele>1004.12</ele>
        <time>2025-03-03T20:23:26Z</time>
      </trkpt>
      <trkpt lat="43.05836" lon="-0.49303">
        <ele>1004.96</ele>
        <time>2025-03-03T20:23:28Z</time>
      </trkpt>
      <trkpt lat="43.0584" lon="-0.49315">
        <ele>1007.26</ele>
        <time>2025-03-03T20:23:30Z</time>
      </trkpt>
      <trkpt lat="43.05864" lon="-0.49338">
        <ele>1016.24</ele>
        <time>2025-03-03T20:23:32Z</time>
      </trkpt>
      <trkpt lat="43.05876" lon="-0.49346">
        <ele>1020.99</ele>
        <time>2025-03-03T20:23:34Z</time>
      </trkpt>
      <trkpt lat="43.05888" lon="-0.49347">
        <ele>1021.87</ele>
        <time>2025-03-03T20:23:36Z</time>
      </trkpt>
      <trkpt lat="43.05902" lon="-0.49342">
        <ele>1020.72</ele>
        <time>2025-03-03T20:23:38Z</time>
      </trkpt>
      <trkpt lat="43.05916" lon="-0.49328">
        <ele>1017.8</ele>
        <time>2025-03-03T20:23:40Z</time>
      </trkpt>
      <trkpt lat="43.05921" lon="-0.4932">
        <ele>1016.73</ele>
        <time>2025-03-03T20:23:42Z</time>
      </trkpt>
      <trkpt lat="43.05929" lon="-0.49298">
        <ele>1014.78</ele>
        <time>2025-03-03T20:23:44Z</time>
      </trkpt>
      <trkpt lat="43.05941" lon="-0.4922">
        <ele>1013.43</ele>
        <time>2025-03-03T20:23:45Z</time>
      </trkpt>
      <trkpt lat="43.05946" lon="-0.49163">
        <ele>1013.11</ele>
        <time>2025-03-03T20:23:47Z</time>
      </trkpt>
      <trkpt lat="43.05951" lon="-0.49144">
        <ele>1012.08</ele>
        <time>2025-03-03T20:23:49Z</time>
      </trkpt>
      <trkpt lat="43.05955" lon="-0.49136">
        <ele>1011.83</ele>
        <time>2025-03-03T20:23:51Z</time>
      </trkpt>
      <trkpt lat="43.0597" lon="-0.49117">
        <ele>1011.55</ele>
        <time>2025-03-03T20:23:53Z</time>
      </trkpt>
      <trkpt lat="43.05987" lon="-0.49088">
        <ele>1009.75</ele>
        <time>2025-03-03T20:23:55Z</time>
      </trkpt>
      <trkpt lat="43.05993" lon="-0.49084">
        <ele>1010.05</ele>
        <time>2025-03-03T20:23:57Z</time>
      </trkpt>
      <trkpt lat="43.05997" lon="-0.49084">
        <ele>1010.54</ele>
        <time>2025-03-03T20:23:59Z</time>
      </trkpt>
      <trkpt lat="43.06004" lon="-0.49088">
        <ele>1011.15</ele>
        <time>2025-03-03T20:24:01Z</time>
      </trkpt>
      <trkpt lat="43.06011" lon="-0.49099">
        <ele>1012.04</ele>
        <time>2025-03-03T20:24:03Z</time>
      </trkpt>
      <trkpt lat="43.0605" lon="-0.49206">
        <ele>1012.98</ele>
        <time>2025-03-03T20:24:05Z</time>
      </trkpt>
      <trkpt lat="43.06059" lon="-0.49246">
        <ele>1011.34</ele>
        <time>2025-03-03T20:24:07Z</time>
      </trkpt>
      <trkpt lat="43.06058" lon="-0.49286">
        <ele>1009.64</ele>
        <time>2025-03-03T20:24:09Z</time>
      </trkpt>
      <trkpt lat="43.06054" lon="-0.49301">
        <ele>1009.78</ele>
        <time>2025-03-03T20:24:11Z</time>
      </trkpt>
      <trkpt lat="43.06016" lon="-0.49381">
        <ele>1014.54</ele>
        <time>2025-03-03T20:24:13Z</time>
      </trkpt>
      <trkpt lat="43.06008" lon="-0.49405">
        <ele>1016.66</ele>
        <time>2025-03-03T20:24:14Z</time>
      </trkpt>
      <trkpt lat="43.06006" lon="-0.49421">
        <ele>1017.4</ele>
        <time>2025-03-03T20:24:16Z</time>
      </trkpt>
      <trkpt lat="43.06005" lon="-0.4944">
        <ele>1018.21</ele>
        <time>2025-03-03T20:24:18Z</time>
      </trkpt>
      <trkpt lat="43.06011" lon="-0.49478">
        <ele>1018.09</ele>
        <time>2025-03-03T20:24:20Z</time>
      </trkpt>
      <trkpt lat="43.0604" lon="-0.49592">
        <ele>1020.06</ele>
        <time>2025-03-03T20:24:22Z</time>
      </trkpt>
      <trkpt lat="43.06044" lon="-0.49602">
        <ele>1020.9</ele>
        <time>2025-03-03T20:24:24Z</time>
      </trkpt>
      <trkpt lat="43.06047" lon="-0.49608">
        <ele>1021.23</ele>
        <time>2025-03-03T20:24:26Z</time>
      </trkpt>
      <trkpt lat="43.06051" lon="-0.49612">
        <ele>1020.78</ele>
        <time>2025-03-03T20:24:28Z</time>
      </trkpt>
      <trkpt lat="43.06058" lon="-0.49616">
        <ele>1019.58</ele>
        <time>2025-03-03T20:24:30Z</time>
      </trkpt>
      <trkpt lat="43.06076" lon="-0.4962">
        <ele>1016.6</ele>
        <time>2025-03-03T20:24:32Z</time>
      </trkpt>
      <trkpt lat="43.06109" lon="-0.49637">
        <ele>1017.64</ele>
        <time>2025-03-03T20:24:34Z</time>
      </trkpt>
      <trkpt lat="43.06118" lon="-0.49639">
        <ele>1017.85</ele>
        <time>2025-03-03T20:24:36Z</time>
      </trkpt>
      <trkpt lat="43.06154" lon="-0.4964">
        <ele>1015.67</ele>
        <time>2025-03-03T20:24:38Z</time>
      </trkpt>
      <trkpt lat="43.06168" lon="-0.49642">
        <ele>1014.7</ele>
        <time>2025-03-03T20:24:40Z</time>
      </trkpt>
      <trkpt lat="43.06181" lon="-0.49647">
        <ele>1013.6</ele>
        <time>2025-03-03T20:24:42Z</time>
      </trkpt>
      <trkpt lat="43.06196" lon="-0.49656">
        <ele>1012.28</ele>
        <time>2025-03-03T20:24:43Z</time>
      </trkpt>
      <trkpt lat="43.06225" lon="-0.4969">
        <ele>1013.46</ele>
        <time>2025-03-03T20:24:45Z</time>
      </trkpt>
      <trkpt lat="43.06238" lon="-0.49698">
        <ele>1012.62</ele>
        <time>2025-03-03T20:24:47Z</time>
      </trkpt>
      <trkpt lat="43.06256" lon="-0.49705">
        <ele>1011.56</ele>
        <time>2025-03-03T20:24:49Z</time>
      </trkpt>
      <trkpt lat="43.0627" lon="-0.49716">
        <ele>1012.38</ele>
        <time>2025-03-03T20:24:51Z</time>
      </trkpt>
      <trkpt lat="43.06293" lon="-0.49745">
        <ele>1013.4</ele>
        <time>2025-03-03T20:24:53Z</time>
      </trkpt>
      <trkpt lat="43.0632" lon="-0.49771">
        <ele>1015.36</ele>
        <time>2025-03-03T20:24:55Z</time>
      </trkpt>
      <trkpt lat="43.06372" lon="-0.49849">
        <ele>1017.34</ele>
        <time>2025-03-03T20:24:57Z</time>
      </trkpt>
      <trkpt lat="43.06382" lon="-0.4986">
        <ele>1017.78</ele>
        <time>2025-03-03T20:24:59Z</time>
      </trkpt>
      <trkpt lat="43.06394" lon="-0.49868">
        <ele>1018.27</ele>
        <time>2025-03-03T20:25:01Z</time>
      </trkpt>
      <trkpt lat="43.06401" lon="-0.4987">
        <ele>1018.17</ele>
        <time>2025-03-03T20:25:03Z</time>
      </trkpt>
      <trkpt lat="43.0641" lon="-0.49869">
        <ele>1017.41</ele>
        <time>2025-03-03T20:25:05Z</time>
      </trkpt>
      <trkpt lat="43.06421" lon="-0.49866">
        <ele>1016.2</ele>
        <time>2025-03-03T20:25:07Z</time>
      </trkpt>
      <trkpt lat="43.06431" lon="-0.4986">
        <ele>1014.82</ele>
        <time>2025-03-03T20:25:09Z</time>
      </trkpt>
      <trkpt lat="43.06471" lon="-0.49825">
        <ele>1007.83</ele>
        <time>2025-03-03T20:25:11Z</time>
      </trkpt>
      <trkpt lat="43.06482" lon="-0.49819">
        <ele>1006.52</ele>
        <time>2025-03-03T20:25:12Z</time>
      </trkpt>
      <trkpt lat="43.06494" lon="-0.49823">
        <ele>1006.7</ele>
        <time>2025-03-03T20:25:14Z</time>
      </trkpt>
      <trkpt lat="43.06499" lon="-0.49828">
        <ele>1007.29</ele>
        <time>2025-03-03T20:25:16Z</time>
      </trkpt>
      <trkpt lat="43.06504" lon="-0.49837">
        <ele>1007.98</ele>
        <time>2025-03-03T20:25:18Z</time>
      </trkpt>
      <trkpt lat="43.06517" lon="-0.49883">
        <ele>1011.59</ele>
        <time>2025-03-03T20:25:20Z</time>
      </trkpt>
      <trkpt lat="43.06524" lon="-0.49916">
        <ele>1012.41</ele>
        <time>2025-03-03T20:25:22Z</time>
      </trkpt>
      <trkpt lat="43.06525" lon="-0.49949">
        <ele>1011.91</ele>
        <time>2025-03-03T20:25:24Z</time>
      </trkpt>
      <trkpt lat="43.06524" lon="-0.49979">
        <ele>1010.91</ele>
        <time>2025-03-03T20:25:26Z</time>
      </trkpt>
      <trkpt lat="43.0652" lon="-0.50005">
        <ele>1010.27</ele>
        <time>2025-03-03T20:25:28Z</time>
      </trkpt>
      <trkpt lat="43.06499" lon="-0.50109">
        <ele>1010.69</ele>
        <time>2025-03-03T20:25:30Z</time>
      </trkpt>
      <trkpt lat="43.06498" lon="-0.50133">
        <ele>1011.22</ele>
        <time>2025-03-03T20:25:32Z</time>
      </trkpt>
      <trkpt lat="43.06498" lon="-0.5017">
        <ele>1012.86</ele>
        <time>2025-03-03T20:25:34Z</time>
      </trkpt>
      <trkpt lat="43.06501" lon="-0.50186">
        <ele>1013.4</ele>
        <time>2025-03-03T20:25:36Z</time>
      </trkpt>
      <trkpt lat="43.06505" lon="-0.50193">
        <ele>1014.39</ele>
        <time>2025-03-03T20:25:38Z</time>
      </trkpt>
      <trkpt lat="43.06515" lon="-0.50198">
        <ele>1016.47</ele>
        <time>2025-03-03T20:25:39Z</time>
      </trkpt>
      <trkpt lat="43.06522" lon="-0.50197">
        <ele>1017.17</ele>
        <time>2025-03-03T20:25:41Z</time>
      </trkpt>
      <trkpt lat="43.06529" lon="-0.50194">
        <ele>1017.2</ele>
        <time>2025-03-03T20:25:43Z</time>
      </trkpt>
      <trkpt lat="43.06598" lon="-0.50123">
        <ele>1017.75</ele>
        <time>2025-03-03T20:25:45Z</time>
      </trkpt>
      <trkpt lat="43.06638" lon="-0.50091">
        <ele>1012.95</ele>
        <time>2025-03-03T20:25:47Z</time>
      </trkpt>
      <trkpt lat="43.06687" lon="-0.50054">
        <ele>1005.57</ele>
        <time>2025-03-03T20:25:49Z</time>
      </trkpt>
      <trkpt lat="43.06704" lon="-0.50046">
        <ele>1005.61</ele>
        <time>2025-03-03T20:25:51Z</time>
      </trkpt>
      <trkpt lat="43.06712" lon="-0.50044">
        <ele>1006.46</ele>
        <time>2025-03-03T20:25:53Z</time>
      </trkpt>
      <trkpt lat="43.06727" lon="-0.50046">
        <ele>1009.15</ele>
        <time>2025-03-03T20:25:55Z</time>
      </trkpt>
      <trkpt lat="43.06745" lon="-0.50052">
        <ele>1011.12</ele>
        <time>2025-03-03T20:25:57Z</time>
      </trkpt>
      <trkpt lat="43.06781" lon="-0.50054">
        <ele>1012.49</ele>
        <time>2025-03-03T20:25:59Z</time>
      </trkpt>
      <trkpt lat="43.06796" lon="-0.50062">
        <ele>1014.21</ele>
        <time>2025-03-03T20:26:01Z</time>
      </trkpt>
      <trkpt lat="43.06816" lon="-0.50078">
        <ele>1016.36</ele>
        <time>2025-03-03T20:26:03Z</time>
      </trkpt>
      <trkpt lat="43.06841" lon="-0.50089">
        <ele>1016.5</ele>
        <time>2025-03-03T20:26:05Z</time>
      </trkpt>
      <trkpt lat="43.06854" lon="-0.50101">
        <ele>1018.57</ele>
        <time>2025-03-03T20:26:07Z</time>
      </trkpt>
      <trkpt lat="43.06889" lon="-0.50152">
        <ele>1027.27</ele>
        <time>2025-03-03T20:26:08Z</time>
      </trkpt>
      <trkpt lat="43.0692" lon="-0.50185">
        <ele>1025.65</ele>
        <time>2025-03-03T20:26:10Z</time>
      </trkpt>
      <trkpt lat="43.06933" lon="-0.5021">
        <ele>1026.36</ele>
        <time>2025-03-03T20:26:12Z</time>
      </trkpt>
      <trkpt lat="43.06938" lon="-0.50222">
        <ele>1027.55</ele>
        <time>2025-03-03T20:26:14Z</time>
      </trkpt>
      <trkpt lat="43.06946" lon="-0.50288">
        <ele>1027.29</ele>
        <time>2025-03-03T20:26:16Z</time>
      </trkpt>
      <trkpt lat="43.06946" lon="-0.50306">
        <ele>1027.16</ele>
        <time>2025-03-03T20:26:18Z</time>
      </trkpt>
      <trkpt lat="43.06944" lon="-0.50338">
        <ele>1028.01</ele>
        <time>2025-03-03T20:26:20Z</time>
      </trkpt>
      <trkpt lat="43.06939" lon="-0.50377">
        <ele>1029.32</ele>
        <time>2025-03-03T20:26:22Z</time>
      </trkpt>
      <trkpt lat="43.06919" lon="-0.50452">
        <ele>1038.96</ele>
        <time>2025-03-03T20:26:24Z</time>
      </trkpt>
      <trkpt lat="43.06918" lon="-0.5047">
        <ele>1039.34</ele>
        <time>2025-03-03T20:26:26Z</time>
      </trkpt>
      <trkpt lat="43.06921" lon="-0.50498">
        <ele>1039.53</ele>
        <time>2025-03-03T20:26:28Z</time>
      </trkpt>
      <trkpt lat="43.06934" lon="-0.50535">
        <ele>1039.95</ele>
        <time>2025-03-03T20:26:30Z</time>
      </trkpt>
      <trkpt lat="43.06951" lon="-0.50565">
        <ele>1038.83</ele>
        <time>2025-03-03T20:26:32Z</time>
      </trkpt>
      <trkpt lat="43.06973" lon="-0.50612">
        <ele>1043.09</ele>
        <time>2025-03-03T20:26:34Z</time>
      </trkpt>
      <trkpt lat="43.06984" lon="-0.50621">
        <ele>1043.07</ele>
        <time>2025-03-03T20:26:36Z</time>
      </trkpt>
      <trkpt lat="43.07003" lon="-0.50629">
        <ele>1040.07</ele>
        <time>2025-03-03T20:26:37Z</time>
      </trkpt>
      <trkpt lat="43.07009" lon="-0.50634">
        <ele>1039.99</ele>
        <time>2025-03-03T20:26:39Z</time>
      </trkpt>
      <trkpt lat="43.07014" lon="-0.50641">
        <ele>1040.29</ele>
        <time>2025-03-03T20:26:41Z</time>
      </trkpt>
      <trkpt lat="43.07032" lon="-0.50681">
        <ele>1041.25</ele>
        <time>2025-03-03T20:26:43Z</time>
      </trkpt>
      <trkpt lat="43.07039" lon="-0.50703">
        <ele>1039.26</ele>
        <time>2025-03-03T20:26:45Z</time>
      </trkpt>
      <trkpt lat="43.07043" lon="-0.50721">
        <ele>1037.64</ele>
        <time>2025-03-03T20:26:47Z</time>
      </trkpt>
      <trkpt lat="43.07047" lon="-0.50751">
        <ele>1036.21</ele>
        <time>2025-03-03T20:26:49Z</time>
      </trkpt>
      <trkpt lat="43.07047" lon="-0.50751">
        <ele>1036.21</ele>
        <time>2025-03-03T20:26:49Z</time>
      </trkpt>
      <trkpt lat="43.07047" lon="-0.50775">
        <ele>1036.02</ele>
        <time>2025-03-03T20:26:51Z</time>
      </trkpt>
      <trkpt lat="43.07045" lon="-0.50785">
        <ele>1035.52</ele>
        <time>2025-03-03T20:26:53Z</time>
      </trkpt>
      <trkpt lat="43.0704" lon="-0.50796">
        <ele>1034.69</ele>
        <time>2025-03-03T20:26:55Z</time>
      </trkpt>
      <trkpt lat="43.06976" lon="-0.50879">
        <ele>1033.49</ele>
        <time>2025-03-03T20:26:57Z</time>
      </trkpt>
      <trkpt lat="43.06943" lon="-0.50912">
        <ele>1029.33</ele>
        <time>2025-03-03T20:26:59Z</time>
      </trkpt>
      <trkpt lat="43.06882" lon="-0.50962">
        <ele>1019.17</ele>
        <time>2025-03-03T20:27:01Z</time>
      </trkpt>
      <trkpt lat="43.06853" lon="-0.50981">
        <ele>1022.04</ele>
        <time>2025-03-03T20:27:03Z</time>
      </trkpt>
      <trkpt lat="43.06849" lon="-0.5099">
        <ele>1022.03</ele>
        <time>2025-03-03T20:27:05Z</time>
      </trkpt>
      <trkpt lat="43.0685" lon="-0.51">
        <ele>1019.98</ele>
        <time>2025-03-03T20:27:07Z</time>
      </trkpt>
      <trkpt lat="43.06856" lon="-0.51007">
        <ele>1018.84</ele>
        <time>2025-03-03T20:27:09Z</time>
      </trkpt>
      <trkpt lat="43.06936" lon="-0.51029">
        <ele>1006.69</ele>
        <time>2025-03-03T20:27:11Z</time>
      </trkpt>
      <trkpt lat="43.06957" lon="-0.51038">
        <ele>1003.76</ele>
        <time>2025-03-03T20:27:13Z</time>
      </trkpt>
      <trkpt lat="43.06986" lon="-0.51058">
        <ele>999.75</ele>
        <time>2025-03-03T20:27:15Z</time>
      </trkpt>
      <trkpt lat="43.06995" lon="-0.51066">
        <ele>997.4</ele>
        <time>2025-03-03T20:27:18Z</time>
      </trkpt>
      <trkpt lat="43.07002" lon="-0.51076">
        <ele>994.43</ele>
        <time>2025-03-03T20:27:20Z</time>
      </trkpt>
      <trkpt lat="43.07025" lon="-0.51136">
        <ele>979.15</ele>
        <time>2025-03-03T20:27:22Z</time>
      </trkpt>
      <trkpt lat="43.07033" lon="-0.51163">
        <ele>976</ele>
        <time>2025-03-03T20:27:24Z</time>
      </trkpt>
      <trkpt lat="43.07035" lon="-0.51182">
        <ele>977.72</ele>
        <time>2025-03-03T20:27:26Z</time>
      </trkpt>
      <trkpt lat="43.07032" lon="-0.51216">
        <ele>985.11</ele>
        <time>2025-03-03T20:27:28Z</time>
      </trkpt>
      <trkpt lat="43.07033" lon="-0.51222">
        <ele>985.33</ele>
        <time>2025-03-03T20:27:30Z</time>
      </trkpt>
      <trkpt lat="43.07037" lon="-0.51232">
        <ele>982.83</ele>
        <time>2025-03-03T20:27:32Z</time>
      </trkpt>
      <trkpt lat="43.07069" lon="-0.51281">
        <ele>966</ele>
        <time>2025-03-03T20:27:34Z</time>
      </trkpt>
      <trkpt lat="43.07076" lon="-0.51305">
        <ele>963.48</ele>
        <time>2025-03-03T20:27:36Z</time>
      </trkpt>
      <trkpt lat="43.07079" lon="-0.51321">
        <ele>961.86</ele>
        <time>2025-03-03T20:27:38Z</time>
      </trkpt>
      <trkpt lat="43.07079" lon="-0.51347">
        <ele>960.04</ele>
        <time>2025-03-03T20:27:40Z</time>
      </trkpt>
      <trkpt lat="43.07077" lon="-0.51366">
        <ele>959.06</ele>
        <time>2025-03-03T20:27:42Z</time>
      </trkpt>
      <trkpt lat="43.07068" lon="-0.51401">
        <ele>958.96</ele>
        <time>2025-03-03T20:27:44Z</time>
      </trkpt>
      <trkpt lat="43.07059" lon="-0.51449">
        <ele>954.64</ele>
        <time>2025-03-03T20:27:46Z</time>
      </trkpt>
      <trkpt lat="43.07057" lon="-0.51484">
        <ele>950.69</ele>
        <time>2025-03-03T20:27:48Z</time>
      </trkpt>
      <trkpt lat="43.07058" lon="-0.51539">
        <ele>938.79</ele>
        <time>2025-03-03T20:27:50Z</time>
      </trkpt>
      <trkpt lat="43.07056" lon="-0.51554">
        <ele>936.27</ele>
        <time>2025-03-03T20:27:52Z</time>
      </trkpt>
      <trkpt lat="43.0705" lon="-0.51577">
        <ele>937.81</ele>
        <time>2025-03-03T20:27:54Z</time>
      </trkpt>
      <trkpt lat="43.07047" lon="-0.51598">
        <ele>939.5</ele>
        <time>2025-03-03T20:27:56Z</time>
      </trkpt>
      <trkpt lat="43.07054" lon="-0.51669">
        <ele>929.42</ele>
        <time>2025-03-03T20:27:58Z</time>
      </trkpt>
      <trkpt lat="43.07052" lon="-0.5173">
        <ele>919.49</ele>
        <time>2025-03-03T20:28:00Z</time>
      </trkpt>
      <trkpt lat="43.07047" lon="-0.5177">
        <ele>918.03</ele>
        <time>2025-03-03T20:28:02Z</time>
      </trkpt>
      <trkpt lat="43.07037" lon="-0.51817">
        <ele>914.78</ele>
        <time>2025-03-03T20:28:04Z</time>
      </trkpt>
      <trkpt lat="43.07021" lon="-0.51863">
        <ele>914.11</ele>
        <time>2025-03-03T20:28:06Z</time>
      </trkpt>
      <trkpt lat="43.07006" lon="-0.51919">
        <ele>916.17</ele>
        <time>2025-03-03T20:28:08Z</time>
      </trkpt>
      <trkpt lat="43.07004" lon="-0.51933">
        <ele>912.84</ele>
        <time>2025-03-03T20:28:10Z</time>
      </trkpt>
      <trkpt lat="43.07003" lon="-0.51949">
        <ele>908.88</ele>
        <time>2025-03-03T20:28:12Z</time>
      </trkpt>
      <trkpt lat="43.07004" lon="-0.51964">
        <ele>906.23</ele>
        <time>2025-03-03T20:28:14Z</time>
      </trkpt>
      <trkpt lat="43.0701" lon="-0.52">
        <ele>900.7</ele>
        <time>2025-03-03T20:28:16Z</time>
      </trkpt>
      <trkpt lat="43.07012" lon="-0.52042">
        <ele>897.5</ele>
        <time>2025-03-03T20:28:18Z</time>
      </trkpt>
      <trkpt lat="43.07001" lon="-0.52155">
        <ele>891.66</ele>
        <time>2025-03-03T20:28:20Z</time>
      </trkpt>
      <trkpt lat="43.07001" lon="-0.52173">
        <ele>891.44</ele>
        <time>2025-03-03T20:28:22Z</time>
      </trkpt>
      <trkpt lat="43.07004" lon="-0.52199">
        <ele>889.29</ele>
        <time>2025-03-03T20:28:24Z</time>
      </trkpt>
      <trkpt lat="43.07007" lon="-0.52237">
        <ele>883.94</ele>
        <time>2025-03-03T20:28:26Z</time>
      </trkpt>
      <trkpt lat="43.07019" lon="-0.5231">
        <ele>868.68</ele>
        <time>2025-03-03T20:28:28Z</time>
      </trkpt>
      <trkpt lat="43.07025" lon="-0.52331">
        <ele>864.15</ele>
        <time>2025-03-03T20:28:30Z</time>
      </trkpt>
      <trkpt lat="43.0706" lon="-0.52445">
        <ele>854.38</ele>
        <time>2025-03-03T20:28:32Z</time>
      </trkpt>
      <trkpt lat="43.07097" lon="-0.52573">
        <ele>832.31</ele>
        <time>2025-03-03T20:28:34Z</time>
      </trkpt>
      <trkpt lat="43.0712" lon="-0.5263">
        <ele>821.74</ele>
        <time>2025-03-03T20:28:36Z</time>
      </trkpt>
      <trkpt lat="43.0713" lon="-0.52677">
        <ele>820.49</ele>
        <time>2025-03-03T20:28:39Z</time>
      </trkpt>
      <trkpt lat="43.07141" lon="-0.52719">
        <ele>817.92</ele>
        <time>2025-03-03T20:28:41Z</time>
      </trkpt>
      <trkpt lat="43.07149" lon="-0.52763">
        <ele>821.3</ele>
        <time>2025-03-03T20:28:43Z</time>
      </trkpt>
      <trkpt lat="43.07154" lon="-0.52786">
        <ele>823.99</ele>
        <time>2025-03-03T20:28:45Z</time>
      </trkpt>
      <trkpt lat="43.07158" lon="-0.52794">
        <ele>824.23</ele>
        <time>2025-03-03T20:28:47Z</time>
      </trkpt>
      <trkpt lat="43.07164" lon="-0.528">
        <ele>823.55</ele>
        <time>2025-03-03T20:28:49Z</time>
      </trkpt>
      <trkpt lat="43.0717" lon="-0.52804">
        <ele>820.98</ele>
        <time>2025-03-03T20:28:51Z</time>
      </trkpt>
      <trkpt lat="43.07196" lon="-0.52808">
        <ele>806.16</ele>
        <time>2025-03-03T20:28:53Z</time>
      </trkpt>
      <trkpt lat="43.07205" lon="-0.52811">
        <ele>802.37</ele>
        <time>2025-03-03T20:28:55Z</time>
      </trkpt>
      <trkpt lat="43.07213" lon="-0.52816">
        <ele>799.3</ele>
        <time>2025-03-03T20:28:57Z</time>
      </trkpt>
      <trkpt lat="43.07226" lon="-0.5283">
        <ele>794.41</ele>
        <time>2025-03-03T20:28:59Z</time>
      </trkpt>
      <trkpt lat="43.07234" lon="-0.52844">
        <ele>793.99</ele>
        <time>2025-03-03T20:29:01Z</time>
      </trkpt>
      <trkpt lat="43.07238" lon="-0.52855">
        <ele>794.63</ele>
        <time>2025-03-03T20:29:03Z</time>
      </trkpt>
      <trkpt lat="43.07246" lon="-0.52895">
        <ele>800.82</ele>
        <time>2025-03-03T20:29:05Z</time>
      </trkpt>
      <trkpt lat="43.07255" lon="-0.5292">
        <ele>803.15</ele>
        <time>2025-03-03T20:29:07Z</time>
      </trkpt>
      <trkpt lat="43.07294" lon="-0.52975">
        <ele>792.54</ele>
        <time>2025-03-03T20:29:09Z</time>
      </trkpt>
      <trkpt lat="43.07332" lon="-0.53011">
        <ele>779.03</ele>
        <time>2025-03-03T20:29:11Z</time>
      </trkpt>
      <trkpt lat="43.07339" lon="-0.5302">
        <ele>774.81</ele>
        <time>2025-03-03T20:29:13Z</time>
      </trkpt>
      <trkpt lat="43.07347" lon="-0.53043">
        <ele>770.21</ele>
        <time>2025-03-03T20:29:15Z</time>
      </trkpt>
      <trkpt lat="43.0735" lon="-0.53059">
        <ele>769.02</ele>
        <time>2025-03-03T20:29:17Z</time>
      </trkpt>
      <trkpt lat="43.07352" lon="-0.53093">
        <ele>767.28</ele>
        <time>2025-03-03T20:29:19Z</time>
      </trkpt>
      <trkpt lat="43.07351" lon="-0.53109">
        <ele>765.95</ele>
        <time>2025-03-03T20:29:21Z</time>
      </trkpt>
      <trkpt lat="43.07345" lon="-0.53142">
        <ele>764.14</ele>
        <time>2025-03-03T20:29:23Z</time>
      </trkpt>
      <trkpt lat="43.07336" lon="-0.5317">
        <ele>764.96</ele>
        <time>2025-03-03T20:29:25Z</time>
      </trkpt>
      <trkpt lat="43.07308" lon="-0.53218">
        <ele>765.4</ele>
        <time>2025-03-03T20:29:27Z</time>
      </trkpt>
      <trkpt lat="43.07298" lon="-0.53239">
        <ele>764.47</ele>
        <time>2025-03-03T20:29:29Z</time>
      </trkpt>
      <trkpt lat="43.07287" lon="-0.53282">
        <ele>759.51</ele>
        <time>2025-03-03T20:29:31Z</time>
      </trkpt>
      <trkpt lat="43.07285" lon="-0.53298">
        <ele>756.39</ele>
        <time>2025-03-03T20:29:33Z</time>
      </trkpt>
      <trkpt lat="43.07287" lon="-0.53346">
        <ele>744.58</ele>
        <time>2025-03-03T20:29:35Z</time>
      </trkpt>
      <trkpt lat="43.07291" lon="-0.53374">
        <ele>738.23</ele>
        <time>2025-03-03T20:29:37Z</time>
      </trkpt>
      <trkpt lat="43.073" lon="-0.53408">
        <ele>731.32</ele>
        <time>2025-03-03T20:29:39Z</time>
      </trkpt>
      <trkpt lat="43.07319" lon="-0.53451">
        <ele>722.95</ele>
        <time>2025-03-03T20:29:41Z</time>
      </trkpt>
      <trkpt lat="43.07325" lon="-0.53469">
        <ele>721.26</ele>
        <time>2025-03-03T20:29:43Z</time>
      </trkpt>
      <trkpt lat="43.07331" lon="-0.53494">
        <ele>718.06</ele>
        <time>2025-03-03T20:29:45Z</time>
      </trkpt>
      <trkpt lat="43.0734" lon="-0.53607">
        <ele>705.75</ele>
        <time>2025-03-03T20:29:47Z</time>
      </trkpt>
      <trkpt lat="43.07336" lon="-0.53646">
        <ele>703.33</ele>
        <time>2025-03-03T20:29:49Z</time>
      </trkpt>
      <trkpt lat="43.07323" lon="-0.53714">
        <ele>697.39</ele>
        <time>2025-03-03T20:29:51Z</time>
      </trkpt>
      <trkpt lat="43.07321" lon="-0.53754">
        <ele>694.23</ele>
        <time>2025-03-03T20:29:53Z</time>
      </trkpt>
      <trkpt lat="43.07323" lon="-0.53795">
        <ele>693.07</ele>
        <time>2025-03-03T20:29:55Z</time>
      </trkpt>
      <trkpt lat="43.07327" lon="-0.53823">
        <ele>692.19</ele>
        <time>2025-03-03T20:29:57Z</time>
      </trkpt>
      <trkpt lat="43.07336" lon="-0.53874">
        <ele>686.34</ele>
        <time>2025-03-03T20:30:00Z</time>
      </trkpt>
      <trkpt lat="43.07342" lon="-0.53901">
        <ele>680.47</ele>
        <time>2025-03-03T20:30:02Z</time>
      </trkpt>
      <trkpt lat="43.07347" lon="-0.53918">
        <ele>677.01</ele>
        <time>2025-03-03T20:30:04Z</time>
      </trkpt>
      <trkpt lat="43.07361" lon="-0.5395">
        <ele>672.61</ele>
        <time>2025-03-03T20:30:06Z</time>
      </trkpt>
      <trkpt lat="43.07414" lon="-0.54045">
        <ele>661.28</ele>
        <time>2025-03-03T20:30:08Z</time>
      </trkpt>
      <trkpt lat="43.07433" lon="-0.54082">
        <ele>659.2</ele>
        <time>2025-03-03T20:30:10Z</time>
      </trkpt>
      <trkpt lat="43.07454" lon="-0.54151">
        <ele>646.63</ele>
        <time>2025-03-03T20:30:12Z</time>
      </trkpt>
      <trkpt lat="43.0746" lon="-0.54188">
        <ele>643.89</ele>
        <time>2025-03-03T20:30:14Z</time>
      </trkpt>
      <trkpt lat="43.07459" lon="-0.54211">
        <ele>644.09</ele>
        <time>2025-03-03T20:30:16Z</time>
      </trkpt>
      <trkpt lat="43.07452" lon="-0.54271">
        <ele>647.64</ele>
        <time>2025-03-03T20:30:18Z</time>
      </trkpt>
      <trkpt lat="43.07453" lon="-0.54286">
        <ele>647.22</ele>
        <time>2025-03-03T20:30:20Z</time>
      </trkpt>
      <trkpt lat="43.0746" lon="-0.54326">
        <ele>642.19</ele>
        <time>2025-03-03T20:30:22Z</time>
      </trkpt>
      <trkpt lat="43.07474" lon="-0.5438">
        <ele>630.88</ele>
        <time>2025-03-03T20:30:24Z</time>
      </trkpt>
      <trkpt lat="43.07476" lon="-0.54394">
        <ele>629.74</ele>
        <time>2025-03-03T20:30:26Z</time>
      </trkpt>
      <trkpt lat="43.07476" lon="-0.54424">
        <ele>626.67</ele>
        <time>2025-03-03T20:30:28Z</time>
      </trkpt>
      <trkpt lat="43.07464" lon="-0.5449">
        <ele>623.75</ele>
        <time>2025-03-03T20:30:30Z</time>
      </trkpt>
      <trkpt lat="43.07462" lon="-0.54506">
        <ele>624.96</ele>
        <time>2025-03-03T20:30:32Z</time>
      </trkpt>
      <trkpt lat="43.07464" lon="-0.54527">
        <ele>624.76</ele>
        <time>2025-03-03T20:30:34Z</time>
      </trkpt>
      <trkpt lat="43.07467" lon="-0.54547">
        <ele>622.56</ele>
        <time>2025-03-03T20:30:36Z</time>
      </trkpt>
      <trkpt lat="43.07487" lon="-0.54642">
        <ele>610.74</ele>
        <time>2025-03-03T20:30:38Z</time>
      </trkpt>
      <trkpt lat="43.07507" lon="-0.54844">
        <ele>596.74</ele>
        <time>2025-03-03T20:30:40Z</time>
      </trkpt>
      <trkpt lat="43.07537" lon="-0.55102">
        <ele>574</ele>
        <time>2025-03-03T20:30:42Z</time>
      </trkpt>
      <trkpt lat="43.07538" lon="-0.55116">
        <ele>573.36</ele>
        <time>2025-03-03T20:30:44Z</time>
      </trkpt>
      <trkpt lat="43.07537" lon="-0.55132">
        <ele>571.27</ele>
        <time>2025-03-03T20:30:46Z</time>
      </trkpt>
      <trkpt lat="43.07531" lon="-0.55163">
        <ele>567.19</ele>
        <time>2025-03-03T20:30:48Z</time>
      </trkpt>
      <trkpt lat="43.07529" lon="-0.55191">
        <ele>563.42</ele>
        <time>2025-03-03T20:30:50Z</time>
      </trkpt>
      <trkpt lat="43.07532" lon="-0.55221">
        <ele>561.19</ele>
        <time>2025-03-03T20:30:52Z</time>
      </trkpt>
      <trkpt lat="43.07535" lon="-0.55237">
        <ele>561.94</ele>
        <time>2025-03-03T20:30:54Z</time>
      </trkpt>
      <trkpt lat="43.07549" lon="-0.55278">
        <ele>564.77</ele>
        <time>2025-03-03T20:30:56Z</time>
      </trkpt>
      <trkpt lat="43.07557" lon="-0.55297">
        <ele>564.22</ele>
        <time>2025-03-03T20:30:58Z</time>
      </trkpt>
      <trkpt lat="43.07564" lon="-0.55311">
        <ele>564.21</ele>
        <time>2025-03-03T20:31:00Z</time>
      </trkpt>
      <trkpt lat="43.07601" lon="-0.55359">
        <ele>557.42</ele>
        <time>2025-03-03T20:31:02Z</time>
      </trkpt>
      <trkpt lat="43.0761" lon="-0.55372">
        <ele>554.74</ele>
        <time>2025-03-03T20:31:04Z</time>
      </trkpt>
      <trkpt lat="43.07617" lon="-0.55385">
        <ele>553.37</ele>
        <time>2025-03-03T20:31:06Z</time>
      </trkpt>
      <trkpt lat="43.07627" lon="-0.55415">
        <ele>550</ele>
        <time>2025-03-03T20:31:08Z</time>
      </trkpt>
      <trkpt lat="43.0765" lon="-0.55505">
        <ele>545.91</ele>
        <time>2025-03-03T20:31:10Z</time>
      </trkpt>
      <trkpt lat="43.07668" lon="-0.55602">
        <ele>542.74</ele>
        <time>2025-03-03T20:31:12Z</time>
      </trkpt>
      <trkpt lat="43.07684" lon="-0.55679">
        <ele>545.31</ele>
        <time>2025-03-03T20:31:14Z</time>
      </trkpt>
      <trkpt lat="43.07689" lon="-0.55717">
        <ele>542.74</ele>
        <time>2025-03-03T20:31:16Z</time>
      </trkpt>
      <trkpt lat="43.0769" lon="-0.55774">
        <ele>536.5</ele>
        <time>2025-03-03T20:31:18Z</time>
      </trkpt>
      <trkpt lat="43.07696" lon="-0.55808">
        <ele>532.86</ele>
        <time>2025-03-03T20:31:21Z</time>
      </trkpt>
      <trkpt lat="43.07733" lon="-0.55952">
        <ele>526.73</ele>
        <time>2025-03-03T20:31:23Z</time>
      </trkpt>
      <trkpt lat="43.07738" lon="-0.55965">
        <ele>526.59</ele>
        <time>2025-03-03T20:31:25Z</time>
      </trkpt>
      <trkpt lat="43.07742" lon="-0.55973">
        <ele>525.75</ele>
        <time>2025-03-03T20:31:27Z</time>
      </trkpt>
      <trkpt lat="43.07786" lon="-0.5603">
        <ele>526.36</ele>
        <time>2025-03-03T20:31:29Z</time>
      </trkpt>
      <trkpt lat="43.0779" lon="-0.56038">
        <ele>526.4</ele>
        <time>2025-03-03T20:31:31Z</time>
      </trkpt>
      <trkpt lat="43.07795" lon="-0.56055">
        <ele>525.11</ele>
        <time>2025-03-03T20:31:33Z</time>
      </trkpt>
      <trkpt lat="43.07804" lon="-0.56095">
        <ele>520.16</ele>
        <time>2025-03-03T20:31:35Z</time>
      </trkpt>
      <trkpt lat="43.07823" lon="-0.56238">
        <ele>514.39</ele>
        <time>2025-03-03T20:31:37Z</time>
      </trkpt>
      <trkpt lat="43.07827" lon="-0.56259">
        <ele>513</ele>
        <time>2025-03-03T20:31:39Z</time>
      </trkpt>
      <trkpt lat="43.07832" lon="-0.56273">
        <ele>510.85</ele>
        <time>2025-03-03T20:31:41Z</time>
      </trkpt>
      <trkpt lat="43.07839" lon="-0.56288">
        <ele>511.73</ele>
        <time>2025-03-03T20:31:43Z</time>
      </trkpt>
      <trkpt lat="43.07857" lon="-0.56311">
        <ele>513.65</ele>
        <time>2025-03-03T20:31:45Z</time>
      </trkpt>
      <trkpt lat="43.07877" lon="-0.56331">
        <ele>519.52</ele>
        <time>2025-03-03T20:31:47Z</time>
      </trkpt>
      <trkpt lat="43.07884" lon="-0.56335">
        <ele>520.8</ele>
        <time>2025-03-03T20:31:49Z</time>
      </trkpt>
      <trkpt lat="43.07897" lon="-0.56339">
        <ele>518.82</ele>
        <time>2025-03-03T20:31:51Z</time>
      </trkpt>
      <trkpt lat="43.07956" lon="-0.56341">
        <ele>500.52</ele>
        <time>2025-03-03T20:31:53Z</time>
      </trkpt>
      <trkpt lat="43.07965" lon="-0.56345">
        <ele>497.26</ele>
        <time>2025-03-03T20:31:55Z</time>
      </trkpt>
      <trkpt lat="43.07988" lon="-0.56367">
        <ele>491.48</ele>
        <time>2025-03-03T20:31:57Z</time>
      </trkpt>
      <trkpt lat="43.07995" lon="-0.56379">
        <ele>491.47</ele>
        <time>2025-03-03T20:31:59Z</time>
      </trkpt>
      <trkpt lat="43.07998" lon="-0.5639">
        <ele>491.67</ele>
        <time>2025-03-03T20:32:01Z</time>
      </trkpt>
      <trkpt lat="43.08025" lon="-0.56556">
        <ele>488.53</ele>
        <time>2025-03-03T20:32:03Z</time>
      </trkpt>
      <trkpt lat="43.08028" lon="-0.56596">
        <ele>487.57</ele>
        <time>2025-03-03T20:32:05Z</time>
      </trkpt>
      <trkpt lat="43.08026" lon="-0.56629">
        <ele>486.77</ele>
        <time>2025-03-03T20:32:07Z</time>
      </trkpt>
      <trkpt lat="43.08011" lon="-0.56716">
        <ele>486.95</ele>
        <time>2025-03-03T20:32:09Z</time>
      </trkpt>
      <trkpt lat="43.08009" lon="-0.56736">
        <ele>484.67</ele>
        <time>2025-03-03T20:32:11Z</time>
      </trkpt>
      <trkpt lat="43.08009" lon="-0.56746">
        <ele>483.26</ele>
        <time>2025-03-03T20:32:13Z</time>
      </trkpt>
      <trkpt lat="43.08013" lon="-0.56767">
        <ele>481.43</ele>
        <time>2025-03-03T20:32:15Z</time>
      </trkpt>
      <trkpt lat="43.08027" lon="-0.56815">
        <ele>478.1</ele>
        <time>2025-03-03T20:32:17Z</time>
      </trkpt>
      <trkpt lat="43.08045" lon="-0.56865">
        <ele>476.15</ele>
        <time>2025-03-03T20:32:19Z</time>
      </trkpt>
      <trkpt lat="43.08049" lon="-0.5688">
        <ele>474.2</ele>
        <time>2025-03-03T20:32:21Z</time>
      </trkpt>
      <trkpt lat="43.08056" lon="-0.56932">
        <ele>469.44</ele>
        <time>2025-03-03T20:32:23Z</time>
      </trkpt>
      <trkpt lat="43.0805" lon="-0.57015">
        <ele>468.01</ele>
        <time>2025-03-03T20:32:25Z</time>
      </trkpt>
      <trkpt lat="43.08054" lon="-0.57048">
        <ele>465.85</ele>
        <time>2025-03-03T20:32:27Z</time>
      </trkpt>
      <trkpt lat="43.08063" lon="-0.57075">
        <ele>466.55</ele>
        <time>2025-03-03T20:32:29Z</time>
      </trkpt>
      <trkpt lat="43.0809" lon="-0.57117">
        <ele>464.79</ele>
        <time>2025-03-03T20:32:31Z</time>
      </trkpt>
      <trkpt lat="43.08105" lon="-0.57145">
        <ele>462.59</ele>
        <time>2025-03-03T20:32:33Z</time>
      </trkpt>
      <trkpt lat="43.08113" lon="-0.57172">
        <ele>459.73</ele>
        <time>2025-03-03T20:32:35Z</time>
      </trkpt>
      <trkpt lat="43.08121" lon="-0.57231">
        <ele>456.59</ele>
        <time>2025-03-03T20:32:37Z</time>
      </trkpt>
      <trkpt lat="43.08121" lon="-0.57294">
        <ele>458.53</ele>
        <time>2025-03-03T20:32:39Z</time>
      </trkpt>
      <trkpt lat="43.08116" lon="-0.5732">
        <ele>459.72</ele>
        <time>2025-03-03T20:32:42Z</time>
      </trkpt>
      <trkpt lat="43.08111" lon="-0.57335">
        <ele>460.21</ele>
        <time>2025-03-03T20:32:44Z</time>
      </trkpt>
      <trkpt lat="43.08074" lon="-0.57411">
        <ele>456.39</ele>
        <time>2025-03-03T20:32:46Z</time>
      </trkpt>
      <trkpt lat="43.08064" lon="-0.57446">
        <ele>450.92</ele>
        <time>2025-03-03T20:32:48Z</time>
      </trkpt>
      <trkpt lat="43.08052" lon="-0.57511">
        <ele>447.72</ele>
        <time>2025-03-03T20:32:50Z</time>
      </trkpt>
      <trkpt lat="43.0805" lon="-0.57529">
        <ele>448.36</ele>
        <time>2025-03-03T20:32:52Z</time>
      </trkpt>
      <trkpt lat="43.08053" lon="-0.57547">
        <ele>447.7</ele>
        <time>2025-03-03T20:32:54Z</time>
      </trkpt>
      <trkpt lat="43.08061" lon="-0.57565">
        <ele>445.51</ele>
        <time>2025-03-03T20:32:56Z</time>
      </trkpt>
      <trkpt lat="43.08085" lon="-0.576">
        <ele>443.58</ele>
        <time>2025-03-03T20:32:58Z</time>
      </trkpt>
      <trkpt lat="43.08097" lon="-0.57622">
        <ele>443.76</ele>
        <time>2025-03-03T20:33:00Z</time>
      </trkpt>
      <trkpt lat="43.08109" lon="-0.57662">
        <ele>437.89</ele>
        <time>2025-03-03T20:33:02Z</time>
      </trkpt>
      <trkpt lat="43.08112" lon="-0.57685">
        <ele>434.53</ele>
        <time>2025-03-03T20:33:04Z</time>
      </trkpt>
      <trkpt lat="43.08113" lon="-0.57713">
        <ele>435.15</ele>
        <time>2025-03-03T20:33:06Z</time>
      </trkpt>
      <trkpt lat="43.08101" lon="-0.5784">
        <ele>435.03</ele>
        <time>2025-03-03T20:33:08Z</time>
      </trkpt>
      <trkpt lat="43.08097" lon="-0.57867">
        <ele>438.25</ele>
        <time>2025-03-03T20:33:10Z</time>
      </trkpt>
      <trkpt lat="43.08094" lon="-0.57876">
        <ele>439.39</ele>
        <time>2025-03-03T20:33:12Z</time>
      </trkpt>
      <trkpt lat="43.08085" lon="-0.5789">
        <ele>439.61</ele>
        <time>2025-03-03T20:33:14Z</time>
      </trkpt>
      <trkpt lat="43.08072" lon="-0.57898">
        <ele>439.52</ele>
        <time>2025-03-03T20:33:16Z</time>
      </trkpt>
      <trkpt lat="43.08045" lon="-0.57899">
        <ele>438.28</ele>
        <time>2025-03-03T20:33:18Z</time>
      </trkpt>
      <trkpt lat="43.08026" lon="-0.57891">
        <ele>438.37</ele>
        <time>2025-03-03T20:33:20Z</time>
      </trkpt>
      <trkpt lat="43.08017" lon="-0.57881">
        <ele>439.83</ele>
        <time>2025-03-03T20:33:22Z</time>
      </trkpt>
      <trkpt lat="43.08012" lon="-0.57872">
        <ele>439.32</ele>
        <time>2025-03-03T20:33:24Z</time>
      </trkpt>
      <trkpt lat="43.07999" lon="-0.57823">
        <ele>435.93</ele>
        <time>2025-03-03T20:33:26Z</time>
      </trkpt>
      <trkpt lat="43.07997" lon="-0.57818">
        <ele>436.14</ele>
        <time>2025-03-03T20:33:28Z</time>
      </trkpt>
      <trkpt lat="43.0799" lon="-0.57812">
        <ele>436.48</ele>
        <time>2025-03-03T20:33:30Z</time>
      </trkpt>
      <trkpt lat="43.07981" lon="-0.57811">
        <ele>435.86</ele>
        <time>2025-03-03T20:33:32Z</time>
      </trkpt>
      <trkpt lat="43.07972" lon="-0.57817">
        <ele>433.5</ele>
        <time>2025-03-03T20:33:34Z</time>
      </trkpt>
      <trkpt lat="43.07964" lon="-0.57826">
        <ele>431.28</ele>
        <time>2025-03-03T20:33:36Z</time>
      </trkpt>
      <trkpt lat="43.07925" lon="-0.57885">
        <ele>427.04</ele>
        <time>2025-03-03T20:33:38Z</time>
      </trkpt>
      <trkpt lat="43.07915" lon="-0.57904">
        <ele>424.32</ele>
        <time>2025-03-03T20:33:40Z</time>
      </trkpt>
      <trkpt lat="43.07912" lon="-0.57912">
        <ele>424.01</ele>
        <time>2025-03-03T20:33:42Z</time>
      </trkpt>
      <trkpt lat="43.0791" lon="-0.57932">
        <ele>424.67</ele>
        <time>2025-03-03T20:33:44Z</time>
      </trkpt>
      <trkpt lat="43.07911" lon="-0.57977">
        <ele>426.78</ele>
        <time>2025-03-03T20:33:46Z</time>
      </trkpt>
      <trkpt lat="43.0791" lon="-0.57993">
        <ele>425.81</ele>
        <time>2025-03-03T20:33:48Z</time>
      </trkpt>
      <trkpt lat="43.07888" lon="-0.58103">
        <ele>407.95</ele>
        <time>2025-03-03T20:33:50Z</time>
      </trkpt>
      <trkpt lat="43.07885" lon="-0.58159">
        <ele>405.17</ele>
        <time>2025-03-03T20:33:52Z</time>
      </trkpt>
      <trkpt lat="43.07881" lon="-0.58178">
        <ele>404.07</ele>
        <time>2025-03-03T20:33:54Z</time>
      </trkpt>
      <trkpt lat="43.07868" lon="-0.58214">
        <ele>404.88</ele>
        <time>2025-03-03T20:33:56Z</time>
      </trkpt>
      <trkpt lat="43.07865" lon="-0.58235">
        <ele>404.16</ele>
        <time>2025-03-03T20:33:58Z</time>
      </trkpt>
      <trkpt lat="43.07866" lon="-0.58305">
        <ele>402.75</ele>
        <time>2025-03-03T20:34:00Z</time>
      </trkpt>
      <trkpt lat="43.07868" lon="-0.58368">
        <ele>398.76</ele>
        <time>2025-03-03T20:34:03Z</time>
      </trkpt>
      <trkpt lat="43.07874" lon="-0.58396">
        <ele>393.74</ele>
        <time>2025-03-03T20:34:05Z</time>
      </trkpt>
      <trkpt lat="43.07896" lon="-0.58479">
        <ele>390.66</ele>
        <time>2025-03-03T20:34:07Z</time>
      </trkpt>
      <trkpt lat="43.07903" lon="-0.58537">
        <ele>390.56</ele>
        <time>2025-03-03T20:34:09Z</time>
      </trkpt>
      <trkpt lat="43.07905" lon="-0.58586">
        <ele>389.9</ele>
        <time>2025-03-03T20:34:11Z</time>
      </trkpt>
      <trkpt lat="43.07902" lon="-0.58625">
        <ele>387.55</ele>
        <time>2025-03-03T20:34:13Z</time>
      </trkpt>
      <trkpt lat="43.07896" lon="-0.58662">
        <ele>387.85</ele>
        <time>2025-03-03T20:34:15Z</time>
      </trkpt>
      <trkpt lat="43.07885" lon="-0.58705">
        <ele>385.3</ele>
        <time>2025-03-03T20:34:17Z</time>
      </trkpt>
      <trkpt lat="43.07863" lon="-0.58782">
        <ele>380.49</ele>
        <time>2025-03-03T20:34:19Z</time>
      </trkpt>
      <trkpt lat="43.07854" lon="-0.58824">
        <ele>376.14</ele>
        <time>2025-03-03T20:34:21Z</time>
      </trkpt>
      <trkpt lat="43.0785" lon="-0.58854">
        <ele>373.51</ele>
        <time>2025-03-03T20:34:23Z</time>
      </trkpt>
      <trkpt lat="43.07845" lon="-0.59005">
        <ele>370.97</ele>
        <time>2025-03-03T20:34:25Z</time>
      </trkpt>
      <trkpt lat="43.07851" lon="-0.59081">
        <ele>370.26</ele>
        <time>2025-03-03T20:34:27Z</time>
      </trkpt>
      <trkpt lat="43.07851" lon="-0.59097">
        <ele>368.96</ele>
        <time>2025-03-03T20:34:29Z</time>
      </trkpt>
      <trkpt lat="43.07846" lon="-0.59208">
        <ele>367.27</ele>
        <time>2025-03-03T20:34:31Z</time>
      </trkpt>
      <trkpt lat="43.07838" lon="-0.59286">
        <ele>362.64</ele>
        <time>2025-03-03T20:34:33Z</time>
      </trkpt>
      <trkpt lat="43.0783" lon="-0.59339">
        <ele>361.17</ele>
        <time>2025-03-03T20:34:35Z</time>
      </trkpt>
      <trkpt lat="43.07827" lon="-0.59351">
        <ele>361.33</ele>
        <time>2025-03-03T20:34:37Z</time>
      </trkpt>
      <trkpt lat="43.07799" lon="-0.59424">
        <ele>357.03</ele>
        <time>2025-03-03T20:34:39Z</time>
      </trkpt>
      <trkpt lat="43.07792" lon="-0.59454">
        <ele>355.72</ele>
        <time>2025-03-03T20:34:41Z</time>
      </trkpt>
      <trkpt lat="43.07788" lon="-0.59493">
        <ele>355.33</ele>
        <time>2025-03-03T20:34:43Z</time>
      </trkpt>
      <trkpt lat="43.07792" lon="-0.59566">
        <ele>354.04</ele>
        <time>2025-03-03T20:34:45Z</time>
      </trkpt>
      <trkpt lat="43.07791" lon="-0.59584">
        <ele>353.23</ele>
        <time>2025-03-03T20:34:47Z</time>
      </trkpt>
      <trkpt lat="43.07781" lon="-0.59613">
        <ele>349.42</ele>
        <time>2025-03-03T20:34:49Z</time>
      </trkpt>
      <trkpt lat="43.07768" lon="-0.59641">
        <ele>349.06</ele>
        <time>2025-03-03T20:34:51Z</time>
      </trkpt>
      <trkpt lat="43.07735" lon="-0.59691">
        <ele>349.55</ele>
        <time>2025-03-03T20:34:53Z</time>
      </trkpt>
      <trkpt lat="43.07727" lon="-0.59713">
        <ele>351.13</ele>
        <time>2025-03-03T20:34:55Z</time>
      </trkpt>
      <trkpt lat="43.07723" lon="-0.59734">
        <ele>350.24</ele>
        <time>2025-03-03T20:34:57Z</time>
      </trkpt>
      <trkpt lat="43.07722" lon="-0.59761">
        <ele>348.12</ele>
        <time>2025-03-03T20:34:59Z</time>
      </trkpt>
      <trkpt lat="43.07722" lon="-0.59854">
        <ele>346.52</ele>
        <time>2025-03-03T20:35:01Z</time>
      </trkpt>
      <trkpt lat="43.07716" lon="-0.59899">
        <ele>345.03</ele>
        <time>2025-03-03T20:35:03Z</time>
      </trkpt>
      <trkpt lat="43.07701" lon="-0.59966">
        <ele>342.42</ele>
        <time>2025-03-03T20:35:05Z</time>
      </trkpt>
      <trkpt lat="43.07698" lon="-0.59991">
        <ele>340.05</ele>
        <time>2025-03-03T20:35:07Z</time>
      </trkpt>
      <trkpt lat="43.07698" lon="-0.60003">
        <ele>339.44</ele>
        <time>2025-03-03T20:35:09Z</time>
      </trkpt>
      <trkpt lat="43.07703" lon="-0.60058">
        <ele>341.25</ele>
        <time>2025-03-03T20:35:11Z</time>
      </trkpt>
      <trkpt lat="43.07704" lon="-0.60092">
        <ele>342.95</ele>
        <time>2025-03-03T20:35:13Z</time>
      </trkpt>
      <trkpt lat="43.07702" lon="-0.60126">
        <ele>342.68</ele>
        <time>2025-03-03T20:35:15Z</time>
      </trkpt>
      <trkpt lat="43.0769" lon="-0.60248">
        <ele>338.17</ele>
        <time>2025-03-03T20:35:17Z</time>
      </trkpt>
      <trkpt lat="43.0769" lon="-0.60271">
        <ele>336.83</ele>
        <time>2025-03-03T20:35:19Z</time>
      </trkpt>
      <trkpt lat="43.07694" lon="-0.60305">
        <ele>336.85</ele>
        <time>2025-03-03T20:35:21Z</time>
      </trkpt>
      <trkpt lat="43.07693" lon="-0.60314">
        <ele>337.42</ele>
        <time>2025-03-03T20:35:24Z</time>
      </trkpt>
      <trkpt lat="43.07687" lon="-0.60358">
        <ele>339.32</ele>
        <time>2025-03-03T20:35:26Z</time>
      </trkpt>
      <trkpt lat="43.07685" lon="-0.60391">
        <ele>340.61</ele>
        <time>2025-03-03T20:35:28Z</time>
      </trkpt>
      <trkpt lat="43.0769" lon="-0.60508">
        <ele>342.89</ele>
        <time>2025-03-03T20:35:30Z</time>
      </trkpt>
      <trkpt lat="43.07688" lon="-0.60527">
        <ele>340.54</ele>
        <time>2025-03-03T20:35:32Z</time>
      </trkpt>
      <trkpt lat="43.07679" lon="-0.60585">
        <ele>334.46</ele>
        <time>2025-03-03T20:35:34Z</time>
      </trkpt>
      <trkpt lat="43.07672" lon="-0.60604">
        <ele>332.84</ele>
        <time>2025-03-03T20:35:36Z</time>
      </trkpt>
      <trkpt lat="43.07665" lon="-0.60611">
        <ele>331.69</ele>
        <time>2025-03-03T20:35:38Z</time>
      </trkpt>
      <trkpt lat="43.07639" lon="-0.60553">
        <ele>324.09</ele>
        <time>2025-03-03T20:35:40Z</time>
      </trkpt>
      <trkpt lat="43.0763" lon="-0.6054">
        <ele>324.9</ele>
        <time>2025-03-03T20:35:43Z</time>
      </trkpt>
      <trkpt lat="43.0762" lon="-0.60531">
        <ele>325.56</ele>
        <time>2025-03-03T20:35:46Z</time>
      </trkpt>
      <trkpt lat="43.07608" lon="-0.6052">
        <ele>327.28</ele>
        <time>2025-03-03T20:35:48Z</time>
      </trkpt>
      <trkpt lat="43.07597" lon="-0.60514">
        <ele>329.58</ele>
        <time>2025-03-03T20:35:51Z</time>
      </trkpt>
      <trkpt lat="43.0759" lon="-0.60516">
        <ele>330.31</ele>
        <time>2025-03-03T20:35:53Z</time>
      </trkpt>
      <trkpt lat="43.07584" lon="-0.6052">
        <ele>330.82</ele>
        <time>2025-03-03T20:35:56Z</time>
      </trkpt>
      <trkpt lat="43.07556" lon="-0.60547">
        <ele>337.3</ele>
        <time>2025-03-03T20:35:58Z</time>
      </trkpt>
      <trkpt lat="43.07541" lon="-0.6058">
        <ele>339.79</ele>
        <time>2025-03-03T20:36:01Z</time>
      </trkpt>
      <trkpt lat="43.07533" lon="-0.60626">
        <ele>334.66</ele>
        <time>2025-03-03T20:36:03Z</time>
      </trkpt>
      <trkpt lat="43.07524" lon="-0.60657">
        <ele>329.55</ele>
        <time>2025-03-03T20:36:06Z</time>
      </trkpt>
      <trkpt lat="43.07518" lon="-0.6067">
        <ele>327.66</ele>
        <time>2025-03-03T20:36:08Z</time>
      </trkpt>
      <trkpt lat="43.0751" lon="-0.6068">
        <ele>326.52</ele>
        <time>2025-03-03T20:36:11Z</time>
      </trkpt>
      <trkpt lat="43.07501" lon="-0.60684">
        <ele>325.56</ele>
        <time>2025-03-03T20:36:13Z</time>
      </trkpt>
      <trkpt lat="43.07491" lon="-0.60686">
        <ele>325.11</ele>
        <time>2025-03-03T20:36:16Z</time>
      </trkpt>
      <trkpt lat="43.07476" lon="-0.60684">
        <ele>325.68</ele>
        <time>2025-03-03T20:36:18Z</time>
      </trkpt>
      <trkpt lat="43.07458" lon="-0.60676">
        <ele>327.31</ele>
        <time>2025-03-03T20:36:21Z</time>
      </trkpt>
      <trkpt lat="43.07368" lon="-0.60628">
        <ele>333.23</ele>
        <time>2025-03-03T20:36:24Z</time>
      </trkpt>
      <trkpt lat="43.07346" lon="-0.60619">
        <ele>336.17</ele>
        <time>2025-03-03T20:36:26Z</time>
      </trkpt>
      <trkpt lat="43.07319" lon="-0.60614">
        <ele>334.22</ele>
        <time>2025-03-03T20:36:29Z</time>
      </trkpt>
      <trkpt lat="43.07238" lon="-0.6062">
        <ele>323.61</ele>
        <time>2025-03-03T20:36:31Z</time>
      </trkpt>
      <trkpt lat="43.07194" lon="-0.60621">
        <ele>319.97</ele>
        <time>2025-03-03T20:36:34Z</time>
      </trkpt>
      <trkpt lat="43.0719" lon="-0.60628">
        <ele>319.52</ele>
        <time>2025-03-03T20:36:36Z</time>
      </trkpt>
      <trkpt lat="43.07172" lon="-0.60607">
        <ele>316.79</ele>
        <time>2025-03-03T20:36:40Z</time>
      </trkpt>
      <trkpt lat="43.07152" lon="-0.60591">
        <ele>319.41</ele>
        <time>2025-03-03T20:36:43Z</time>
      </trkpt>
      <trkpt lat="43.07132" lon="-0.60581">
        <ele>325.9</ele>
        <time>2025-03-03T20:36:46Z</time>
      </trkpt>
      <trkpt lat="43.07091" lon="-0.60575">
        <ele>330.92</ele>
        <time>2025-03-03T20:36:49Z</time>
      </trkpt>
      <trkpt lat="43.07069" lon="-0.60577">
        <ele>329.95</ele>
        <time>2025-03-03T20:36:53Z</time>
      </trkpt>
      <trkpt lat="43.07023" lon="-0.60593">
        <ele>322.12</ele>
        <time>2025-03-03T20:36:56Z</time>
      </trkpt>
      <trkpt lat="43.07008" lon="-0.60597">
        <ele>319.95</ele>
        <time>2025-03-03T20:36:59Z</time>
      </trkpt>
      <trkpt lat="43.06992" lon="-0.60597">
        <ele>318.67</ele>
        <time>2025-03-03T20:37:03Z</time>
      </trkpt>
      <trkpt lat="43.06975" lon="-0.60595">
        <ele>318.65</ele>
        <time>2025-03-03T20:37:06Z</time>
      </trkpt>
      <trkpt lat="43.0696" lon="-0.6059">
        <ele>317.92</ele>
        <time>2025-03-03T20:37:09Z</time>
      </trkpt>
      <trkpt lat="43.06934" lon="-0.60571">
        <ele>317.57</ele>
        <time>2025-03-03T20:37:13Z</time>
      </trkpt>
      <trkpt lat="43.06918" lon="-0.60553">
        <ele>316.95</ele>
        <time>2025-03-03T20:37:16Z</time>
      </trkpt>
      <trkpt lat="43.06907" lon="-0.60537">
        <ele>319.05</ele>
        <time>2025-03-03T20:37:19Z</time>
      </trkpt>
      <trkpt lat="43.06816" lon="-0.6035">
        <ele>319.61</ele>
        <time>2025-03-03T20:37:23Z</time>
      </trkpt>
      <trkpt lat="43.06793" lon="-0.60314">
        <ele>321.41</ele>
        <time>2025-03-03T20:37:26Z</time>
      </trkpt>
      <trkpt lat="43.06782" lon="-0.60302">
        <ele>320.57</ele>
        <time>2025-03-03T20:37:29Z</time>
      </trkpt>
      <trkpt lat="43.06754" lon="-0.60279">
        <ele>321.01</ele>
        <time>2025-03-03T20:37:32Z</time>
      </trkpt>
      <trkpt lat="43.06578" lon="-0.60172">
        <ele>348.52</ele>
        <time>2025-03-03T20:37:36Z</time>
      </trkpt>
      <trkpt lat="43.06536" lon="-0.60143">
        <ele>341.33</ele>
        <time>2025-03-03T20:37:39Z</time>
      </trkpt>
      <trkpt lat="43.06507" lon="-0.60117">
        <ele>332.23</ele>
        <time>2025-03-03T20:37:42Z</time>
      </trkpt>
      <trkpt lat="43.06489" lon="-0.60097">
        <ele>330.19</ele>
        <time>2025-03-03T20:37:46Z</time>
      </trkpt>
      <trkpt lat="43.064" lon="-0.59971">
        <ele>330.43</ele>
        <time>2025-03-03T20:37:49Z</time>
      </trkpt>
      <trkpt lat="43.06377" lon="-0.59947">
        <ele>327.7</ele>
        <time>2025-03-03T20:37:52Z</time>
      </trkpt>
      <trkpt lat="43.06361" lon="-0.59935">
        <ele>323.72</ele>
        <time>2025-03-03T20:37:56Z</time>
      </trkpt>
      <trkpt lat="43.06332" lon="-0.5992">
        <ele>325.07</ele>
        <time>2025-03-03T20:37:59Z</time>
      </trkpt>
      <trkpt lat="43.06312" lon="-0.59915">
        <ele>329.62</ele>
        <time>2025-03-03T20:38:02Z</time>
      </trkpt>
      <trkpt lat="43.06191" lon="-0.59903">
        <ele>342.79</ele>
        <time>2025-03-03T20:38:06Z</time>
      </trkpt>
      <trkpt lat="43.06156" lon="-0.59897">
        <ele>344.32</ele>
        <time>2025-03-03T20:38:09Z</time>
      </trkpt>
      <trkpt lat="43.06136" lon="-0.5989">
        <ele>342.8</ele>
        <time>2025-03-03T20:38:12Z</time>
      </trkpt>
      <trkpt lat="43.06112" lon="-0.59881">
        <ele>342.86</ele>
        <time>2025-03-03T20:38:15Z</time>
      </trkpt>
      <trkpt lat="43.05959" lon="-0.59813">
        <ele>346.5</ele>
        <time>2025-03-03T20:38:19Z</time>
      </trkpt>
      <trkpt lat="43.05741" lon="-0.59713">
        <ele>344.49</ele>
        <time>2025-03-03T20:38:22Z</time>
      </trkpt>
      <trkpt lat="43.05717" lon="-0.59704">
        <ele>346.07</ele>
        <time>2025-03-03T20:38:25Z</time>
      </trkpt>
      <trkpt lat="43.05661" lon="-0.59687">
        <ele>345.68</ele>
        <time>2025-03-03T20:38:29Z</time>
      </trkpt>
      <trkpt lat="43.05626" lon="-0.5968">
        <ele>346.71</ele>
        <time>2025-03-03T20:38:32Z</time>
      </trkpt>
      <trkpt lat="43.056" lon="-0.59677">
        <ele>347.85</ele>
        <time>2025-03-03T20:38:35Z</time>
      </trkpt>
      <trkpt lat="43.05534" lon="-0.5968">
        <ele>351.81</ele>
        <time>2025-03-03T20:38:39Z</time>
      </trkpt>
      <trkpt lat="43.05524" lon="-0.59683">
        <ele>351.42</ele>
        <time>2025-03-03T20:38:42Z</time>
      </trkpt>
      <trkpt lat="43.05515" lon="-0.59689">
        <ele>349.78</ele>
        <time>2025-03-03T20:38:45Z</time>
      </trkpt>
      <trkpt lat="43.05506" lon="-0.59697">
        <ele>349.39</ele>
        <time>2025-03-03T20:38:49Z</time>
      </trkpt>
      <trkpt lat="43.055" lon="-0.59707">
        <ele>349</ele>
        <time>2025-03-03T20:38:52Z</time>
      </trkpt>
      <trkpt lat="43.05462" lon="-0.59769">
        <ele>346.49</ele>
        <time>2025-03-03T20:38:55Z</time>
      </trkpt>
      <trkpt lat="43.05443" lon="-0.59789">
        <ele>347.67</ele>
        <time>2025-03-03T20:38:58Z</time>
      </trkpt>
      <trkpt lat="43.05267" lon="-0.59906">
        <ele>348.61</ele>
        <time>2025-03-03T20:39:02Z</time>
      </trkpt>
      <trkpt lat="43.05222" lon="-0.59938">
        <ele>344.31</ele>
        <time>2025-03-03T20:39:05Z</time>
      </trkpt>
      <trkpt lat="43.05198" lon="-0.59962">
        <ele>341.08</ele>
        <time>2025-03-03T20:39:08Z</time>
      </trkpt>
      <trkpt lat="43.05182" lon="-0.59983">
        <ele>340.34</ele>
        <time>2025-03-03T20:39:12Z</time>
      </trkpt>
      <trkpt lat="43.05166" lon="-0.60013">
        <ele>339.97</ele>
        <time>2025-03-03T20:39:15Z</time>
      </trkpt>
      <trkpt lat="43.05136" lon="-0.60079">
        <ele>341.88</ele>
        <time>2025-03-03T20:39:18Z</time>
      </trkpt>
      <trkpt lat="43.05121" lon="-0.60102">
        <ele>341.14</ele>
        <time>2025-03-03T20:39:22Z</time>
      </trkpt>
      <trkpt lat="43.05106" lon="-0.60117">
        <ele>340.28</ele>
        <time>2025-03-03T20:39:25Z</time>
      </trkpt>
      <trkpt lat="43.05092" lon="-0.60128">
        <ele>340.48</ele>
        <time>2025-03-03T20:39:28Z</time>
      </trkpt>
      <trkpt lat="43.05075" lon="-0.60135">
        <ele>341.39</ele>
        <time>2025-03-03T20:39:32Z</time>
      </trkpt>
      <trkpt lat="43.0505" lon="-0.6014">
        <ele>343.61</ele>
        <time>2025-03-03T20:39:35Z</time>
      </trkpt>
      <trkpt lat="43.05032" lon="-0.60139">
        <ele>344.76</ele>
        <time>2025-03-03T20:39:38Z</time>
      </trkpt>
      <trkpt lat="43.04998" lon="-0.60131">
        <ele>344.16</ele>
        <time>2025-03-03T20:39:41Z</time>
      </trkpt>
      <trkpt lat="43.04989" lon="-0.60128">
        <ele>344.24</ele>
        <time>2025-03-03T20:39:45Z</time>
      </trkpt>
      <trkpt lat="43.04963" lon="-0.60127">
        <ele>344.36</ele>
        <time>2025-03-03T20:39:48Z</time>
      </trkpt>
      <trkpt lat="43.04852" lon="-0.60133">
        <ele>343.03</ele>
        <time>2025-03-03T20:39:51Z</time>
      </trkpt>
      <trkpt lat="43.04602" lon="-0.60148">
        <ele>374.45</ele>
        <time>2025-03-03T20:39:55Z</time>
      </trkpt>
      <trkpt lat="43.04574" lon="-0.60144">
        <ele>375.48</ele>
        <time>2025-03-03T20:39:58Z</time>
      </trkpt>
      <trkpt lat="43.04555" lon="-0.60138">
        <ele>371.7</ele>
        <time>2025-03-03T20:40:01Z</time>
      </trkpt>
      <trkpt lat="43.04536" lon="-0.60127">
        <ele>366.5</ele>
        <time>2025-03-03T20:40:05Z</time>
      </trkpt>
      <trkpt lat="43.04495" lon="-0.60087">
        <ele>361.45</ele>
        <time>2025-03-03T20:40:08Z</time>
      </trkpt>
      <trkpt lat="43.04477" lon="-0.60068">
        <ele>363.32</ele>
        <time>2025-03-03T20:40:11Z</time>
      </trkpt>
      <trkpt lat="43.0445" lon="-0.60054">
        <ele>366.27</ele>
        <time>2025-03-03T20:40:15Z</time>
      </trkpt>
      <trkpt lat="43.04426" lon="-0.60046">
        <ele>371.39</ele>
        <time>2025-03-03T20:40:18Z</time>
      </trkpt>
      <trkpt lat="43.04411" lon="-0.60044">
        <ele>374.36</ele>
        <time>2025-03-03T20:40:21Z</time>
      </trkpt>
      <trkpt lat="43.04292" lon="-0.60053">
        <ele>373.18</ele>
        <time>2025-03-03T20:40:24Z</time>
      </trkpt>
      <trkpt lat="43.04267" lon="-0.60065">
        <ele>374.73</ele>
        <time>2025-03-03T20:40:28Z</time>
      </trkpt>
      <trkpt lat="43.04253" lon="-0.60075">
        <ele>373.35</ele>
        <time>2025-03-03T20:40:31Z</time>
      </trkpt>
      <trkpt lat="43.04222" lon="-0.60105">
        <ele>376.58</ele>
        <time>2025-03-03T20:40:34Z</time>
      </trkpt>
      <trkpt lat="43.04203" lon="-0.60122">
        <ele>378.12</ele>
        <time>2025-03-03T20:40:38Z</time>
      </trkpt>
      <trkpt lat="43.04192" lon="-0.60129">
        <ele>377.9</ele>
        <time>2025-03-03T20:40:41Z</time>
      </trkpt>
      <trkpt lat="43.04182" lon="-0.60132">
        <ele>376.57</ele>
        <time>2025-03-03T20:40:44Z</time>
      </trkpt>
      <trkpt lat="43.04171" lon="-0.60133">
        <ele>373.57</ele>
        <time>2025-03-03T20:40:48Z</time>
      </trkpt>
      <trkpt lat="43.04137" lon="-0.60128">
        <ele>366.71</ele>
        <time>2025-03-03T20:40:51Z</time>
      </trkpt>
      <trkpt lat="43.04124" lon="-0.60128">
        <ele>366.24</ele>
        <time>2025-03-03T20:40:54Z</time>
      </trkpt>
      <trkpt lat="43.04112" lon="-0.60131">
        <ele>366.16</ele>
        <time>2025-03-03T20:40:58Z</time>
      </trkpt>
      <trkpt lat="43.04098" lon="-0.60139">
        <ele>366.07</ele>
        <time>2025-03-03T20:41:01Z</time>
      </trkpt>
      <trkpt lat="43.04068" lon="-0.60167">
        <ele>373.51</ele>
        <time>2025-03-03T20:41:04Z</time>
      </trkpt>
      <trkpt lat="43.04051" lon="-0.6019">
        <ele>375.27</ele>
        <time>2025-03-03T20:41:07Z</time>
      </trkpt>
      <trkpt lat="43.04037" lon="-0.60214">
        <ele>371.21</ele>
        <time>2025-03-03T20:41:11Z</time>
      </trkpt>
      <trkpt lat="43.0403" lon="-0.60231">
        <ele>369.83</ele>
        <time>2025-03-03T20:41:14Z</time>
      </trkpt>
      <trkpt lat="43.04019" lon="-0.6027">
        <ele>371.85</ele>
        <time>2025-03-03T20:41:17Z</time>
      </trkpt>
      <trkpt lat="43.04007" lon="-0.60359">
        <ele>365.87</ele>
        <time>2025-03-03T20:41:21Z</time>
      </trkpt>
      <trkpt lat="43.03996" lon="-0.604">
        <ele>362.61</ele>
        <time>2025-03-03T20:41:24Z</time>
      </trkpt>
      <trkpt lat="43.0398" lon="-0.60437">
        <ele>361.93</ele>
        <time>2025-03-03T20:41:27Z</time>
      </trkpt>
      <trkpt lat="43.0396" lon="-0.60471">
        <ele>361.09</ele>
        <time>2025-03-03T20:41:31Z</time>
      </trkpt>
      <trkpt lat="43.03945" lon="-0.6049">
        <ele>363.02</ele>
        <time>2025-03-03T20:41:34Z</time>
      </trkpt>
      <trkpt lat="43.03882" lon="-0.60549">
        <ele>367.18</ele>
        <time>2025-03-03T20:41:37Z</time>
      </trkpt>
      <trkpt lat="43.03857" lon="-0.60567">
        <ele>371.59</ele>
        <time>2025-03-03T20:41:41Z</time>
      </trkpt>
      <trkpt lat="43.03818" lon="-0.6059">
        <ele>375.93</ele>
        <time>2025-03-03T20:41:44Z</time>
      </trkpt>
      <trkpt lat="43.03784" lon="-0.60605">
        <ele>377.64</ele>
        <time>2025-03-03T20:41:47Z</time>
      </trkpt>
      <trkpt lat="43.03744" lon="-0.60616">
        <ele>373.05</ele>
        <time>2025-03-03T20:41:50Z</time>
      </trkpt>
      <trkpt lat="43.03655" lon="-0.60637">
        <ele>364.68</ele>
        <time>2025-03-03T20:41:54Z</time>
      </trkpt>
      <trkpt lat="43.03657" lon="-0.60661">
        <ele>371.25</ele>
        <time>2025-03-03T20:41:56Z</time>
      </trkpt>
      <trkpt lat="43.03652" lon="-0.60673">
        <ele>373.51</ele>
        <time>2025-03-03T20:41:58Z</time>
      </trkpt>
      <trkpt lat="43.03649" lon="-0.60676">
        <ele>373.85</ele>
        <time>2025-03-03T20:42:00Z</time>
      </trkpt>
      <trkpt lat="43.03642" lon="-0.60678">
        <ele>373.74</ele>
        <time>2025-03-03T20:42:01Z</time>
      </trkpt>
      <trkpt lat="43.03588" lon="-0.60678">
        <ele>376.74</ele>
        <time>2025-03-03T20:42:03Z</time>
      </trkpt>
      <trkpt lat="43.03583" lon="-0.60679">
        <ele>377.65</ele>
        <time>2025-03-03T20:42:05Z</time>
      </trkpt>
      <trkpt lat="43.03578" lon="-0.60686">
        <ele>380.17</ele>
        <time>2025-03-03T20:42:07Z</time>
      </trkpt>
      <trkpt lat="43.03576" lon="-0.60691">
        <ele>381.93</ele>
        <time>2025-03-03T20:42:09Z</time>
      </trkpt>
      <trkpt lat="43.03576" lon="-0.607">
        <ele>384.51</ele>
        <time>2025-03-03T20:42:11Z</time>
      </trkpt>
      <trkpt lat="43.03578" lon="-0.60707">
        <ele>386.52</ele>
        <time>2025-03-03T20:42:13Z</time>
      </trkpt>
      <trkpt lat="43.03585" lon="-0.60713">
        <ele>387.93</ele>
        <time>2025-03-03T20:42:15Z</time>
      </trkpt>
      <trkpt lat="43.03591" lon="-0.60713">
        <ele>387.36</ele>
        <time>2025-03-03T20:42:17Z</time>
      </trkpt>
      <trkpt lat="43.03611" lon="-0.60702">
        <ele>381.3</ele>
        <time>2025-03-03T20:42:19Z</time>
      </trkpt>
      <trkpt lat="43.03619" lon="-0.607">
        <ele>379.95</ele>
        <time>2025-03-03T20:42:20Z</time>
      </trkpt>
      <trkpt lat="43.03629" lon="-0.60701">
        <ele>379.45</ele>
        <time>2025-03-03T20:42:22Z</time>
      </trkpt>
      <trkpt lat="43.03639" lon="-0.60708">
        <ele>379.88</ele>
        <time>2025-03-03T20:42:24Z</time>
      </trkpt>
      <trkpt lat="43.03644" lon="-0.60716">
        <ele>381.47</ele>
        <time>2025-03-03T20:42:26Z</time>
      </trkpt>
      <trkpt lat="43.03648" lon="-0.60728">
        <ele>383.61</ele>
        <time>2025-03-03T20:42:28Z</time>
      </trkpt>
      <trkpt lat="43.03652" lon="-0.60771">
        <ele>391.46</ele>
        <time>2025-03-03T20:42:30Z</time>
      </trkpt>
      <trkpt lat="43.03664" lon="-0.60882">
        <ele>390.89</ele>
        <time>2025-03-03T20:42:32Z</time>
      </trkpt>
      <trkpt lat="43.03664" lon="-0.60902">
        <ele>391.34</ele>
        <time>2025-03-03T20:42:34Z</time>
      </trkpt>
      <trkpt lat="43.03655" lon="-0.60952">
        <ele>395.29</ele>
        <time>2025-03-03T20:42:36Z</time>
      </trkpt>
      <trkpt lat="43.03644" lon="-0.6099">
        <ele>401.12</ele>
        <time>2025-03-03T20:42:38Z</time>
      </trkpt>
      <trkpt lat="43.03643" lon="-0.6103">
        <ele>402.93</ele>
        <time>2025-03-03T20:42:39Z</time>
      </trkpt>
      <trkpt lat="43.03652" lon="-0.61076">
        <ele>401.47</ele>
        <time>2025-03-03T20:42:41Z</time>
      </trkpt>
      <trkpt lat="43.03662" lon="-0.61115">
        <ele>397.86</ele>
        <time>2025-03-03T20:42:43Z</time>
      </trkpt>
      <trkpt lat="43.03665" lon="-0.61154">
        <ele>402.12</ele>
        <time>2025-03-03T20:42:45Z</time>
      </trkpt>
      <trkpt lat="43.03666" lon="-0.61214">
        <ele>404.85</ele>
        <time>2025-03-03T20:42:47Z</time>
      </trkpt>
      <trkpt lat="43.03664" lon="-0.61232">
        <ele>405.79</ele>
        <time>2025-03-03T20:42:49Z</time>
      </trkpt>
      <trkpt lat="43.03656" lon="-0.61263">
        <ele>409.41</ele>
        <time>2025-03-03T20:42:51Z</time>
      </trkpt>
      <trkpt lat="43.03654" lon="-0.61277">
        <ele>411.19</ele>
        <time>2025-03-03T20:42:53Z</time>
      </trkpt>
      <trkpt lat="43.03656" lon="-0.61288">
        <ele>412.26</ele>
        <time>2025-03-03T20:42:55Z</time>
      </trkpt>
      <trkpt lat="43.03673" lon="-0.61319">
        <ele>413.95</ele>
        <time>2025-03-03T20:42:57Z</time>
      </trkpt>
      <trkpt lat="43.03676" lon="-0.61345">
        <ele>416.03</ele>
        <time>2025-03-03T20:42:58Z</time>
      </trkpt>
      <trkpt lat="43.03676" lon="-0.61361">
        <ele>417.02</ele>
        <time>2025-03-03T20:43:00Z</time>
      </trkpt>
      <trkpt lat="43.03674" lon="-0.61378">
        <ele>417.43</ele>
        <time>2025-03-03T20:43:02Z</time>
      </trkpt>
      <trkpt lat="43.0367" lon="-0.61391">
        <ele>417.28</ele>
        <time>2025-03-03T20:43:04Z</time>
      </trkpt>
      <trkpt lat="43.03656" lon="-0.61409">
        <ele>420.23</ele>
        <time>2025-03-03T20:43:06Z</time>
      </trkpt>
      <trkpt lat="43.03646" lon="-0.61425">
        <ele>423.08</ele>
        <time>2025-03-03T20:43:08Z</time>
      </trkpt>
      <trkpt lat="43.03638" lon="-0.61444">
        <ele>424.71</ele>
        <time>2025-03-03T20:43:10Z</time>
      </trkpt>
      <trkpt lat="43.03632" lon="-0.61467">
        <ele>429.83</ele>
        <time>2025-03-03T20:43:12Z</time>
      </trkpt>
      <trkpt lat="43.03628" lon="-0.61514">
        <ele>436.67</ele>
        <time>2025-03-03T20:43:14Z</time>
      </trkpt>
      <trkpt lat="43.03628" lon="-0.61576">
        <ele>438.21</ele>
        <time>2025-03-03T20:43:15Z</time>
      </trkpt>
      <trkpt lat="43.03633" lon="-0.61597">
        <ele>435.44</ele>
        <time>2025-03-03T20:43:17Z</time>
      </trkpt>
      <trkpt lat="43.03639" lon="-0.61601">
        <ele>433.09</ele>
        <time>2025-03-03T20:43:19Z</time>
      </trkpt>
      <trkpt lat="43.03645" lon="-0.616">
        <ele>434.12</ele>
        <time>2025-03-03T20:43:21Z</time>
      </trkpt>
      <trkpt lat="43.03654" lon="-0.61591">
        <ele>434.85</ele>
        <time>2025-03-03T20:43:23Z</time>
      </trkpt>
      <trkpt lat="43.0367" lon="-0.6156">
        <ele>432.58</ele>
        <time>2025-03-03T20:43:25Z</time>
      </trkpt>
      <trkpt lat="43.03685" lon="-0.61509">
        <ele>429.99</ele>
        <time>2025-03-03T20:43:27Z</time>
      </trkpt>
      <trkpt lat="43.03704" lon="-0.61457">
        <ele>430.04</ele>
        <time>2025-03-03T20:43:29Z</time>
      </trkpt>
      <trkpt lat="43.03726" lon="-0.61371">
        <ele>437.18</ele>
        <time>2025-03-03T20:43:31Z</time>
      </trkpt>
      <trkpt lat="43.03738" lon="-0.61305">
        <ele>442.23</ele>
        <time>2025-03-03T20:43:33Z</time>
      </trkpt>
      <trkpt lat="43.03743" lon="-0.61289">
        <ele>443.55</ele>
        <time>2025-03-03T20:43:34Z</time>
      </trkpt>
      <trkpt lat="43.03755" lon="-0.61259">
        <ele>448.01</ele>
        <time>2025-03-03T20:43:36Z</time>
      </trkpt>
      <trkpt lat="43.03763" lon="-0.61233">
        <ele>450.8</ele>
        <time>2025-03-03T20:43:38Z</time>
      </trkpt>
      <trkpt lat="43.03779" lon="-0.61149">
        <ele>450.2</ele>
        <time>2025-03-03T20:43:40Z</time>
      </trkpt>
      <trkpt lat="43.03783" lon="-0.61134">
        <ele>451.73</ele>
        <time>2025-03-03T20:43:42Z</time>
      </trkpt>
      <trkpt lat="43.03791" lon="-0.61121">
        <ele>455.7</ele>
        <time>2025-03-03T20:43:44Z</time>
      </trkpt>
      <trkpt lat="43.03803" lon="-0.6111">
        <ele>463.21</ele>
        <time>2025-03-03T20:43:46Z</time>
      </trkpt>
      <trkpt lat="43.03809" lon="-0.61098">
        <ele>465.74</ele>
        <time>2025-03-03T20:43:48Z</time>
      </trkpt>
      <trkpt lat="43.03822" lon="-0.61062">
        <ele>467.43</ele>
        <time>2025-03-03T20:43:50Z</time>
      </trkpt>
      <trkpt lat="43.03826" lon="-0.61043">
        <ele>467.78</ele>
        <time>2025-03-03T20:43:52Z</time>
      </trkpt>
      <trkpt lat="43.03836" lon="-0.60965">
        <ele>465.31</ele>
        <time>2025-03-03T20:43:53Z</time>
      </trkpt>
      <trkpt lat="43.0384" lon="-0.60953">
        <ele>465.36</ele>
        <time>2025-03-03T20:43:55Z</time>
      </trkpt>
      <trkpt lat="43.03846" lon="-0.60947">
        <ele>467.4</ele>
        <time>2025-03-03T20:43:57Z</time>
      </trkpt>
      <trkpt lat="43.03853" lon="-0.60948">
        <ele>470.49</ele>
        <time>2025-03-03T20:43:59Z</time>
      </trkpt>
      <trkpt lat="43.03884" lon="-0.60956">
        <ele>480.44</ele>
        <time>2025-03-03T20:44:01Z</time>
      </trkpt>
      <trkpt lat="43.03904" lon="-0.60966">
        <ele>485.21</ele>
        <time>2025-03-03T20:44:03Z</time>
      </trkpt>
      <trkpt lat="43.03924" lon="-0.60985">
        <ele>488.98</ele>
        <time>2025-03-03T20:44:05Z</time>
      </trkpt>
      <trkpt lat="43.03933" lon="-0.60998">
        <ele>489.77</ele>
        <time>2025-03-03T20:44:07Z</time>
      </trkpt>
      <trkpt lat="43.03941" lon="-0.61019">
        <ele>491.88</ele>
        <time>2025-03-03T20:44:09Z</time>
      </trkpt>
      <trkpt lat="43.03948" lon="-0.61029">
        <ele>493.15</ele>
        <time>2025-03-03T20:44:11Z</time>
      </trkpt>
      <trkpt lat="43.03957" lon="-0.61037">
        <ele>494.2</ele>
        <time>2025-03-03T20:44:12Z</time>
      </trkpt>
      <trkpt lat="43.03966" lon="-0.61042">
        <ele>494.63</ele>
        <time>2025-03-03T20:44:14Z</time>
      </trkpt>
      <trkpt lat="43.03984" lon="-0.61044">
        <ele>497.06</ele>
        <time>2025-03-03T20:44:16Z</time>
      </trkpt>
      <trkpt lat="43.0399" lon="-0.6104">
        <ele>497.78</ele>
        <time>2025-03-03T20:44:18Z</time>
      </trkpt>
      <trkpt lat="43.03992" lon="-0.61034">
        <ele>497.73</ele>
        <time>2025-03-03T20:44:20Z</time>
      </trkpt>
      <trkpt lat="43.03992" lon="-0.61025">
        <ele>497.7</ele>
        <time>2025-03-03T20:44:22Z</time>
      </trkpt>
      <trkpt lat="43.03975" lon="-0.60957">
        <ele>501.48</ele>
        <time>2025-03-03T20:44:24Z</time>
      </trkpt>
      <trkpt lat="43.03944" lon="-0.60878">
        <ele>500.16</ele>
        <time>2025-03-03T20:44:26Z</time>
      </trkpt>
      <trkpt lat="43.0394" lon="-0.60855">
        <ele>503.79</ele>
        <time>2025-03-03T20:44:28Z</time>
      </trkpt>
      <trkpt lat="43.0394" lon="-0.60839">
        <ele>506.82</ele>
        <time>2025-03-03T20:44:30Z</time>
      </trkpt>
      <trkpt lat="43.03943" lon="-0.60825">
        <ele>508.91</ele>
        <time>2025-03-03T20:44:31Z</time>
      </trkpt>
      <trkpt lat="43.03949" lon="-0.60815">
        <ele>511.2</ele>
        <time>2025-03-03T20:44:33Z</time>
      </trkpt>
      <trkpt lat="43.03987" lon="-0.60779">
        <ele>514.98</ele>
        <time>2025-03-03T20:44:35Z</time>
      </trkpt>
      <trkpt lat="43.03999" lon="-0.60771">
        <ele>513.89</ele>
        <time>2025-03-03T20:44:37Z</time>
      </trkpt>
      <trkpt lat="43.0401" lon="-0.60768">
        <ele>515.25</ele>
        <time>2025-03-03T20:44:39Z</time>
      </trkpt>
      <trkpt lat="43.04021" lon="-0.60769">
        <ele>518.35</ele>
        <time>2025-03-03T20:44:41Z</time>
      </trkpt>
      <trkpt lat="43.04058" lon="-0.60783">
        <ele>528.02</ele>
        <time>2025-03-03T20:44:43Z</time>
      </trkpt>
      <trkpt lat="43.04076" lon="-0.60788">
        <ele>531.51</ele>
        <time>2025-03-03T20:44:45Z</time>
      </trkpt>
      <trkpt lat="43.04086" lon="-0.60787">
        <ele>532.39</ele>
        <time>2025-03-03T20:44:47Z</time>
      </trkpt>
      <trkpt lat="43.04108" lon="-0.60772">
        <ele>531.56</ele>
        <time>2025-03-03T20:44:49Z</time>
      </trkpt>
      <trkpt lat="43.0412" lon="-0.60769">
        <ele>532.05</ele>
        <time>2025-03-03T20:44:50Z</time>
      </trkpt>
      <trkpt lat="43.04196" lon="-0.60758">
        <ele>536.03</ele>
        <time>2025-03-03T20:44:52Z</time>
      </trkpt>
      <trkpt lat="43.04207" lon="-0.60759">
        <ele>536.17</ele>
        <time>2025-03-03T20:44:54Z</time>
      </trkpt>
      <trkpt lat="43.04221" lon="-0.60767">
        <ele>538.23</ele>
        <time>2025-03-03T20:44:56Z</time>
      </trkpt>
      <trkpt lat="43.0423" lon="-0.60776">
        <ele>539.16</ele>
        <time>2025-03-03T20:44:58Z</time>
      </trkpt>
      <trkpt lat="43.04237" lon="-0.60789">
        <ele>540.72</ele>
        <time>2025-03-03T20:45:00Z</time>
      </trkpt>
      <trkpt lat="43.0424" lon="-0.60799">
        <ele>542.65</ele>
        <time>2025-03-03T20:45:02Z</time>
      </trkpt>
      <trkpt lat="43.04241" lon="-0.60819">
        <ele>544.95</ele>
        <time>2025-03-03T20:45:04Z</time>
      </trkpt>
      <trkpt lat="43.0424" lon="-0.60855">
        <ele>547.41</ele>
        <time>2025-03-03T20:45:06Z</time>
      </trkpt>
      <trkpt lat="43.04236" lon="-0.60878">
        <ele>549.42</ele>
        <time>2025-03-03T20:45:08Z</time>
      </trkpt>
      <trkpt lat="43.04225" lon="-0.60905">
        <ele>550.64</ele>
        <time>2025-03-03T20:45:09Z</time>
      </trkpt>
      <trkpt lat="43.04214" lon="-0.60923">
        <ele>551.65</ele>
        <time>2025-03-03T20:45:11Z</time>
      </trkpt>
      <trkpt lat="43.04186" lon="-0.60957">
        <ele>555.01</ele>
        <time>2025-03-03T20:45:13Z</time>
      </trkpt>
      <trkpt lat="43.0418" lon="-0.60971">
        <ele>556.46</ele>
        <time>2025-03-03T20:45:15Z</time>
      </trkpt>
      <trkpt lat="43.04179" lon="-0.60982">
        <ele>557.21</ele>
        <time>2025-03-03T20:45:17Z</time>
      </trkpt>
      <trkpt lat="43.04179" lon="-0.60998">
        <ele>558.35</ele>
        <time>2025-03-03T20:45:19Z</time>
      </trkpt>
      <trkpt lat="43.04184" lon="-0.6102">
        <ele>561.32</ele>
        <time>2025-03-03T20:45:21Z</time>
      </trkpt>
      <trkpt lat="43.04184" lon="-0.61033">
        <ele>563.24</ele>
        <time>2025-03-03T20:45:23Z</time>
      </trkpt>
      <trkpt lat="43.04181" lon="-0.6105">
        <ele>564.79</ele>
        <time>2025-03-03T20:45:25Z</time>
      </trkpt>
      <trkpt lat="43.0417" lon="-0.61082">
        <ele>565.61</ele>
        <time>2025-03-03T20:45:27Z</time>
      </trkpt>
      <trkpt lat="43.04151" lon="-0.61125">
        <ele>562.93</ele>
        <time>2025-03-03T20:45:28Z</time>
      </trkpt>
      <trkpt lat="43.04148" lon="-0.61138">
        <ele>563.66</ele>
        <time>2025-03-03T20:45:30Z</time>
      </trkpt>
      <trkpt lat="43.04148" lon="-0.6116">
        <ele>565.98</ele>
        <time>2025-03-03T20:45:32Z</time>
      </trkpt>
      <trkpt lat="43.04151" lon="-0.61262">
        <ele>579.33</ele>
        <time>2025-03-03T20:45:34Z</time>
      </trkpt>
      <trkpt lat="43.04149" lon="-0.61297">
        <ele>581.43</ele>
        <time>2025-03-03T20:45:36Z</time>
      </trkpt>
      <trkpt lat="43.04139" lon="-0.61361">
        <ele>585.92</ele>
        <time>2025-03-03T20:45:38Z</time>
      </trkpt>
      <trkpt lat="43.04138" lon="-0.61413">
        <ele>592.18</ele>
        <time>2025-03-03T20:45:40Z</time>
      </trkpt>
      <trkpt lat="43.04142" lon="-0.61467">
        <ele>603.7</ele>
        <time>2025-03-03T20:45:42Z</time>
      </trkpt>
      <trkpt lat="43.04142" lon="-0.61478">
        <ele>605.62</ele>
        <time>2025-03-03T20:45:44Z</time>
      </trkpt>
      <trkpt lat="43.04139" lon="-0.61484">
        <ele>605.69</ele>
        <time>2025-03-03T20:45:46Z</time>
      </trkpt>
      <trkpt lat="43.04134" lon="-0.61489">
        <ele>605.77</ele>
        <time>2025-03-03T20:45:47Z</time>
      </trkpt>
      <trkpt lat="43.04122" lon="-0.61493">
        <ele>605.08</ele>
        <time>2025-03-03T20:45:49Z</time>
      </trkpt>
      <trkpt lat="43.04099" lon="-0.6149">
        <ele>602.32</ele>
        <time>2025-03-03T20:45:51Z</time>
      </trkpt>
      <trkpt lat="43.04058" lon="-0.61497">
        <ele>606.58</ele>
        <time>2025-03-03T20:45:53Z</time>
      </trkpt>
      <trkpt lat="43.04042" lon="-0.61503">
        <ele>609.16</ele>
        <time>2025-03-03T20:45:55Z</time>
      </trkpt>
      <trkpt lat="43.04014" lon="-0.61523">
        <ele>613.55</ele>
        <time>2025-03-03T20:45:57Z</time>
      </trkpt>
      <trkpt lat="43.03978" lon="-0.61552">
        <ele>614.31</ele>
        <time>2025-03-03T20:45:59Z</time>
      </trkpt>
      <trkpt lat="43.0397" lon="-0.61566">
        <ele>615.51</ele>
        <time>2025-03-03T20:46:01Z</time>
      </trkpt>
      <trkpt lat="43.03961" lon="-0.61655">
        <ele>629.03</ele>
        <time>2025-03-03T20:46:03Z</time>
      </trkpt>
      <trkpt lat="43.03913" lon="-0.61839">
        <ele>642.8</ele>
        <time>2025-03-03T20:46:05Z</time>
      </trkpt>
      <trkpt lat="43.03908" lon="-0.61869">
        <ele>646.32</ele>
        <time>2025-03-03T20:46:06Z</time>
      </trkpt>
      <trkpt lat="43.03905" lon="-0.61919">
        <ele>650.41</ele>
        <time>2025-03-03T20:46:08Z</time>
      </trkpt>
      <trkpt lat="43.03908" lon="-0.61964">
        <ele>652.57</ele>
        <time>2025-03-03T20:46:10Z</time>
      </trkpt>
      <trkpt lat="43.03914" lon="-0.61985">
        <ele>654.2</ele>
        <time>2025-03-03T20:46:12Z</time>
      </trkpt>
      <trkpt lat="43.03978" lon="-0.62142">
        <ele>676.88</ele>
        <time>2025-03-03T20:46:14Z</time>
      </trkpt>
      <trkpt lat="43.03981" lon="-0.62158">
        <ele>679.68</ele>
        <time>2025-03-03T20:46:16Z</time>
      </trkpt>
      <trkpt lat="43.0398" lon="-0.62174">
        <ele>681.11</ele>
        <time>2025-03-03T20:46:18Z</time>
      </trkpt>
      <trkpt lat="43.03978" lon="-0.62187">
        <ele>681.09</ele>
        <time>2025-03-03T20:46:20Z</time>
      </trkpt>
      <trkpt lat="43.0397" lon="-0.62197">
        <ele>679.24</ele>
        <time>2025-03-03T20:46:22Z</time>
      </trkpt>
      <trkpt lat="43.03957" lon="-0.62208">
        <ele>678.99</ele>
        <time>2025-03-03T20:46:23Z</time>
      </trkpt>
      <trkpt lat="43.03936" lon="-0.62219">
        <ele>677.97</ele>
        <time>2025-03-03T20:46:25Z</time>
      </trkpt>
      <trkpt lat="43.03912" lon="-0.62229">
        <ele>681.97</ele>
        <time>2025-03-03T20:46:27Z</time>
      </trkpt>
      <trkpt lat="43.03899" lon="-0.62231">
        <ele>681.6</ele>
        <time>2025-03-03T20:46:29Z</time>
      </trkpt>
      <trkpt lat="43.03888" lon="-0.62235">
        <ele>681.82</ele>
        <time>2025-03-03T20:46:31Z</time>
      </trkpt>
      <trkpt lat="43.03878" lon="-0.62246">
        <ele>681.1</ele>
        <time>2025-03-03T20:46:33Z</time>
      </trkpt>
      <trkpt lat="43.03869" lon="-0.62263">
        <ele>680.58</ele>
        <time>2025-03-03T20:46:35Z</time>
      </trkpt>
      <trkpt lat="43.03858" lon="-0.62304">
        <ele>683.72</ele>
        <time>2025-03-03T20:46:37Z</time>
      </trkpt>
      <trkpt lat="43.03853" lon="-0.62347">
        <ele>683.07</ele>
        <time>2025-03-03T20:46:39Z</time>
      </trkpt>
      <trkpt lat="43.03849" lon="-0.62391">
        <ele>678.99</ele>
        <time>2025-03-03T20:46:41Z</time>
      </trkpt>
      <trkpt lat="43.03846" lon="-0.62464">
        <ele>672.84</ele>
        <time>2025-03-03T20:46:42Z</time>
      </trkpt>
      <trkpt lat="43.03848" lon="-0.62529">
        <ele>667.7</ele>
        <time>2025-03-03T20:46:44Z</time>
      </trkpt>
      <trkpt lat="43.03847" lon="-0.62544">
        <ele>667.44</ele>
        <time>2025-03-03T20:46:46Z</time>
      </trkpt>
      <trkpt lat="43.03837" lon="-0.62578">
        <ele>666.49</ele>
        <time>2025-03-03T20:46:48Z</time>
      </trkpt>
      <trkpt lat="43.03836" lon="-0.6259">
        <ele>665.9</ele>
        <time>2025-03-03T20:46:50Z</time>
      </trkpt>
      <trkpt lat="43.03837" lon="-0.62601">
        <ele>665.32</ele>
        <time>2025-03-03T20:46:52Z</time>
      </trkpt>
      <trkpt lat="43.03847" lon="-0.62625">
        <ele>663.71</ele>
        <time>2025-03-03T20:46:54Z</time>
      </trkpt>
      <trkpt lat="43.03913" lon="-0.62726">
        <ele>663.24</ele>
        <time>2025-03-03T20:46:56Z</time>
      </trkpt>
      <trkpt lat="43.03946" lon="-0.62784">
        <ele>665.22</ele>
        <time>2025-03-03T20:46:58Z</time>
      </trkpt>
      <trkpt lat="43.03973" lon="-0.62812">
        <ele>669.95</ele>
        <time>2025-03-03T20:47:00Z</time>
      </trkpt>
      <trkpt lat="43.03981" lon="-0.62825">
        <ele>671.07</ele>
        <time>2025-03-03T20:47:01Z</time>
      </trkpt>
      <trkpt lat="43.03988" lon="-0.62844">
        <ele>669.73</ele>
        <time>2025-03-03T20:47:03Z</time>
      </trkpt>
      <trkpt lat="43.03994" lon="-0.62855">
        <ele>668.8</ele>
        <time>2025-03-03T20:47:05Z</time>
      </trkpt>
      <trkpt lat="43.04016" lon="-0.6288">
        <ele>667.39</ele>
        <time>2025-03-03T20:47:07Z</time>
      </trkpt>
      <trkpt lat="43.04044" lon="-0.62907">
        <ele>667.23</ele>
        <time>2025-03-03T20:47:09Z</time>
      </trkpt>
      <trkpt lat="43.04052" lon="-0.62911">
        <ele>667.75</ele>
        <time>2025-03-03T20:47:11Z</time>
      </trkpt>
      <trkpt lat="43.04061" lon="-0.62912">
        <ele>668.45</ele>
        <time>2025-03-03T20:47:13Z</time>
      </trkpt>
      <trkpt lat="43.04089" lon="-0.62902">
        <ele>671.66</ele>
        <time>2025-03-03T20:47:15Z</time>
      </trkpt>
      <trkpt lat="43.04106" lon="-0.62902">
        <ele>673.62</ele>
        <time>2025-03-03T20:47:17Z</time>
      </trkpt>
      <trkpt lat="43.04115" lon="-0.62908">
        <ele>674.19</ele>
        <time>2025-03-03T20:47:19Z</time>
      </trkpt>
      <trkpt lat="43.04122" lon="-0.6292">
        <ele>674.04</ele>
        <time>2025-03-03T20:47:20Z</time>
      </trkpt>
      <trkpt lat="43.04123" lon="-0.62932">
        <ele>673.19</ele>
        <time>2025-03-03T20:47:22Z</time>
      </trkpt>
      <trkpt lat="43.04121" lon="-0.62945">
        <ele>670.96</ele>
        <time>2025-03-03T20:47:24Z</time>
      </trkpt>
      <trkpt lat="43.04103" lon="-0.63">
        <ele>665.72</ele>
        <time>2025-03-03T20:47:26Z</time>
      </trkpt>
      <trkpt lat="43.041" lon="-0.63015">
        <ele>664.84</ele>
        <time>2025-03-03T20:47:28Z</time>
      </trkpt>
      <trkpt lat="43.041" lon="-0.63025">
        <ele>664.84</ele>
        <time>2025-03-03T20:47:30Z</time>
      </trkpt>
      <trkpt lat="43.0413" lon="-0.63118">
        <ele>672.32</ele>
        <time>2025-03-03T20:47:32Z</time>
      </trkpt>
      <trkpt lat="43.04156" lon="-0.63187">
        <ele>672.92</ele>
        <time>2025-03-03T20:47:34Z</time>
      </trkpt>
      <trkpt lat="43.04158" lon="-0.63198">
        <ele>673.18</ele>
        <time>2025-03-03T20:47:36Z</time>
      </trkpt>
      <trkpt lat="43.04158" lon="-0.63213">
        <ele>673.89</ele>
        <time>2025-03-03T20:47:38Z</time>
      </trkpt>
      <trkpt lat="43.04154" lon="-0.63222">
        <ele>673.78</ele>
        <time>2025-03-03T20:47:39Z</time>
      </trkpt>
      <trkpt lat="43.04149" lon="-0.63229">
        <ele>673.65</ele>
        <time>2025-03-03T20:47:41Z</time>
      </trkpt>
      <trkpt lat="43.04133" lon="-0.6324">
        <ele>672.4</ele>
        <time>2025-03-03T20:47:43Z</time>
      </trkpt>
      <trkpt lat="43.04126" lon="-0.63248">
        <ele>672.39</ele>
        <time>2025-03-03T20:47:45Z</time>
      </trkpt>
      <trkpt lat="43.04118" lon="-0.63267">
        <ele>672.51</ele>
        <time>2025-03-03T20:47:47Z</time>
      </trkpt>
      <trkpt lat="43.04114" lon="-0.63289">
        <ele>672.52</ele>
        <time>2025-03-03T20:47:49Z</time>
      </trkpt>
      <trkpt lat="43.0409" lon="-0.6346">
        <ele>669.25</ele>
        <time>2025-03-03T20:47:51Z</time>
      </trkpt>
      <trkpt lat="43.04091" lon="-0.63474">
        <ele>670.34</ele>
        <time>2025-03-03T20:47:53Z</time>
      </trkpt>
      <trkpt lat="43.04103" lon="-0.63525">
        <ele>674.76</ele>
        <time>2025-03-03T20:47:55Z</time>
      </trkpt>
      <trkpt lat="43.04113" lon="-0.63548">
        <ele>676.21</ele>
        <time>2025-03-03T20:47:57Z</time>
      </trkpt>
      <trkpt lat="43.0413" lon="-0.63566">
        <ele>678.87</ele>
        <time>2025-03-03T20:47:58Z</time>
      </trkpt>
      <trkpt lat="43.04136" lon="-0.63575">
        <ele>679.71</ele>
        <time>2025-03-03T20:48:00Z</time>
      </trkpt>
      <trkpt lat="43.04144" lon="-0.63593">
        <ele>680.13</ele>
        <time>2025-03-03T20:48:02Z</time>
      </trkpt>
      <trkpt lat="43.04153" lon="-0.63629">
        <ele>679.92</ele>
        <time>2025-03-03T20:48:04Z</time>
      </trkpt>
      <trkpt lat="43.04158" lon="-0.63651">
        <ele>679.47</ele>
        <time>2025-03-03T20:48:06Z</time>
      </trkpt>
      <trkpt lat="43.04158" lon="-0.63651">
        <ele>679.47</ele>
        <time>2025-03-03T20:48:06Z</time>
      </trkpt>
      <trkpt lat="43.04172" lon="-0.63749">
        <ele>672.11</ele>
        <time>2025-03-03T20:48:08Z</time>
      </trkpt>
      <trkpt lat="43.04177" lon="-0.6377">
        <ele>669.33</ele>
        <time>2025-03-03T20:48:10Z</time>
      </trkpt>
      <trkpt lat="43.04189" lon="-0.63781">
        <ele>668.32</ele>
        <time>2025-03-03T20:48:11Z</time>
      </trkpt>
      <trkpt lat="43.04195" lon="-0.63782">
        <ele>668.34</ele>
        <time>2025-03-03T20:48:13Z</time>
      </trkpt>
      <trkpt lat="43.04206" lon="-0.63781">
        <ele>668.6</ele>
        <time>2025-03-03T20:48:15Z</time>
      </trkpt>
      <trkpt lat="43.04257" lon="-0.63768">
        <ele>671.2</ele>
        <time>2025-03-03T20:48:16Z</time>
      </trkpt>
      <trkpt lat="43.04277" lon="-0.63768">
        <ele>671.47</ele>
        <time>2025-03-03T20:48:18Z</time>
      </trkpt>
      <trkpt lat="43.04292" lon="-0.63779">
        <ele>671.86</ele>
        <time>2025-03-03T20:48:20Z</time>
      </trkpt>
      <trkpt lat="43.04297" lon="-0.63786">
        <ele>671.18</ele>
        <time>2025-03-03T20:48:21Z</time>
      </trkpt>
      <trkpt lat="43.04299" lon="-0.63795">
        <ele>670.09</ele>
        <time>2025-03-03T20:48:23Z</time>
      </trkpt>
      <trkpt lat="43.04302" lon="-0.63835">
        <ele>665.01</ele>
        <time>2025-03-03T20:48:25Z</time>
      </trkpt>
      <trkpt lat="43.04305" lon="-0.63851">
        <ele>663.31</ele>
        <time>2025-03-03T20:48:26Z</time>
      </trkpt>
      <trkpt lat="43.04321" lon="-0.63916">
        <ele>656.94</ele>
        <time>2025-03-03T20:48:28Z</time>
      </trkpt>
      <trkpt lat="43.04327" lon="-0.63933">
        <ele>654.4</ele>
        <time>2025-03-03T20:48:30Z</time>
      </trkpt>
      <trkpt lat="43.04348" lon="-0.63972">
        <ele>649.27</ele>
        <time>2025-03-03T20:48:31Z</time>
      </trkpt>
      <trkpt lat="43.04353" lon="-0.6398">
        <ele>648.82</ele>
        <time>2025-03-03T20:48:33Z</time>
      </trkpt>
      <trkpt lat="43.04369" lon="-0.63994">
        <ele>650.99</ele>
        <time>2025-03-03T20:48:35Z</time>
      </trkpt>
      <trkpt lat="43.04374" lon="-0.64001">
        <ele>651.53</ele>
        <time>2025-03-03T20:48:36Z</time>
      </trkpt>
      <trkpt lat="43.04377" lon="-0.64014">
        <ele>651.91</ele>
        <time>2025-03-03T20:48:38Z</time>
      </trkpt>
      <trkpt lat="43.04379" lon="-0.64028">
        <ele>652.18</ele>
        <time>2025-03-03T20:48:40Z</time>
      </trkpt>
      <trkpt lat="43.04378" lon="-0.64049">
        <ele>652.25</ele>
        <time>2025-03-03T20:48:42Z</time>
      </trkpt>
      <trkpt lat="43.04372" lon="-0.64062">
        <ele>649.98</ele>
        <time>2025-03-03T20:48:43Z</time>
      </trkpt>
      <trkpt lat="43.04362" lon="-0.64078">
        <ele>646.14</ele>
        <time>2025-03-03T20:48:45Z</time>
      </trkpt>
      <trkpt lat="43.04343" lon="-0.64102">
        <ele>641.51</ele>
        <time>2025-03-03T20:48:47Z</time>
      </trkpt>
      <trkpt lat="43.04337" lon="-0.64114">
        <ele>640.38</ele>
        <time>2025-03-03T20:48:48Z</time>
      </trkpt>
      <trkpt lat="43.04332" lon="-0.6413">
        <ele>639.06</ele>
        <time>2025-03-03T20:48:50Z</time>
      </trkpt>
      <trkpt lat="43.04326" lon="-0.64183">
        <ele>635.38</ele>
        <time>2025-03-03T20:48:52Z</time>
      </trkpt>
      <trkpt lat="43.04326" lon="-0.64244">
        <ele>631.46</ele>
        <time>2025-03-03T20:48:53Z</time>
      </trkpt>
      <trkpt lat="43.04328" lon="-0.64263">
        <ele>628.72</ele>
        <time>2025-03-03T20:48:55Z</time>
      </trkpt>
      <trkpt lat="43.04349" lon="-0.64358">
        <ele>621.05</ele>
        <time>2025-03-03T20:48:57Z</time>
      </trkpt>
      <trkpt lat="43.04366" lon="-0.64391">
        <ele>621.08</ele>
        <time>2025-03-03T20:48:58Z</time>
      </trkpt>
      <trkpt lat="43.0437" lon="-0.64428">
        <ele>614.6</ele>
        <time>2025-03-03T20:49:00Z</time>
      </trkpt>
      <trkpt lat="43.04398" lon="-0.64466">
        <ele>614.67</ele>
        <time>2025-03-03T20:49:02Z</time>
      </trkpt>
      <trkpt lat="43.044" lon="-0.64477">
        <ele>613.72</ele>
        <time>2025-03-03T20:49:03Z</time>
      </trkpt>
      <trkpt lat="43.04399" lon="-0.64482">
        <ele>612.92</ele>
        <time>2025-03-03T20:49:05Z</time>
      </trkpt>
      <trkpt lat="43.04395" lon="-0.64486">
        <ele>611.85</ele>
        <time>2025-03-03T20:49:07Z</time>
      </trkpt>
      <trkpt lat="43.04387" lon="-0.64488">
        <ele>609.82</ele>
        <time>2025-03-03T20:49:08Z</time>
      </trkpt>
      <trkpt lat="43.04382" lon="-0.64484">
        <ele>608.92</ele>
        <time>2025-03-03T20:49:10Z</time>
      </trkpt>
      <trkpt lat="43.0431" lon="-0.64381">
        <ele>603.2</ele>
        <time>2025-03-03T20:49:12Z</time>
      </trkpt>
      <trkpt lat="43.04303" lon="-0.64368">
        <ele>603.25</ele>
        <time>2025-03-03T20:49:13Z</time>
      </trkpt>
      <trkpt lat="43.04291" lon="-0.64352">
        <ele>602.76</ele>
        <time>2025-03-03T20:49:15Z</time>
      </trkpt>
      <trkpt lat="43.04255" lon="-0.64325">
        <ele>598.57</ele>
        <time>2025-03-03T20:49:17Z</time>
      </trkpt>
      <trkpt lat="43.04235" lon="-0.64302">
        <ele>599.49</ele>
        <time>2025-03-03T20:49:18Z</time>
      </trkpt>
      <trkpt lat="43.04228" lon="-0.64299">
        <ele>599.48</ele>
        <time>2025-03-03T20:49:20Z</time>
      </trkpt>
      <trkpt lat="43.04222" lon="-0.643">
        <ele>599.27</ele>
        <time>2025-03-03T20:49:22Z</time>
      </trkpt>
      <trkpt lat="43.04214" lon="-0.64305">
        <ele>601.53</ele>
        <time>2025-03-03T20:49:24Z</time>
      </trkpt>
      <trkpt lat="43.04208" lon="-0.64311">
        <ele>602.81</ele>
        <time>2025-03-03T20:49:25Z</time>
      </trkpt>
      <trkpt lat="43.04206" lon="-0.64318">
        <ele>603.01</ele>
        <time>2025-03-03T20:49:27Z</time>
      </trkpt>
      <trkpt lat="43.04206" lon="-0.64327">
        <ele>602.57</ele>
        <time>2025-03-03T20:49:29Z</time>
      </trkpt>
      <trkpt lat="43.0422" lon="-0.64366">
        <ele>596.69</ele>
        <time>2025-03-03T20:49:30Z</time>
      </trkpt>
      <trkpt lat="43.04245" lon="-0.64453">
        <ele>587.01</ele>
        <time>2025-03-03T20:49:32Z</time>
      </trkpt>
      <trkpt lat="43.04247" lon="-0.64469">
        <ele>584.82</ele>
        <time>2025-03-03T20:49:34Z</time>
      </trkpt>
      <trkpt lat="43.04247" lon="-0.64492">
        <ele>584.52</ele>
        <time>2025-03-03T20:49:35Z</time>
      </trkpt>
      <trkpt lat="43.0425" lon="-0.64513">
        <ele>583.63</ele>
        <time>2025-03-03T20:49:37Z</time>
      </trkpt>
      <trkpt lat="43.04264" lon="-0.6455">
        <ele>582.66</ele>
        <time>2025-03-03T20:49:39Z</time>
      </trkpt>
      <trkpt lat="43.04274" lon="-0.64564">
        <ele>580.93</ele>
        <time>2025-03-03T20:49:40Z</time>
      </trkpt>
      <trkpt lat="43.04287" lon="-0.64578">
        <ele>578.82</ele>
        <time>2025-03-03T20:49:42Z</time>
      </trkpt>
      <trkpt lat="43.04293" lon="-0.64588">
        <ele>577.8</ele>
        <time>2025-03-03T20:49:44Z</time>
      </trkpt>
      <trkpt lat="43.04298" lon="-0.64598">
        <ele>577.16</ele>
        <time>2025-03-03T20:49:45Z</time>
      </trkpt>
      <trkpt lat="43.04305" lon="-0.64625">
        <ele>577.03</ele>
        <time>2025-03-03T20:49:47Z</time>
      </trkpt>
      <trkpt lat="43.04311" lon="-0.64637">
        <ele>577.73</ele>
        <time>2025-03-03T20:49:49Z</time>
      </trkpt>
      <trkpt lat="43.04333" lon="-0.64674">
        <ele>576.56</ele>
        <time>2025-03-03T20:49:50Z</time>
      </trkpt>
      <trkpt lat="43.04339" lon="-0.64695">
        <ele>574.73</ele>
        <time>2025-03-03T20:49:52Z</time>
      </trkpt>
      <trkpt lat="43.04346" lon="-0.64706">
        <ele>573.93</ele>
        <time>2025-03-03T20:49:54Z</time>
      </trkpt>
      <trkpt lat="43.04364" lon="-0.64726">
        <ele>572.84</ele>
        <time>2025-03-03T20:49:55Z</time>
      </trkpt>
      <trkpt lat="43.0437" lon="-0.64737">
        <ele>572.06</ele>
        <time>2025-03-03T20:49:57Z</time>
      </trkpt>
      <trkpt lat="43.04377" lon="-0.64775">
        <ele>569.96</ele>
        <time>2025-03-03T20:49:59Z</time>
      </trkpt>
      <trkpt lat="43.04381" lon="-0.64784">
        <ele>569.43</ele>
        <time>2025-03-03T20:50:00Z</time>
      </trkpt>
      <trkpt lat="43.04388" lon="-0.64799">
        <ele>568.35</ele>
        <time>2025-03-03T20:50:02Z</time>
      </trkpt>
      <trkpt lat="43.04426" lon="-0.64857">
        <ele>561.93</ele>
        <time>2025-03-03T20:50:04Z</time>
      </trkpt>
      <trkpt lat="43.04456" lon="-0.64889">
        <ele>561.19</ele>
        <time>2025-03-03T20:50:06Z</time>
      </trkpt>
      <trkpt lat="43.04485" lon="-0.64916">
        <ele>555.28</ele>
        <time>2025-03-03T20:50:07Z</time>
      </trkpt>
      <trkpt lat="43.04492" lon="-0.64925">
        <ele>553.35</ele>
        <time>2025-03-03T20:50:09Z</time>
      </trkpt>
      <trkpt lat="43.04513" lon="-0.64983">
        <ele>548.22</ele>
        <time>2025-03-03T20:50:11Z</time>
      </trkpt>
      <trkpt lat="43.04532" lon="-0.65018">
        <ele>546.69</ele>
        <time>2025-03-03T20:50:12Z</time>
      </trkpt>
      <trkpt lat="43.0454" lon="-0.65026">
        <ele>545.88</ele>
        <time>2025-03-03T20:50:14Z</time>
      </trkpt>
      <trkpt lat="43.04549" lon="-0.65032">
        <ele>544.08</ele>
        <time>2025-03-03T20:50:16Z</time>
      </trkpt>
      <trkpt lat="43.0456" lon="-0.65036">
        <ele>542.12</ele>
        <time>2025-03-03T20:50:17Z</time>
      </trkpt>
      <trkpt lat="43.04589" lon="-0.6504">
        <ele>538.82</ele>
        <time>2025-03-03T20:50:19Z</time>
      </trkpt>
      <trkpt lat="43.04596" lon="-0.65043">
        <ele>538.21</ele>
        <time>2025-03-03T20:50:21Z</time>
      </trkpt>
      <trkpt lat="43.04607" lon="-0.65051">
        <ele>537.38</ele>
        <time>2025-03-03T20:50:22Z</time>
      </trkpt>
      <trkpt lat="43.04624" lon="-0.65068">
        <ele>537.23</ele>
        <time>2025-03-03T20:50:24Z</time>
      </trkpt>
      <trkpt lat="43.04637" lon="-0.6509">
        <ele>537.11</ele>
        <time>2025-03-03T20:50:26Z</time>
      </trkpt>
      <trkpt lat="43.04642" lon="-0.65102">
        <ele>537</ele>
        <time>2025-03-03T20:50:27Z</time>
      </trkpt>
      <trkpt lat="43.04644" lon="-0.65115">
        <ele>536.67</ele>
        <time>2025-03-03T20:50:29Z</time>
      </trkpt>
      <trkpt lat="43.04654" lon="-0.65177">
        <ele>531.96</ele>
        <time>2025-03-03T20:50:31Z</time>
      </trkpt>
      <trkpt lat="43.04657" lon="-0.65208">
        <ele>530.95</ele>
        <time>2025-03-03T20:50:32Z</time>
      </trkpt>
      <trkpt lat="43.04657" lon="-0.65265">
        <ele>530.22</ele>
        <time>2025-03-03T20:50:34Z</time>
      </trkpt>
      <trkpt lat="43.04659" lon="-0.65281">
        <ele>529.03</ele>
        <time>2025-03-03T20:50:36Z</time>
      </trkpt>
      <trkpt lat="43.04688" lon="-0.65395">
        <ele>520.94</ele>
        <time>2025-03-03T20:50:37Z</time>
      </trkpt>
      <trkpt lat="43.04694" lon="-0.65406">
        <ele>519.67</ele>
        <time>2025-03-03T20:50:39Z</time>
      </trkpt>
      <trkpt lat="43.04703" lon="-0.65416">
        <ele>519.04</ele>
        <time>2025-03-03T20:50:41Z</time>
      </trkpt>
      <trkpt lat="43.04724" lon="-0.65453">
        <ele>516.08</ele>
        <time>2025-03-03T20:50:42Z</time>
      </trkpt>
      <trkpt lat="43.04738" lon="-0.65473">
        <ele>515.38</ele>
        <time>2025-03-03T20:50:44Z</time>
      </trkpt>
      <trkpt lat="43.04744" lon="-0.65485">
        <ele>514.53</ele>
        <time>2025-03-03T20:50:46Z</time>
      </trkpt>
      <trkpt lat="43.04748" lon="-0.65503">
        <ele>512.99</ele>
        <time>2025-03-03T20:50:48Z</time>
      </trkpt>
      <trkpt lat="43.04748" lon="-0.6551">
        <ele>512.47</ele>
        <time>2025-03-03T20:50:49Z</time>
      </trkpt>
      <trkpt lat="43.04744" lon="-0.65539">
        <ele>511.77</ele>
        <time>2025-03-03T20:50:51Z</time>
      </trkpt>
      <trkpt lat="43.04743" lon="-0.65552">
        <ele>511.54</ele>
        <time>2025-03-03T20:50:53Z</time>
      </trkpt>
      <trkpt lat="43.04745" lon="-0.65596">
        <ele>510.92</ele>
        <time>2025-03-03T20:50:54Z</time>
      </trkpt>
      <trkpt lat="43.04742" lon="-0.65622">
        <ele>512.89</ele>
        <time>2025-03-03T20:50:56Z</time>
      </trkpt>
      <trkpt lat="43.04742" lon="-0.65637">
        <ele>513.24</ele>
        <time>2025-03-03T20:50:58Z</time>
      </trkpt>
      <trkpt lat="43.04743" lon="-0.65653">
        <ele>511.67</ele>
        <time>2025-03-03T20:50:59Z</time>
      </trkpt>
      <trkpt lat="43.04749" lon="-0.65668">
        <ele>507.8</ele>
        <time>2025-03-03T20:51:01Z</time>
      </trkpt>
      <trkpt lat="43.0478" lon="-0.65724">
        <ele>495.92</ele>
        <time>2025-03-03T20:51:03Z</time>
      </trkpt>
      <trkpt lat="43.04789" lon="-0.65734">
        <ele>495.66</ele>
        <time>2025-03-03T20:51:04Z</time>
      </trkpt>
      <trkpt lat="43.04796" lon="-0.65739">
        <ele>495.06</ele>
        <time>2025-03-03T20:51:06Z</time>
      </trkpt>
      <trkpt lat="43.04812" lon="-0.65743">
        <ele>493.34</ele>
        <time>2025-03-03T20:51:08Z</time>
      </trkpt>
      <trkpt lat="43.04833" lon="-0.65742">
        <ele>491.32</ele>
        <time>2025-03-03T20:51:09Z</time>
      </trkpt>
      <trkpt lat="43.04845" lon="-0.65749">
        <ele>489.75</ele>
        <time>2025-03-03T20:51:11Z</time>
      </trkpt>
      <trkpt lat="43.0487" lon="-0.6575">
        <ele>487.7</ele>
        <time>2025-03-03T20:51:13Z</time>
      </trkpt>
      <trkpt lat="43.04878" lon="-0.65754">
        <ele>487.34</ele>
        <time>2025-03-03T20:51:14Z</time>
      </trkpt>
      <trkpt lat="43.04888" lon="-0.65761">
        <ele>486.66</ele>
        <time>2025-03-03T20:51:16Z</time>
      </trkpt>
      <trkpt lat="43.04895" lon="-0.65769">
        <ele>486.47</ele>
        <time>2025-03-03T20:51:18Z</time>
      </trkpt>
      <trkpt lat="43.04901" lon="-0.65779">
        <ele>486.39</ele>
        <time>2025-03-03T20:51:19Z</time>
      </trkpt>
      <trkpt lat="43.04906" lon="-0.6579">
        <ele>485.88</ele>
        <time>2025-03-03T20:51:21Z</time>
      </trkpt>
      <trkpt lat="43.04908" lon="-0.65803">
        <ele>485.14</ele>
        <time>2025-03-03T20:51:23Z</time>
      </trkpt>
      <trkpt lat="43.04909" lon="-0.65828">
        <ele>483.81</ele>
        <time>2025-03-03T20:51:24Z</time>
      </trkpt>
      <trkpt lat="43.04908" lon="-0.6584">
        <ele>483.65</ele>
        <time>2025-03-03T20:51:26Z</time>
      </trkpt>
      <trkpt lat="43.04901" lon="-0.65866">
        <ele>483.79</ele>
        <time>2025-03-03T20:51:28Z</time>
      </trkpt>
      <trkpt lat="43.04899" lon="-0.65881">
        <ele>482.89</ele>
        <time>2025-03-03T20:51:30Z</time>
      </trkpt>
      <trkpt lat="43.049" lon="-0.65893">
        <ele>481.8</ele>
        <time>2025-03-03T20:51:31Z</time>
      </trkpt>
      <trkpt lat="43.04903" lon="-0.65907">
        <ele>479.61</ele>
        <time>2025-03-03T20:51:33Z</time>
      </trkpt>
      <trkpt lat="43.04912" lon="-0.65928">
        <ele>476.51</ele>
        <time>2025-03-03T20:51:35Z</time>
      </trkpt>
      <trkpt lat="43.04925" lon="-0.6595">
        <ele>475.94</ele>
        <time>2025-03-03T20:51:36Z</time>
      </trkpt>
      <trkpt lat="43.04947" lon="-0.6598">
        <ele>477.15</ele>
        <time>2025-03-03T20:51:38Z</time>
      </trkpt>
      <trkpt lat="43.04951" lon="-0.6599">
        <ele>477.62</ele>
        <time>2025-03-03T20:51:40Z</time>
      </trkpt>
      <trkpt lat="43.04953" lon="-0.66008">
        <ele>476.47</ele>
        <time>2025-03-03T20:51:41Z</time>
      </trkpt>
      <trkpt lat="43.04953" lon="-0.66064">
        <ele>470.45</ele>
        <time>2025-03-03T20:51:43Z</time>
      </trkpt>
      <trkpt lat="43.04957" lon="-0.66085">
        <ele>469.45</ele>
        <time>2025-03-03T20:51:45Z</time>
      </trkpt>
      <trkpt lat="43.04964" lon="-0.6611">
        <ele>468.97</ele>
        <time>2025-03-03T20:51:46Z</time>
      </trkpt>
      <trkpt lat="43.04996" lon="-0.6619">
        <ele>466.76</ele>
        <time>2025-03-03T20:51:48Z</time>
      </trkpt>
      <trkpt lat="43.05002" lon="-0.66218">
        <ele>464.66</ele>
        <time>2025-03-03T20:51:50Z</time>
      </trkpt>
      <trkpt lat="43.05003" lon="-0.66235">
        <ele>464.7</ele>
        <time>2025-03-03T20:51:51Z</time>
      </trkpt>
      <trkpt lat="43.05001" lon="-0.66249">
        <ele>464.17</ele>
        <time>2025-03-03T20:51:53Z</time>
      </trkpt>
      <trkpt lat="43.04995" lon="-0.66262">
        <ele>464.28</ele>
        <time>2025-03-03T20:51:55Z</time>
      </trkpt>
      <trkpt lat="43.04983" lon="-0.66281">
        <ele>463.76</ele>
        <time>2025-03-03T20:51:56Z</time>
      </trkpt>
      <trkpt lat="43.0497" lon="-0.66329">
        <ele>460.77</ele>
        <time>2025-03-03T20:51:58Z</time>
      </trkpt>
      <trkpt lat="43.04957" lon="-0.66395">
        <ele>456.34</ele>
        <time>2025-03-03T20:52:00Z</time>
      </trkpt>
      <trkpt lat="43.04949" lon="-0.66447">
        <ele>451.17</ele>
        <time>2025-03-03T20:52:01Z</time>
      </trkpt>
      <trkpt lat="43.04938" lon="-0.6648">
        <ele>451.14</ele>
        <time>2025-03-03T20:52:03Z</time>
      </trkpt>
      <trkpt lat="43.04926" lon="-0.66504">
        <ele>451.07</ele>
        <time>2025-03-03T20:52:05Z</time>
      </trkpt>
      <trkpt lat="43.04919" lon="-0.66514">
        <ele>450.92</ele>
        <time>2025-03-03T20:52:06Z</time>
      </trkpt>
      <trkpt lat="43.049" lon="-0.66526">
        <ele>452.48</ele>
        <time>2025-03-03T20:52:08Z</time>
      </trkpt>
      <trkpt lat="43.0489" lon="-0.66535">
        <ele>453.27</ele>
        <time>2025-03-03T20:52:10Z</time>
      </trkpt>
      <trkpt lat="43.04883" lon="-0.66548">
        <ele>454.45</ele>
        <time>2025-03-03T20:52:12Z</time>
      </trkpt>
      <trkpt lat="43.0488" lon="-0.66559">
        <ele>454.7</ele>
        <time>2025-03-03T20:52:13Z</time>
      </trkpt>
      <trkpt lat="43.04874" lon="-0.66599">
        <ele>452.39</ele>
        <time>2025-03-03T20:52:15Z</time>
      </trkpt>
      <trkpt lat="43.04872" lon="-0.66641">
        <ele>448.51</ele>
        <time>2025-03-03T20:52:17Z</time>
      </trkpt>
      <trkpt lat="43.04875" lon="-0.66668">
        <ele>446.52</ele>
        <time>2025-03-03T20:52:18Z</time>
      </trkpt>
      <trkpt lat="43.04898" lon="-0.66751">
        <ele>448.05</ele>
        <time>2025-03-03T20:52:20Z</time>
      </trkpt>
      <trkpt lat="43.04903" lon="-0.6676">
        <ele>447.21</ele>
        <time>2025-03-03T20:52:22Z</time>
      </trkpt>
      <trkpt lat="43.04947" lon="-0.66787">
        <ele>437.68</ele>
        <time>2025-03-03T20:52:23Z</time>
      </trkpt>
      <trkpt lat="43.0496" lon="-0.66799">
        <ele>436.92</ele>
        <time>2025-03-03T20:52:25Z</time>
      </trkpt>
      <trkpt lat="43.0497" lon="-0.66812">
        <ele>435.66</ele>
        <time>2025-03-03T20:52:27Z</time>
      </trkpt>
      <trkpt lat="43.04981" lon="-0.66839">
        <ele>434.16</ele>
        <time>2025-03-03T20:52:28Z</time>
      </trkpt>
      <trkpt lat="43.04985" lon="-0.66865">
        <ele>432.24</ele>
        <time>2025-03-03T20:52:30Z</time>
      </trkpt>
      <trkpt lat="43.04976" lon="-0.66919">
        <ele>430.94</ele>
        <time>2025-03-03T20:52:32Z</time>
      </trkpt>
      <trkpt lat="43.04978" lon="-0.66969">
        <ele>432.69</ele>
        <time>2025-03-03T20:52:33Z</time>
      </trkpt>
      <trkpt lat="43.04983" lon="-0.66986">
        <ele>433.51</ele>
        <time>2025-03-03T20:52:35Z</time>
      </trkpt>
      <trkpt lat="43.04995" lon="-0.67004">
        <ele>432.5</ele>
        <time>2025-03-03T20:52:37Z</time>
      </trkpt>
      <trkpt lat="43.04999" lon="-0.67015">
        <ele>431.06</ele>
        <time>2025-03-03T20:52:38Z</time>
      </trkpt>
      <trkpt lat="43.05004" lon="-0.67041">
        <ele>429.31</ele>
        <time>2025-03-03T20:52:40Z</time>
      </trkpt>
      <trkpt lat="43.05001" lon="-0.67064">
        <ele>427.99</ele>
        <time>2025-03-03T20:52:42Z</time>
      </trkpt>
      <trkpt lat="43.04997" lon="-0.67076">
        <ele>427.59</ele>
        <time>2025-03-03T20:52:43Z</time>
      </trkpt>
      <trkpt lat="43.0498" lon="-0.67097">
        <ele>429.87</ele>
        <time>2025-03-03T20:52:45Z</time>
      </trkpt>
      <trkpt lat="43.04977" lon="-0.67103">
        <ele>430.25</ele>
        <time>2025-03-03T20:52:47Z</time>
      </trkpt>
      <trkpt lat="43.04975" lon="-0.67112">
        <ele>430.32</ele>
        <time>2025-03-03T20:52:48Z</time>
      </trkpt>
      <trkpt lat="43.04975" lon="-0.67119">
        <ele>430.19</ele>
        <time>2025-03-03T20:52:50Z</time>
      </trkpt>
      <trkpt lat="43.04977" lon="-0.67123">
        <ele>429.46</ele>
        <time>2025-03-03T20:52:52Z</time>
      </trkpt>
      <trkpt lat="43.0499" lon="-0.67137">
        <ele>425.45</ele>
        <time>2025-03-03T20:52:54Z</time>
      </trkpt>
      <trkpt lat="43.04993" lon="-0.67143">
        <ele>424.35</ele>
        <time>2025-03-03T20:52:55Z</time>
      </trkpt>
      <trkpt lat="43.04996" lon="-0.67163">
        <ele>424.07</ele>
        <time>2025-03-03T20:52:57Z</time>
      </trkpt>
      <trkpt lat="43.05001" lon="-0.67175">
        <ele>422.6</ele>
        <time>2025-03-03T20:52:59Z</time>
      </trkpt>
      <trkpt lat="43.05052" lon="-0.67243">
        <ele>417.03</ele>
        <time>2025-03-03T20:53:00Z</time>
      </trkpt>
      <trkpt lat="43.05063" lon="-0.67263">
        <ele>416.25</ele>
        <time>2025-03-03T20:53:02Z</time>
      </trkpt>
      <trkpt lat="43.05075" lon="-0.67288">
        <ele>413.58</ele>
        <time>2025-03-03T20:53:04Z</time>
      </trkpt>
      <trkpt lat="43.05082" lon="-0.6731">
        <ele>410.64</ele>
        <time>2025-03-03T20:53:05Z</time>
      </trkpt>
      <trkpt lat="43.05089" lon="-0.67335">
        <ele>408.58</ele>
        <time>2025-03-03T20:53:07Z</time>
      </trkpt>
      <trkpt lat="43.05093" lon="-0.67356">
        <ele>408.23</ele>
        <time>2025-03-03T20:53:09Z</time>
      </trkpt>
      <trkpt lat="43.05096" lon="-0.67384">
        <ele>407.54</ele>
        <time>2025-03-03T20:53:10Z</time>
      </trkpt>
      <trkpt lat="43.05097" lon="-0.67439">
        <ele>404.28</ele>
        <time>2025-03-03T20:53:12Z</time>
      </trkpt>
      <trkpt lat="43.05095" lon="-0.67455">
        <ele>403.39</ele>
        <time>2025-03-03T20:53:14Z</time>
      </trkpt>
      <trkpt lat="43.05089" lon="-0.67475">
        <ele>401.92</ele>
        <time>2025-03-03T20:53:15Z</time>
      </trkpt>
      <trkpt lat="43.05077" lon="-0.67501">
        <ele>398.66</ele>
        <time>2025-03-03T20:53:17Z</time>
      </trkpt>
      <trkpt lat="43.05068" lon="-0.67512">
        <ele>397.21</ele>
        <time>2025-03-03T20:53:19Z</time>
      </trkpt>
      <trkpt lat="43.05049" lon="-0.67527">
        <ele>396.23</ele>
        <time>2025-03-03T20:53:20Z</time>
      </trkpt>
      <trkpt lat="43.05037" lon="-0.67536">
        <ele>397.71</ele>
        <time>2025-03-03T20:53:22Z</time>
      </trkpt>
      <trkpt lat="43.05005" lon="-0.67587">
        <ele>397.37</ele>
        <time>2025-03-03T20:53:24Z</time>
      </trkpt>
      <trkpt lat="43.05013" lon="-0.67618">
        <ele>395.8</ele>
        <time>2025-03-03T20:53:25Z</time>
      </trkpt>
      <trkpt lat="43.05016" lon="-0.6764">
        <ele>396.59</ele>
        <time>2025-03-03T20:53:27Z</time>
      </trkpt>
      <trkpt lat="43.05021" lon="-0.67644">
        <ele>396.99</ele>
        <time>2025-03-03T20:53:28Z</time>
      </trkpt>
      <trkpt lat="43.05049" lon="-0.67647">
        <ele>396.42</ele>
        <time>2025-03-03T20:53:30Z</time>
      </trkpt>
      <trkpt lat="43.0506" lon="-0.67653">
        <ele>396.63</ele>
        <time>2025-03-03T20:53:31Z</time>
      </trkpt>
      <trkpt lat="43.05092" lon="-0.67679">
        <ele>395.75</ele>
        <time>2025-03-03T20:53:33Z</time>
      </trkpt>
      <trkpt lat="43.05107" lon="-0.67687">
        <ele>395.14</ele>
        <time>2025-03-03T20:53:34Z</time>
      </trkpt>
      <trkpt lat="43.05125" lon="-0.67694">
        <ele>394.48</ele>
        <time>2025-03-03T20:53:36Z</time>
      </trkpt>
      <trkpt lat="43.05125" lon="-0.677">
        <ele>394.89</ele>
        <time>2025-03-03T20:53:38Z</time>
      </trkpt>
      <trkpt lat="43.05129" lon="-0.67718">
        <ele>395.87</ele>
        <time>2025-03-03T20:53:40Z</time>
      </trkpt>
      <trkpt lat="43.05196" lon="-0.67789">
        <ele>404.13</ele>
        <time>2025-03-03T20:53:43Z</time>
      </trkpt>
      <trkpt lat="43.05212" lon="-0.67801">
        <ele>404.9</ele>
        <time>2025-03-03T20:53:45Z</time>
      </trkpt>
      <trkpt lat="43.05278" lon="-0.67795">
        <ele>412.18</ele>
        <time>2025-03-03T20:53:47Z</time>
      </trkpt>
      <trkpt lat="43.05293" lon="-0.67798">
        <ele>414.28</ele>
        <time>2025-03-03T20:53:49Z</time>
      </trkpt>
      <trkpt lat="43.05301" lon="-0.67807">
        <ele>416.96</ele>
        <time>2025-03-03T20:53:52Z</time>
      </trkpt>
      <trkpt lat="43.05346" lon="-0.6793">
        <ele>438.52</ele>
        <time>2025-03-03T20:53:54Z</time>
      </trkpt>
      <trkpt lat="43.05386" lon="-0.6802">
        <ele>445.21</ele>
        <time>2025-03-03T20:53:56Z</time>
      </trkpt>
      <trkpt lat="43.05411" lon="-0.68094">
        <ele>454.68</ele>
        <time>2025-03-03T20:53:58Z</time>
      </trkpt>
      <trkpt lat="43.05417" lon="-0.68146">
        <ele>459.55</ele>
        <time>2025-03-03T20:54:01Z</time>
      </trkpt>
      <trkpt lat="43.05417" lon="-0.68206">
        <ele>462.84</ele>
        <time>2025-03-03T20:54:03Z</time>
      </trkpt>
      <trkpt lat="43.05413" lon="-0.68225">
        <ele>465.53</ele>
        <time>2025-03-03T20:54:05Z</time>
      </trkpt>
      <trkpt lat="43.05416" lon="-0.68233">
        <ele>464.39</ele>
        <time>2025-03-03T20:54:07Z</time>
      </trkpt>
      <trkpt lat="43.05446" lon="-0.68239">
        <ele>457.11</ele>
        <time>2025-03-03T20:54:09Z</time>
      </trkpt>
      <trkpt lat="43.05482" lon="-0.68249">
        <ele>466.62</ele>
        <time>2025-03-03T20:54:12Z</time>
      </trkpt>
      <trkpt lat="43.05488" lon="-0.68258">
        <ele>470.09</ele>
        <time>2025-03-03T20:54:14Z</time>
      </trkpt>
      <trkpt lat="43.05487" lon="-0.68271">
        <ele>471.5</ele>
        <time>2025-03-03T20:54:16Z</time>
      </trkpt>
      <trkpt lat="43.05456" lon="-0.6835">
        <ele>478.81</ele>
        <time>2025-03-03T20:54:18Z</time>
      </trkpt>
      <trkpt lat="43.05437" lon="-0.68372">
        <ele>480.01</ele>
        <time>2025-03-03T20:54:21Z</time>
      </trkpt>
      <trkpt lat="43.05392" lon="-0.68415">
        <ele>485.85</ele>
        <time>2025-03-03T20:54:23Z</time>
      </trkpt>
      <trkpt lat="43.05352" lon="-0.68432">
        <ele>495.07</ele>
        <time>2025-03-03T20:54:25Z</time>
      </trkpt>
      <trkpt lat="43.05343" lon="-0.68459">
        <ele>498.8</ele>
        <time>2025-03-03T20:54:27Z</time>
      </trkpt>
      <trkpt lat="43.05336" lon="-0.685">
        <ele>501.41</ele>
        <time>2025-03-03T20:54:29Z</time>
      </trkpt>
      <trkpt lat="43.05338" lon="-0.68507">
        <ele>501.67</ele>
        <time>2025-03-03T20:54:32Z</time>
      </trkpt>
      <trkpt lat="43.05342" lon="-0.68513">
        <ele>501.46</ele>
        <time>2025-03-03T20:54:34Z</time>
      </trkpt>
      <trkpt lat="43.05371" lon="-0.6853">
        <ele>503.89</ele>
        <time>2025-03-03T20:54:36Z</time>
      </trkpt>
      <trkpt lat="43.05383" lon="-0.68531">
        <ele>507.12</ele>
        <time>2025-03-03T20:54:38Z</time>
      </trkpt>
      <trkpt lat="43.05427" lon="-0.68493">
        <ele>508.64</ele>
        <time>2025-03-03T20:54:41Z</time>
      </trkpt>
      <trkpt lat="43.0544" lon="-0.68488">
        <ele>508.28</ele>
        <time>2025-03-03T20:54:43Z</time>
      </trkpt>
      <trkpt lat="43.05465" lon="-0.6849">
        <ele>513.79</ele>
        <time>2025-03-03T20:54:45Z</time>
      </trkpt>
      <trkpt lat="43.05471" lon="-0.68486">
        <ele>513.16</ele>
        <time>2025-03-03T20:54:47Z</time>
      </trkpt>
      <trkpt lat="43.05485" lon="-0.68447">
        <ele>504.05</ele>
        <time>2025-03-03T20:54:50Z</time>
      </trkpt>
      <trkpt lat="43.05497" lon="-0.68438">
        <ele>505.08</ele>
        <time>2025-03-03T20:54:52Z</time>
      </trkpt>
      <trkpt lat="43.05551" lon="-0.68428">
        <ele>516.96</ele>
        <time>2025-03-03T20:54:54Z</time>
      </trkpt>
      <trkpt lat="43.05565" lon="-0.6843">
        <ele>517.64</ele>
        <time>2025-03-03T20:54:56Z</time>
      </trkpt>
      <trkpt lat="43.0558" lon="-0.6844">
        <ele>517.78</ele>
        <time>2025-03-03T20:54:58Z</time>
      </trkpt>
      <trkpt lat="43.05591" lon="-0.68459">
        <ele>517.66</ele>
        <time>2025-03-03T20:55:01Z</time>
      </trkpt>
      <trkpt lat="43.05597" lon="-0.68494">
        <ele>519.04</ele>
        <time>2025-03-03T20:55:03Z</time>
      </trkpt>
      <trkpt lat="43.05599" lon="-0.68548">
        <ele>524.04</ele>
        <time>2025-03-03T20:55:05Z</time>
      </trkpt>
      <trkpt lat="43.05595" lon="-0.68575">
        <ele>526.83</ele>
        <time>2025-03-03T20:55:07Z</time>
      </trkpt>
      <trkpt lat="43.05583" lon="-0.68625">
        <ele>536.19</ele>
        <time>2025-03-03T20:55:10Z</time>
      </trkpt>
      <trkpt lat="43.05589" lon="-0.68678">
        <ele>541.43</ele>
        <time>2025-03-03T20:55:12Z</time>
      </trkpt>
      <trkpt lat="43.05589" lon="-0.68711">
        <ele>547.62</ele>
        <time>2025-03-03T20:55:14Z</time>
      </trkpt>
      <trkpt lat="43.05594" lon="-0.68741">
        <ele>549.11</ele>
        <time>2025-03-03T20:55:16Z</time>
      </trkpt>
      <trkpt lat="43.05596" lon="-0.68775">
        <ele>550.23</ele>
        <time>2025-03-03T20:55:18Z</time>
      </trkpt>
      <trkpt lat="43.0561" lon="-0.68816">
        <ele>549.1</ele>
        <time>2025-03-03T20:55:21Z</time>
      </trkpt>
      <trkpt lat="43.05612" lon="-0.68837">
        <ele>550.03</ele>
        <time>2025-03-03T20:55:23Z</time>
      </trkpt>
      <trkpt lat="43.05598" lon="-0.68892">
        <ele>558.12</ele>
        <time>2025-03-03T20:55:25Z</time>
      </trkpt>
      <trkpt lat="43.05597" lon="-0.68916">
        <ele>560.6</ele>
        <time>2025-03-03T20:55:27Z</time>
      </trkpt>
      <trkpt lat="43.05601" lon="-0.68957">
        <ele>563.51</ele>
        <time>2025-03-03T20:55:30Z</time>
      </trkpt>
      <trkpt lat="43.05601" lon="-0.68993">
        <ele>569.12</ele>
        <time>2025-03-03T20:55:32Z</time>
      </trkpt>
      <trkpt lat="43.05594" lon="-0.6904">
        <ele>577.28</ele>
        <time>2025-03-03T20:55:34Z</time>
      </trkpt>
      <trkpt lat="43.05597" lon="-0.69047">
        <ele>577.88</ele>
        <time>2025-03-03T20:55:36Z</time>
      </trkpt>
      <trkpt lat="43.05602" lon="-0.69049">
        <ele>577.23</ele>
        <time>2025-03-03T20:55:39Z</time>
      </trkpt>
      <trkpt lat="43.05619" lon="-0.69037">
        <ele>574.43</ele>
        <time>2025-03-03T20:55:41Z</time>
      </trkpt>
      <trkpt lat="43.05654" lon="-0.69001">
        <ele>568.53</ele>
        <time>2025-03-03T20:55:43Z</time>
      </trkpt>
      <trkpt lat="43.05665" lon="-0.68981">
        <ele>563.76</ele>
        <time>2025-03-03T20:55:45Z</time>
      </trkpt>
      <trkpt lat="43.05676" lon="-0.68975">
        <ele>563.73</ele>
        <time>2025-03-03T20:55:47Z</time>
      </trkpt>
      <trkpt lat="43.05716" lon="-0.68988">
        <ele>572.64</ele>
        <time>2025-03-03T20:55:50Z</time>
      </trkpt>
      <trkpt lat="43.05735" lon="-0.68979">
        <ele>571.75</ele>
        <time>2025-03-03T20:55:52Z</time>
      </trkpt>
      <trkpt lat="43.05763" lon="-0.68974">
        <ele>572.9</ele>
        <time>2025-03-03T20:55:54Z</time>
      </trkpt>
      <trkpt lat="43.05793" lon="-0.68985">
        <ele>576.94</ele>
        <time>2025-03-03T20:55:56Z</time>
      </trkpt>
      <trkpt lat="43.05827" lon="-0.69013">
        <ele>578.83</ele>
        <time>2025-03-03T20:55:59Z</time>
      </trkpt>
      <trkpt lat="43.05861" lon="-0.69051">
        <ele>580.34</ele>
        <time>2025-03-03T20:56:01Z</time>
      </trkpt>
      <trkpt lat="43.05885" lon="-0.69087">
        <ele>581.01</ele>
        <time>2025-03-03T20:56:03Z</time>
      </trkpt>
      <trkpt lat="43.059" lon="-0.69126">
        <ele>582.58</ele>
        <time>2025-03-03T20:56:05Z</time>
      </trkpt>
      <trkpt lat="43.05906" lon="-0.69163">
        <ele>583.67</ele>
        <time>2025-03-03T20:56:07Z</time>
      </trkpt>
      <trkpt lat="43.05904" lon="-0.69217">
        <ele>588.78</ele>
        <time>2025-03-03T20:56:10Z</time>
      </trkpt>
      <trkpt lat="43.05897" lon="-0.69248">
        <ele>593.79</ele>
        <time>2025-03-03T20:56:12Z</time>
      </trkpt>
      <trkpt lat="43.05897" lon="-0.69254">
        <ele>595.05</ele>
        <time>2025-03-03T20:56:14Z</time>
      </trkpt>
      <trkpt lat="43.05898" lon="-0.69257">
        <ele>595.68</ele>
        <time>2025-03-03T20:56:16Z</time>
      </trkpt>
      <trkpt lat="43.05908" lon="-0.69257">
        <ele>594.64</ele>
        <time>2025-03-03T20:56:19Z</time>
      </trkpt>
      <trkpt lat="43.05932" lon="-0.69247">
        <ele>591.59</ele>
        <time>2025-03-03T20:56:21Z</time>
      </trkpt>
      <trkpt lat="43.05943" lon="-0.69248">
        <ele>591.83</ele>
        <time>2025-03-03T20:56:23Z</time>
      </trkpt>
      <trkpt lat="43.05954" lon="-0.69258">
        <ele>594.43</ele>
        <time>2025-03-03T20:56:25Z</time>
      </trkpt>
      <trkpt lat="43.06004" lon="-0.69323">
        <ele>602.93</ele>
        <time>2025-03-03T20:56:28Z</time>
      </trkpt>
      <trkpt lat="43.06004" lon="-0.69323">
        <ele>602.93</ele>
        <time>2025-03-03T20:56:28Z</time>
      </trkpt>
      <trkpt lat="43.06023" lon="-0.69346">
        <ele>603.91</ele>
        <time>2025-03-03T20:56:30Z</time>
      </trkpt>
      <trkpt lat="43.06042" lon="-0.69377">
        <ele>603.43</ele>
        <time>2025-03-03T20:56:32Z</time>
      </trkpt>
      <trkpt lat="43.06088" lon="-0.69434">
        <ele>597.23</ele>
        <time>2025-03-03T20:56:35Z</time>
      </trkpt>
      <trkpt lat="43.06149" lon="-0.69479">
        <ele>585.91</ele>
        <time>2025-03-03T20:56:37Z</time>
      </trkpt>
      <trkpt lat="43.0616" lon="-0.69484">
        <ele>584.68</ele>
        <time>2025-03-03T20:56:40Z</time>
      </trkpt>
      <trkpt lat="43.06172" lon="-0.69479">
        <ele>583.96</ele>
        <time>2025-03-03T20:56:42Z</time>
      </trkpt>
      <trkpt lat="43.06179" lon="-0.69469">
        <ele>584.7</ele>
        <time>2025-03-03T20:56:44Z</time>
      </trkpt>
      <trkpt lat="43.06183" lon="-0.69447">
        <ele>588.47</ele>
        <time>2025-03-03T20:56:47Z</time>
      </trkpt>
      <trkpt lat="43.06187" lon="-0.69441">
        <ele>589.77</ele>
        <time>2025-03-03T20:56:49Z</time>
      </trkpt>
      <trkpt lat="43.06193" lon="-0.6944">
        <ele>590</ele>
        <time>2025-03-03T20:56:52Z</time>
      </trkpt>
      <trkpt lat="43.062" lon="-0.69442">
        <ele>589.89</ele>
        <time>2025-03-03T20:56:54Z</time>
      </trkpt>
      <trkpt lat="43.06225" lon="-0.69474">
        <ele>583.05</ele>
        <time>2025-03-03T20:56:56Z</time>
      </trkpt>
      <trkpt lat="43.06265" lon="-0.69554">
        <ele>571.38</ele>
        <time>2025-03-03T20:56:59Z</time>
      </trkpt>
      <trkpt lat="43.06295" lon="-0.69588">
        <ele>567.65</ele>
        <time>2025-03-03T20:57:01Z</time>
      </trkpt>
      <trkpt lat="43.06325" lon="-0.69603">
        <ele>565.99</ele>
        <time>2025-03-03T20:57:04Z</time>
      </trkpt>
      <trkpt lat="43.06344" lon="-0.69604">
        <ele>565.21</ele>
        <time>2025-03-03T20:57:06Z</time>
      </trkpt>
      <trkpt lat="43.06371" lon="-0.69598">
        <ele>566.89</ele>
        <time>2025-03-03T20:57:08Z</time>
      </trkpt>
      <trkpt lat="43.06381" lon="-0.69598">
        <ele>566.7</ele>
        <time>2025-03-03T20:57:11Z</time>
      </trkpt>
      <trkpt lat="43.06397" lon="-0.6961">
        <ele>561.38</ele>
        <time>2025-03-03T20:57:13Z</time>
      </trkpt>
      <trkpt lat="43.06413" lon="-0.69615">
        <ele>558.31</ele>
        <time>2025-03-03T20:57:16Z</time>
      </trkpt>
      <trkpt lat="43.06452" lon="-0.69616">
        <ele>558.7</ele>
        <time>2025-03-03T20:57:18Z</time>
      </trkpt>
      <trkpt lat="43.06466" lon="-0.69624">
        <ele>559.12</ele>
        <time>2025-03-03T20:57:20Z</time>
      </trkpt>
      <trkpt lat="43.06494" lon="-0.69659">
        <ele>552.64</ele>
        <time>2025-03-03T20:57:23Z</time>
      </trkpt>
      <trkpt lat="43.06532" lon="-0.69682">
        <ele>547.07</ele>
        <time>2025-03-03T20:57:25Z</time>
      </trkpt>
      <trkpt lat="43.06587" lon="-0.69732">
        <ele>538.58</ele>
        <time>2025-03-03T20:57:28Z</time>
      </trkpt>
      <trkpt lat="43.06602" lon="-0.69737">
        <ele>538.38</ele>
        <time>2025-03-03T20:57:30Z</time>
      </trkpt>
      <trkpt lat="43.06634" lon="-0.69742">
        <ele>538.18</ele>
        <time>2025-03-03T20:57:32Z</time>
      </trkpt>
      <trkpt lat="43.06654" lon="-0.6975">
        <ele>536.61</ele>
        <time>2025-03-03T20:57:35Z</time>
      </trkpt>
      <trkpt lat="43.06674" lon="-0.69766">
        <ele>533.49</ele>
        <time>2025-03-03T20:57:37Z</time>
      </trkpt>
      <trkpt lat="43.06708" lon="-0.69814">
        <ele>528.93</ele>
        <time>2025-03-03T20:57:40Z</time>
      </trkpt>
      <trkpt lat="43.06745" lon="-0.69871">
        <ele>521.33</ele>
        <time>2025-03-03T20:57:42Z</time>
      </trkpt>
      <trkpt lat="43.06752" lon="-0.699">
        <ele>516.48</ele>
        <time>2025-03-03T20:57:44Z</time>
      </trkpt>
      <trkpt lat="43.06763" lon="-0.69923">
        <ele>514.93</ele>
        <time>2025-03-03T20:57:47Z</time>
      </trkpt>
      <trkpt lat="43.06791" lon="-0.6996">
        <ele>512.84</ele>
        <time>2025-03-03T20:57:49Z</time>
      </trkpt>
      <trkpt lat="43.06807" lon="-0.70001">
        <ele>509.3</ele>
        <time>2025-03-03T20:57:52Z</time>
      </trkpt>
      <trkpt lat="43.06831" lon="-0.70086">
        <ele>500.93</ele>
        <time>2025-03-03T20:57:54Z</time>
      </trkpt>
      <trkpt lat="43.06858" lon="-0.70167">
        <ele>493.6</ele>
        <time>2025-03-03T20:57:56Z</time>
      </trkpt>
      <trkpt lat="43.06868" lon="-0.70179">
        <ele>492.71</ele>
        <time>2025-03-03T20:57:59Z</time>
      </trkpt>
      <trkpt lat="43.06918" lon="-0.70223">
        <ele>489.98</ele>
        <time>2025-03-03T20:58:01Z</time>
      </trkpt>
      <trkpt lat="43.06957" lon="-0.70261">
        <ele>484.98</ele>
        <time>2025-03-03T20:58:04Z</time>
      </trkpt>
      <trkpt lat="43.06979" lon="-0.70296">
        <ele>479.52</ele>
        <time>2025-03-03T20:58:06Z</time>
      </trkpt>
      <trkpt lat="43.06995" lon="-0.70314">
        <ele>476.66</ele>
        <time>2025-03-03T20:58:08Z</time>
      </trkpt>
      <trkpt lat="43.07034" lon="-0.70335">
        <ele>473.79</ele>
        <time>2025-03-03T20:58:11Z</time>
      </trkpt>
      <trkpt lat="43.07044" lon="-0.70344">
        <ele>473.43</ele>
        <time>2025-03-03T20:58:13Z</time>
      </trkpt>
      <trkpt lat="43.07043" lon="-0.70366">
        <ele>474.1</ele>
        <time>2025-03-03T20:58:16Z</time>
      </trkpt>
      <trkpt lat="43.07033" lon="-0.70387">
        <ele>476.76</ele>
        <time>2025-03-03T20:58:18Z</time>
      </trkpt>
      <trkpt lat="43.07015" lon="-0.70405">
        <ele>479.85</ele>
        <time>2025-03-03T20:58:20Z</time>
      </trkpt>
      <trkpt lat="43.07002" lon="-0.70423">
        <ele>482.36</ele>
        <time>2025-03-03T20:58:23Z</time>
      </trkpt>
      <trkpt lat="43.06984" lon="-0.70439">
        <ele>483.2</ele>
        <time>2025-03-03T20:58:25Z</time>
      </trkpt>
      <trkpt lat="43.06964" lon="-0.70448">
        <ele>482.95</ele>
        <time>2025-03-03T20:58:27Z</time>
      </trkpt>
      <trkpt lat="43.06946" lon="-0.70462">
        <ele>482.28</ele>
        <time>2025-03-03T20:58:30Z</time>
      </trkpt>
      <trkpt lat="43.0693" lon="-0.70488">
        <ele>483.55</ele>
        <time>2025-03-03T20:58:32Z</time>
      </trkpt>
      <trkpt lat="43.0692" lon="-0.70509">
        <ele>482.94</ele>
        <time>2025-03-03T20:58:35Z</time>
      </trkpt>
      <trkpt lat="43.06916" lon="-0.70529">
        <ele>482.08</ele>
        <time>2025-03-03T20:58:37Z</time>
      </trkpt>
      <trkpt lat="43.06912" lon="-0.70568">
        <ele>482.04</ele>
        <time>2025-03-03T20:58:39Z</time>
      </trkpt>
      <trkpt lat="43.06902" lon="-0.70604">
        <ele>483.33</ele>
        <time>2025-03-03T20:58:42Z</time>
      </trkpt>
      <trkpt lat="43.06902" lon="-0.70614">
        <ele>483.46</ele>
        <time>2025-03-03T20:58:44Z</time>
      </trkpt>
      <trkpt lat="43.06907" lon="-0.70625">
        <ele>483.5</ele>
        <time>2025-03-03T20:58:47Z</time>
      </trkpt>
      <trkpt lat="43.06925" lon="-0.70642">
        <ele>482.9</ele>
        <time>2025-03-03T20:58:49Z</time>
      </trkpt>
      <trkpt lat="43.06971" lon="-0.70658">
        <ele>480.89</ele>
        <time>2025-03-03T20:58:51Z</time>
      </trkpt>
      <trkpt lat="43.06992" lon="-0.70663">
        <ele>480.49</ele>
        <time>2025-03-03T20:58:54Z</time>
      </trkpt>
      <trkpt lat="43.07065" lon="-0.70668">
        <ele>483.42</ele>
        <time>2025-03-03T20:58:56Z</time>
      </trkpt>
      <trkpt lat="43.071" lon="-0.70675">
        <ele>483.8</ele>
        <time>2025-03-03T20:58:59Z</time>
      </trkpt>
      <trkpt lat="43.07132" lon="-0.70689">
        <ele>481.85</ele>
        <time>2025-03-03T20:59:01Z</time>
      </trkpt>
      <trkpt lat="43.07176" lon="-0.70714">
        <ele>480.37</ele>
        <time>2025-03-03T20:59:03Z</time>
      </trkpt>
      <trkpt lat="43.07219" lon="-0.70754">
        <ele>475.73</ele>
        <time>2025-03-03T20:59:06Z</time>
      </trkpt>
      <trkpt lat="43.07253" lon="-0.70804">
        <ele>468.62</ele>
        <time>2025-03-03T20:59:08Z</time>
      </trkpt>
      <trkpt lat="43.07268" lon="-0.70845">
        <ele>463.37</ele>
        <time>2025-03-03T20:59:11Z</time>
      </trkpt>
      <trkpt lat="43.07286" lon="-0.70923">
        <ele>461.58</ele>
        <time>2025-03-03T20:59:13Z</time>
      </trkpt>
      <trkpt lat="43.0729" lon="-0.70933">
        <ele>460.65</ele>
        <time>2025-03-03T20:59:15Z</time>
      </trkpt>
      <trkpt lat="43.07307" lon="-0.7096">
        <ele>458.11</ele>
        <time>2025-03-03T20:59:18Z</time>
      </trkpt>
      <trkpt lat="43.07321" lon="-0.70979">
        <ele>455.2</ele>
        <time>2025-03-03T20:59:20Z</time>
      </trkpt>
      <trkpt lat="43.07339" lon="-0.70996">
        <ele>453.08</ele>
        <time>2025-03-03T20:59:23Z</time>
      </trkpt>
      <trkpt lat="43.07384" lon="-0.7103">
        <ele>449.2</ele>
        <time>2025-03-03T20:59:25Z</time>
      </trkpt>
      <trkpt lat="43.07409" lon="-0.71033">
        <ele>447.92</ele>
        <time>2025-03-03T20:59:27Z</time>
      </trkpt>
      <trkpt lat="43.07419" lon="-0.71026">
        <ele>447.88</ele>
        <time>2025-03-03T20:59:30Z</time>
      </trkpt>
      <trkpt lat="43.07428" lon="-0.71012">
        <ele>447.99</ele>
        <time>2025-03-03T20:59:32Z</time>
      </trkpt>
      <trkpt lat="43.07441" lon="-0.70966">
        <ele>451.15</ele>
        <time>2025-03-03T20:59:35Z</time>
      </trkpt>
      <trkpt lat="43.07469" lon="-0.70943">
        <ele>450.6</ele>
        <time>2025-03-03T20:59:37Z</time>
      </trkpt>
      <trkpt lat="43.07508" lon="-0.7093">
        <ele>448.44</ele>
        <time>2025-03-03T20:59:39Z</time>
      </trkpt>
      <trkpt lat="43.0759" lon="-0.70909">
        <ele>445.37</ele>
        <time>2025-03-03T20:59:42Z</time>
      </trkpt>
      <trkpt lat="43.07655" lon="-0.70873">
        <ele>445.62</ele>
        <time>2025-03-03T20:59:44Z</time>
      </trkpt>
      <trkpt lat="43.07673" lon="-0.70868">
        <ele>446.13</ele>
        <time>2025-03-03T20:59:47Z</time>
      </trkpt>
      <trkpt lat="43.07707" lon="-0.7087">
        <ele>446.05</ele>
        <time>2025-03-03T20:59:49Z</time>
      </trkpt>
      <trkpt lat="43.07719" lon="-0.70874">
        <ele>445.47</ele>
        <time>2025-03-03T20:59:51Z</time>
      </trkpt>
      <trkpt lat="43.07763" lon="-0.70898">
        <ele>440.07</ele>
        <time>2025-03-03T20:59:54Z</time>
      </trkpt>
      <trkpt lat="43.07777" lon="-0.70902">
        <ele>438.2</ele>
        <time>2025-03-03T20:59:56Z</time>
      </trkpt>
      <trkpt lat="43.07795" lon="-0.70902">
        <ele>437.2</ele>
        <time>2025-03-03T20:59:59Z</time>
      </trkpt>
      <trkpt lat="43.07807" lon="-0.70897">
        <ele>437.45</ele>
        <time>2025-03-03T21:00:01Z</time>
      </trkpt>
      <trkpt lat="43.07841" lon="-0.70865">
        <ele>439.98</ele>
        <time>2025-03-03T21:00:03Z</time>
      </trkpt>
      <trkpt lat="43.07851" lon="-0.70859">
        <ele>439.92</ele>
        <time>2025-03-03T21:00:06Z</time>
      </trkpt>
      <trkpt lat="43.07963" lon="-0.7084">
        <ele>416.16</ele>
        <time>2025-03-03T21:00:08Z</time>
      </trkpt>
      <trkpt lat="43.0797" lon="-0.70834">
        <ele>416.4</ele>
        <time>2025-03-03T21:00:11Z</time>
      </trkpt>
      <trkpt lat="43.07972" lon="-0.70825">
        <ele>418.65</ele>
        <time>2025-03-03T21:00:13Z</time>
      </trkpt>
      <trkpt lat="43.07969" lon="-0.70801">
        <ele>426.97</ele>
        <time>2025-03-03T21:00:15Z</time>
      </trkpt>
      <trkpt lat="43.07963" lon="-0.7078">
        <ele>434.18</ele>
        <time>2025-03-03T21:00:18Z</time>
      </trkpt>
      <trkpt lat="43.07969" lon="-0.70773">
        <ele>434.59</ele>
        <time>2025-03-03T21:00:20Z</time>
      </trkpt>
      <trkpt lat="43.07981" lon="-0.7077">
        <ele>432.95</ele>
        <time>2025-03-03T21:00:23Z</time>
      </trkpt>
      <trkpt lat="43.08013" lon="-0.70783">
        <ele>424.04</ele>
        <time>2025-03-03T21:00:25Z</time>
      </trkpt>
      <trkpt lat="43.08074" lon="-0.70828">
        <ele>409.26</ele>
        <time>2025-03-03T21:00:27Z</time>
      </trkpt>
      <trkpt lat="43.08234" lon="-0.70876">
        <ele>395.05</ele>
        <time>2025-03-03T21:00:30Z</time>
      </trkpt>
      <trkpt lat="43.08306" lon="-0.70893">
        <ele>382.46</ele>
        <time>2025-03-03T21:00:32Z</time>
      </trkpt>
      <trkpt lat="43.08385" lon="-0.70915">
        <ele>372.67</ele>
        <time>2025-03-03T21:00:35Z</time>
      </trkpt>
      <trkpt lat="43.08398" lon="-0.70924">
        <ele>370.18</ele>
        <time>2025-03-03T21:00:37Z</time>
      </trkpt>
      <trkpt lat="43.08405" lon="-0.70937">
        <ele>367.67</ele>
        <time>2025-03-03T21:00:39Z</time>
      </trkpt>
      <trkpt lat="43.08408" lon="-0.70954">
        <ele>365</ele>
        <time>2025-03-03T21:00:42Z</time>
      </trkpt>
      <trkpt lat="43.08407" lon="-0.70984">
        <ele>361.05</ele>
        <time>2025-03-03T21:00:44Z</time>
      </trkpt>
      <trkpt lat="43.08402" lon="-0.71011">
        <ele>356.33</ele>
        <time>2025-03-03T21:00:47Z</time>
      </trkpt>
      <trkpt lat="43.08406" lon="-0.7102">
        <ele>355.55</ele>
        <time>2025-03-03T21:00:49Z</time>
      </trkpt>
      <trkpt lat="43.08444" lon="-0.71043">
        <ele>353.5</ele>
        <time>2025-03-03T21:00:51Z</time>
      </trkpt>
      <trkpt lat="43.08461" lon="-0.71039">
        <ele>355.29</ele>
        <time>2025-03-03T21:00:54Z</time>
      </trkpt>
      <trkpt lat="43.08475" lon="-0.7104">
        <ele>355.76</ele>
        <time>2025-03-03T21:00:56Z</time>
      </trkpt>
      <trkpt lat="43.08484" lon="-0.71043">
        <ele>355.55</ele>
        <time>2025-03-03T21:00:59Z</time>
      </trkpt>
      <trkpt lat="43.08488" lon="-0.71051">
        <ele>353.67</ele>
        <time>2025-03-03T21:01:01Z</time>
      </trkpt>
      <trkpt lat="43.08486" lon="-0.71094">
        <ele>345.6</ele>
        <time>2025-03-03T21:01:03Z</time>
      </trkpt>
      <trkpt lat="43.0849" lon="-0.71115">
        <ele>343.34</ele>
        <time>2025-03-03T21:01:06Z</time>
      </trkpt>
      <trkpt lat="43.085" lon="-0.71129">
        <ele>342.37</ele>
        <time>2025-03-03T21:01:08Z</time>
      </trkpt>
      <trkpt lat="43.08519" lon="-0.7114">
        <ele>341.56</ele>
        <time>2025-03-03T21:01:11Z</time>
      </trkpt>
      <trkpt lat="43.08538" lon="-0.71142">
        <ele>341.48</ele>
        <time>2025-03-03T21:01:13Z</time>
      </trkpt>
      <trkpt lat="43.08572" lon="-0.71136">
        <ele>341.66</ele>
        <time>2025-03-03T21:01:15Z</time>
      </trkpt>
      <trkpt lat="43.08591" lon="-0.71137">
        <ele>341.15</ele>
        <time>2025-03-03T21:01:18Z</time>
      </trkpt>
      <trkpt lat="43.08618" lon="-0.71147">
        <ele>339.61</ele>
        <time>2025-03-03T21:01:20Z</time>
      </trkpt>
      <trkpt lat="43.08627" lon="-0.71157">
        <ele>336.91</ele>
        <time>2025-03-03T21:01:23Z</time>
      </trkpt>
      <trkpt lat="43.08636" lon="-0.71194">
        <ele>333.22</ele>
        <time>2025-03-03T21:01:25Z</time>
      </trkpt>
      <trkpt lat="43.08703" lon="-0.71247">
        <ele>330.3</ele>
        <time>2025-03-03T21:01:27Z</time>
      </trkpt>
      <trkpt lat="43.08763" lon="-0.71288">
        <ele>332.7</ele>
        <time>2025-03-03T21:01:30Z</time>
      </trkpt>
      <trkpt lat="43.08785" lon="-0.71297">
        <ele>333.27</ele>
        <time>2025-03-03T21:01:32Z</time>
      </trkpt>
      <trkpt lat="43.08792" lon="-0.71302">
        <ele>333.38</ele>
        <time>2025-03-03T21:01:35Z</time>
      </trkpt>
      <trkpt lat="43.08798" lon="-0.71311">
        <ele>333.16</ele>
        <time>2025-03-03T21:01:37Z</time>
      </trkpt>
      <trkpt lat="43.08804" lon="-0.71325">
        <ele>332.39</ele>
        <time>2025-03-03T21:01:39Z</time>
      </trkpt>
      <trkpt lat="43.08821" lon="-0.71378">
        <ele>331.66</ele>
        <time>2025-03-03T21:01:42Z</time>
      </trkpt>
      <trkpt lat="43.08826" lon="-0.71388">
        <ele>331.49</ele>
        <time>2025-03-03T21:01:44Z</time>
      </trkpt>
      <trkpt lat="43.08836" lon="-0.71392">
        <ele>331.03</ele>
        <time>2025-03-03T21:01:47Z</time>
      </trkpt>
      <trkpt lat="43.08856" lon="-0.71391">
        <ele>330.36</ele>
        <time>2025-03-03T21:01:49Z</time>
      </trkpt>
      <trkpt lat="43.08967" lon="-0.71363">
        <ele>331.96</ele>
        <time>2025-03-03T21:01:51Z</time>
      </trkpt>
      <trkpt lat="43.08998" lon="-0.71359">
        <ele>330.14</ele>
        <time>2025-03-03T21:01:54Z</time>
      </trkpt>
      <trkpt lat="43.09011" lon="-0.71362">
        <ele>329.61</ele>
        <time>2025-03-03T21:01:56Z</time>
      </trkpt>
      <trkpt lat="43.09019" lon="-0.71367">
        <ele>329.46</ele>
        <time>2025-03-03T21:01:59Z</time>
      </trkpt>
      <trkpt lat="43.09051" lon="-0.71388">
        <ele>330.79</ele>
        <time>2025-03-03T21:02:01Z</time>
      </trkpt>
      <trkpt lat="43.09064" lon="-0.71401">
        <ele>330.83</ele>
        <time>2025-03-03T21:02:03Z</time>
      </trkpt>
      <trkpt lat="43.09088" lon="-0.71432">
        <ele>331.54</ele>
        <time>2025-03-03T21:02:06Z</time>
      </trkpt>
      <trkpt lat="43.09126" lon="-0.71473">
        <ele>332.47</ele>
        <time>2025-03-03T21:02:08Z</time>
      </trkpt>
      <trkpt lat="43.09154" lon="-0.715">
        <ele>329.91</ele>
        <time>2025-03-03T21:02:11Z</time>
      </trkpt>
      <trkpt lat="43.09182" lon="-0.7152">
        <ele>329</ele>
        <time>2025-03-03T21:02:13Z</time>
      </trkpt>
      <trkpt lat="43.09198" lon="-0.71529">
        <ele>329.15</ele>
        <time>2025-03-03T21:02:15Z</time>
      </trkpt>
      <trkpt lat="43.09224" lon="-0.71539">
        <ele>330</ele>
        <time>2025-03-03T21:02:18Z</time>
      </trkpt>
      <trkpt lat="43.09236" lon="-0.71547">
        <ele>330</ele>
        <time>2025-03-03T21:02:20Z</time>
      </trkpt>
      <trkpt lat="43.09239" lon="-0.71561">
        <ele>330.08</ele>
        <time>2025-03-03T21:02:23Z</time>
      </trkpt>
      <trkpt lat="43.09254" lon="-0.7156">
        <ele>329.98</ele>
        <time>2025-03-03T21:02:28Z</time>
      </trkpt>
      <trkpt lat="43.09261" lon="-0.71562">
        <ele>329.91</ele>
        <time>2025-03-03T21:02:34Z</time>
      </trkpt>
      <trkpt lat="43.09313" lon="-0.7159">
        <ele>329</ele>
        <time>2025-03-03T21:02:39Z</time>
      </trkpt>
      <trkpt lat="43.09375" lon="-0.71608">
        <ele>327.93</ele>
        <time>2025-03-03T21:02:45Z</time>
      </trkpt>
      <trkpt lat="43.09408" lon="-0.71624">
        <ele>328</ele>
        <time>2025-03-03T21:02:51Z</time>
      </trkpt>
      <trkpt lat="43.09459" lon="-0.71671">
        <ele>327.54</ele>
        <time>2025-03-03T21:02:56Z</time>
      </trkpt>
      <trkpt lat="43.09514" lon="-0.71705">
        <ele>324.96</ele>
        <time>2025-03-03T21:03:02Z</time>
      </trkpt>
      <trkpt lat="43.09514" lon="-0.71705">
        <ele>324.96</ele>
        <time>2025-03-03T21:03:02Z</time>
      </trkpt>
      <trkpt lat="43.09527" lon="-0.71708">
        <ele>324.55</ele>
        <time>2025-03-03T21:03:04Z</time>
      </trkpt>
      <trkpt lat="43.09536" lon="-0.71708">
        <ele>324.23</ele>
        <time>2025-03-03T21:03:06Z</time>
      </trkpt>
      <trkpt lat="43.09557" lon="-0.71703">
        <ele>323.68</ele>
        <time>2025-03-03T21:03:08Z</time>
      </trkpt>
      <trkpt lat="43.09558" lon="-0.71713">
        <ele>323.26</ele>
        <time>2025-03-03T21:03:09Z</time>
      </trkpt>
      <trkpt lat="43.09556" lon="-0.71721">
        <ele>323.01</ele>
        <time>2025-03-03T21:03:11Z</time>
      </trkpt>
      <trkpt lat="43.09539" lon="-0.71773">
        <ele>323.61</ele>
        <time>2025-03-03T21:03:12Z</time>
      </trkpt>
      <trkpt lat="43.09538" lon="-0.7179">
        <ele>322.91</ele>
        <time>2025-03-03T21:03:14Z</time>
      </trkpt>
      <trkpt lat="43.09542" lon="-0.71806">
        <ele>322</ele>
        <time>2025-03-03T21:03:15Z</time>
      </trkpt>
      <trkpt lat="43.09545" lon="-0.71816">
        <ele>321.61</ele>
        <time>2025-03-03T21:03:17Z</time>
      </trkpt>
      <trkpt lat="43.09545" lon="-0.71816">
        <ele>321.61</ele>
        <time>2025-03-03T21:03:17Z</time>
      </trkpt>
      <trkpt lat="43.09558" lon="-0.71855">
        <ele>321.22</ele>
        <time>2025-03-03T21:03:21Z</time>
      </trkpt>
      <trkpt lat="43.09588" lon="-0.71912">
        <ele>320.84</ele>
        <time>2025-03-03T21:03:25Z</time>
      </trkpt>
      <trkpt lat="43.09593" lon="-0.71919">
        <ele>320.54</ele>
        <time>2025-03-03T21:03:29Z</time>
      </trkpt>
      <trkpt lat="43.09621" lon="-0.71945">
        <ele>318.64</ele>
        <time>2025-03-03T21:03:33Z</time>
      </trkpt>
      <trkpt lat="43.09621" lon="-0.71945">
        <ele>318.64</ele>
        <time>2025-03-03T21:03:33Z</time>
      </trkpt>
      <trkpt lat="43.09641" lon="-0.71961">
        <ele>318</ele>
        <time>2025-03-03T21:03:37Z</time>
      </trkpt>
      <trkpt lat="43.09678" lon="-0.71986">
        <ele>318</ele>
        <time>2025-03-03T21:03:41Z</time>
      </trkpt>
      <trkpt lat="43.09696" lon="-0.72006">
        <ele>317.93</ele>
        <time>2025-03-03T21:03:45Z</time>
      </trkpt>
      <trkpt lat="43.09721" lon="-0.72041">
        <ele>317.05</ele>
        <time>2025-03-03T21:03:48Z</time>
      </trkpt>
      <trkpt lat="43.09729" lon="-0.72058">
        <ele>316.82</ele>
        <time>2025-03-03T21:03:52Z</time>
      </trkpt>
      <trkpt lat="43.09735" lon="-0.72072">
        <ele>316.87</ele>
        <time>2025-03-03T21:03:56Z</time>
      </trkpt>
      <trkpt lat="43.09738" lon="-0.72084">
        <ele>316.86</ele>
        <time>2025-03-03T21:04:00Z</time>
      </trkpt>
      <trkpt lat="43.09737" lon="-0.72105">
        <ele>316.12</ele>
        <time>2025-03-03T21:04:04Z</time>
      </trkpt>
      <trkpt lat="43.09735" lon="-0.72141">
        <ele>315.04</ele>
        <time>2025-03-03T21:04:08Z</time>
      </trkpt>
      <trkpt lat="43.09736" lon="-0.72164">
        <ele>315.44</ele>
        <time>2025-03-03T21:04:12Z</time>
      </trkpt>
      <trkpt lat="43.0974" lon="-0.72175">
        <ele>315.82</ele>
        <time>2025-03-03T21:04:15Z</time>
      </trkpt>
      <trkpt lat="43.09744" lon="-0.72183">
        <ele>316.26</ele>
        <time>2025-03-03T21:04:19Z</time>
      </trkpt>
      <trkpt lat="43.09757" lon="-0.72193">
        <ele>317.21</ele>
        <time>2025-03-03T21:04:23Z</time>
      </trkpt>
      <trkpt lat="43.09783" lon="-0.72201">
        <ele>317.8</ele>
        <time>2025-03-03T21:04:27Z</time>
      </trkpt>
      <trkpt lat="43.09834" lon="-0.72222">
        <ele>315.98</ele>
        <time>2025-03-03T21:04:31Z</time>
      </trkpt>
      <trkpt lat="43.09918" lon="-0.72293">
        <ele>312.4</ele>
        <time>2025-03-03T21:04:35Z</time>
      </trkpt>
      <trkpt lat="43.09969" lon="-0.72343">
        <ele>311</ele>
        <time>2025-03-03T21:04:39Z</time>
      </trkpt>
      <trkpt lat="43.10001" lon="-0.72396">
        <ele>309.96</ele>
        <time>2025-03-03T21:04:42Z</time>
      </trkpt>
      <trkpt lat="43.10011" lon="-0.72411">
        <ele>309.62</ele>
        <time>2025-03-03T21:04:46Z</time>
      </trkpt>
      <trkpt lat="43.10038" lon="-0.7244">
        <ele>308.93</ele>
        <time>2025-03-03T21:04:50Z</time>
      </trkpt>
      <trkpt lat="43.1005" lon="-0.72457">
        <ele>309.44</ele>
        <time>2025-03-03T21:04:54Z</time>
      </trkpt>
      <trkpt lat="43.10091" lon="-0.72563">
        <ele>309.28</ele>
        <time>2025-03-03T21:04:58Z</time>
      </trkpt>
      <trkpt lat="43.1016" lon="-0.72723">
        <ele>307.22</ele>
        <time>2025-03-03T21:05:02Z</time>
      </trkpt>
      <trkpt lat="43.1021" lon="-0.72806">
        <ele>304.42</ele>
        <time>2025-03-03T21:05:06Z</time>
      </trkpt>
      <trkpt lat="43.10227" lon="-0.72845">
        <ele>305.11</ele>
        <time>2025-03-03T21:05:09Z</time>
      </trkpt>
      <trkpt lat="43.10256" lon="-0.72947">
        <ele>302.79</ele>
        <time>2025-03-03T21:05:13Z</time>
      </trkpt>
      <trkpt lat="43.10284" lon="-0.73002">
        <ele>302.86</ele>
        <time>2025-03-03T21:05:17Z</time>
      </trkpt>
      <trkpt lat="43.10341" lon="-0.73101">
        <ele>303</ele>
        <time>2025-03-03T21:05:21Z</time>
      </trkpt>
      <trkpt lat="43.10362" lon="-0.73128">
        <ele>303.55</ele>
        <time>2025-03-03T21:05:25Z</time>
      </trkpt>
      <trkpt lat="43.10405" lon="-0.7317">
        <ele>301.86</ele>
        <time>2025-03-03T21:05:29Z</time>
      </trkpt>
      <trkpt lat="43.10451" lon="-0.7323">
        <ele>303.35</ele>
        <time>2025-03-03T21:05:33Z</time>
      </trkpt>
      <trkpt lat="43.1049" lon="-0.73269">
        <ele>303.6</ele>
        <time>2025-03-03T21:05:36Z</time>
      </trkpt>
      <trkpt lat="43.10591" lon="-0.73396">
        <ele>301.72</ele>
        <time>2025-03-03T21:05:40Z</time>
      </trkpt>
      <trkpt lat="43.10641" lon="-0.73446">
        <ele>299.92</ele>
        <time>2025-03-03T21:05:44Z</time>
      </trkpt>
      <trkpt lat="43.10694" lon="-0.73482">
        <ele>300.36</ele>
        <time>2025-03-03T21:05:48Z</time>
      </trkpt>
      <trkpt lat="43.10759" lon="-0.73516">
        <ele>297.1</ele>
        <time>2025-03-03T21:05:52Z</time>
      </trkpt>
      <trkpt lat="43.10851" lon="-0.73549">
        <ele>297.85</ele>
        <time>2025-03-03T21:05:56Z</time>
      </trkpt>
      <trkpt lat="43.1089" lon="-0.73557">
        <ele>298.16</ele>
        <time>2025-03-03T21:05:59Z</time>
      </trkpt>
      <trkpt lat="43.1102" lon="-0.73564">
        <ele>311.69</ele>
        <time>2025-03-03T21:06:03Z</time>
      </trkpt>
      <trkpt lat="43.11113" lon="-0.73571">
        <ele>310.19</ele>
        <time>2025-03-03T21:06:07Z</time>
      </trkpt>
      <trkpt lat="43.11113" lon="-0.73571">
        <ele>310.19</ele>
        <time>2025-03-03T21:06:07Z</time>
      </trkpt>
      <trkpt lat="43.11163" lon="-0.73576">
        <ele>308.68</ele>
        <time>2025-03-03T21:06:10Z</time>
      </trkpt>
      <trkpt lat="43.11196" lon="-0.73581">
        <ele>310.65</ele>
        <time>2025-03-03T21:06:13Z</time>
      </trkpt>
      <trkpt lat="43.11208" lon="-0.73586">
        <ele>311.71</ele>
        <time>2025-03-03T21:06:16Z</time>
      </trkpt>
      <trkpt lat="43.11223" lon="-0.73595">
        <ele>313.18</ele>
        <time>2025-03-03T21:06:19Z</time>
      </trkpt>
      <trkpt lat="43.11246" lon="-0.73617">
        <ele>315</ele>
        <time>2025-03-03T21:06:21Z</time>
      </trkpt>
      <trkpt lat="43.11354" lon="-0.7377">
        <ele>311.24</ele>
        <time>2025-03-03T21:06:24Z</time>
      </trkpt>
      <trkpt lat="43.11347" lon="-0.73783">
        <ele>311.35</ele>
        <time>2025-03-03T21:06:27Z</time>
      </trkpt>
      <trkpt lat="43.11339" lon="-0.73804">
        <ele>310.85</ele>
        <time>2025-03-03T21:06:30Z</time>
      </trkpt>
      <trkpt lat="43.11335" lon="-0.73826">
        <ele>310.88</ele>
        <time>2025-03-03T21:06:33Z</time>
      </trkpt>
      <trkpt lat="43.11336" lon="-0.7386">
        <ele>310.7</ele>
        <time>2025-03-03T21:06:36Z</time>
      </trkpt>
      <trkpt lat="43.11349" lon="-0.7403">
        <ele>311.95</ele>
        <time>2025-03-03T21:06:39Z</time>
      </trkpt>
      <trkpt lat="43.11355" lon="-0.74065">
        <ele>311.65</ele>
        <time>2025-03-03T21:06:42Z</time>
      </trkpt>
      <trkpt lat="43.11367" lon="-0.74114">
        <ele>312.43</ele>
        <time>2025-03-03T21:06:44Z</time>
      </trkpt>
      <trkpt lat="43.11371" lon="-0.74146">
        <ele>311.78</ele>
        <time>2025-03-03T21:06:47Z</time>
      </trkpt>
      <trkpt lat="43.11369" lon="-0.74179">
        <ele>310.25</ele>
        <time>2025-03-03T21:06:50Z</time>
      </trkpt>
      <trkpt lat="43.11348" lon="-0.74256">
        <ele>310.74</ele>
        <time>2025-03-03T21:06:53Z</time>
      </trkpt>
      <trkpt lat="43.11319" lon="-0.7435">
        <ele>312.77</ele>
        <time>2025-03-03T21:06:56Z</time>
      </trkpt>
      <trkpt lat="43.11299" lon="-0.7442">
        <ele>313.96</ele>
        <time>2025-03-03T21:06:59Z</time>
      </trkpt>
      <trkpt lat="43.11262" lon="-0.7457">
        <ele>306.26</ele>
        <time>2025-03-03T21:07:02Z</time>
      </trkpt>
      <trkpt lat="43.11239" lon="-0.74645">
        <ele>308.89</ele>
        <time>2025-03-03T21:07:05Z</time>
      </trkpt>
      <trkpt lat="43.1123" lon="-0.74718">
        <ele>298.61</ele>
        <time>2025-03-03T21:07:08Z</time>
      </trkpt>
      <trkpt lat="43.11235" lon="-0.74783">
        <ele>291.59</ele>
        <time>2025-03-03T21:07:10Z</time>
      </trkpt>
      <trkpt lat="43.11266" lon="-0.74927">
        <ele>286.69</ele>
        <time>2025-03-03T21:07:13Z</time>
      </trkpt>
      <trkpt lat="43.11272" lon="-0.74965">
        <ele>288.53</ele>
        <time>2025-03-03T21:07:16Z</time>
      </trkpt>
      <trkpt lat="43.11275" lon="-0.75018">
        <ele>290.41</ele>
        <time>2025-03-03T21:07:19Z</time>
      </trkpt>
      <trkpt lat="43.11275" lon="-0.75018">
        <ele>290.41</ele>
        <time>2025-03-03T21:07:19Z</time>
      </trkpt>
      <trkpt lat="43.11272" lon="-0.75215">
        <ele>291</ele>
        <time>2025-03-03T21:07:26Z</time>
      </trkpt>
      <trkpt lat="43.11272" lon="-0.75369">
        <ele>304.13</ele>
        <time>2025-03-03T21:07:33Z</time>
      </trkpt>
      <trkpt lat="43.11272" lon="-0.75499">
        <ele>309.14</ele>
        <time>2025-03-03T21:07:39Z</time>
      </trkpt>
      <trkpt lat="43.11272" lon="-0.75499">
        <ele>309.14</ele>
        <time>2025-03-03T21:07:39Z</time>
      </trkpt>
      <trkpt lat="43.11271" lon="-0.75568">
        <ele>317.03</ele>
        <time>2025-03-03T21:07:46Z</time>
      </trkpt>
      <trkpt lat="43.11267" lon="-0.75596">
        <ele>317.22</ele>
        <time>2025-03-03T21:07:52Z</time>
      </trkpt>
      <trkpt lat="43.11236" lon="-0.75759">
        <ele>319.96</ele>
        <time>2025-03-03T21:07:58Z</time>
      </trkpt>
      <trkpt lat="43.11236" lon="-0.75759">
        <ele>319.96</ele>
        <time>2025-03-03T21:07:58Z</time>
      </trkpt>
      <trkpt lat="43.11235" lon="-0.75787">
        <ele>322.26</ele>
        <time>2025-03-03T21:08:00Z</time>
      </trkpt>
      <trkpt lat="43.11237" lon="-0.75805">
        <ele>322.45</ele>
        <time>2025-03-03T21:08:03Z</time>
      </trkpt>
      <trkpt lat="43.11244" lon="-0.75831">
        <ele>322.4</ele>
        <time>2025-03-03T21:08:05Z</time>
      </trkpt>
      <trkpt lat="43.11244" lon="-0.75831">
        <ele>322.4</ele>
        <time>2025-03-03T21:08:05Z</time>
      </trkpt>
      <trkpt lat="43.11256" lon="-0.75853">
        <ele>322.72</ele>
        <time>2025-03-03T21:08:10Z</time>
      </trkpt>
      <trkpt lat="43.11321" lon="-0.75919">
        <ele>320.92</ele>
        <time>2025-03-03T21:08:15Z</time>
      </trkpt>
      <trkpt lat="43.11328" lon="-0.7593">
        <ele>320.36</ele>
        <time>2025-03-03T21:08:20Z</time>
      </trkpt>
      <trkpt lat="43.11334" lon="-0.75948">
        <ele>319.93</ele>
        <time>2025-03-03T21:08:25Z</time>
      </trkpt>
      <trkpt lat="43.11335" lon="-0.75981">
        <ele>320.17</ele>
        <time>2025-03-03T21:08:30Z</time>
      </trkpt>
      <trkpt lat="43.11326" lon="-0.76036">
        <ele>322</ele>
        <time>2025-03-03T21:08:35Z</time>
      </trkpt>
      <trkpt lat="43.11324" lon="-0.76095">
        <ele>321.7</ele>
        <time>2025-03-03T21:08:40Z</time>
      </trkpt>
      <trkpt lat="43.11324" lon="-0.76095">
        <ele>321.7</ele>
        <time>2025-03-03T21:08:40Z</time>
      </trkpt>
      <trkpt lat="43.11325" lon="-0.76209">
        <ele>323.88</ele>
        <time>2025-03-03T21:08:48Z</time>
      </trkpt>
      <trkpt lat="43.11327" lon="-0.76242">
        <ele>324.93</ele>
        <time>2025-03-03T21:08:55Z</time>
      </trkpt>
      <trkpt lat="43.11327" lon="-0.76261">
        <ele>324.8</ele>
        <time>2025-03-03T21:09:02Z</time>
      </trkpt>
      <trkpt lat="43.11322" lon="-0.76297">
        <ele>324.13</ele>
        <time>2025-03-03T21:09:10Z</time>
      </trkpt>
      <trkpt lat="43.11315" lon="-0.76354">
        <ele>322.83</ele>
        <time>2025-03-03T21:09:17Z</time>
      </trkpt>
      <trkpt lat="43.11314" lon="-0.76397">
        <ele>322.4</ele>
        <time>2025-03-03T21:09:24Z</time>
      </trkpt>
      <trkpt lat="43.11317" lon="-0.76406">
        <ele>321.97</ele>
        <time>2025-03-03T21:09:26Z</time>
      </trkpt>
      <trkpt lat="43.11316" lon="-0.76413">
        <ele>321.77</ele>
        <time>2025-03-03T21:09:29Z</time>
      </trkpt>
      <trkpt lat="43.11309" lon="-0.76419">
        <ele>321.89</ele>
        <time>2025-03-03T21:09:31Z</time>
      </trkpt>
      <trkpt lat="43.11297" lon="-0.76442">
        <ele>322.9</ele>
        <time>2025-03-03T21:09:33Z</time>
      </trkpt>
      <trkpt lat="43.11279" lon="-0.76506">
        <ele>323.29</ele>
        <time>2025-03-03T21:09:35Z</time>
      </trkpt>
      <trkpt lat="43.11279" lon="-0.76506">
        <ele>323.29</ele>
        <time>2025-03-03T21:09:35Z</time>
      </trkpt>
      <trkpt lat="43.11216" lon="-0.76731">
        <ele>322.1</ele>
        <time>2025-03-03T21:09:40Z</time>
      </trkpt>
      <trkpt lat="43.11181" lon="-0.76901">
        <ele>322.57</ele>
        <time>2025-03-03T21:09:44Z</time>
      </trkpt>
      <trkpt lat="43.11175" lon="-0.76919">
        <ele>322.36</ele>
        <time>2025-03-03T21:09:48Z</time>
      </trkpt>
      <trkpt lat="43.11161" lon="-0.76958">
        <ele>322.36</ele>
        <time>2025-03-03T21:09:52Z</time>
      </trkpt>
      <trkpt lat="43.11148" lon="-0.76984">
        <ele>321.22</ele>
        <time>2025-03-03T21:09:57Z</time>
      </trkpt>
      <trkpt lat="43.11141" lon="-0.76995">
        <ele>320.48</ele>
        <time>2025-03-03T21:10:01Z</time>
      </trkpt>
      <trkpt lat="43.11132" lon="-0.77006">
        <ele>319.21</ele>
        <time>2025-03-03T21:10:05Z</time>
      </trkpt>
      <trkpt lat="43.11113" lon="-0.77021">
        <ele>318.23</ele>
        <time>2025-03-03T21:10:09Z</time>
      </trkpt>
      <trkpt lat="43.11052" lon="-0.77047">
        <ele>321.07</ele>
        <time>2025-03-03T21:10:14Z</time>
      </trkpt>
      <trkpt lat="43.11042" lon="-0.77055">
        <ele>320.58</ele>
        <time>2025-03-03T21:10:18Z</time>
      </trkpt>
      <trkpt lat="43.11036" lon="-0.77063">
        <ele>319.96</ele>
        <time>2025-03-03T21:10:22Z</time>
      </trkpt>
      <trkpt lat="43.11026" lon="-0.77084">
        <ele>318.23</ele>
        <time>2025-03-03T21:10:26Z</time>
      </trkpt>
      <trkpt lat="43.11025" lon="-0.77095">
        <ele>317.89</ele>
        <time>2025-03-03T21:10:31Z</time>
      </trkpt>
      <trkpt lat="43.11028" lon="-0.7722">
        <ele>317.91</ele>
        <time>2025-03-03T21:10:35Z</time>
      </trkpt>
      <trkpt lat="43.11048" lon="-0.77815">
        <ele>328.34</ele>
        <time>2025-03-03T21:10:39Z</time>
      </trkpt>
      <trkpt lat="43.11059" lon="-0.77854">
        <ele>330.19</ele>
        <time>2025-03-03T21:10:43Z</time>
      </trkpt>
      <trkpt lat="43.11101" lon="-0.77977">
        <ele>332.55</ele>
        <time>2025-03-03T21:10:48Z</time>
      </trkpt>
      <trkpt lat="43.11145" lon="-0.78117">
        <ele>337.17</ele>
        <time>2025-03-03T21:10:52Z</time>
      </trkpt>
      <trkpt lat="43.11154" lon="-0.78155">
        <ele>337.02</ele>
        <time>2025-03-03T21:10:56Z</time>
      </trkpt>
      <trkpt lat="43.11158" lon="-0.78197">
        <ele>337.28</ele>
        <time>2025-03-03T21:11:00Z</time>
      </trkpt>
      <trkpt lat="43.11155" lon="-0.78299">
        <ele>330.29</ele>
        <time>2025-03-03T21:11:04Z</time>
      </trkpt>
      <trkpt lat="43.1115" lon="-0.78393">
        <ele>322.77</ele>
        <time>2025-03-03T21:11:09Z</time>
      </trkpt>
      <trkpt lat="43.11143" lon="-0.78416">
        <ele>323.8</ele>
        <time>2025-03-03T21:11:13Z</time>
      </trkpt>
      <trkpt lat="43.11127" lon="-0.78447">
        <ele>325.41</ele>
        <time>2025-03-03T21:11:17Z</time>
      </trkpt>
      <trkpt lat="43.11117" lon="-0.78461">
        <ele>325.35</ele>
        <time>2025-03-03T21:11:21Z</time>
      </trkpt>
      <trkpt lat="43.11103" lon="-0.78485">
        <ele>325.25</ele>
        <time>2025-03-03T21:11:26Z</time>
      </trkpt>
      <trkpt lat="43.11103" lon="-0.78485">
        <ele>325.25</ele>
        <time>2025-03-03T21:11:26Z</time>
      </trkpt>
      <trkpt lat="43.11094" lon="-0.785">
        <ele>325.15</ele>
        <time>2025-03-03T21:11:29Z</time>
      </trkpt>
      <trkpt lat="43.11091" lon="-0.78512">
        <ele>325.95</ele>
        <time>2025-03-03T21:11:32Z</time>
      </trkpt>
      <trkpt lat="43.11086" lon="-0.78581">
        <ele>333.3</ele>
        <time>2025-03-03T21:11:35Z</time>
      </trkpt>
      <trkpt lat="43.11079" lon="-0.78625">
        <ele>335.58</ele>
        <time>2025-03-03T21:11:38Z</time>
      </trkpt>
      <trkpt lat="43.11071" lon="-0.78662">
        <ele>335.68</ele>
        <time>2025-03-03T21:11:41Z</time>
      </trkpt>
      <trkpt lat="43.11037" lon="-0.78762">
        <ele>336.32</ele>
        <time>2025-03-03T21:11:44Z</time>
      </trkpt>
      <trkpt lat="43.11021" lon="-0.78801">
        <ele>341.46</ele>
        <time>2025-03-03T21:11:47Z</time>
      </trkpt>
      <trkpt lat="43.10958" lon="-0.78889">
        <ele>337</ele>
        <time>2025-03-03T21:11:50Z</time>
      </trkpt>
      <trkpt lat="43.10936" lon="-0.78907">
        <ele>334.27</ele>
        <time>2025-03-03T21:11:53Z</time>
      </trkpt>
      <trkpt lat="43.10879" lon="-0.78941">
        <ele>333.39</ele>
        <time>2025-03-03T21:11:56Z</time>
      </trkpt>
      <trkpt lat="43.10829" lon="-0.78987">
        <ele>340.44</ele>
        <time>2025-03-03T21:11:59Z</time>
      </trkpt>
      <trkpt lat="43.1078" lon="-0.79037">
        <ele>342</ele>
        <time>2025-03-03T21:12:02Z</time>
      </trkpt>
      <trkpt lat="43.10759" lon="-0.79072">
        <ele>344.96</ele>
        <time>2025-03-03T21:12:05Z</time>
      </trkpt>
      <trkpt lat="43.10699" lon="-0.79187">
        <ele>353.37</ele>
        <time>2025-03-03T21:12:08Z</time>
      </trkpt>
      <trkpt lat="43.10585" lon="-0.79323">
        <ele>351.76</ele>
        <time>2025-03-03T21:12:11Z</time>
      </trkpt>
      <trkpt lat="43.10567" lon="-0.79357">
        <ele>352.98</ele>
        <time>2025-03-03T21:12:14Z</time>
      </trkpt>
      <trkpt lat="43.1034" lon="-0.79935">
        <ele>370.16</ele>
        <time>2025-03-03T21:12:17Z</time>
      </trkpt>
      <trkpt lat="43.10306" lon="-0.80009">
        <ele>373.66</ele>
        <time>2025-03-03T21:12:20Z</time>
      </trkpt>
      <trkpt lat="43.10293" lon="-0.80044">
        <ele>372.86</ele>
        <time>2025-03-03T21:12:23Z</time>
      </trkpt>
      <trkpt lat="43.1029" lon="-0.80057">
        <ele>372.44</ele>
        <time>2025-03-03T21:12:26Z</time>
      </trkpt>
      <trkpt lat="43.10288" lon="-0.80074">
        <ele>371.13</ele>
        <time>2025-03-03T21:12:29Z</time>
      </trkpt>
      <trkpt lat="43.10288" lon="-0.80131">
        <ele>367.21</ele>
        <time>2025-03-03T21:12:32Z</time>
      </trkpt>
      <trkpt lat="43.10297" lon="-0.80274">
        <ele>355.06</ele>
        <time>2025-03-03T21:12:35Z</time>
      </trkpt>
      <trkpt lat="43.10295" lon="-0.8029">
        <ele>354.07</ele>
        <time>2025-03-03T21:12:38Z</time>
      </trkpt>
      <trkpt lat="43.10284" lon="-0.80349">
        <ele>346.51</ele>
        <time>2025-03-03T21:12:41Z</time>
      </trkpt>
      <trkpt lat="43.10284" lon="-0.80364">
        <ele>344.9</ele>
        <time>2025-03-03T21:12:44Z</time>
      </trkpt>
      <trkpt lat="43.10286" lon="-0.80382">
        <ele>344.37</ele>
        <time>2025-03-03T21:12:47Z</time>
      </trkpt>
      <trkpt lat="43.10293" lon="-0.80404">
        <ele>344.5</ele>
        <time>2025-03-03T21:12:50Z</time>
      </trkpt>
      <trkpt lat="43.10308" lon="-0.80435">
        <ele>346.98</ele>
        <time>2025-03-03T21:12:53Z</time>
      </trkpt>
      <trkpt lat="43.10317" lon="-0.80463">
        <ele>346.84</ele>
        <time>2025-03-03T21:12:56Z</time>
      </trkpt>
      <trkpt lat="43.10319" lon="-0.80489">
        <ele>344.58</ele>
        <time>2025-03-03T21:12:59Z</time>
      </trkpt>
      <trkpt lat="43.10318" lon="-0.80503">
        <ele>342.84</ele>
        <time>2025-03-03T21:13:02Z</time>
      </trkpt>
      <trkpt lat="43.10315" lon="-0.80523">
        <ele>341.46</ele>
        <time>2025-03-03T21:13:05Z</time>
      </trkpt>
      <trkpt lat="43.10308" lon="-0.8055">
        <ele>339.76</ele>
        <time>2025-03-03T21:13:08Z</time>
      </trkpt>
      <trkpt lat="43.10285" lon="-0.80617">
        <ele>335.35</ele>
        <time>2025-03-03T21:13:11Z</time>
      </trkpt>
      <trkpt lat="43.10265" lon="-0.80655">
        <ele>331.68</ele>
        <time>2025-03-03T21:13:14Z</time>
      </trkpt>
      <trkpt lat="43.10252" lon="-0.80672">
        <ele>331.75</ele>
        <time>2025-03-03T21:13:17Z</time>
      </trkpt>
      <trkpt lat="43.10239" lon="-0.80685">
        <ele>331.4</ele>
        <time>2025-03-03T21:13:20Z</time>
      </trkpt>
      <trkpt lat="43.10166" lon="-0.80743">
        <ele>320.16</ele>
        <time>2025-03-03T21:13:23Z</time>
      </trkpt>
      <trkpt lat="43.10166" lon="-0.80743">
        <ele>320.16</ele>
        <time>2025-03-03T21:13:23Z</time>
      </trkpt>
      <trkpt lat="43.10082" lon="-0.8081">
        <ele>308.92</ele>
        <time>2025-03-03T21:13:26Z</time>
      </trkpt>
      <trkpt lat="43.10065" lon="-0.80832">
        <ele>305.62</ele>
        <time>2025-03-03T21:13:30Z</time>
      </trkpt>
      <trkpt lat="43.10054" lon="-0.80859">
        <ele>301.51</ele>
        <time>2025-03-03T21:13:33Z</time>
      </trkpt>
      <trkpt lat="43.10051" lon="-0.80887">
        <ele>298.7</ele>
        <time>2025-03-03T21:13:37Z</time>
      </trkpt>
      <trkpt lat="43.10051" lon="-0.80909">
        <ele>297.02</ele>
        <time>2025-03-03T21:13:41Z</time>
      </trkpt>
      <trkpt lat="43.10057" lon="-0.80939">
        <ele>295.9</ele>
        <time>2025-03-03T21:13:44Z</time>
      </trkpt>
      <trkpt lat="43.1007" lon="-0.80971">
        <ele>293.41</ele>
        <time>2025-03-03T21:13:48Z</time>
      </trkpt>
      <trkpt lat="43.10111" lon="-0.81049">
        <ele>285.68</ele>
        <time>2025-03-03T21:13:51Z</time>
      </trkpt>
      <trkpt lat="43.10119" lon="-0.81072">
        <ele>283.92</ele>
        <time>2025-03-03T21:13:55Z</time>
      </trkpt>
      <trkpt lat="43.10138" lon="-0.81142">
        <ele>276.93</ele>
        <time>2025-03-03T21:13:59Z</time>
      </trkpt>
      <trkpt lat="43.10143" lon="-0.81174">
        <ele>274.5</ele>
        <time>2025-03-03T21:14:02Z</time>
      </trkpt>
      <trkpt lat="43.10144" lon="-0.81213">
        <ele>274.98</ele>
        <time>2025-03-03T21:14:06Z</time>
      </trkpt>
      <trkpt lat="43.1014" lon="-0.81269">
        <ele>279.17</ele>
        <time>2025-03-03T21:14:09Z</time>
      </trkpt>
      <trkpt lat="43.10131" lon="-0.81318">
        <ele>282.38</ele>
        <time>2025-03-03T21:14:13Z</time>
      </trkpt>
      <trkpt lat="43.10108" lon="-0.81415">
        <ele>290.16</ele>
        <time>2025-03-03T21:14:17Z</time>
      </trkpt>
      <trkpt lat="43.10096" lon="-0.81449">
        <ele>293.15</ele>
        <time>2025-03-03T21:14:20Z</time>
      </trkpt>
      <trkpt lat="43.10083" lon="-0.81473">
        <ele>293.97</ele>
        <time>2025-03-03T21:14:24Z</time>
      </trkpt>
      <trkpt lat="43.10068" lon="-0.81491">
        <ele>293.05</ele>
        <time>2025-03-03T21:14:27Z</time>
      </trkpt>
      <trkpt lat="43.10053" lon="-0.81505">
        <ele>291.82</ele>
        <time>2025-03-03T21:14:31Z</time>
      </trkpt>
      <trkpt lat="43.10029" lon="-0.8152">
        <ele>288.7</ele>
        <time>2025-03-03T21:14:35Z</time>
      </trkpt>
      <trkpt lat="43.09959" lon="-0.81548">
        <ele>275.78</ele>
        <time>2025-03-03T21:14:38Z</time>
      </trkpt>
      <trkpt lat="43.09946" lon="-0.81558">
        <ele>271.33</ele>
        <time>2025-03-03T21:14:42Z</time>
      </trkpt>
      <trkpt lat="43.09934" lon="-0.81572">
        <ele>269.31</ele>
        <time>2025-03-03T21:14:45Z</time>
      </trkpt>
      <trkpt lat="43.09868" lon="-0.81678">
        <ele>262.14</ele>
        <time>2025-03-03T21:14:49Z</time>
      </trkpt>
      <trkpt lat="43.09859" lon="-0.81694">
        <ele>261.9</ele>
        <time>2025-03-03T21:14:53Z</time>
      </trkpt>
      <trkpt lat="43.09839" lon="-0.81729">
        <ele>262.2</ele>
        <time>2025-03-03T21:14:56Z</time>
      </trkpt>
      <trkpt lat="43.09827" lon="-0.81765">
        <ele>263.22</ele>
        <time>2025-03-03T21:15:00Z</time>
      </trkpt>
      <trkpt lat="43.09796" lon="-0.81925">
        <ele>266.52</ele>
        <time>2025-03-03T21:15:03Z</time>
      </trkpt>
      <trkpt lat="43.09797" lon="-0.81951">
        <ele>267.46</ele>
        <time>2025-03-03T21:15:07Z</time>
      </trkpt>
      <trkpt lat="43.09857" lon="-0.82123">
        <ele>267.23</ele>
        <time>2025-03-03T21:15:11Z</time>
      </trkpt>
      <trkpt lat="43.09981" lon="-0.82466">
        <ele>263.04</ele>
        <time>2025-03-03T21:15:14Z</time>
      </trkpt>
      <trkpt lat="43.10015" lon="-0.82539">
        <ele>262.3</ele>
        <time>2025-03-03T21:15:18Z</time>
      </trkpt>
      <trkpt lat="43.10023" lon="-0.82569">
        <ele>263.95</ele>
        <time>2025-03-03T21:15:21Z</time>
      </trkpt>
      <trkpt lat="43.10028" lon="-0.82598">
        <ele>264.01</ele>
        <time>2025-03-03T21:15:25Z</time>
      </trkpt>
      <trkpt lat="43.10027" lon="-0.82638">
        <ele>263.07</ele>
        <time>2025-03-03T21:15:29Z</time>
      </trkpt>
      <trkpt lat="43.10021" lon="-0.82666">
        <ele>262.08</ele>
        <time>2025-03-03T21:15:32Z</time>
      </trkpt>
      <trkpt lat="43.09998" lon="-0.82724">
        <ele>260.29</ele>
        <time>2025-03-03T21:15:36Z</time>
      </trkpt>
      <trkpt lat="43.09988" lon="-0.82758">
        <ele>259.26</ele>
        <time>2025-03-03T21:15:39Z</time>
      </trkpt>
      <trkpt lat="43.09984" lon="-0.82801">
        <ele>256</ele>
        <time>2025-03-03T21:15:43Z</time>
      </trkpt>
      <trkpt lat="43.09995" lon="-0.82875">
        <ele>251.05</ele>
        <time>2025-03-03T21:15:47Z</time>
      </trkpt>
      <trkpt lat="43.10044" lon="-0.83139">
        <ele>252.26</ele>
        <time>2025-03-03T21:15:50Z</time>
      </trkpt>
      <trkpt lat="43.10053" lon="-0.83186">
        <ele>251.36</ele>
        <time>2025-03-03T21:15:54Z</time>
      </trkpt>
      <trkpt lat="43.10079" lon="-0.83401">
        <ele>253.61</ele>
        <time>2025-03-03T21:15:57Z</time>
      </trkpt>
      <trkpt lat="43.10128" lon="-0.83864">
        <ele>248.91</ele>
        <time>2025-03-03T21:16:01Z</time>
      </trkpt>
      <trkpt lat="43.10128" lon="-0.83905">
        <ele>251.42</ele>
        <time>2025-03-03T21:16:05Z</time>
      </trkpt>
      <trkpt lat="43.10124" lon="-0.83951">
        <ele>252.11</ele>
        <time>2025-03-03T21:16:08Z</time>
      </trkpt>
      <trkpt lat="43.10113" lon="-0.84006">
        <ele>249.57</ele>
        <time>2025-03-03T21:16:12Z</time>
      </trkpt>
      <trkpt lat="43.1011" lon="-0.84029">
        <ele>249.78</ele>
        <time>2025-03-03T21:16:15Z</time>
      </trkpt>
      <trkpt lat="43.10105" lon="-0.84095">
        <ele>246.54</ele>
        <time>2025-03-03T21:16:19Z</time>
      </trkpt>
      <trkpt lat="43.10113" lon="-0.84165">
        <ele>241.28</ele>
        <time>2025-03-03T21:16:23Z</time>
      </trkpt>
      <trkpt lat="43.10136" lon="-0.84289">
        <ele>240.65</ele>
        <time>2025-03-03T21:16:26Z</time>
      </trkpt>
      <trkpt lat="43.10138" lon="-0.84326">
        <ele>240.01</ele>
        <time>2025-03-03T21:16:30Z</time>
      </trkpt>
      <trkpt lat="43.10137" lon="-0.84389">
        <ele>240.14</ele>
        <time>2025-03-03T21:16:33Z</time>
      </trkpt>
      <trkpt lat="43.10137" lon="-0.84389">
        <ele>240.14</ele>
        <time>2025-03-03T21:16:33Z</time>
      </trkpt>
      <trkpt lat="43.10135" lon="-0.84521">
        <ele>240.27</ele>
        <time>2025-03-03T21:16:38Z</time>
      </trkpt>
      <trkpt lat="43.10138" lon="-0.84584">
        <ele>238.99</ele>
        <time>2025-03-03T21:16:43Z</time>
      </trkpt>
      <trkpt lat="43.10168" lon="-0.84834">
        <ele>240.06</ele>
        <time>2025-03-03T21:16:48Z</time>
      </trkpt>
      <trkpt lat="43.10188" lon="-0.84977">
        <ele>241.7</ele>
        <time>2025-03-03T21:16:52Z</time>
      </trkpt>
      <trkpt lat="43.10195" lon="-0.85022">
        <ele>241.35</ele>
        <time>2025-03-03T21:16:57Z</time>
      </trkpt>
      <trkpt lat="43.10205" lon="-0.85051">
        <ele>241.89</ele>
        <time>2025-03-03T21:17:02Z</time>
      </trkpt>
      <trkpt lat="43.10197" lon="-0.85061">
        <ele>241.17</ele>
        <time>2025-03-03T21:17:04Z</time>
      </trkpt>
      <trkpt lat="43.10188" lon="-0.85075">
        <ele>240.72</ele>
        <time>2025-03-03T21:17:06Z</time>
      </trkpt>
      <trkpt lat="43.10183" lon="-0.85091">
        <ele>240.38</ele>
        <time>2025-03-03T21:17:09Z</time>
      </trkpt>
      <trkpt lat="43.10164" lon="-0.85199">
        <ele>239.14</ele>
        <time>2025-03-03T21:17:11Z</time>
      </trkpt>
      <trkpt lat="43.10159" lon="-0.85213">
        <ele>239.47</ele>
        <time>2025-03-03T21:17:13Z</time>
      </trkpt>
      <trkpt lat="43.1015" lon="-0.85227">
        <ele>239.4</ele>
        <time>2025-03-03T21:17:16Z</time>
      </trkpt>
      <trkpt lat="43.1013" lon="-0.85246">
        <ele>239.05</ele>
        <time>2025-03-03T21:17:18Z</time>
      </trkpt>
      <trkpt lat="43.10117" lon="-0.85261">
        <ele>238.54</ele>
        <time>2025-03-03T21:17:20Z</time>
      </trkpt>
      <trkpt lat="43.10113" lon="-0.85271">
        <ele>238.21</ele>
        <time>2025-03-03T21:17:23Z</time>
      </trkpt>
      <trkpt lat="43.1011" lon="-0.85286">
        <ele>237.91</ele>
        <time>2025-03-03T21:17:25Z</time>
      </trkpt>
      <trkpt lat="43.1011" lon="-0.85312">
        <ele>237.47</ele>
        <time>2025-03-03T21:17:27Z</time>
      </trkpt>
      <trkpt lat="43.10117" lon="-0.85346">
        <ele>238.32</ele>
        <time>2025-03-03T21:17:30Z</time>
      </trkpt>
      <trkpt lat="43.10118" lon="-0.85366">
        <ele>239.74</ele>
        <time>2025-03-03T21:17:32Z</time>
      </trkpt>
      <trkpt lat="43.10119" lon="-0.85389">
        <ele>241.87</ele>
        <time>2025-03-03T21:17:34Z</time>
      </trkpt>
      <trkpt lat="43.1012" lon="-0.85421">
        <ele>244.14</ele>
        <time>2025-03-03T21:17:37Z</time>
      </trkpt>
      <trkpt lat="43.10109" lon="-0.85451">
        <ele>248.4</ele>
        <time>2025-03-03T21:17:39Z</time>
      </trkpt>
      <trkpt lat="43.10109" lon="-0.85457">
        <ele>248.61</ele>
        <time>2025-03-03T21:17:41Z</time>
      </trkpt>
      <trkpt lat="43.10113" lon="-0.85466">
        <ele>248.5</ele>
        <time>2025-03-03T21:17:44Z</time>
      </trkpt>
      <trkpt lat="43.10125" lon="-0.85483">
        <ele>247.24</ele>
        <time>2025-03-03T21:17:46Z</time>
      </trkpt>
      <trkpt lat="43.10127" lon="-0.85493">
        <ele>246.98</ele>
        <time>2025-03-03T21:17:48Z</time>
      </trkpt>
      <trkpt lat="43.10128" lon="-0.85503">
        <ele>247.05</ele>
        <time>2025-03-03T21:17:50Z</time>
      </trkpt>
      <trkpt lat="43.10116" lon="-0.85557">
        <ele>250.33</ele>
        <time>2025-03-03T21:17:53Z</time>
      </trkpt>
      <trkpt lat="43.10099" lon="-0.85623">
        <ele>258.75</ele>
        <time>2025-03-03T21:17:55Z</time>
      </trkpt>
      <trkpt lat="43.10088" lon="-0.85661">
        <ele>261.18</ele>
        <time>2025-03-03T21:17:57Z</time>
      </trkpt>
      <trkpt lat="43.10076" lon="-0.85687">
        <ele>261.62</ele>
        <time>2025-03-03T21:18:00Z</time>
      </trkpt>
      <trkpt lat="43.10049" lon="-0.8573">
        <ele>262.28</ele>
        <time>2025-03-03T21:18:02Z</time>
      </trkpt>
      <trkpt lat="43.10039" lon="-0.85749">
        <ele>263.05</ele>
        <time>2025-03-03T21:18:04Z</time>
      </trkpt>
      <trkpt lat="43.1002" lon="-0.85802">
        <ele>263.99</ele>
        <time>2025-03-03T21:18:07Z</time>
      </trkpt>
      <trkpt lat="43.10011" lon="-0.8582">
        <ele>265.53</ele>
        <time>2025-03-03T21:18:09Z</time>
      </trkpt>
      <trkpt lat="43.09948" lon="-0.85913">
        <ele>270.98</ele>
        <time>2025-03-03T21:18:11Z</time>
      </trkpt>
      <trkpt lat="43.09922" lon="-0.85949">
        <ele>269.87</ele>
        <time>2025-03-03T21:18:14Z</time>
      </trkpt>
      <trkpt lat="43.0989" lon="-0.85962">
        <ele>268.71</ele>
        <time>2025-03-03T21:18:16Z</time>
      </trkpt>
      <trkpt lat="43.09859" lon="-0.85972">
        <ele>265.91</ele>
        <time>2025-03-03T21:18:18Z</time>
      </trkpt>
      <trkpt lat="43.09806" lon="-0.85957">
        <ele>262.14</ele>
        <time>2025-03-03T21:18:21Z</time>
      </trkpt>
      <trkpt lat="43.09798" lon="-0.85956">
        <ele>260.91</ele>
        <time>2025-03-03T21:18:23Z</time>
      </trkpt>
      <trkpt lat="43.09783" lon="-0.85958">
        <ele>258.39</ele>
        <time>2025-03-03T21:18:25Z</time>
      </trkpt>
      <trkpt lat="43.09768" lon="-0.85965">
        <ele>255.96</ele>
        <time>2025-03-03T21:18:28Z</time>
      </trkpt>
      <trkpt lat="43.09757" lon="-0.85976">
        <ele>254.29</ele>
        <time>2025-03-03T21:18:30Z</time>
      </trkpt>
      <trkpt lat="43.09751" lon="-0.85986">
        <ele>253.12</ele>
        <time>2025-03-03T21:18:32Z</time>
      </trkpt>
      <trkpt lat="43.0972" lon="-0.86064">
        <ele>248.87</ele>
        <time>2025-03-03T21:18:35Z</time>
      </trkpt>
      <trkpt lat="43.09716" lon="-0.86084">
        <ele>248.54</ele>
        <time>2025-03-03T21:18:37Z</time>
      </trkpt>
      <trkpt lat="43.09712" lon="-0.86118">
        <ele>249.74</ele>
        <time>2025-03-03T21:18:39Z</time>
      </trkpt>
      <trkpt lat="43.09716" lon="-0.86197">
        <ele>243.4</ele>
        <time>2025-03-03T21:18:42Z</time>
      </trkpt>
      <trkpt lat="43.09723" lon="-0.86221">
        <ele>242.1</ele>
        <time>2025-03-03T21:18:44Z</time>
      </trkpt>
      <trkpt lat="43.09737" lon="-0.86266">
        <ele>240.43</ele>
        <time>2025-03-03T21:18:46Z</time>
      </trkpt>
      <trkpt lat="43.0972" lon="-0.86277">
        <ele>239.94</ele>
        <time>2025-03-03T21:18:49Z</time>
      </trkpt>
      <trkpt lat="43.09708" lon="-0.86289">
        <ele>239.66</ele>
        <time>2025-03-03T21:18:52Z</time>
      </trkpt>
      <trkpt lat="43.09685" lon="-0.86316">
        <ele>239.43</ele>
        <time>2025-03-03T21:18:55Z</time>
      </trkpt>
      <trkpt lat="43.09663" lon="-0.86357">
        <ele>240.36</ele>
        <time>2025-03-03T21:18:58Z</time>
      </trkpt>
      <trkpt lat="43.09573" lon="-0.86541">
        <ele>237.63</ele>
        <time>2025-03-03T21:19:01Z</time>
      </trkpt>
      <trkpt lat="43.09556" lon="-0.86573">
        <ele>237.01</ele>
        <time>2025-03-03T21:19:04Z</time>
      </trkpt>
      <trkpt lat="43.09539" lon="-0.86599">
        <ele>236.41</ele>
        <time>2025-03-03T21:19:07Z</time>
      </trkpt>
      <trkpt lat="43.09522" lon="-0.86621">
        <ele>236</ele>
        <time>2025-03-03T21:19:10Z</time>
      </trkpt>
      <trkpt lat="43.09487" lon="-0.86654">
        <ele>235.84</ele>
        <time>2025-03-03T21:19:13Z</time>
      </trkpt>
      <trkpt lat="43.09453" lon="-0.86677">
        <ele>235.04</ele>
        <time>2025-03-03T21:19:16Z</time>
      </trkpt>
      <trkpt lat="43.09257" lon="-0.86792">
        <ele>241.78</ele>
        <time>2025-03-03T21:19:19Z</time>
      </trkpt>
      <trkpt lat="43.0917" lon="-0.8685">
        <ele>242.06</ele>
        <time>2025-03-03T21:19:22Z</time>
      </trkpt>
      <trkpt lat="43.08996" lon="-0.86973">
        <ele>250.73</ele>
        <time>2025-03-03T21:19:25Z</time>
      </trkpt>
      <trkpt lat="43.08936" lon="-0.87009">
        <ele>258.38</ele>
        <time>2025-03-03T21:19:28Z</time>
      </trkpt>
      <trkpt lat="43.08878" lon="-0.8704">
        <ele>259.54</ele>
        <time>2025-03-03T21:19:31Z</time>
      </trkpt>
      <trkpt lat="43.0874" lon="-0.87093">
        <ele>259.36</ele>
        <time>2025-03-03T21:19:34Z</time>
      </trkpt>
      <trkpt lat="43.08644" lon="-0.87136">
        <ele>253.04</ele>
        <time>2025-03-03T21:19:37Z</time>
      </trkpt>
      <trkpt lat="43.0862" lon="-0.87144">
        <ele>252.4</ele>
        <time>2025-03-03T21:19:40Z</time>
      </trkpt>
      <trkpt lat="43.08581" lon="-0.87151">
        <ele>252.18</ele>
        <time>2025-03-03T21:19:43Z</time>
      </trkpt>
      <trkpt lat="43.08529" lon="-0.87151">
        <ele>248.74</ele>
        <time>2025-03-03T21:19:46Z</time>
      </trkpt>
      <trkpt lat="43.08492" lon="-0.87154">
        <ele>251.68</ele>
        <time>2025-03-03T21:19:49Z</time>
      </trkpt>
      <trkpt lat="43.08435" lon="-0.87161">
        <ele>249.65</ele>
        <time>2025-03-03T21:19:52Z</time>
      </trkpt>
      <trkpt lat="43.08377" lon="-0.87161">
        <ele>252.57</ele>
        <time>2025-03-03T21:19:55Z</time>
      </trkpt>
      <trkpt lat="43.08311" lon="-0.87172">
        <ele>248.97</ele>
        <time>2025-03-03T21:19:58Z</time>
      </trkpt>
      <trkpt lat="43.08292" lon="-0.87172">
        <ele>247.82</ele>
        <time>2025-03-03T21:20:01Z</time>
      </trkpt>
      <trkpt lat="43.0828" lon="-0.87171">
        <ele>247.03</ele>
        <time>2025-03-03T21:20:04Z</time>
      </trkpt>
      <trkpt lat="43.08237" lon="-0.87158">
        <ele>245.7</ele>
        <time>2025-03-03T21:20:07Z</time>
      </trkpt>
      <trkpt lat="43.08113" lon="-0.87145">
        <ele>251.44</ele>
        <time>2025-03-03T21:20:10Z</time>
      </trkpt>
      <trkpt lat="43.08078" lon="-0.87148">
        <ele>254.46</ele>
        <time>2025-03-03T21:20:13Z</time>
      </trkpt>
      <trkpt lat="43.08056" lon="-0.87145">
        <ele>254.99</ele>
        <time>2025-03-03T21:20:16Z</time>
      </trkpt>
      <trkpt lat="43.07994" lon="-0.87112">
        <ele>259.56</ele>
        <time>2025-03-03T21:20:19Z</time>
      </trkpt>
      <trkpt lat="43.07979" lon="-0.87107">
        <ele>263.24</ele>
        <time>2025-03-03T21:20:22Z</time>
      </trkpt>
      <trkpt lat="43.07912" lon="-0.87112">
        <ele>253.33</ele>
        <time>2025-03-03T21:20:25Z</time>
      </trkpt>
      <trkpt lat="43.07898" lon="-0.8711">
        <ele>252.18</ele>
        <time>2025-03-03T21:20:28Z</time>
      </trkpt>
      <trkpt lat="43.07838" lon="-0.87092">
        <ele>253.12</ele>
        <time>2025-03-03T21:20:31Z</time>
      </trkpt>
      <trkpt lat="43.07827" lon="-0.8709">
        <ele>252.74</ele>
        <time>2025-03-03T21:20:34Z</time>
      </trkpt>
      <trkpt lat="43.07815" lon="-0.87094">
        <ele>252.18</ele>
        <time>2025-03-03T21:20:37Z</time>
      </trkpt>
      <trkpt lat="43.07808" lon="-0.87098">
        <ele>251.99</ele>
        <time>2025-03-03T21:20:40Z</time>
      </trkpt>
      <trkpt lat="43.07798" lon="-0.8711">
        <ele>252.56</ele>
        <time>2025-03-03T21:20:43Z</time>
      </trkpt>
      <trkpt lat="43.07785" lon="-0.87129">
        <ele>253.02</ele>
        <time>2025-03-03T21:20:46Z</time>
      </trkpt>
      <trkpt lat="43.07749" lon="-0.87198">
        <ele>257.76</ele>
        <time>2025-03-03T21:20:49Z</time>
      </trkpt>
      <trkpt lat="43.07742" lon="-0.87208">
        <ele>258.01</ele>
        <time>2025-03-03T21:20:52Z</time>
      </trkpt>
      <trkpt lat="43.07717" lon="-0.87231">
        <ele>259.01</ele>
        <time>2025-03-03T21:20:55Z</time>
      </trkpt>
      <trkpt lat="43.07678" lon="-0.87258">
        <ele>266.23</ele>
        <time>2025-03-03T21:20:58Z</time>
      </trkpt>
      <trkpt lat="43.0766" lon="-0.87274">
        <ele>269.16</ele>
        <time>2025-03-03T21:21:01Z</time>
      </trkpt>
      <trkpt lat="43.07589" lon="-0.8736">
        <ele>262.14</ele>
        <time>2025-03-03T21:21:04Z</time>
      </trkpt>
      <trkpt lat="43.07514" lon="-0.87435">
        <ele>261.58</ele>
        <time>2025-03-03T21:21:07Z</time>
      </trkpt>
      <trkpt lat="43.07496" lon="-0.87464">
        <ele>259.79</ele>
        <time>2025-03-03T21:21:10Z</time>
      </trkpt>
      <trkpt lat="43.07479" lon="-0.87486">
        <ele>258.76</ele>
        <time>2025-03-03T21:21:13Z</time>
      </trkpt>
      <trkpt lat="43.07471" lon="-0.87493">
        <ele>258.34</ele>
        <time>2025-03-03T21:21:16Z</time>
      </trkpt>
      <trkpt lat="43.07459" lon="-0.875">
        <ele>258.49</ele>
        <time>2025-03-03T21:21:19Z</time>
      </trkpt>
      <trkpt lat="43.07422" lon="-0.87508">
        <ele>260.76</ele>
        <time>2025-03-03T21:21:22Z</time>
      </trkpt>
      <trkpt lat="43.07347" lon="-0.87543">
        <ele>261.7</ele>
        <time>2025-03-03T21:21:25Z</time>
      </trkpt>
      <trkpt lat="43.07313" lon="-0.8758">
        <ele>261.2</ele>
        <time>2025-03-03T21:21:28Z</time>
      </trkpt>
      <trkpt lat="43.07301" lon="-0.8759">
        <ele>260.66</ele>
        <time>2025-03-03T21:21:31Z</time>
      </trkpt>
      <trkpt lat="43.07256" lon="-0.8761">
        <ele>263.02</ele>
        <time>2025-03-03T21:21:34Z</time>
      </trkpt>
      <trkpt lat="43.07227" lon="-0.87619">
        <ele>263.21</ele>
        <time>2025-03-03T21:21:37Z</time>
      </trkpt>
      <trkpt lat="43.07187" lon="-0.87622">
        <ele>263.23</ele>
        <time>2025-03-03T21:21:40Z</time>
      </trkpt>
      <trkpt lat="43.07169" lon="-0.8762">
        <ele>262.88</ele>
        <time>2025-03-03T21:21:43Z</time>
      </trkpt>
      <trkpt lat="43.07155" lon="-0.87616">
        <ele>261.42</ele>
        <time>2025-03-03T21:21:46Z</time>
      </trkpt>
      <trkpt lat="43.07144" lon="-0.8761">
        <ele>260.28</ele>
        <time>2025-03-03T21:21:49Z</time>
      </trkpt>
      <trkpt lat="43.07131" lon="-0.87595">
        <ele>260.94</ele>
        <time>2025-03-03T21:21:52Z</time>
      </trkpt>
      <trkpt lat="43.07106" lon="-0.87561">
        <ele>263.74</ele>
        <time>2025-03-03T21:21:55Z</time>
      </trkpt>
      <trkpt lat="43.07081" lon="-0.87543">
        <ele>261.14</ele>
        <time>2025-03-03T21:21:58Z</time>
      </trkpt>
      <trkpt lat="43.07056" lon="-0.87534">
        <ele>259.57</ele>
        <time>2025-03-03T21:22:01Z</time>
      </trkpt>
      <trkpt lat="43.07041" lon="-0.87532">
        <ele>261.02</ele>
        <time>2025-03-03T21:22:04Z</time>
      </trkpt>
      <trkpt lat="43.07027" lon="-0.87533">
        <ele>262.27</ele>
        <time>2025-03-03T21:22:07Z</time>
      </trkpt>
      <trkpt lat="43.07008" lon="-0.87539">
        <ele>262.55</ele>
        <time>2025-03-03T21:22:10Z</time>
      </trkpt>
      <trkpt lat="43.06986" lon="-0.8755">
        <ele>261.56</ele>
        <time>2025-03-03T21:22:13Z</time>
      </trkpt>
      <trkpt lat="43.06921" lon="-0.87598">
        <ele>260.27</ele>
        <time>2025-03-03T21:22:16Z</time>
      </trkpt>
      <trkpt lat="43.06908" lon="-0.87607">
        <ele>260.35</ele>
        <time>2025-03-03T21:22:19Z</time>
      </trkpt>
      <trkpt lat="43.06883" lon="-0.87619">
        <ele>261.78</ele>
        <time>2025-03-03T21:22:22Z</time>
      </trkpt>
      <trkpt lat="43.06832" lon="-0.87632">
        <ele>264.11</ele>
        <time>2025-03-03T21:22:25Z</time>
      </trkpt>
      <trkpt lat="43.06801" lon="-0.87636">
        <ele>264.22</ele>
        <time>2025-03-03T21:22:28Z</time>
      </trkpt>
      <trkpt lat="43.0674" lon="-0.87657">
        <ele>262.07</ele>
        <time>2025-03-03T21:22:31Z</time>
      </trkpt>
      <trkpt lat="43.06724" lon="-0.87659">
        <ele>262.78</ele>
        <time>2025-03-03T21:22:34Z</time>
      </trkpt>
      <trkpt lat="43.06706" lon="-0.87658">
        <ele>263.96</ele>
        <time>2025-03-03T21:22:37Z</time>
      </trkpt>
      <trkpt lat="43.06652" lon="-0.87639">
        <ele>267.98</ele>
        <time>2025-03-03T21:22:40Z</time>
      </trkpt>
      <trkpt lat="43.06609" lon="-0.87615">
        <ele>269.92</ele>
        <time>2025-03-03T21:22:43Z</time>
      </trkpt>
      <trkpt lat="43.06591" lon="-0.87612">
        <ele>273.46</ele>
        <time>2025-03-03T21:22:46Z</time>
      </trkpt>
      <trkpt lat="43.06514" lon="-0.87609">
        <ele>290.42</ele>
        <time>2025-03-03T21:22:49Z</time>
      </trkpt>
      <trkpt lat="43.06488" lon="-0.87616">
        <ele>291.59</ele>
        <time>2025-03-03T21:22:52Z</time>
      </trkpt>
      <trkpt lat="43.06432" lon="-0.87659">
        <ele>283.59</ele>
        <time>2025-03-03T21:22:55Z</time>
      </trkpt>
      <trkpt lat="43.06414" lon="-0.87668">
        <ele>281.47</ele>
        <time>2025-03-03T21:22:58Z</time>
      </trkpt>
      <trkpt lat="43.06405" lon="-0.87668">
        <ele>280.16</ele>
        <time>2025-03-03T21:23:01Z</time>
      </trkpt>
      <trkpt lat="43.06393" lon="-0.87661">
        <ele>279.28</ele>
        <time>2025-03-03T21:23:04Z</time>
      </trkpt>
      <trkpt lat="43.06367" lon="-0.87624">
        <ele>279.6</ele>
        <time>2025-03-03T21:23:07Z</time>
      </trkpt>
      <trkpt lat="43.06362" lon="-0.87619">
        <ele>279.32</ele>
        <time>2025-03-03T21:23:10Z</time>
      </trkpt>
      <trkpt lat="43.06349" lon="-0.87615">
        <ele>279.35</ele>
        <time>2025-03-03T21:23:13Z</time>
      </trkpt>
      <trkpt lat="43.06338" lon="-0.87616">
        <ele>279.07</ele>
        <time>2025-03-03T21:23:16Z</time>
      </trkpt>
      <trkpt lat="43.06331" lon="-0.87619">
        <ele>279.64</ele>
        <time>2025-03-03T21:23:19Z</time>
      </trkpt>
      <trkpt lat="43.06321" lon="-0.87631">
        <ele>282.48</ele>
        <time>2025-03-03T21:23:22Z</time>
      </trkpt>
      <trkpt lat="43.06316" lon="-0.87643">
        <ele>283.11</ele>
        <time>2025-03-03T21:23:25Z</time>
      </trkpt>
      <trkpt lat="43.06311" lon="-0.87667">
        <ele>283.28</ele>
        <time>2025-03-03T21:23:28Z</time>
      </trkpt>
      <trkpt lat="43.06304" lon="-0.87684">
        <ele>282.74</ele>
        <time>2025-03-03T21:23:31Z</time>
      </trkpt>
      <trkpt lat="43.0627" lon="-0.87717">
        <ele>288.88</ele>
        <time>2025-03-03T21:23:34Z</time>
      </trkpt>
      <trkpt lat="43.06255" lon="-0.87727">
        <ele>288.77</ele>
        <time>2025-03-03T21:23:37Z</time>
      </trkpt>
      <trkpt lat="43.06225" lon="-0.87741">
        <ele>288.42</ele>
        <time>2025-03-03T21:23:40Z</time>
      </trkpt>
      <trkpt lat="43.0621" lon="-0.87744">
        <ele>287.71</ele>
        <time>2025-03-03T21:23:43Z</time>
      </trkpt>
      <trkpt lat="43.06166" lon="-0.87746">
        <ele>289.69</ele>
        <time>2025-03-03T21:23:46Z</time>
      </trkpt>
      <trkpt lat="43.06136" lon="-0.87743">
        <ele>287.99</ele>
        <time>2025-03-03T21:23:49Z</time>
      </trkpt>
      <trkpt lat="43.06125" lon="-0.87738">
        <ele>288.75</ele>
        <time>2025-03-03T21:23:52Z</time>
      </trkpt>
      <trkpt lat="43.06084" lon="-0.87712">
        <ele>286.29</ele>
        <time>2025-03-03T21:23:55Z</time>
      </trkpt>
      <trkpt lat="43.06053" lon="-0.87686">
        <ele>288.45</ele>
        <time>2025-03-03T21:23:58Z</time>
      </trkpt>
      <trkpt lat="43.06031" lon="-0.87673">
        <ele>289.73</ele>
        <time>2025-03-03T21:24:01Z</time>
      </trkpt>
      <trkpt lat="43.05975" lon="-0.87659">
        <ele>284.28</ele>
        <time>2025-03-03T21:24:04Z</time>
      </trkpt>
      <trkpt lat="43.0596" lon="-0.87662">
        <ele>284.48</ele>
        <time>2025-03-03T21:24:07Z</time>
      </trkpt>
      <trkpt lat="43.05935" lon="-0.87681">
        <ele>283.91</ele>
        <time>2025-03-03T21:24:10Z</time>
      </trkpt>
      <trkpt lat="43.05853" lon="-0.87766">
        <ele>283.2</ele>
        <time>2025-03-03T21:24:13Z</time>
      </trkpt>
      <trkpt lat="43.05802" lon="-0.87822">
        <ele>288.83</ele>
        <time>2025-03-03T21:24:16Z</time>
      </trkpt>
      <trkpt lat="43.05786" lon="-0.87828">
        <ele>289.82</ele>
        <time>2025-03-03T21:24:19Z</time>
      </trkpt>
      <trkpt lat="43.05738" lon="-0.87836">
        <ele>293.71</ele>
        <time>2025-03-03T21:24:22Z</time>
      </trkpt>
      <trkpt lat="43.05712" lon="-0.87849">
        <ele>300.07</ele>
        <time>2025-03-03T21:24:25Z</time>
      </trkpt>
      <trkpt lat="43.05694" lon="-0.87867">
        <ele>300.64</ele>
        <time>2025-03-03T21:24:28Z</time>
      </trkpt>
      <trkpt lat="43.0566" lon="-0.8791">
        <ele>301.8</ele>
        <time>2025-03-03T21:24:31Z</time>
      </trkpt>
      <trkpt lat="43.05626" lon="-0.87962">
        <ele>301.37</ele>
        <time>2025-03-03T21:24:34Z</time>
      </trkpt>
      <trkpt lat="43.05593" lon="-0.88042">
        <ele>292.64</ele>
        <time>2025-03-03T21:24:37Z</time>
      </trkpt>
      <trkpt lat="43.05579" lon="-0.88063">
        <ele>291.23</ele>
        <time>2025-03-03T21:24:40Z</time>
      </trkpt>
      <trkpt lat="43.05543" lon="-0.88094">
        <ele>288.94</ele>
        <time>2025-03-03T21:24:43Z</time>
      </trkpt>
      <trkpt lat="43.0553" lon="-0.881">
        <ele>289.57</ele>
        <time>2025-03-03T21:24:46Z</time>
      </trkpt>
      <trkpt lat="43.05514" lon="-0.88104">
        <ele>292.47</ele>
        <time>2025-03-03T21:24:49Z</time>
      </trkpt>
      <trkpt lat="43.05473" lon="-0.88103">
        <ele>306.1</ele>
        <time>2025-03-03T21:24:52Z</time>
      </trkpt>
      <trkpt lat="43.05449" lon="-0.88098">
        <ele>306.21</ele>
        <time>2025-03-03T21:24:55Z</time>
      </trkpt>
      <trkpt lat="43.0543" lon="-0.88098">
        <ele>304.74</ele>
        <time>2025-03-03T21:24:58Z</time>
      </trkpt>
      <trkpt lat="43.05398" lon="-0.88104">
        <ele>300.04</ele>
        <time>2025-03-03T21:25:01Z</time>
      </trkpt>
      <trkpt lat="43.0538" lon="-0.88102">
        <ele>300.55</ele>
        <time>2025-03-03T21:25:04Z</time>
      </trkpt>
      <trkpt lat="43.0538" lon="-0.88102">
        <ele>300.55</ele>
        <time>2025-03-03T21:25:04Z</time>
      </trkpt>
      <trkpt lat="43.05356" lon="-0.881">
        <ele>301.06</ele>
        <time>2025-03-03T21:25:06Z</time>
      </trkpt>
      <trkpt lat="43.05321" lon="-0.88102">
        <ele>299.71</ele>
        <time>2025-03-03T21:25:09Z</time>
      </trkpt>
      <trkpt lat="43.05289" lon="-0.88111">
        <ele>300.01</ele>
        <time>2025-03-03T21:25:11Z</time>
      </trkpt>
      <trkpt lat="43.05194" lon="-0.88155">
        <ele>293.27</ele>
        <time>2025-03-03T21:25:13Z</time>
      </trkpt>
      <trkpt lat="43.05159" lon="-0.88158">
        <ele>296.97</ele>
        <time>2025-03-03T21:25:15Z</time>
      </trkpt>
      <trkpt lat="43.05128" lon="-0.88163">
        <ele>298.9</ele>
        <time>2025-03-03T21:25:17Z</time>
      </trkpt>
      <trkpt lat="43.05072" lon="-0.8818">
        <ele>312.14</ele>
        <time>2025-03-03T21:25:19Z</time>
      </trkpt>
      <trkpt lat="43.05056" lon="-0.88188">
        <ele>313.89</ele>
        <time>2025-03-03T21:25:22Z</time>
      </trkpt>
      <trkpt lat="43.0504" lon="-0.88204">
        <ele>315.57</ele>
        <time>2025-03-03T21:25:24Z</time>
      </trkpt>
      <trkpt lat="43.05025" lon="-0.88234">
        <ele>312.83</ele>
        <time>2025-03-03T21:25:26Z</time>
      </trkpt>
      <trkpt lat="43.05022" lon="-0.88242">
        <ele>312.18</ele>
        <time>2025-03-03T21:25:28Z</time>
      </trkpt>
      <trkpt lat="43.05022" lon="-0.88248">
        <ele>310.68</ele>
        <time>2025-03-03T21:25:30Z</time>
      </trkpt>
      <trkpt lat="43.05019" lon="-0.88255">
        <ele>310.2</ele>
        <time>2025-03-03T21:25:31Z</time>
      </trkpt>
      <trkpt lat="43.04994" lon="-0.88319">
        <ele>298.26</ele>
        <time>2025-03-03T21:25:33Z</time>
      </trkpt>
      <trkpt lat="43.04977" lon="-0.88392">
        <ele>290.34</ele>
        <time>2025-03-03T21:25:35Z</time>
      </trkpt>
      <trkpt lat="43.04964" lon="-0.88431">
        <ele>292.95</ele>
        <time>2025-03-03T21:25:37Z</time>
      </trkpt>
      <trkpt lat="43.0495" lon="-0.88455">
        <ele>292.16</ele>
        <time>2025-03-03T21:25:38Z</time>
      </trkpt>
      <trkpt lat="43.04915" lon="-0.88481">
        <ele>292</ele>
        <time>2025-03-03T21:25:40Z</time>
      </trkpt>
      <trkpt lat="43.04909" lon="-0.8849">
        <ele>290.31</ele>
        <time>2025-03-03T21:25:42Z</time>
      </trkpt>
      <trkpt lat="43.04908" lon="-0.88503">
        <ele>287.24</ele>
        <time>2025-03-03T21:25:44Z</time>
      </trkpt>
      <trkpt lat="43.04907" lon="-0.88549">
        <ele>284.35</ele>
        <time>2025-03-03T21:25:45Z</time>
      </trkpt>
      <trkpt lat="43.04901" lon="-0.88567">
        <ele>286.52</ele>
        <time>2025-03-03T21:25:47Z</time>
      </trkpt>
      <trkpt lat="43.04896" lon="-0.88572">
        <ele>287.47</ele>
        <time>2025-03-03T21:25:49Z</time>
      </trkpt>
      <trkpt lat="43.04884" lon="-0.8858">
        <ele>288.82</ele>
        <time>2025-03-03T21:25:51Z</time>
      </trkpt>
      <trkpt lat="43.04837" lon="-0.88603">
        <ele>288.52</ele>
        <time>2025-03-03T21:25:52Z</time>
      </trkpt>
      <trkpt lat="43.04811" lon="-0.88617">
        <ele>286.33</ele>
        <time>2025-03-03T21:25:54Z</time>
      </trkpt>
      <trkpt lat="43.04805" lon="-0.88629">
        <ele>286.31</ele>
        <time>2025-03-03T21:25:56Z</time>
      </trkpt>
      <trkpt lat="43.04804" lon="-0.88642">
        <ele>287.22</ele>
        <time>2025-03-03T21:25:58Z</time>
      </trkpt>
      <trkpt lat="43.04807" lon="-0.88682">
        <ele>293.02</ele>
        <time>2025-03-03T21:25:59Z</time>
      </trkpt>
      <trkpt lat="43.04805" lon="-0.88699">
        <ele>294.49</ele>
        <time>2025-03-03T21:26:01Z</time>
      </trkpt>
      <trkpt lat="43.04799" lon="-0.88716">
        <ele>294.59</ele>
        <time>2025-03-03T21:26:03Z</time>
      </trkpt>
      <trkpt lat="43.04768" lon="-0.88771">
        <ele>297.5</ele>
        <time>2025-03-03T21:26:05Z</time>
      </trkpt>
      <trkpt lat="43.04751" lon="-0.88811">
        <ele>296.39</ele>
        <time>2025-03-03T21:26:07Z</time>
      </trkpt>
      <trkpt lat="43.04731" lon="-0.88866">
        <ele>302.03</ele>
        <time>2025-03-03T21:26:08Z</time>
      </trkpt>
      <trkpt lat="43.04701" lon="-0.88936">
        <ele>318.01</ele>
        <time>2025-03-03T21:26:10Z</time>
      </trkpt>
      <trkpt lat="43.04686" lon="-0.88952">
        <ele>320.59</ele>
        <time>2025-03-03T21:26:12Z</time>
      </trkpt>
      <trkpt lat="43.0467" lon="-0.88964">
        <ele>322.6</ele>
        <time>2025-03-03T21:26:14Z</time>
      </trkpt>
      <trkpt lat="43.04516" lon="-0.88997">
        <ele>304.85</ele>
        <time>2025-03-03T21:26:15Z</time>
      </trkpt>
      <trkpt lat="43.04496" lon="-0.8901">
        <ele>304.54</ele>
        <time>2025-03-03T21:26:17Z</time>
      </trkpt>
      <trkpt lat="43.04482" lon="-0.89022">
        <ele>305.12</ele>
        <time>2025-03-03T21:26:19Z</time>
      </trkpt>
      <trkpt lat="43.04473" lon="-0.89043">
        <ele>304.05</ele>
        <time>2025-03-03T21:26:21Z</time>
      </trkpt>
      <trkpt lat="43.04466" lon="-0.89067">
        <ele>305.83</ele>
        <time>2025-03-03T21:26:22Z</time>
      </trkpt>
      <trkpt lat="43.04462" lon="-0.89108">
        <ele>306.33</ele>
        <time>2025-03-03T21:26:24Z</time>
      </trkpt>
      <trkpt lat="43.04453" lon="-0.89243">
        <ele>308.48</ele>
        <time>2025-03-03T21:26:26Z</time>
      </trkpt>
      <trkpt lat="43.0445" lon="-0.89279">
        <ele>314.12</ele>
        <time>2025-03-03T21:26:28Z</time>
      </trkpt>
      <trkpt lat="43.04443" lon="-0.89301">
        <ele>321.04</ele>
        <time>2025-03-03T21:26:29Z</time>
      </trkpt>
      <trkpt lat="43.04432" lon="-0.8932">
        <ele>322.22</ele>
        <time>2025-03-03T21:26:31Z</time>
      </trkpt>
      <trkpt lat="43.04423" lon="-0.89332">
        <ele>320.53</ele>
        <time>2025-03-03T21:26:33Z</time>
      </trkpt>
      <trkpt lat="43.04408" lon="-0.89345">
        <ele>315.39</ele>
        <time>2025-03-03T21:26:35Z</time>
      </trkpt>
      <trkpt lat="43.04394" lon="-0.89353">
        <ele>308.42</ele>
        <time>2025-03-03T21:26:36Z</time>
      </trkpt>
      <trkpt lat="43.04342" lon="-0.89365">
        <ele>299.96</ele>
        <time>2025-03-03T21:26:38Z</time>
      </trkpt>
      <trkpt lat="43.04327" lon="-0.89377">
        <ele>301.78</ele>
        <time>2025-03-03T21:26:40Z</time>
      </trkpt>
      <trkpt lat="43.04307" lon="-0.89403">
        <ele>308.06</ele>
        <time>2025-03-03T21:26:42Z</time>
      </trkpt>
      <trkpt lat="43.04241" lon="-0.89524">
        <ele>324.97</ele>
        <time>2025-03-03T21:26:43Z</time>
      </trkpt>
      <trkpt lat="43.04193" lon="-0.89605">
        <ele>316.16</ele>
        <time>2025-03-03T21:26:45Z</time>
      </trkpt>
      <trkpt lat="43.04154" lon="-0.89696">
        <ele>325.02</ele>
        <time>2025-03-03T21:26:47Z</time>
      </trkpt>
      <trkpt lat="43.04131" lon="-0.89737">
        <ele>326.33</ele>
        <time>2025-03-03T21:26:49Z</time>
      </trkpt>
      <trkpt lat="43.04115" lon="-0.89758">
        <ele>323.07</ele>
        <time>2025-03-03T21:26:51Z</time>
      </trkpt>
      <trkpt lat="43.04074" lon="-0.89788">
        <ele>317.63</ele>
        <time>2025-03-03T21:26:52Z</time>
      </trkpt>
      <trkpt lat="43.04064" lon="-0.89803">
        <ele>318.46</ele>
        <time>2025-03-03T21:26:54Z</time>
      </trkpt>
      <trkpt lat="43.04042" lon="-0.8985">
        <ele>329.58</ele>
        <time>2025-03-03T21:26:56Z</time>
      </trkpt>
      <trkpt lat="43.04034" lon="-0.89859">
        <ele>331.86</ele>
        <time>2025-03-03T21:26:58Z</time>
      </trkpt>
      <trkpt lat="43.04007" lon="-0.89879">
        <ele>331.26</ele>
        <time>2025-03-03T21:26:59Z</time>
      </trkpt>
      <trkpt lat="43.03991" lon="-0.89888">
        <ele>329.29</ele>
        <time>2025-03-03T21:27:01Z</time>
      </trkpt>
      <trkpt lat="43.03973" lon="-0.89893">
        <ele>323.7</ele>
        <time>2025-03-03T21:27:03Z</time>
      </trkpt>
      <trkpt lat="43.03941" lon="-0.89885">
        <ele>320.52</ele>
        <time>2025-03-03T21:27:05Z</time>
      </trkpt>
      <trkpt lat="43.03928" lon="-0.89885">
        <ele>318.84</ele>
        <time>2025-03-03T21:27:06Z</time>
      </trkpt>
      <trkpt lat="43.03915" lon="-0.89892">
        <ele>318.32</ele>
        <time>2025-03-03T21:27:08Z</time>
      </trkpt>
      <trkpt lat="43.03902" lon="-0.89904">
        <ele>318.02</ele>
        <time>2025-03-03T21:27:10Z</time>
      </trkpt>
      <trkpt lat="43.03891" lon="-0.89921">
        <ele>317.34</ele>
        <time>2025-03-03T21:27:12Z</time>
      </trkpt>
      <trkpt lat="43.03884" lon="-0.89947">
        <ele>319.74</ele>
        <time>2025-03-03T21:27:13Z</time>
      </trkpt>
      <trkpt lat="43.03881" lon="-0.89981">
        <ele>320.93</ele>
        <time>2025-03-03T21:27:15Z</time>
      </trkpt>
      <trkpt lat="43.03876" lon="-0.90002">
        <ele>321.1</ele>
        <time>2025-03-03T21:27:17Z</time>
      </trkpt>
      <trkpt lat="43.03867" lon="-0.90024">
        <ele>320.81</ele>
        <time>2025-03-03T21:27:19Z</time>
      </trkpt>
      <trkpt lat="43.03856" lon="-0.9004">
        <ele>320.27</ele>
        <time>2025-03-03T21:27:20Z</time>
      </trkpt>
      <trkpt lat="43.03813" lon="-0.90082">
        <ele>318.15</ele>
        <time>2025-03-03T21:27:22Z</time>
      </trkpt>
      <trkpt lat="43.03807" lon="-0.90092">
        <ele>317.77</ele>
        <time>2025-03-03T21:27:24Z</time>
      </trkpt>
      <trkpt lat="43.03803" lon="-0.90102">
        <ele>318.02</ele>
        <time>2025-03-03T21:27:26Z</time>
      </trkpt>
      <trkpt lat="43.03801" lon="-0.90113">
        <ele>318.03</ele>
        <time>2025-03-03T21:27:27Z</time>
      </trkpt>
      <trkpt lat="43.03802" lon="-0.90151">
        <ele>318.61</ele>
        <time>2025-03-03T21:27:29Z</time>
      </trkpt>
      <trkpt lat="43.03808" lon="-0.90209">
        <ele>320.16</ele>
        <time>2025-03-03T21:27:31Z</time>
      </trkpt>
      <trkpt lat="43.03808" lon="-0.90267">
        <ele>326.6</ele>
        <time>2025-03-03T21:27:33Z</time>
      </trkpt>
      <trkpt lat="43.03805" lon="-0.90296">
        <ele>331.83</ele>
        <time>2025-03-03T21:27:34Z</time>
      </trkpt>
      <trkpt lat="43.03797" lon="-0.90324">
        <ele>335.35</ele>
        <time>2025-03-03T21:27:36Z</time>
      </trkpt>
      <trkpt lat="43.03786" lon="-0.90345">
        <ele>335.44</ele>
        <time>2025-03-03T21:27:38Z</time>
      </trkpt>
      <trkpt lat="43.03774" lon="-0.90361">
        <ele>333.92</ele>
        <time>2025-03-03T21:27:40Z</time>
      </trkpt>
      <trkpt lat="43.0376" lon="-0.90375">
        <ele>334.52</ele>
        <time>2025-03-03T21:27:42Z</time>
      </trkpt>
      <trkpt lat="43.0374" lon="-0.90384">
        <ele>333.54</ele>
        <time>2025-03-03T21:27:43Z</time>
      </trkpt>
      <trkpt lat="43.03727" lon="-0.90387">
        <ele>332.19</ele>
        <time>2025-03-03T21:27:45Z</time>
      </trkpt>
      <trkpt lat="43.03694" lon="-0.90389">
        <ele>328.92</ele>
        <time>2025-03-03T21:27:47Z</time>
      </trkpt>
      <trkpt lat="43.03672" lon="-0.90392">
        <ele>326.48</ele>
        <time>2025-03-03T21:27:49Z</time>
      </trkpt>
      <trkpt lat="43.03595" lon="-0.90412">
        <ele>326.99</ele>
        <time>2025-03-03T21:27:50Z</time>
      </trkpt>
      <trkpt lat="43.0358" lon="-0.9042">
        <ele>328.14</ele>
        <time>2025-03-03T21:27:52Z</time>
      </trkpt>
      <trkpt lat="43.03567" lon="-0.90431">
        <ele>328.82</ele>
        <time>2025-03-03T21:27:54Z</time>
      </trkpt>
      <trkpt lat="43.03553" lon="-0.90451">
        <ele>329.1</ele>
        <time>2025-03-03T21:27:56Z</time>
      </trkpt>
      <trkpt lat="43.03546" lon="-0.90472">
        <ele>329.19</ele>
        <time>2025-03-03T21:27:57Z</time>
      </trkpt>
      <trkpt lat="43.03539" lon="-0.90506">
        <ele>330.58</ele>
        <time>2025-03-03T21:27:59Z</time>
      </trkpt>
      <trkpt lat="43.03536" lon="-0.90565">
        <ele>333.74</ele>
        <time>2025-03-03T21:28:01Z</time>
      </trkpt>
      <trkpt lat="43.03529" lon="-0.90629">
        <ele>334.29</ele>
        <time>2025-03-03T21:28:03Z</time>
      </trkpt>
      <trkpt lat="43.03507" lon="-0.90727">
        <ele>341.21</ele>
        <time>2025-03-03T21:28:04Z</time>
      </trkpt>
      <trkpt lat="43.03491" lon="-0.90776">
        <ele>347.87</ele>
        <time>2025-03-03T21:28:06Z</time>
      </trkpt>
      <trkpt lat="43.03476" lon="-0.908">
        <ele>348.23</ele>
        <time>2025-03-03T21:28:08Z</time>
      </trkpt>
      <trkpt lat="43.03444" lon="-0.90836">
        <ele>347.45</ele>
        <time>2025-03-03T21:28:10Z</time>
      </trkpt>
      <trkpt lat="43.03351" lon="-0.90948">
        <ele>346.14</ele>
        <time>2025-03-03T21:28:11Z</time>
      </trkpt>
      <trkpt lat="43.03332" lon="-0.90974">
        <ele>347.84</ele>
        <time>2025-03-03T21:28:13Z</time>
      </trkpt>
      <trkpt lat="43.03316" lon="-0.91001">
        <ele>354.78</ele>
        <time>2025-03-03T21:28:15Z</time>
      </trkpt>
      <trkpt lat="43.03298" lon="-0.91059">
        <ele>355.99</ele>
        <time>2025-03-03T21:28:17Z</time>
      </trkpt>
      <trkpt lat="43.03284" lon="-0.91113">
        <ele>352.6</ele>
        <time>2025-03-03T21:28:18Z</time>
      </trkpt>
      <trkpt lat="43.03278" lon="-0.91131">
        <ele>353.85</ele>
        <time>2025-03-03T21:28:20Z</time>
      </trkpt>
      <trkpt lat="43.03268" lon="-0.91148">
        <ele>356.52</ele>
        <time>2025-03-03T21:28:22Z</time>
      </trkpt>
      <trkpt lat="43.03239" lon="-0.9118">
        <ele>351.74</ele>
        <time>2025-03-03T21:28:24Z</time>
      </trkpt>
      <trkpt lat="43.03198" lon="-0.91208">
        <ele>348.34</ele>
        <time>2025-03-03T21:28:25Z</time>
      </trkpt>
      <trkpt lat="43.03176" lon="-0.91226">
        <ele>350.08</ele>
        <time>2025-03-03T21:28:27Z</time>
      </trkpt>
      <trkpt lat="43.03169" lon="-0.91234">
        <ele>350.29</ele>
        <time>2025-03-03T21:28:29Z</time>
      </trkpt>
      <trkpt lat="43.03163" lon="-0.91248">
        <ele>351.04</ele>
        <time>2025-03-03T21:28:31Z</time>
      </trkpt>
      <trkpt lat="43.03157" lon="-0.91282">
        <ele>354.7</ele>
        <time>2025-03-03T21:28:33Z</time>
      </trkpt>
      <trkpt lat="43.03147" lon="-0.91318">
        <ele>360.14</ele>
        <time>2025-03-03T21:28:34Z</time>
      </trkpt>
      <trkpt lat="43.03136" lon="-0.91337">
        <ele>361.35</ele>
        <time>2025-03-03T21:28:36Z</time>
      </trkpt>
      <trkpt lat="43.03122" lon="-0.91349">
        <ele>361.01</ele>
        <time>2025-03-03T21:28:38Z</time>
      </trkpt>
      <trkpt lat="43.03091" lon="-0.91364">
        <ele>354.92</ele>
        <time>2025-03-03T21:28:40Z</time>
      </trkpt>
      <trkpt lat="43.03078" lon="-0.91374">
        <ele>353.84</ele>
        <time>2025-03-03T21:28:41Z</time>
      </trkpt>
      <trkpt lat="43.0307" lon="-0.91384">
        <ele>354.27</ele>
        <time>2025-03-03T21:28:43Z</time>
      </trkpt>
      <trkpt lat="43.03061" lon="-0.91404">
        <ele>354.17</ele>
        <time>2025-03-03T21:28:45Z</time>
      </trkpt>
      <trkpt lat="43.03055" lon="-0.91428">
        <ele>354.6</ele>
        <time>2025-03-03T21:28:47Z</time>
      </trkpt>
      <trkpt lat="43.03054" lon="-0.91448">
        <ele>355.64</ele>
        <time>2025-03-03T21:28:48Z</time>
      </trkpt>
      <trkpt lat="43.03059" lon="-0.91486">
        <ele>358.46</ele>
        <time>2025-03-03T21:28:50Z</time>
      </trkpt>
      <trkpt lat="43.0306" lon="-0.91514">
        <ele>360.19</ele>
        <time>2025-03-03T21:28:52Z</time>
      </trkpt>
      <trkpt lat="43.03057" lon="-0.91539">
        <ele>358.4</ele>
        <time>2025-03-03T21:28:54Z</time>
      </trkpt>
      <trkpt lat="43.0305" lon="-0.91561">
        <ele>355.19</ele>
        <time>2025-03-03T21:28:55Z</time>
      </trkpt>
      <trkpt lat="43.03041" lon="-0.91578">
        <ele>355.14</ele>
        <time>2025-03-03T21:28:57Z</time>
      </trkpt>
      <trkpt lat="43.03027" lon="-0.91595">
        <ele>354.7</ele>
        <time>2025-03-03T21:28:59Z</time>
      </trkpt>
      <trkpt lat="43.02993" lon="-0.91621">
        <ele>357.83</ele>
        <time>2025-03-03T21:29:01Z</time>
      </trkpt>
      <trkpt lat="43.02983" lon="-0.91631">
        <ele>357.19</ele>
        <time>2025-03-03T21:29:02Z</time>
      </trkpt>
      <trkpt lat="43.02977" lon="-0.91643">
        <ele>355.06</ele>
        <time>2025-03-03T21:29:04Z</time>
      </trkpt>
      <trkpt lat="43.02971" lon="-0.91662">
        <ele>355.44</ele>
        <time>2025-03-03T21:29:06Z</time>
      </trkpt>
      <trkpt lat="43.02968" lon="-0.91683">
        <ele>356.3</ele>
        <time>2025-03-03T21:29:08Z</time>
      </trkpt>
      <trkpt lat="43.02972" lon="-0.918">
        <ele>357.15</ele>
        <time>2025-03-03T21:29:09Z</time>
      </trkpt>
      <trkpt lat="43.02971" lon="-0.91834">
        <ele>357.83</ele>
        <time>2025-03-03T21:29:11Z</time>
      </trkpt>
      <trkpt lat="43.02959" lon="-0.91919">
        <ele>365.06</ele>
        <time>2025-03-03T21:29:13Z</time>
      </trkpt>
      <trkpt lat="43.02947" lon="-0.91959">
        <ele>367.35</ele>
        <time>2025-03-03T21:29:15Z</time>
      </trkpt>
      <trkpt lat="43.02934" lon="-0.91991">
        <ele>368.76</ele>
        <time>2025-03-03T21:29:16Z</time>
      </trkpt>
      <trkpt lat="43.02899" lon="-0.9205">
        <ele>362.1</ele>
        <time>2025-03-03T21:29:18Z</time>
      </trkpt>
      <trkpt lat="43.02884" lon="-0.92079">
        <ele>361.57</ele>
        <time>2025-03-03T21:29:20Z</time>
      </trkpt>
      <trkpt lat="43.02865" lon="-0.92123">
        <ele>362.12</ele>
        <time>2025-03-03T21:29:22Z</time>
      </trkpt>
      <trkpt lat="43.02847" lon="-0.92146">
        <ele>366.54</ele>
        <time>2025-03-03T21:29:24Z</time>
      </trkpt>
      <trkpt lat="43.02825" lon="-0.92167">
        <ele>368.05</ele>
        <time>2025-03-03T21:29:25Z</time>
      </trkpt>
      <trkpt lat="43.02806" lon="-0.9219">
        <ele>372.1</ele>
        <time>2025-03-03T21:29:27Z</time>
      </trkpt>
      <trkpt lat="43.02767" lon="-0.92249">
        <ele>375.98</ele>
        <time>2025-03-03T21:29:29Z</time>
      </trkpt>
      <trkpt lat="43.02664" lon="-0.92461">
        <ele>371.98</ele>
        <time>2025-03-03T21:29:31Z</time>
      </trkpt>
      <trkpt lat="43.02653" lon="-0.9248">
        <ele>373.27</ele>
        <time>2025-03-03T21:29:32Z</time>
      </trkpt>
      <trkpt lat="43.02644" lon="-0.92492">
        <ele>372.82</ele>
        <time>2025-03-03T21:29:34Z</time>
      </trkpt>
      <trkpt lat="43.02605" lon="-0.9252">
        <ele>376.42</ele>
        <time>2025-03-03T21:29:36Z</time>
      </trkpt>
      <trkpt lat="43.02593" lon="-0.92525">
        <ele>377.01</ele>
        <time>2025-03-03T21:29:38Z</time>
      </trkpt>
      <trkpt lat="43.02581" lon="-0.92526">
        <ele>376.86</ele>
        <time>2025-03-03T21:29:39Z</time>
      </trkpt>
      <trkpt lat="43.02565" lon="-0.92523">
        <ele>377.51</ele>
        <time>2025-03-03T21:29:41Z</time>
      </trkpt>
      <trkpt lat="43.02549" lon="-0.92516">
        <ele>377.42</ele>
        <time>2025-03-03T21:29:43Z</time>
      </trkpt>
      <trkpt lat="43.02537" lon="-0.92505">
        <ele>377.19</ele>
        <time>2025-03-03T21:29:45Z</time>
      </trkpt>
      <trkpt lat="43.02508" lon="-0.92474">
        <ele>377.15</ele>
        <time>2025-03-03T21:29:46Z</time>
      </trkpt>
      <trkpt lat="43.02498" lon="-0.92469">
        <ele>377.95</ele>
        <time>2025-03-03T21:29:48Z</time>
      </trkpt>
      <trkpt lat="43.02486" lon="-0.92469">
        <ele>378.8</ele>
        <time>2025-03-03T21:29:50Z</time>
      </trkpt>
      <trkpt lat="43.02452" lon="-0.9248">
        <ele>380.32</ele>
        <time>2025-03-03T21:29:52Z</time>
      </trkpt>
      <trkpt lat="43.02437" lon="-0.92481">
        <ele>378.9</ele>
        <time>2025-03-03T21:29:53Z</time>
      </trkpt>
      <trkpt lat="43.02425" lon="-0.92479">
        <ele>376.59</ele>
        <time>2025-03-03T21:29:55Z</time>
      </trkpt>
      <trkpt lat="43.02411" lon="-0.92471">
        <ele>373.97</ele>
        <time>2025-03-03T21:29:57Z</time>
      </trkpt>
      <trkpt lat="43.02313" lon="-0.92386">
        <ele>378.1</ele>
        <time>2025-03-03T21:29:59Z</time>
      </trkpt>
      <trkpt lat="43.02281" lon="-0.92364">
        <ele>373.13</ele>
        <time>2025-03-03T21:30:00Z</time>
      </trkpt>
      <trkpt lat="43.02257" lon="-0.92359">
        <ele>374.27</ele>
        <time>2025-03-03T21:30:02Z</time>
      </trkpt>
      <trkpt lat="43.02243" lon="-0.92362">
        <ele>376.03</ele>
        <time>2025-03-03T21:30:04Z</time>
      </trkpt>
      <trkpt lat="43.02232" lon="-0.92368">
        <ele>376.91</ele>
        <time>2025-03-03T21:30:06Z</time>
      </trkpt>
      <trkpt lat="43.02221" lon="-0.92377">
        <ele>376.15</ele>
        <time>2025-03-03T21:30:08Z</time>
      </trkpt>
      <trkpt lat="43.02209" lon="-0.92392">
        <ele>373.85</ele>
        <time>2025-03-03T21:30:09Z</time>
      </trkpt>
      <trkpt lat="43.02157" lon="-0.92472">
        <ele>374.94</ele>
        <time>2025-03-03T21:30:11Z</time>
      </trkpt>
      <trkpt lat="43.02143" lon="-0.92485">
        <ele>375.96</ele>
        <time>2025-03-03T21:30:13Z</time>
      </trkpt>
      <trkpt lat="43.02128" lon="-0.92495">
        <ele>377.7</ele>
        <time>2025-03-03T21:30:15Z</time>
      </trkpt>
      <trkpt lat="43.0211" lon="-0.92503">
        <ele>380.92</ele>
        <time>2025-03-03T21:30:16Z</time>
      </trkpt>
      <trkpt lat="43.0209" lon="-0.9251">
        <ele>382.12</ele>
        <time>2025-03-03T21:30:18Z</time>
      </trkpt>
      <trkpt lat="43.02056" lon="-0.92511">
        <ele>380.78</ele>
        <time>2025-03-03T21:30:20Z</time>
      </trkpt>
      <trkpt lat="43.02041" lon="-0.92506">
        <ele>378.64</ele>
        <time>2025-03-03T21:30:22Z</time>
      </trkpt>
      <trkpt lat="43.01981" lon="-0.9248">
        <ele>376.36</ele>
        <time>2025-03-03T21:30:23Z</time>
      </trkpt>
      <trkpt lat="43.01969" lon="-0.92479">
        <ele>377.13</ele>
        <time>2025-03-03T21:30:25Z</time>
      </trkpt>
      <trkpt lat="43.01957" lon="-0.92483">
        <ele>378.07</ele>
        <time>2025-03-03T21:30:27Z</time>
      </trkpt>
      <trkpt lat="43.01948" lon="-0.92491">
        <ele>378.37</ele>
        <time>2025-03-03T21:30:29Z</time>
      </trkpt>
      <trkpt lat="43.01942" lon="-0.92502">
        <ele>378.81</ele>
        <time>2025-03-03T21:30:30Z</time>
      </trkpt>
      <trkpt lat="43.01938" lon="-0.92515">
        <ele>380.73</ele>
        <time>2025-03-03T21:30:32Z</time>
      </trkpt>
      <trkpt lat="43.01927" lon="-0.92674">
        <ele>393.63</ele>
        <time>2025-03-03T21:30:34Z</time>
      </trkpt>
      <trkpt lat="43.01923" lon="-0.92687">
        <ele>394.51</ele>
        <time>2025-03-03T21:30:36Z</time>
      </trkpt>
      <trkpt lat="43.01918" lon="-0.92696">
        <ele>394.08</ele>
        <time>2025-03-03T21:30:37Z</time>
      </trkpt>
      <trkpt lat="43.01905" lon="-0.92711">
        <ele>394.57</ele>
        <time>2025-03-03T21:30:39Z</time>
      </trkpt>
      <trkpt lat="43.01869" lon="-0.92743">
        <ele>391.52</ele>
        <time>2025-03-03T21:30:41Z</time>
      </trkpt>
      <trkpt lat="43.01859" lon="-0.92748">
        <ele>389.3</ele>
        <time>2025-03-03T21:30:43Z</time>
      </trkpt>
      <trkpt lat="43.01844" lon="-0.92752">
        <ele>386.71</ele>
        <time>2025-03-03T21:30:44Z</time>
      </trkpt>
      <trkpt lat="43.01837" lon="-0.92757">
        <ele>386.33</ele>
        <time>2025-03-03T21:30:46Z</time>
      </trkpt>
      <trkpt lat="43.0183" lon="-0.92769">
        <ele>389.16</ele>
        <time>2025-03-03T21:30:48Z</time>
      </trkpt>
      <trkpt lat="43.01829" lon="-0.92778">
        <ele>391.36</ele>
        <time>2025-03-03T21:30:50Z</time>
      </trkpt>
      <trkpt lat="43.0183" lon="-0.92788">
        <ele>392.92</ele>
        <time>2025-03-03T21:30:51Z</time>
      </trkpt>
      <trkpt lat="43.01855" lon="-0.92832">
        <ele>399.36</ele>
        <time>2025-03-03T21:30:53Z</time>
      </trkpt>
      <trkpt lat="43.01862" lon="-0.92853">
        <ele>399.18</ele>
        <time>2025-03-03T21:30:55Z</time>
      </trkpt>
      <trkpt lat="43.0186" lon="-0.92866">
        <ele>399.9</ele>
        <time>2025-03-03T21:30:57Z</time>
      </trkpt>
      <trkpt lat="43.01854" lon="-0.9288">
        <ele>402.57</ele>
        <time>2025-03-03T21:30:59Z</time>
      </trkpt>
      <trkpt lat="43.01846" lon="-0.92905">
        <ele>404.35</ele>
        <time>2025-03-03T21:31:00Z</time>
      </trkpt>
      <trkpt lat="43.01825" lon="-0.9295">
        <ele>411.09</ele>
        <time>2025-03-03T21:31:02Z</time>
      </trkpt>
      <trkpt lat="43.01817" lon="-0.92983">
        <ele>423.81</ele>
        <time>2025-03-03T21:31:04Z</time>
      </trkpt>
      <trkpt lat="43.01819" lon="-0.92999">
        <ele>426.33</ele>
        <time>2025-03-03T21:31:06Z</time>
      </trkpt>
      <trkpt lat="43.01825" lon="-0.93019">
        <ele>423.97</ele>
        <time>2025-03-03T21:31:07Z</time>
      </trkpt>
      <trkpt lat="43.01832" lon="-0.93033">
        <ele>419.29</ele>
        <time>2025-03-03T21:31:09Z</time>
      </trkpt>
      <trkpt lat="43.01852" lon="-0.93062">
        <ele>411.01</ele>
        <time>2025-03-03T21:31:11Z</time>
      </trkpt>
      <trkpt lat="43.01856" lon="-0.93081">
        <ele>411</ele>
        <time>2025-03-03T21:31:13Z</time>
      </trkpt>
      <trkpt lat="43.01855" lon="-0.93101">
        <ele>415.37</ele>
        <time>2025-03-03T21:31:14Z</time>
      </trkpt>
      <trkpt lat="43.0184" lon="-0.93147">
        <ele>433.41</ele>
        <time>2025-03-03T21:31:16Z</time>
      </trkpt>
      <trkpt lat="43.01839" lon="-0.93169">
        <ele>437.79</ele>
        <time>2025-03-03T21:31:18Z</time>
      </trkpt>
      <trkpt lat="43.01843" lon="-0.93181">
        <ele>437.11</ele>
        <time>2025-03-03T21:31:20Z</time>
      </trkpt>
      <trkpt lat="43.01849" lon="-0.93193">
        <ele>433.45</ele>
        <time>2025-03-03T21:31:21Z</time>
      </trkpt>
      <trkpt lat="43.01886" lon="-0.93244">
        <ele>412.98</ele>
        <time>2025-03-03T21:31:23Z</time>
      </trkpt>
      <trkpt lat="43.0189" lon="-0.93259">
        <ele>413.33</ele>
        <time>2025-03-03T21:31:25Z</time>
      </trkpt>
      <trkpt lat="43.01891" lon="-0.93271">
        <ele>416.29</ele>
        <time>2025-03-03T21:31:27Z</time>
      </trkpt>
      <trkpt lat="43.0189" lon="-0.93285">
        <ele>419.3</ele>
        <time>2025-03-03T21:31:28Z</time>
      </trkpt>
      <trkpt lat="43.01886" lon="-0.93298">
        <ele>423.26</ele>
        <time>2025-03-03T21:31:30Z</time>
      </trkpt>
      <trkpt lat="43.01863" lon="-0.93358">
        <ele>446.94</ele>
        <time>2025-03-03T21:31:32Z</time>
      </trkpt>
      <trkpt lat="43.01856" lon="-0.93388">
        <ele>450.6</ele>
        <time>2025-03-03T21:31:34Z</time>
      </trkpt>
      <trkpt lat="43.0185" lon="-0.93446">
        <ele>451.9</ele>
        <time>2025-03-03T21:31:35Z</time>
      </trkpt>
      <trkpt lat="43.01838" lon="-0.93593">
        <ele>458.38</ele>
        <time>2025-03-03T21:31:37Z</time>
      </trkpt>
      <trkpt lat="43.01841" lon="-0.93619">
        <ele>456.93</ele>
        <time>2025-03-03T21:31:39Z</time>
      </trkpt>
      <trkpt lat="43.01858" lon="-0.93688">
        <ele>455.64</ele>
        <time>2025-03-03T21:31:41Z</time>
      </trkpt>
      <trkpt lat="43.01859" lon="-0.937">
        <ele>456.68</ele>
        <time>2025-03-03T21:31:42Z</time>
      </trkpt>
      <trkpt lat="43.01856" lon="-0.93713">
        <ele>459.51</ele>
        <time>2025-03-03T21:31:44Z</time>
      </trkpt>
      <trkpt lat="43.01841" lon="-0.93736">
        <ele>471.56</ele>
        <time>2025-03-03T21:31:46Z</time>
      </trkpt>
      <trkpt lat="43.01836" lon="-0.93748">
        <ele>476.29</ele>
        <time>2025-03-03T21:31:48Z</time>
      </trkpt>
      <trkpt lat="43.01834" lon="-0.93758">
        <ele>479.91</ele>
        <time>2025-03-03T21:31:50Z</time>
      </trkpt>
      <trkpt lat="43.01836" lon="-0.93768">
        <ele>481.8</ele>
        <time>2025-03-03T21:31:51Z</time>
      </trkpt>
      <trkpt lat="43.01841" lon="-0.93774">
        <ele>482</ele>
        <time>2025-03-03T21:31:53Z</time>
      </trkpt>
      <trkpt lat="43.01848" lon="-0.93778">
        <ele>480.87</ele>
        <time>2025-03-03T21:31:55Z</time>
      </trkpt>
      <trkpt lat="43.01856" lon="-0.93781">
        <ele>480.13</ele>
        <time>2025-03-03T21:31:57Z</time>
      </trkpt>
      <trkpt lat="43.01917" lon="-0.93793">
        <ele>469.58</ele>
        <time>2025-03-03T21:31:58Z</time>
      </trkpt>
      <trkpt lat="43.01925" lon="-0.93799">
        <ele>469.46</ele>
        <time>2025-03-03T21:32:00Z</time>
      </trkpt>
      <trkpt lat="43.01937" lon="-0.93815">
        <ele>469.11</ele>
        <time>2025-03-03T21:32:02Z</time>
      </trkpt>
      <trkpt lat="43.01941" lon="-0.9383">
        <ele>470.29</ele>
        <time>2025-03-03T21:32:04Z</time>
      </trkpt>
      <trkpt lat="43.0195" lon="-0.93903">
        <ele>482.49</ele>
        <time>2025-03-03T21:32:05Z</time>
      </trkpt>
      <trkpt lat="43.0195" lon="-0.93993">
        <ele>486.38</ele>
        <time>2025-03-03T21:32:07Z</time>
      </trkpt>
      <trkpt lat="43.01948" lon="-0.94009">
        <ele>487.44</ele>
        <time>2025-03-03T21:32:09Z</time>
      </trkpt>
      <trkpt lat="43.01944" lon="-0.94025">
        <ele>490.65</ele>
        <time>2025-03-03T21:32:11Z</time>
      </trkpt>
      <trkpt lat="43.01937" lon="-0.94036">
        <ele>494.85</ele>
        <time>2025-03-03T21:32:12Z</time>
      </trkpt>
      <trkpt lat="43.01897" lon="-0.9409">
        <ele>500.86</ele>
        <time>2025-03-03T21:32:14Z</time>
      </trkpt>
      <trkpt lat="43.01891" lon="-0.941">
        <ele>498.88</ele>
        <time>2025-03-03T21:32:16Z</time>
      </trkpt>
      <trkpt lat="43.01883" lon="-0.94119">
        <ele>497.95</ele>
        <time>2025-03-03T21:32:18Z</time>
      </trkpt>
      <trkpt lat="43.01881" lon="-0.94131">
        <ele>499.3</ele>
        <time>2025-03-03T21:32:19Z</time>
      </trkpt>
      <trkpt lat="43.01881" lon="-0.94141">
        <ele>499.89</ele>
        <time>2025-03-03T21:32:21Z</time>
      </trkpt>
      <trkpt lat="43.01884" lon="-0.94153">
        <ele>501.07</ele>
        <time>2025-03-03T21:32:23Z</time>
      </trkpt>
      <trkpt lat="43.01898" lon="-0.94185">
        <ele>502.7</ele>
        <time>2025-03-03T21:32:25Z</time>
      </trkpt>
      <trkpt lat="43.019" lon="-0.94196">
        <ele>503.49</ele>
        <time>2025-03-03T21:32:26Z</time>
      </trkpt>
      <trkpt lat="43.019" lon="-0.94208">
        <ele>504.82</ele>
        <time>2025-03-03T21:32:28Z</time>
      </trkpt>
      <trkpt lat="43.01897" lon="-0.94224">
        <ele>507.42</ele>
        <time>2025-03-03T21:32:30Z</time>
      </trkpt>
      <trkpt lat="43.01889" lon="-0.9425">
        <ele>510.98</ele>
        <time>2025-03-03T21:32:32Z</time>
      </trkpt>
      <trkpt lat="43.01886" lon="-0.9427">
        <ele>512.53</ele>
        <time>2025-03-03T21:32:34Z</time>
      </trkpt>
      <trkpt lat="43.01892" lon="-0.94356">
        <ele>520.22</ele>
        <time>2025-03-03T21:32:35Z</time>
      </trkpt>
      <trkpt lat="43.01895" lon="-0.94372">
        <ele>522.67</ele>
        <time>2025-03-03T21:32:37Z</time>
      </trkpt>
      <trkpt lat="43.01901" lon="-0.94384">
        <ele>523.6</ele>
        <time>2025-03-03T21:32:39Z</time>
      </trkpt>
      <trkpt lat="43.01908" lon="-0.94394">
        <ele>523.48</ele>
        <time>2025-03-03T21:32:41Z</time>
      </trkpt>
      <trkpt lat="43.01931" lon="-0.94411">
        <ele>521.73</ele>
        <time>2025-03-03T21:32:42Z</time>
      </trkpt>
      <trkpt lat="43.01937" lon="-0.94424">
        <ele>521.94</ele>
        <time>2025-03-03T21:32:44Z</time>
      </trkpt>
      <trkpt lat="43.01939" lon="-0.94439">
        <ele>522.33</ele>
        <time>2025-03-03T21:32:46Z</time>
      </trkpt>
      <trkpt lat="43.01939" lon="-0.94456">
        <ele>524.24</ele>
        <time>2025-03-03T21:32:48Z</time>
      </trkpt>
      <trkpt lat="43.01935" lon="-0.94475">
        <ele>527.37</ele>
        <time>2025-03-03T21:32:49Z</time>
      </trkpt>
      <trkpt lat="43.01928" lon="-0.94493">
        <ele>530.09</ele>
        <time>2025-03-03T21:32:51Z</time>
      </trkpt>
      <trkpt lat="43.01922" lon="-0.94501">
        <ele>532.23</ele>
        <time>2025-03-03T21:32:53Z</time>
      </trkpt>
      <trkpt lat="43.01914" lon="-0.94506">
        <ele>534.57</ele>
        <time>2025-03-03T21:32:55Z</time>
      </trkpt>
      <trkpt lat="43.0188" lon="-0.94518">
        <ele>541.8</ele>
        <time>2025-03-03T21:32:56Z</time>
      </trkpt>
      <trkpt lat="43.01867" lon="-0.94524">
        <ele>543.92</ele>
        <time>2025-03-03T21:32:58Z</time>
      </trkpt>
      <trkpt lat="43.01859" lon="-0.94534">
        <ele>545.67</ele>
        <time>2025-03-03T21:33:00Z</time>
      </trkpt>
      <trkpt lat="43.01853" lon="-0.94546">
        <ele>547.11</ele>
        <time>2025-03-03T21:33:02Z</time>
      </trkpt>
      <trkpt lat="43.01851" lon="-0.94561">
        <ele>548.58</ele>
        <time>2025-03-03T21:33:03Z</time>
      </trkpt>
      <trkpt lat="43.01853" lon="-0.94577">
        <ele>550.85</ele>
        <time>2025-03-03T21:33:05Z</time>
      </trkpt>
      <trkpt lat="43.01872" lon="-0.94676">
        <ele>560.28</ele>
        <time>2025-03-03T21:33:07Z</time>
      </trkpt>
      <trkpt lat="43.0187" lon="-0.94688">
        <ele>560.91</ele>
        <time>2025-03-03T21:33:09Z</time>
      </trkpt>
      <trkpt lat="43.01845" lon="-0.94757">
        <ele>567.2</ele>
        <time>2025-03-03T21:33:10Z</time>
      </trkpt>
      <trkpt lat="43.01818" lon="-0.94865">
        <ele>581.79</ele>
        <time>2025-03-03T21:33:12Z</time>
      </trkpt>
      <trkpt lat="43.01816" lon="-0.94877">
        <ele>583.18</ele>
        <time>2025-03-03T21:33:14Z</time>
      </trkpt>
      <trkpt lat="43.01815" lon="-0.94895">
        <ele>584.42</ele>
        <time>2025-03-03T21:33:16Z</time>
      </trkpt>
      <trkpt lat="43.0182" lon="-0.94929">
        <ele>584.84</ele>
        <time>2025-03-03T21:33:17Z</time>
      </trkpt>
      <trkpt lat="43.01827" lon="-0.94962">
        <ele>585.93</ele>
        <time>2025-03-03T21:33:19Z</time>
      </trkpt>
      <trkpt lat="43.01843" lon="-0.95013">
        <ele>589.93</ele>
        <time>2025-03-03T21:33:21Z</time>
      </trkpt>
      <trkpt lat="43.0185" lon="-0.95045">
        <ele>591.53</ele>
        <time>2025-03-03T21:33:23Z</time>
      </trkpt>
      <trkpt lat="43.01851" lon="-0.95059">
        <ele>592.49</ele>
        <time>2025-03-03T21:33:25Z</time>
      </trkpt>
      <trkpt lat="43.01848" lon="-0.95075">
        <ele>594.43</ele>
        <time>2025-03-03T21:33:26Z</time>
      </trkpt>
      <trkpt lat="43.01842" lon="-0.95091">
        <ele>596.12</ele>
        <time>2025-03-03T21:33:28Z</time>
      </trkpt>
      <trkpt lat="43.01833" lon="-0.95101">
        <ele>596.95</ele>
        <time>2025-03-03T21:33:30Z</time>
      </trkpt>
      <trkpt lat="43.01813" lon="-0.95109">
        <ele>599.26</ele>
        <time>2025-03-03T21:33:32Z</time>
      </trkpt>
      <trkpt lat="43.01785" lon="-0.95115">
        <ele>601.82</ele>
        <time>2025-03-03T21:33:33Z</time>
      </trkpt>
      <trkpt lat="43.01775" lon="-0.95122">
        <ele>603</ele>
        <time>2025-03-03T21:33:35Z</time>
      </trkpt>
      <trkpt lat="43.01762" lon="-0.95139">
        <ele>605.19</ele>
        <time>2025-03-03T21:33:37Z</time>
      </trkpt>
      <trkpt lat="43.01758" lon="-0.95151">
        <ele>607.19</ele>
        <time>2025-03-03T21:33:39Z</time>
      </trkpt>
      <trkpt lat="43.01755" lon="-0.95169">
        <ele>610.17</ele>
        <time>2025-03-03T21:33:40Z</time>
      </trkpt>
      <trkpt lat="43.01757" lon="-0.95183">
        <ele>612.84</ele>
        <time>2025-03-03T21:33:42Z</time>
      </trkpt>
      <trkpt lat="43.01802" lon="-0.95319">
        <ele>627.89</ele>
        <time>2025-03-03T21:33:44Z</time>
      </trkpt>
      <trkpt lat="43.01807" lon="-0.95338">
        <ele>627.59</ele>
        <time>2025-03-03T21:33:46Z</time>
      </trkpt>
      <trkpt lat="43.01808" lon="-0.95358">
        <ele>626.8</ele>
        <time>2025-03-03T21:33:47Z</time>
      </trkpt>
      <trkpt lat="43.01807" lon="-0.95367">
        <ele>626.71</ele>
        <time>2025-03-03T21:33:49Z</time>
      </trkpt>
      <trkpt lat="43.01804" lon="-0.9538">
        <ele>627.22</ele>
        <time>2025-03-03T21:33:51Z</time>
      </trkpt>
      <trkpt lat="43.01799" lon="-0.95393">
        <ele>628.18</ele>
        <time>2025-03-03T21:33:53Z</time>
      </trkpt>
      <trkpt lat="43.01767" lon="-0.95432">
        <ele>632.39</ele>
        <time>2025-03-03T21:33:54Z</time>
      </trkpt>
      <trkpt lat="43.01763" lon="-0.95443">
        <ele>632.74</ele>
        <time>2025-03-03T21:33:56Z</time>
      </trkpt>
      <trkpt lat="43.01762" lon="-0.95463">
        <ele>633.12</ele>
        <time>2025-03-03T21:33:58Z</time>
      </trkpt>
      <trkpt lat="43.01763" lon="-0.95468">
        <ele>633.02</ele>
        <time>2025-03-03T21:34:00Z</time>
      </trkpt>
      <trkpt lat="43.01762" lon="-0.95476">
        <ele>633.73</ele>
        <time>2025-03-03T21:35:03Z</time>
      </trkpt>
      <trkpt lat="43.01763" lon="-0.95502">
        <ele>636.38</ele>
        <time>2025-03-03T21:36:05Z</time>
      </trkpt>
      <trkpt lat="43.01765" lon="-0.95513">
        <ele>637.67</ele>
        <time>2025-03-03T21:37:08Z</time>
      </trkpt>
      <trkpt lat="43.01765" lon="-0.95533">
        <ele>640.25</ele>
        <time>2025-03-03T21:38:11Z</time>
      </trkpt>
      <trkpt lat="43.01767" lon="-0.9555">
        <ele>641.1</ele>
        <time>2025-03-03T21:39:14Z</time>
      </trkpt>
      <trkpt lat="43.01785" lon="-0.95546">
        <ele>639.11</ele>
        <time>2025-03-03T21:39:16Z</time>
      </trkpt>
      <trkpt lat="43.01793" lon="-0.95549">
        <ele>639.26</ele>
        <time>2025-03-03T21:39:18Z</time>
      </trkpt>
      <trkpt lat="43.01799" lon="-0.95557">
        <ele>640.09</ele>
        <time>2025-03-03T21:39:20Z</time>
      </trkpt>
      <trkpt lat="43.01807" lon="-0.95556">
        <ele>640.01</ele>
        <time>2025-03-03T21:39:23Z</time>
      </trkpt>
      <trkpt lat="43.01827" lon="-0.95567">
        <ele>640.04</ele>
        <time>2025-03-03T21:39:25Z</time>
      </trkpt>
      <trkpt lat="43.0183" lon="-0.95575">
        <ele>640.53</ele>
        <time>2025-03-03T21:39:27Z</time>
      </trkpt>
      <trkpt lat="43.01829" lon="-0.95585">
        <ele>641.21</ele>
        <time>2025-03-03T21:39:29Z</time>
      </trkpt>
      <trkpt lat="43.01836" lon="-0.95606">
        <ele>641.5</ele>
        <time>2025-03-03T21:39:31Z</time>
      </trkpt>
      <trkpt lat="43.01859" lon="-0.95608">
        <ele>639.15</ele>
        <time>2025-03-03T21:39:35Z</time>
      </trkpt>
      <trkpt lat="43.01864" lon="-0.95604">
        <ele>638.62</ele>
        <time>2025-03-03T21:39:38Z</time>
      </trkpt>
      <trkpt lat="43.01869" lon="-0.95612">
        <ele>638.76</ele>
        <time>2025-03-03T21:39:39Z</time>
      </trkpt>
      <trkpt lat="43.0187" lon="-0.9562">
        <ele>639.11</ele>
        <time>2025-03-03T21:39:42Z</time>
      </trkpt>
      <trkpt lat="43.01881" lon="-0.95651">
        <ele>638.41</ele>
        <time>2025-03-03T21:39:45Z</time>
      </trkpt>
      <trkpt lat="43.01897" lon="-0.95646">
        <ele>637.07</ele>
        <time>2025-03-03T21:39:48Z</time>
      </trkpt>
      <trkpt lat="43.01894" lon="-0.95677">
        <ele>635.35</ele>
        <time>2025-03-03T21:39:51Z</time>
      </trkpt>
      <trkpt lat="43.01895" lon="-0.95684">
        <ele>634.4</ele>
        <time>2025-03-03T21:39:53Z</time>
      </trkpt>
      <trkpt lat="43.019" lon="-0.95699">
        <ele>633.31</ele>
        <time>2025-03-03T21:39:55Z</time>
        <extensions>
          <visugpx:TrkExtension xmlns:visugpx="https://www.visugpx.com/editgpx/">
            <visugpx:node>1</visugpx:node>
            </visugpx:TrkExtension>
        </extensions>
      </trkpt>
    </trkseg>
  </trk>
</gpx>